<?xml version="1.0" encoding="UTF-8" standalone="no" ?>
<gpx xmlns="http://www.topografix.com/GPX/1/1" xmlns:xsi="http://www.w3.org/2001/XMLSchema-instance" xsi:schemaLocation="http://www.topografix.com/GPX/1/1 http://www.topografix.com/GPX/1/1/gpx.xsd" version="1.1" creator="VisuGPX - https://www.visugpx.com">
  <metadata>
    <name>orange thorens</name>
    <desc><![CDATA[très très sympa]]></desc>
  </metadata>
  <wpt lat="46.07313" lon="6.39189">
    <ele>505</ele>
  </wpt>
  <wpt lat="45.99656" lon="6.24949">
    <ele>737</ele>
  </wpt>
  <trk>
    <name><![CDATA[orange thorens_1]]></name>
    <trkseg>
      <trkpt lat="46.07313" lon="6.39189">
        <ele>505</ele>
        <time>2013-07-27T08:21:40Z</time>
      </trkpt>
      <trkpt lat="46.07318" lon="6.39206">
        <ele>500</ele>
        <time>2013-07-27T08:21:42Z</time>
      </trkpt>
      <trkpt lat="46.07322" lon="6.3922">
        <ele>493</ele>
        <time>2013-07-27T08:21:45Z</time>
      </trkpt>
      <trkpt lat="46.07322" lon="6.39233">
        <ele>486</ele>
        <time>2013-07-27T08:21:59Z</time>
      </trkpt>
      <trkpt lat="46.07313" lon="6.3923">
        <ele>477</ele>
        <time>2013-07-27T08:23:58Z</time>
      </trkpt>
      <trkpt lat="46.07317" lon="6.39243">
        <ele>463</ele>
        <time>2013-07-27T08:24:25Z</time>
      </trkpt>
      <trkpt lat="46.07313" lon="6.39231">
        <ele>463</ele>
        <time>2013-07-27T08:26:08Z</time>
      </trkpt>
      <trkpt lat="46.07307" lon="6.39217">
        <ele>463</ele>
        <time>2013-07-27T08:27:13Z</time>
      </trkpt>
      <trkpt lat="46.07302" lon="6.39205">
        <ele>463</ele>
        <time>2013-07-27T08:27:31Z</time>
      </trkpt>
      <trkpt lat="46.073" lon="6.39183">
        <ele>463</ele>
        <time>2013-07-27T08:27:33Z</time>
      </trkpt>
      <trkpt lat="46.073" lon="6.39168">
        <ele>463</ele>
        <time>2013-07-27T08:27:34Z</time>
      </trkpt>
      <trkpt lat="46.07299" lon="6.39153">
        <ele>463</ele>
        <time>2013-07-27T08:27:35Z</time>
      </trkpt>
      <trkpt lat="46.07298" lon="6.39138">
        <ele>463</ele>
        <time>2013-07-27T08:27:36Z</time>
      </trkpt>
      <trkpt lat="46.07296" lon="6.39121">
        <ele>463</ele>
        <time>2013-07-27T08:27:37Z</time>
      </trkpt>
      <trkpt lat="46.07295" lon="6.39104">
        <ele>463</ele>
        <time>2013-07-27T08:27:38Z</time>
      </trkpt>
      <trkpt lat="46.07294" lon="6.39086">
        <ele>463</ele>
        <time>2013-07-27T08:27:39Z</time>
      </trkpt>
      <trkpt lat="46.07293" lon="6.39066">
        <ele>463</ele>
        <time>2013-07-27T08:27:40Z</time>
      </trkpt>
      <trkpt lat="46.07291" lon="6.39046">
        <ele>463</ele>
        <time>2013-07-27T08:27:41Z</time>
      </trkpt>
      <trkpt lat="46.0729" lon="6.39027">
        <ele>463</ele>
        <time>2013-07-27T08:27:42Z</time>
      </trkpt>
      <trkpt lat="46.07288" lon="6.39006">
        <ele>463</ele>
        <time>2013-07-27T08:27:43Z</time>
      </trkpt>
      <trkpt lat="46.07287" lon="6.38984">
        <ele>463</ele>
        <time>2013-07-27T08:27:44Z</time>
      </trkpt>
      <trkpt lat="46.07286" lon="6.38964">
        <ele>463</ele>
        <time>2013-07-27T08:27:45Z</time>
      </trkpt>
      <trkpt lat="46.07285" lon="6.38945">
        <ele>463</ele>
        <time>2013-07-27T08:27:46Z</time>
      </trkpt>
      <trkpt lat="46.07284" lon="6.38927">
        <ele>463</ele>
        <time>2013-07-27T08:27:47Z</time>
      </trkpt>
      <trkpt lat="46.07283" lon="6.38912">
        <ele>463</ele>
        <time>2013-07-27T08:27:48Z</time>
      </trkpt>
      <trkpt lat="46.07282" lon="6.38897">
        <ele>463</ele>
        <time>2013-07-27T08:27:49Z</time>
      </trkpt>
      <trkpt lat="46.07281" lon="6.38884">
        <ele>463</ele>
        <time>2013-07-27T08:27:50Z</time>
      </trkpt>
      <trkpt lat="46.0728" lon="6.38861">
        <ele>463</ele>
        <time>2013-07-27T08:27:52Z</time>
      </trkpt>
      <trkpt lat="46.0728" lon="6.3884">
        <ele>463</ele>
        <time>2013-07-27T08:27:54Z</time>
      </trkpt>
      <trkpt lat="46.07277" lon="6.38813">
        <ele>463</ele>
        <time>2013-07-27T08:27:56Z</time>
      </trkpt>
      <trkpt lat="46.07276" lon="6.38796">
        <ele>463</ele>
        <time>2013-07-27T08:27:57Z</time>
      </trkpt>
      <trkpt lat="46.07275" lon="6.38779">
        <ele>463</ele>
        <time>2013-07-27T08:27:58Z</time>
      </trkpt>
      <trkpt lat="46.07273" lon="6.38761">
        <ele>463</ele>
        <time>2013-07-27T08:27:59Z</time>
      </trkpt>
      <trkpt lat="46.07271" lon="6.38746">
        <ele>463</ele>
        <time>2013-07-27T08:28:00Z</time>
      </trkpt>
      <trkpt lat="46.07268" lon="6.38725">
        <ele>463</ele>
        <time>2013-07-27T08:28:02Z</time>
      </trkpt>
      <trkpt lat="46.07256" lon="6.3871">
        <ele>463</ele>
        <time>2013-07-27T08:28:04Z</time>
      </trkpt>
      <trkpt lat="46.07245" lon="6.38705">
        <ele>463</ele>
        <time>2013-07-27T08:28:05Z</time>
      </trkpt>
      <trkpt lat="46.07234" lon="6.38698">
        <ele>463</ele>
        <time>2013-07-27T08:28:06Z</time>
      </trkpt>
      <trkpt lat="46.07223" lon="6.38691">
        <ele>463</ele>
        <time>2013-07-27T08:28:07Z</time>
      </trkpt>
      <trkpt lat="46.0721" lon="6.38685">
        <ele>463</ele>
        <time>2013-07-27T08:28:08Z</time>
      </trkpt>
      <trkpt lat="46.07198" lon="6.38678">
        <ele>463</ele>
        <time>2013-07-27T08:28:09Z</time>
      </trkpt>
      <trkpt lat="46.07185" lon="6.38672">
        <ele>463</ele>
        <time>2013-07-27T08:28:10Z</time>
      </trkpt>
      <trkpt lat="46.07173" lon="6.38666">
        <ele>463</ele>
        <time>2013-07-27T08:28:11Z</time>
      </trkpt>
      <trkpt lat="46.07162" lon="6.38663">
        <ele>463</ele>
        <time>2013-07-27T08:28:12Z</time>
      </trkpt>
      <trkpt lat="46.07152" lon="6.38658">
        <ele>463</ele>
        <time>2013-07-27T08:28:13Z</time>
      </trkpt>
      <trkpt lat="46.07142" lon="6.38653">
        <ele>463</ele>
        <time>2013-07-27T08:28:14Z</time>
      </trkpt>
      <trkpt lat="46.07131" lon="6.38647">
        <ele>463</ele>
        <time>2013-07-27T08:28:15Z</time>
      </trkpt>
      <trkpt lat="46.07122" lon="6.38641">
        <ele>463</ele>
        <time>2013-07-27T08:28:16Z</time>
      </trkpt>
      <trkpt lat="46.07113" lon="6.38634">
        <ele>463</ele>
        <time>2013-07-27T08:28:17Z</time>
      </trkpt>
      <trkpt lat="46.07105" lon="6.38628">
        <ele>463</ele>
        <time>2013-07-27T08:28:18Z</time>
      </trkpt>
      <trkpt lat="46.07096" lon="6.3862">
        <ele>463</ele>
        <time>2013-07-27T08:28:19Z</time>
      </trkpt>
      <trkpt lat="46.07089" lon="6.38611">
        <ele>463</ele>
        <time>2013-07-27T08:28:20Z</time>
      </trkpt>
      <trkpt lat="46.07081" lon="6.38602">
        <ele>463</ele>
        <time>2013-07-27T08:28:21Z</time>
      </trkpt>
      <trkpt lat="46.07073" lon="6.38591">
        <ele>463</ele>
        <time>2013-07-27T08:28:22Z</time>
      </trkpt>
      <trkpt lat="46.07066" lon="6.38579">
        <ele>463</ele>
        <time>2013-07-27T08:28:23Z</time>
      </trkpt>
      <trkpt lat="46.07051" lon="6.38555">
        <ele>463</ele>
        <time>2013-07-27T08:28:25Z</time>
      </trkpt>
      <trkpt lat="46.0704" lon="6.38538">
        <ele>463</ele>
        <time>2013-07-27T08:28:26Z</time>
      </trkpt>
      <trkpt lat="46.0703" lon="6.38518">
        <ele>463</ele>
        <time>2013-07-27T08:28:27Z</time>
      </trkpt>
      <trkpt lat="46.0702" lon="6.38498">
        <ele>463</ele>
        <time>2013-07-27T08:28:28Z</time>
      </trkpt>
      <trkpt lat="46.07011" lon="6.38479">
        <ele>463</ele>
        <time>2013-07-27T08:28:29Z</time>
      </trkpt>
      <trkpt lat="46.07001" lon="6.38462">
        <ele>463</ele>
        <time>2013-07-27T08:28:30Z</time>
      </trkpt>
      <trkpt lat="46.0699" lon="6.38448">
        <ele>463</ele>
        <time>2013-07-27T08:28:31Z</time>
      </trkpt>
      <trkpt lat="46.06978" lon="6.38436">
        <ele>463</ele>
        <time>2013-07-27T08:28:32Z</time>
      </trkpt>
      <trkpt lat="46.06965" lon="6.38427">
        <ele>463</ele>
        <time>2013-07-27T08:28:33Z</time>
      </trkpt>
      <trkpt lat="46.06951" lon="6.38421">
        <ele>463</ele>
        <time>2013-07-27T08:28:34Z</time>
      </trkpt>
      <trkpt lat="46.06937" lon="6.38417">
        <ele>463</ele>
        <time>2013-07-27T08:28:35Z</time>
      </trkpt>
      <trkpt lat="46.06924" lon="6.38412">
        <ele>463</ele>
        <time>2013-07-27T08:28:36Z</time>
      </trkpt>
      <trkpt lat="46.06912" lon="6.38408">
        <ele>463</ele>
        <time>2013-07-27T08:28:37Z</time>
      </trkpt>
      <trkpt lat="46.06901" lon="6.38404">
        <ele>463</ele>
        <time>2013-07-27T08:28:38Z</time>
      </trkpt>
      <trkpt lat="46.06892" lon="6.384">
        <ele>463</ele>
        <time>2013-07-27T08:28:39Z</time>
      </trkpt>
      <trkpt lat="46.06883" lon="6.38397">
        <ele>468</ele>
        <time>2013-07-27T08:28:40Z</time>
      </trkpt>
      <trkpt lat="46.06867" lon="6.3839">
        <ele>468</ele>
        <time>2013-07-27T08:28:42Z</time>
      </trkpt>
      <trkpt lat="46.0685" lon="6.38383">
        <ele>468</ele>
        <time>2013-07-27T08:28:44Z</time>
      </trkpt>
      <trkpt lat="46.06836" lon="6.38379">
        <ele>468</ele>
        <time>2013-07-27T08:28:46Z</time>
      </trkpt>
      <trkpt lat="46.06826" lon="6.38371">
        <ele>468</ele>
        <time>2013-07-27T08:28:49Z</time>
      </trkpt>
      <trkpt lat="46.06823" lon="6.38355">
        <ele>468</ele>
        <time>2013-07-27T08:28:52Z</time>
      </trkpt>
      <trkpt lat="46.06824" lon="6.38334">
        <ele>468</ele>
        <time>2013-07-27T08:28:54Z</time>
      </trkpt>
      <trkpt lat="46.06826" lon="6.3832">
        <ele>468</ele>
        <time>2013-07-27T08:28:55Z</time>
      </trkpt>
      <trkpt lat="46.06826" lon="6.38307">
        <ele>468</ele>
        <time>2013-07-27T08:28:56Z</time>
      </trkpt>
      <trkpt lat="46.06827" lon="6.38293">
        <ele>468</ele>
        <time>2013-07-27T08:28:57Z</time>
      </trkpt>
      <trkpt lat="46.06828" lon="6.38278">
        <ele>468</ele>
        <time>2013-07-27T08:28:58Z</time>
      </trkpt>
      <trkpt lat="46.06828" lon="6.38264">
        <ele>468</ele>
        <time>2013-07-27T08:28:59Z</time>
      </trkpt>
      <trkpt lat="46.06828" lon="6.3825">
        <ele>468</ele>
        <time>2013-07-27T08:29:00Z</time>
      </trkpt>
      <trkpt lat="46.06826" lon="6.38225">
        <ele>468</ele>
        <time>2013-07-27T08:29:02Z</time>
      </trkpt>
      <trkpt lat="46.06824" lon="6.38211">
        <ele>468</ele>
        <time>2013-07-27T08:29:03Z</time>
      </trkpt>
      <trkpt lat="46.06822" lon="6.38195">
        <ele>468</ele>
        <time>2013-07-27T08:29:04Z</time>
      </trkpt>
      <trkpt lat="46.06819" lon="6.38178">
        <ele>468</ele>
        <time>2013-07-27T08:29:05Z</time>
      </trkpt>
      <trkpt lat="46.06816" lon="6.38159">
        <ele>468</ele>
        <time>2013-07-27T08:29:06Z</time>
      </trkpt>
      <trkpt lat="46.06813" lon="6.38139">
        <ele>468</ele>
        <time>2013-07-27T08:29:07Z</time>
      </trkpt>
      <trkpt lat="46.06811" lon="6.38119">
        <ele>468</ele>
        <time>2013-07-27T08:29:08Z</time>
      </trkpt>
      <trkpt lat="46.06809" lon="6.38098">
        <ele>474</ele>
        <time>2013-07-27T08:29:09Z</time>
      </trkpt>
      <trkpt lat="46.06807" lon="6.38077">
        <ele>474</ele>
        <time>2013-07-27T08:29:10Z</time>
      </trkpt>
      <trkpt lat="46.06806" lon="6.38055">
        <ele>474</ele>
        <time>2013-07-27T08:29:11Z</time>
      </trkpt>
      <trkpt lat="46.06805" lon="6.38034">
        <ele>474</ele>
        <time>2013-07-27T08:29:12Z</time>
      </trkpt>
      <trkpt lat="46.06804" lon="6.38012">
        <ele>474</ele>
        <time>2013-07-27T08:29:13Z</time>
      </trkpt>
      <trkpt lat="46.06804" lon="6.37991">
        <ele>474</ele>
        <time>2013-07-27T08:29:14Z</time>
      </trkpt>
      <trkpt lat="46.06803" lon="6.37969">
        <ele>474</ele>
        <time>2013-07-27T08:29:15Z</time>
      </trkpt>
      <trkpt lat="46.06802" lon="6.37948">
        <ele>474</ele>
        <time>2013-07-27T08:29:16Z</time>
      </trkpt>
      <trkpt lat="46.06801" lon="6.37928">
        <ele>474</ele>
        <time>2013-07-27T08:29:17Z</time>
      </trkpt>
      <trkpt lat="46.06801" lon="6.37907">
        <ele>474</ele>
        <time>2013-07-27T08:29:18Z</time>
      </trkpt>
      <trkpt lat="46.06802" lon="6.37888">
        <ele>474</ele>
        <time>2013-07-27T08:29:19Z</time>
      </trkpt>
      <trkpt lat="46.06803" lon="6.37869">
        <ele>474</ele>
        <time>2013-07-27T08:29:20Z</time>
      </trkpt>
      <trkpt lat="46.06804" lon="6.37851">
        <ele>474</ele>
        <time>2013-07-27T08:29:21Z</time>
      </trkpt>
      <trkpt lat="46.06806" lon="6.37832">
        <ele>474</ele>
        <time>2013-07-27T08:29:22Z</time>
      </trkpt>
      <trkpt lat="46.06808" lon="6.37815">
        <ele>474</ele>
        <time>2013-07-27T08:29:23Z</time>
      </trkpt>
      <trkpt lat="46.0681" lon="6.37798">
        <ele>474</ele>
        <time>2013-07-27T08:29:24Z</time>
      </trkpt>
      <trkpt lat="46.06813" lon="6.37781">
        <ele>474</ele>
        <time>2013-07-27T08:29:25Z</time>
      </trkpt>
      <trkpt lat="46.06814" lon="6.37764">
        <ele>474</ele>
        <time>2013-07-27T08:29:26Z</time>
      </trkpt>
      <trkpt lat="46.06814" lon="6.37748">
        <ele>474</ele>
        <time>2013-07-27T08:29:27Z</time>
      </trkpt>
      <trkpt lat="46.06814" lon="6.37731">
        <ele>474</ele>
        <time>2013-07-27T08:29:28Z</time>
      </trkpt>
      <trkpt lat="46.06813" lon="6.37716">
        <ele>474</ele>
        <time>2013-07-27T08:29:29Z</time>
      </trkpt>
      <trkpt lat="46.06813" lon="6.37701">
        <ele>474</ele>
        <time>2013-07-27T08:29:30Z</time>
      </trkpt>
      <trkpt lat="46.06813" lon="6.37685">
        <ele>474</ele>
        <time>2013-07-27T08:29:31Z</time>
      </trkpt>
      <trkpt lat="46.06813" lon="6.37669">
        <ele>474</ele>
        <time>2013-07-27T08:29:32Z</time>
      </trkpt>
      <trkpt lat="46.06814" lon="6.37652">
        <ele>474</ele>
        <time>2013-07-27T08:29:33Z</time>
      </trkpt>
      <trkpt lat="46.06816" lon="6.37633">
        <ele>474</ele>
        <time>2013-07-27T08:29:34Z</time>
      </trkpt>
      <trkpt lat="46.06819" lon="6.37613">
        <ele>474</ele>
        <time>2013-07-27T08:29:35Z</time>
      </trkpt>
      <trkpt lat="46.06822" lon="6.37594">
        <ele>474</ele>
        <time>2013-07-27T08:29:36Z</time>
      </trkpt>
      <trkpt lat="46.06824" lon="6.37573">
        <ele>474</ele>
        <time>2013-07-27T08:29:37Z</time>
      </trkpt>
      <trkpt lat="46.06826" lon="6.37551">
        <ele>474</ele>
        <time>2013-07-27T08:29:38Z</time>
      </trkpt>
      <trkpt lat="46.06829" lon="6.37531">
        <ele>474</ele>
        <time>2013-07-27T08:29:39Z</time>
      </trkpt>
      <trkpt lat="46.06833" lon="6.3751">
        <ele>474</ele>
        <time>2013-07-27T08:29:40Z</time>
      </trkpt>
      <trkpt lat="46.06837" lon="6.3749">
        <ele>474</ele>
        <time>2013-07-27T08:29:41Z</time>
      </trkpt>
      <trkpt lat="46.06841" lon="6.37472">
        <ele>474</ele>
        <time>2013-07-27T08:29:42Z</time>
      </trkpt>
      <trkpt lat="46.06844" lon="6.37455">
        <ele>474</ele>
        <time>2013-07-27T08:29:43Z</time>
      </trkpt>
      <trkpt lat="46.06848" lon="6.3744">
        <ele>474</ele>
        <time>2013-07-27T08:29:44Z</time>
      </trkpt>
      <trkpt lat="46.06849" lon="6.37426">
        <ele>474</ele>
        <time>2013-07-27T08:29:45Z</time>
      </trkpt>
      <trkpt lat="46.06852" lon="6.37412">
        <ele>474</ele>
        <time>2013-07-27T08:29:46Z</time>
      </trkpt>
      <trkpt lat="46.06857" lon="6.3739">
        <ele>474</ele>
        <time>2013-07-27T08:29:48Z</time>
      </trkpt>
      <trkpt lat="46.06858" lon="6.37375">
        <ele>474</ele>
        <time>2013-07-27T08:29:50Z</time>
      </trkpt>
      <trkpt lat="46.06851" lon="6.37366">
        <ele>474</ele>
        <time>2013-07-27T08:29:53Z</time>
      </trkpt>
      <trkpt lat="46.06837" lon="6.37362">
        <ele>474</ele>
        <time>2013-07-27T08:29:55Z</time>
      </trkpt>
      <trkpt lat="46.06819" lon="6.37356">
        <ele>474</ele>
        <time>2013-07-27T08:29:57Z</time>
      </trkpt>
      <trkpt lat="46.06809" lon="6.37352">
        <ele>474</ele>
        <time>2013-07-27T08:29:58Z</time>
      </trkpt>
      <trkpt lat="46.06798" lon="6.37348">
        <ele>474</ele>
        <time>2013-07-27T08:29:59Z</time>
      </trkpt>
      <trkpt lat="46.06787" lon="6.37345">
        <ele>474</ele>
        <time>2013-07-27T08:30:00Z</time>
      </trkpt>
      <trkpt lat="46.06776" lon="6.37341">
        <ele>474</ele>
        <time>2013-07-27T08:30:01Z</time>
      </trkpt>
      <trkpt lat="46.06764" lon="6.37339">
        <ele>474</ele>
        <time>2013-07-27T08:30:02Z</time>
      </trkpt>
      <trkpt lat="46.06751" lon="6.37339">
        <ele>474</ele>
        <time>2013-07-27T08:30:03Z</time>
      </trkpt>
      <trkpt lat="46.06738" lon="6.37339">
        <ele>474</ele>
        <time>2013-07-27T08:30:04Z</time>
      </trkpt>
      <trkpt lat="46.06725" lon="6.37339">
        <ele>474</ele>
        <time>2013-07-27T08:30:05Z</time>
      </trkpt>
      <trkpt lat="46.06711" lon="6.37339">
        <ele>474</ele>
        <time>2013-07-27T08:30:06Z</time>
      </trkpt>
      <trkpt lat="46.06698" lon="6.3734">
        <ele>474</ele>
        <time>2013-07-27T08:30:07Z</time>
      </trkpt>
      <trkpt lat="46.06685" lon="6.37339">
        <ele>474</ele>
        <time>2013-07-27T08:30:08Z</time>
      </trkpt>
      <trkpt lat="46.06671" lon="6.37339">
        <ele>474</ele>
        <time>2013-07-27T08:30:09Z</time>
      </trkpt>
      <trkpt lat="46.06657" lon="6.37339">
        <ele>474</ele>
        <time>2013-07-27T08:30:10Z</time>
      </trkpt>
      <trkpt lat="46.06644" lon="6.37338">
        <ele>474</ele>
        <time>2013-07-27T08:30:11Z</time>
      </trkpt>
      <trkpt lat="46.06631" lon="6.37339">
        <ele>474</ele>
        <time>2013-07-27T08:30:12Z</time>
      </trkpt>
      <trkpt lat="46.06618" lon="6.37339">
        <ele>474</ele>
        <time>2013-07-27T08:30:13Z</time>
      </trkpt>
      <trkpt lat="46.06606" lon="6.3734">
        <ele>474</ele>
        <time>2013-07-27T08:30:14Z</time>
      </trkpt>
      <trkpt lat="46.06594" lon="6.37341">
        <ele>474</ele>
        <time>2013-07-27T08:30:15Z</time>
      </trkpt>
      <trkpt lat="46.06583" lon="6.37342">
        <ele>474</ele>
        <time>2013-07-27T08:30:16Z</time>
      </trkpt>
      <trkpt lat="46.06572" lon="6.37344">
        <ele>474</ele>
        <time>2013-07-27T08:30:17Z</time>
      </trkpt>
      <trkpt lat="46.0656" lon="6.37346">
        <ele>474</ele>
        <time>2013-07-27T08:30:18Z</time>
      </trkpt>
      <trkpt lat="46.06548" lon="6.37348">
        <ele>474</ele>
        <time>2013-07-27T08:30:19Z</time>
      </trkpt>
      <trkpt lat="46.06536" lon="6.37349">
        <ele>474</ele>
        <time>2013-07-27T08:30:20Z</time>
      </trkpt>
      <trkpt lat="46.06522" lon="6.37351">
        <ele>474</ele>
        <time>2013-07-27T08:30:21Z</time>
      </trkpt>
      <trkpt lat="46.0651" lon="6.37353">
        <ele>474</ele>
        <time>2013-07-27T08:30:22Z</time>
      </trkpt>
      <trkpt lat="46.06497" lon="6.37354">
        <ele>474</ele>
        <time>2013-07-27T08:30:23Z</time>
      </trkpt>
      <trkpt lat="46.06483" lon="6.37354">
        <ele>474</ele>
        <time>2013-07-27T08:30:24Z</time>
      </trkpt>
      <trkpt lat="46.06469" lon="6.37355">
        <ele>474</ele>
        <time>2013-07-27T08:30:25Z</time>
      </trkpt>
      <trkpt lat="46.06456" lon="6.37354">
        <ele>474</ele>
        <time>2013-07-27T08:30:26Z</time>
      </trkpt>
      <trkpt lat="46.06442" lon="6.37353">
        <ele>474</ele>
        <time>2013-07-27T08:30:27Z</time>
      </trkpt>
      <trkpt lat="46.06429" lon="6.3735">
        <ele>474</ele>
        <time>2013-07-27T08:30:28Z</time>
      </trkpt>
      <trkpt lat="46.06415" lon="6.37348">
        <ele>479</ele>
        <time>2013-07-27T08:30:29Z</time>
      </trkpt>
      <trkpt lat="46.06402" lon="6.37345">
        <ele>479</ele>
        <time>2013-07-27T08:30:30Z</time>
      </trkpt>
      <trkpt lat="46.06389" lon="6.37342">
        <ele>479</ele>
        <time>2013-07-27T08:30:31Z</time>
      </trkpt>
      <trkpt lat="46.06377" lon="6.37339">
        <ele>479</ele>
        <time>2013-07-27T08:30:32Z</time>
      </trkpt>
      <trkpt lat="46.06367" lon="6.37335">
        <ele>479</ele>
        <time>2013-07-27T08:30:33Z</time>
      </trkpt>
      <trkpt lat="46.06358" lon="6.3733">
        <ele>479</ele>
        <time>2013-07-27T08:30:34Z</time>
      </trkpt>
      <trkpt lat="46.06344" lon="6.37327">
        <ele>479</ele>
        <time>2013-07-27T08:30:36Z</time>
      </trkpt>
      <trkpt lat="46.0633" lon="6.37336">
        <ele>479</ele>
        <time>2013-07-27T08:30:38Z</time>
      </trkpt>
      <trkpt lat="46.06321" lon="6.37339">
        <ele>479</ele>
        <time>2013-07-27T08:30:39Z</time>
      </trkpt>
      <trkpt lat="46.0631" lon="6.37343">
        <ele>479</ele>
        <time>2013-07-27T08:30:40Z</time>
      </trkpt>
      <trkpt lat="46.06299" lon="6.37347">
        <ele>479</ele>
        <time>2013-07-27T08:30:41Z</time>
      </trkpt>
      <trkpt lat="46.06287" lon="6.37351">
        <ele>479</ele>
        <time>2013-07-27T08:30:42Z</time>
      </trkpt>
      <trkpt lat="46.06275" lon="6.37356">
        <ele>479</ele>
        <time>2013-07-27T08:30:43Z</time>
      </trkpt>
      <trkpt lat="46.06263" lon="6.37361">
        <ele>479</ele>
        <time>2013-07-27T08:30:44Z</time>
      </trkpt>
      <trkpt lat="46.06251" lon="6.37366">
        <ele>479</ele>
        <time>2013-07-27T08:30:45Z</time>
      </trkpt>
      <trkpt lat="46.06239" lon="6.37368">
        <ele>479</ele>
        <time>2013-07-27T08:30:46Z</time>
      </trkpt>
      <trkpt lat="46.06225" lon="6.37371">
        <ele>479</ele>
        <time>2013-07-27T08:30:47Z</time>
      </trkpt>
      <trkpt lat="46.06211" lon="6.37373">
        <ele>479</ele>
        <time>2013-07-27T08:30:48Z</time>
      </trkpt>
      <trkpt lat="46.06197" lon="6.37375">
        <ele>479</ele>
        <time>2013-07-27T08:30:49Z</time>
      </trkpt>
      <trkpt lat="46.06182" lon="6.37376">
        <ele>479</ele>
        <time>2013-07-27T08:30:50Z</time>
      </trkpt>
      <trkpt lat="46.06167" lon="6.37377">
        <ele>479</ele>
        <time>2013-07-27T08:30:51Z</time>
      </trkpt>
      <trkpt lat="46.06152" lon="6.37377">
        <ele>479</ele>
        <time>2013-07-27T08:30:52Z</time>
      </trkpt>
      <trkpt lat="46.06137" lon="6.37377">
        <ele>479</ele>
        <time>2013-07-27T08:30:53Z</time>
      </trkpt>
      <trkpt lat="46.06122" lon="6.37374">
        <ele>479</ele>
        <time>2013-07-27T08:30:54Z</time>
      </trkpt>
      <trkpt lat="46.06106" lon="6.3737">
        <ele>484</ele>
        <time>2013-07-27T08:30:55Z</time>
      </trkpt>
      <trkpt lat="46.06091" lon="6.37366">
        <ele>484</ele>
        <time>2013-07-27T08:30:56Z</time>
      </trkpt>
      <trkpt lat="46.06077" lon="6.37362">
        <ele>484</ele>
        <time>2013-07-27T08:30:57Z</time>
      </trkpt>
      <trkpt lat="46.06063" lon="6.37357">
        <ele>484</ele>
        <time>2013-07-27T08:30:58Z</time>
      </trkpt>
      <trkpt lat="46.0605" lon="6.37355">
        <ele>484</ele>
        <time>2013-07-27T08:30:59Z</time>
      </trkpt>
      <trkpt lat="46.06037" lon="6.37351">
        <ele>484</ele>
        <time>2013-07-27T08:31:00Z</time>
      </trkpt>
      <trkpt lat="46.06024" lon="6.37348">
        <ele>484</ele>
        <time>2013-07-27T08:31:01Z</time>
      </trkpt>
      <trkpt lat="46.06013" lon="6.37346">
        <ele>484</ele>
        <time>2013-07-27T08:31:02Z</time>
      </trkpt>
      <trkpt lat="46.06003" lon="6.37342">
        <ele>484</ele>
        <time>2013-07-27T08:31:03Z</time>
      </trkpt>
      <trkpt lat="46.05993" lon="6.37339">
        <ele>484</ele>
        <time>2013-07-27T08:31:04Z</time>
      </trkpt>
      <trkpt lat="46.05977" lon="6.37334">
        <ele>484</ele>
        <time>2013-07-27T08:31:06Z</time>
      </trkpt>
      <trkpt lat="46.05962" lon="6.3733">
        <ele>484</ele>
        <time>2013-07-27T08:31:08Z</time>
      </trkpt>
      <trkpt lat="46.05951" lon="6.37325">
        <ele>484</ele>
        <time>2013-07-27T08:31:10Z</time>
      </trkpt>
      <trkpt lat="46.05943" lon="6.37313">
        <ele>484</ele>
        <time>2013-07-27T08:31:12Z</time>
      </trkpt>
      <trkpt lat="46.05943" lon="6.37292">
        <ele>484</ele>
        <time>2013-07-27T08:31:14Z</time>
      </trkpt>
      <trkpt lat="46.05945" lon="6.37278">
        <ele>484</ele>
        <time>2013-07-27T08:31:15Z</time>
      </trkpt>
      <trkpt lat="46.05946" lon="6.37263">
        <ele>484</ele>
        <time>2013-07-27T08:31:16Z</time>
      </trkpt>
      <trkpt lat="46.05948" lon="6.37247">
        <ele>484</ele>
        <time>2013-07-27T08:31:17Z</time>
      </trkpt>
      <trkpt lat="46.0595" lon="6.3723">
        <ele>484</ele>
        <time>2013-07-27T08:31:18Z</time>
      </trkpt>
      <trkpt lat="46.05951" lon="6.37212">
        <ele>484</ele>
        <time>2013-07-27T08:31:19Z</time>
      </trkpt>
      <trkpt lat="46.05952" lon="6.37193">
        <ele>484</ele>
        <time>2013-07-27T08:31:20Z</time>
      </trkpt>
      <trkpt lat="46.05953" lon="6.37174">
        <ele>484</ele>
        <time>2013-07-27T08:31:21Z</time>
      </trkpt>
      <trkpt lat="46.05953" lon="6.37156">
        <ele>484</ele>
        <time>2013-07-27T08:31:22Z</time>
      </trkpt>
      <trkpt lat="46.05951" lon="6.37139">
        <ele>484</ele>
        <time>2013-07-27T08:31:23Z</time>
      </trkpt>
      <trkpt lat="46.05951" lon="6.37121">
        <ele>484</ele>
        <time>2013-07-27T08:31:24Z</time>
      </trkpt>
      <trkpt lat="46.05948" lon="6.37104">
        <ele>484</ele>
        <time>2013-07-27T08:31:25Z</time>
      </trkpt>
      <trkpt lat="46.05946" lon="6.37086">
        <ele>484</ele>
        <time>2013-07-27T08:31:26Z</time>
      </trkpt>
      <trkpt lat="46.05943" lon="6.37068">
        <ele>484</ele>
        <time>2013-07-27T08:31:27Z</time>
      </trkpt>
      <trkpt lat="46.05941" lon="6.37049">
        <ele>484</ele>
        <time>2013-07-27T08:31:28Z</time>
      </trkpt>
      <trkpt lat="46.05939" lon="6.3703">
        <ele>484</ele>
        <time>2013-07-27T08:31:29Z</time>
      </trkpt>
      <trkpt lat="46.05938" lon="6.37011">
        <ele>484</ele>
        <time>2013-07-27T08:31:30Z</time>
      </trkpt>
      <trkpt lat="46.05939" lon="6.36992">
        <ele>484</ele>
        <time>2013-07-27T08:31:31Z</time>
      </trkpt>
      <trkpt lat="46.0594" lon="6.36972">
        <ele>484</ele>
        <time>2013-07-27T08:31:32Z</time>
      </trkpt>
      <trkpt lat="46.05942" lon="6.36954">
        <ele>484</ele>
        <time>2013-07-27T08:31:33Z</time>
      </trkpt>
      <trkpt lat="46.05946" lon="6.36936">
        <ele>484</ele>
        <time>2013-07-27T08:31:34Z</time>
      </trkpt>
      <trkpt lat="46.0595" lon="6.36918">
        <ele>484</ele>
        <time>2013-07-27T08:31:35Z</time>
      </trkpt>
      <trkpt lat="46.05955" lon="6.36901">
        <ele>484</ele>
        <time>2013-07-27T08:31:36Z</time>
      </trkpt>
      <trkpt lat="46.05958" lon="6.36883">
        <ele>484</ele>
        <time>2013-07-27T08:31:37Z</time>
      </trkpt>
      <trkpt lat="46.05961" lon="6.36867">
        <ele>484</ele>
        <time>2013-07-27T08:31:38Z</time>
      </trkpt>
      <trkpt lat="46.05963" lon="6.36851">
        <ele>484</ele>
        <time>2013-07-27T08:31:39Z</time>
      </trkpt>
      <trkpt lat="46.05965" lon="6.36836">
        <ele>484</ele>
        <time>2013-07-27T08:31:40Z</time>
      </trkpt>
      <trkpt lat="46.05965" lon="6.3682">
        <ele>484</ele>
        <time>2013-07-27T08:31:41Z</time>
      </trkpt>
      <trkpt lat="46.05966" lon="6.36805">
        <ele>484</ele>
        <time>2013-07-27T08:31:42Z</time>
      </trkpt>
      <trkpt lat="46.05968" lon="6.3679">
        <ele>484</ele>
        <time>2013-07-27T08:31:43Z</time>
      </trkpt>
      <trkpt lat="46.05969" lon="6.36776">
        <ele>484</ele>
        <time>2013-07-27T08:31:44Z</time>
      </trkpt>
      <trkpt lat="46.0597" lon="6.36755">
        <ele>484</ele>
        <time>2013-07-27T08:31:46Z</time>
      </trkpt>
      <trkpt lat="46.05963" lon="6.3674">
        <ele>484</ele>
        <time>2013-07-27T08:31:49Z</time>
      </trkpt>
      <trkpt lat="46.05948" lon="6.36738">
        <ele>484</ele>
        <time>2013-07-27T08:31:52Z</time>
      </trkpt>
      <trkpt lat="46.05936" lon="6.36736">
        <ele>484</ele>
        <time>2013-07-27T08:31:54Z</time>
      </trkpt>
      <trkpt lat="46.05921" lon="6.36732">
        <ele>484</ele>
        <time>2013-07-27T08:31:56Z</time>
      </trkpt>
      <trkpt lat="46.05902" lon="6.3673">
        <ele>484</ele>
        <time>2013-07-27T08:31:58Z</time>
      </trkpt>
      <trkpt lat="46.05892" lon="6.36728">
        <ele>484</ele>
        <time>2013-07-27T08:31:59Z</time>
      </trkpt>
      <trkpt lat="46.05881" lon="6.36726">
        <ele>484</ele>
        <time>2013-07-27T08:32:00Z</time>
      </trkpt>
      <trkpt lat="46.05871" lon="6.36724">
        <ele>484</ele>
        <time>2013-07-27T08:32:01Z</time>
      </trkpt>
      <trkpt lat="46.05859" lon="6.36722">
        <ele>484</ele>
        <time>2013-07-27T08:32:02Z</time>
      </trkpt>
      <trkpt lat="46.05848" lon="6.36721">
        <ele>484</ele>
        <time>2013-07-27T08:32:03Z</time>
      </trkpt>
      <trkpt lat="46.05836" lon="6.36719">
        <ele>484</ele>
        <time>2013-07-27T08:32:04Z</time>
      </trkpt>
      <trkpt lat="46.05824" lon="6.36716">
        <ele>484</ele>
        <time>2013-07-27T08:32:05Z</time>
      </trkpt>
      <trkpt lat="46.05813" lon="6.36714">
        <ele>484</ele>
        <time>2013-07-27T08:32:06Z</time>
      </trkpt>
      <trkpt lat="46.05801" lon="6.36712">
        <ele>484</ele>
        <time>2013-07-27T08:32:07Z</time>
      </trkpt>
      <trkpt lat="46.05789" lon="6.36712">
        <ele>484</ele>
        <time>2013-07-27T08:32:08Z</time>
      </trkpt>
      <trkpt lat="46.05777" lon="6.36711">
        <ele>484</ele>
        <time>2013-07-27T08:32:09Z</time>
      </trkpt>
      <trkpt lat="46.05765" lon="6.3671">
        <ele>484</ele>
        <time>2013-07-27T08:32:10Z</time>
      </trkpt>
      <trkpt lat="46.05753" lon="6.3671">
        <ele>484</ele>
        <time>2013-07-27T08:32:11Z</time>
      </trkpt>
      <trkpt lat="46.05741" lon="6.3671">
        <ele>484</ele>
        <time>2013-07-27T08:32:12Z</time>
      </trkpt>
      <trkpt lat="46.05729" lon="6.36708">
        <ele>484</ele>
        <time>2013-07-27T08:32:13Z</time>
      </trkpt>
      <trkpt lat="46.05718" lon="6.36707">
        <ele>484</ele>
        <time>2013-07-27T08:32:14Z</time>
      </trkpt>
      <trkpt lat="46.05706" lon="6.36705">
        <ele>484</ele>
        <time>2013-07-27T08:32:15Z</time>
      </trkpt>
      <trkpt lat="46.05694" lon="6.36703">
        <ele>484</ele>
        <time>2013-07-27T08:32:16Z</time>
      </trkpt>
      <trkpt lat="46.05681" lon="6.36698">
        <ele>484</ele>
        <time>2013-07-27T08:32:17Z</time>
      </trkpt>
      <trkpt lat="46.05667" lon="6.36694">
        <ele>484</ele>
        <time>2013-07-27T08:32:18Z</time>
      </trkpt>
      <trkpt lat="46.05653" lon="6.36687">
        <ele>484</ele>
        <time>2013-07-27T08:32:19Z</time>
      </trkpt>
      <trkpt lat="46.05638" lon="6.36682">
        <ele>484</ele>
        <time>2013-07-27T08:32:20Z</time>
      </trkpt>
      <trkpt lat="46.05623" lon="6.36676">
        <ele>484</ele>
        <time>2013-07-27T08:32:21Z</time>
      </trkpt>
      <trkpt lat="46.05609" lon="6.36672">
        <ele>484</ele>
        <time>2013-07-27T08:32:22Z</time>
      </trkpt>
      <trkpt lat="46.05596" lon="6.36669">
        <ele>484</ele>
        <time>2013-07-27T08:32:23Z</time>
      </trkpt>
      <trkpt lat="46.05585" lon="6.36668">
        <ele>484</ele>
        <time>2013-07-27T08:32:24Z</time>
      </trkpt>
      <trkpt lat="46.05574" lon="6.36664">
        <ele>484</ele>
        <time>2013-07-27T08:32:25Z</time>
      </trkpt>
      <trkpt lat="46.05564" lon="6.36659">
        <ele>484</ele>
        <time>2013-07-27T08:32:26Z</time>
      </trkpt>
      <trkpt lat="46.05564" lon="6.3663">
        <ele>484</ele>
        <time>2013-07-27T08:32:28Z</time>
      </trkpt>
      <trkpt lat="46.05565" lon="6.36611">
        <ele>484</ele>
        <time>2013-07-27T08:32:29Z</time>
      </trkpt>
      <trkpt lat="46.05566" lon="6.3659">
        <ele>490</ele>
        <time>2013-07-27T08:32:30Z</time>
      </trkpt>
      <trkpt lat="46.05568" lon="6.3657">
        <ele>490</ele>
        <time>2013-07-27T08:32:31Z</time>
      </trkpt>
      <trkpt lat="46.0557" lon="6.36549">
        <ele>490</ele>
        <time>2013-07-27T08:32:32Z</time>
      </trkpt>
      <trkpt lat="46.05571" lon="6.36532">
        <ele>490</ele>
        <time>2013-07-27T08:32:33Z</time>
      </trkpt>
      <trkpt lat="46.05572" lon="6.36518">
        <ele>490</ele>
        <time>2013-07-27T08:32:34Z</time>
      </trkpt>
      <trkpt lat="46.05571" lon="6.36495">
        <ele>496</ele>
        <time>2013-07-27T08:32:36Z</time>
      </trkpt>
      <trkpt lat="46.05561" lon="6.36486">
        <ele>496</ele>
        <time>2013-07-27T08:32:38Z</time>
      </trkpt>
      <trkpt lat="46.05552" lon="6.36482">
        <ele>496</ele>
        <time>2013-07-27T08:32:40Z</time>
      </trkpt>
      <trkpt lat="46.05548" lon="6.36467">
        <ele>496</ele>
        <time>2013-07-27T08:32:46Z</time>
      </trkpt>
      <trkpt lat="46.05549" lon="6.3645">
        <ele>503</ele>
        <time>2013-07-27T08:32:49Z</time>
      </trkpt>
      <trkpt lat="46.05552" lon="6.36434">
        <ele>503</ele>
        <time>2013-07-27T08:32:51Z</time>
      </trkpt>
      <trkpt lat="46.05555" lon="6.36416">
        <ele>503</ele>
        <time>2013-07-27T08:32:53Z</time>
      </trkpt>
      <trkpt lat="46.05561" lon="6.36405">
        <ele>503</ele>
        <time>2013-07-27T08:33:00Z</time>
      </trkpt>
      <trkpt lat="46.0556" lon="6.36389">
        <ele>503</ele>
        <time>2013-07-27T08:33:27Z</time>
      </trkpt>
      <trkpt lat="46.05561" lon="6.36367">
        <ele>503</ele>
        <time>2013-07-27T08:33:29Z</time>
      </trkpt>
      <trkpt lat="46.05562" lon="6.36349">
        <ele>503</ele>
        <time>2013-07-27T08:33:31Z</time>
      </trkpt>
      <trkpt lat="46.05557" lon="6.36334">
        <ele>503</ele>
        <time>2013-07-27T08:33:33Z</time>
      </trkpt>
      <trkpt lat="46.05544" lon="6.36323">
        <ele>503</ele>
        <time>2013-07-27T08:33:35Z</time>
      </trkpt>
      <trkpt lat="46.0553" lon="6.36314">
        <ele>503</ele>
        <time>2013-07-27T08:33:37Z</time>
      </trkpt>
      <trkpt lat="46.05518" lon="6.36306">
        <ele>503</ele>
        <time>2013-07-27T08:33:40Z</time>
      </trkpt>
      <trkpt lat="46.05504" lon="6.36299">
        <ele>508</ele>
        <time>2013-07-27T08:33:42Z</time>
      </trkpt>
      <trkpt lat="46.05494" lon="6.36292">
        <ele>508</ele>
        <time>2013-07-27T08:33:44Z</time>
      </trkpt>
      <trkpt lat="46.05484" lon="6.36281">
        <ele>513</ele>
        <time>2013-07-27T08:33:46Z</time>
      </trkpt>
      <trkpt lat="46.05473" lon="6.3627">
        <ele>513</ele>
        <time>2013-07-27T08:33:48Z</time>
      </trkpt>
      <trkpt lat="46.05464" lon="6.36261">
        <ele>520</ele>
        <time>2013-07-27T08:33:50Z</time>
      </trkpt>
      <trkpt lat="46.05456" lon="6.36253">
        <ele>520</ele>
        <time>2013-07-27T08:33:52Z</time>
      </trkpt>
      <trkpt lat="46.05446" lon="6.3625">
        <ele>526</ele>
        <time>2013-07-27T08:33:54Z</time>
      </trkpt>
      <trkpt lat="46.05436" lon="6.36245">
        <ele>526</ele>
        <time>2013-07-27T08:33:56Z</time>
      </trkpt>
      <trkpt lat="46.05424" lon="6.36243">
        <ele>537</ele>
        <time>2013-07-27T08:33:59Z</time>
      </trkpt>
      <trkpt lat="46.05421" lon="6.36229">
        <ele>545</ele>
        <time>2013-07-27T08:34:06Z</time>
      </trkpt>
      <trkpt lat="46.0542" lon="6.36212">
        <ele>545</ele>
        <time>2013-07-27T08:34:08Z</time>
      </trkpt>
      <trkpt lat="46.05416" lon="6.3619">
        <ele>551</ele>
        <time>2013-07-27T08:34:10Z</time>
      </trkpt>
      <trkpt lat="46.05408" lon="6.36177">
        <ele>551</ele>
        <time>2013-07-27T08:34:11Z</time>
      </trkpt>
      <trkpt lat="46.054" lon="6.36161">
        <ele>551</ele>
        <time>2013-07-27T08:34:12Z</time>
      </trkpt>
      <trkpt lat="46.05394" lon="6.36146">
        <ele>551</ele>
        <time>2013-07-27T08:34:13Z</time>
      </trkpt>
      <trkpt lat="46.05387" lon="6.36132">
        <ele>551</ele>
        <time>2013-07-27T08:34:14Z</time>
      </trkpt>
      <trkpt lat="46.05375" lon="6.36113">
        <ele>551</ele>
        <time>2013-07-27T08:34:16Z</time>
      </trkpt>
      <trkpt lat="46.05361" lon="6.36095">
        <ele>551</ele>
        <time>2013-07-27T08:34:18Z</time>
      </trkpt>
      <trkpt lat="46.05354" lon="6.36086">
        <ele>557</ele>
        <time>2013-07-27T08:34:19Z</time>
      </trkpt>
      <trkpt lat="46.05347" lon="6.36077">
        <ele>557</ele>
        <time>2013-07-27T08:34:20Z</time>
      </trkpt>
      <trkpt lat="46.0534" lon="6.36067">
        <ele>557</ele>
        <time>2013-07-27T08:34:21Z</time>
      </trkpt>
      <trkpt lat="46.05329" lon="6.36049">
        <ele>557</ele>
        <time>2013-07-27T08:34:23Z</time>
      </trkpt>
      <trkpt lat="46.05322" lon="6.36034">
        <ele>557</ele>
        <time>2013-07-27T08:34:25Z</time>
      </trkpt>
      <trkpt lat="46.0532" lon="6.36018">
        <ele>565</ele>
        <time>2013-07-27T08:34:27Z</time>
      </trkpt>
      <trkpt lat="46.05317" lon="6.36004">
        <ele>565</ele>
        <time>2013-07-27T08:34:29Z</time>
      </trkpt>
      <trkpt lat="46.05306" lon="6.35996">
        <ele>565</ele>
        <time>2013-07-27T08:34:32Z</time>
      </trkpt>
      <trkpt lat="46.05295" lon="6.3599">
        <ele>570</ele>
        <time>2013-07-27T08:34:34Z</time>
      </trkpt>
      <trkpt lat="46.05283" lon="6.35982">
        <ele>570</ele>
        <time>2013-07-27T08:34:36Z</time>
      </trkpt>
      <trkpt lat="46.05272" lon="6.35972">
        <ele>570</ele>
        <time>2013-07-27T08:34:38Z</time>
      </trkpt>
      <trkpt lat="46.0526" lon="6.35957">
        <ele>578</ele>
        <time>2013-07-27T08:34:40Z</time>
      </trkpt>
      <trkpt lat="46.05252" lon="6.35943">
        <ele>578</ele>
        <time>2013-07-27T08:34:42Z</time>
      </trkpt>
      <trkpt lat="46.05244" lon="6.3593">
        <ele>586</ele>
        <time>2013-07-27T08:34:44Z</time>
      </trkpt>
      <trkpt lat="46.05237" lon="6.35917">
        <ele>586</ele>
        <time>2013-07-27T08:34:46Z</time>
      </trkpt>
      <trkpt lat="46.05234" lon="6.35904">
        <ele>593</ele>
        <time>2013-07-27T08:34:48Z</time>
      </trkpt>
      <trkpt lat="46.05224" lon="6.35891">
        <ele>593</ele>
        <time>2013-07-27T08:34:51Z</time>
      </trkpt>
      <trkpt lat="46.05217" lon="6.35882">
        <ele>593</ele>
        <time>2013-07-27T08:34:53Z</time>
      </trkpt>
      <trkpt lat="46.05206" lon="6.35873">
        <ele>601</ele>
        <time>2013-07-27T08:34:56Z</time>
      </trkpt>
      <trkpt lat="46.05197" lon="6.35867">
        <ele>601</ele>
        <time>2013-07-27T08:34:58Z</time>
      </trkpt>
      <trkpt lat="46.05189" lon="6.35858">
        <ele>601</ele>
        <time>2013-07-27T08:35:00Z</time>
      </trkpt>
      <trkpt lat="46.05178" lon="6.35847">
        <ele>607</ele>
        <time>2013-07-27T08:35:03Z</time>
      </trkpt>
      <trkpt lat="46.05168" lon="6.35838">
        <ele>607</ele>
        <time>2013-07-27T08:35:05Z</time>
      </trkpt>
      <trkpt lat="46.05157" lon="6.35828">
        <ele>607</ele>
        <time>2013-07-27T08:35:07Z</time>
      </trkpt>
      <trkpt lat="46.05147" lon="6.35817">
        <ele>615</ele>
        <time>2013-07-27T08:35:09Z</time>
      </trkpt>
      <trkpt lat="46.05138" lon="6.35804">
        <ele>615</ele>
        <time>2013-07-27T08:35:12Z</time>
      </trkpt>
      <trkpt lat="46.05127" lon="6.35796">
        <ele>621</ele>
        <time>2013-07-27T08:35:15Z</time>
      </trkpt>
      <trkpt lat="46.05118" lon="6.35787">
        <ele>621</ele>
        <time>2013-07-27T08:35:23Z</time>
      </trkpt>
      <trkpt lat="46.05118" lon="6.35773">
        <ele>621</ele>
        <time>2013-07-27T08:35:28Z</time>
      </trkpt>
      <trkpt lat="46.0512" lon="6.35757">
        <ele>621</ele>
        <time>2013-07-27T08:35:31Z</time>
      </trkpt>
      <trkpt lat="46.05123" lon="6.35743">
        <ele>621</ele>
        <time>2013-07-27T08:35:33Z</time>
      </trkpt>
      <trkpt lat="46.05125" lon="6.35728">
        <ele>621</ele>
        <time>2013-07-27T08:35:35Z</time>
      </trkpt>
      <trkpt lat="46.05128" lon="6.35708">
        <ele>621</ele>
        <time>2013-07-27T08:35:37Z</time>
      </trkpt>
      <trkpt lat="46.05133" lon="6.35686">
        <ele>626</ele>
        <time>2013-07-27T08:35:39Z</time>
      </trkpt>
      <trkpt lat="46.0514" lon="6.35666">
        <ele>626</ele>
        <time>2013-07-27T08:35:41Z</time>
      </trkpt>
      <trkpt lat="46.05148" lon="6.35649">
        <ele>626</ele>
        <time>2013-07-27T08:35:43Z</time>
      </trkpt>
      <trkpt lat="46.05152" lon="6.35633">
        <ele>626</ele>
        <time>2013-07-27T08:35:45Z</time>
      </trkpt>
      <trkpt lat="46.05155" lon="6.35614">
        <ele>626</ele>
        <time>2013-07-27T08:35:47Z</time>
      </trkpt>
      <trkpt lat="46.05163" lon="6.35601">
        <ele>626</ele>
        <time>2013-07-27T08:35:49Z</time>
      </trkpt>
      <trkpt lat="46.0517" lon="6.35587">
        <ele>626</ele>
        <time>2013-07-27T08:35:51Z</time>
      </trkpt>
      <trkpt lat="46.05175" lon="6.35574">
        <ele>626</ele>
        <time>2013-07-27T08:35:52Z</time>
      </trkpt>
      <trkpt lat="46.05181" lon="6.35558">
        <ele>621</ele>
        <time>2013-07-27T08:35:54Z</time>
      </trkpt>
      <trkpt lat="46.05183" lon="6.35544">
        <ele>621</ele>
        <time>2013-07-27T08:35:57Z</time>
      </trkpt>
      <trkpt lat="46.05185" lon="6.35527">
        <ele>621</ele>
        <time>2013-07-27T08:36:01Z</time>
      </trkpt>
      <trkpt lat="46.05187" lon="6.35511">
        <ele>621</ele>
        <time>2013-07-27T08:36:03Z</time>
      </trkpt>
      <trkpt lat="46.05193" lon="6.35497">
        <ele>621</ele>
        <time>2013-07-27T08:36:05Z</time>
      </trkpt>
      <trkpt lat="46.05203" lon="6.35503">
        <ele>621</ele>
        <time>2013-07-27T08:36:13Z</time>
      </trkpt>
      <trkpt lat="46.05204" lon="6.35517">
        <ele>614</ele>
        <time>2013-07-27T08:36:15Z</time>
      </trkpt>
      <trkpt lat="46.05204" lon="6.35533">
        <ele>614</ele>
        <time>2013-07-27T08:36:17Z</time>
      </trkpt>
      <trkpt lat="46.05206" lon="6.35549">
        <ele>604</ele>
        <time>2013-07-27T08:36:20Z</time>
      </trkpt>
      <trkpt lat="46.0522" lon="6.35541">
        <ele>595</ele>
        <time>2013-07-27T08:36:24Z</time>
      </trkpt>
      <trkpt lat="46.05232" lon="6.35528">
        <ele>595</ele>
        <time>2013-07-27T08:36:26Z</time>
      </trkpt>
      <trkpt lat="46.05244" lon="6.35513">
        <ele>589</ele>
        <time>2013-07-27T08:36:28Z</time>
      </trkpt>
      <trkpt lat="46.05256" lon="6.35498">
        <ele>589</ele>
        <time>2013-07-27T08:36:30Z</time>
      </trkpt>
      <trkpt lat="46.05267" lon="6.35484">
        <ele>583</ele>
        <time>2013-07-27T08:36:32Z</time>
      </trkpt>
      <trkpt lat="46.05278" lon="6.35469">
        <ele>583</ele>
        <time>2013-07-27T08:36:34Z</time>
      </trkpt>
      <trkpt lat="46.05288" lon="6.35452">
        <ele>583</ele>
        <time>2013-07-27T08:36:36Z</time>
      </trkpt>
      <trkpt lat="46.053" lon="6.35441">
        <ele>583</ele>
        <time>2013-07-27T08:36:38Z</time>
      </trkpt>
      <trkpt lat="46.05312" lon="6.35443">
        <ele>577</ele>
        <time>2013-07-27T08:36:40Z</time>
      </trkpt>
      <trkpt lat="46.05322" lon="6.35449">
        <ele>577</ele>
        <time>2013-07-27T08:36:42Z</time>
      </trkpt>
      <trkpt lat="46.05332" lon="6.35445">
        <ele>577</ele>
        <time>2013-07-27T08:36:44Z</time>
      </trkpt>
      <trkpt lat="46.05339" lon="6.35431">
        <ele>569</ele>
        <time>2013-07-27T08:36:46Z</time>
      </trkpt>
      <trkpt lat="46.05347" lon="6.35415">
        <ele>569</ele>
        <time>2013-07-27T08:36:48Z</time>
      </trkpt>
      <trkpt lat="46.05356" lon="6.35405">
        <ele>564</ele>
        <time>2013-07-27T08:36:50Z</time>
      </trkpt>
      <trkpt lat="46.05366" lon="6.35403">
        <ele>564</ele>
        <time>2013-07-27T08:36:54Z</time>
      </trkpt>
      <trkpt lat="46.0536" lon="6.35391">
        <ele>564</ele>
        <time>2013-07-27T08:37:05Z</time>
      </trkpt>
      <trkpt lat="46.0535" lon="6.35383">
        <ele>564</ele>
        <time>2013-07-27T08:37:07Z</time>
      </trkpt>
      <trkpt lat="46.0534" lon="6.35377">
        <ele>564</ele>
        <time>2013-07-27T08:37:09Z</time>
      </trkpt>
      <trkpt lat="46.0533" lon="6.35371">
        <ele>564</ele>
        <time>2013-07-27T08:37:11Z</time>
      </trkpt>
      <trkpt lat="46.05324" lon="6.35361">
        <ele>569</ele>
        <time>2013-07-27T08:37:13Z</time>
      </trkpt>
      <trkpt lat="46.05319" lon="6.35348">
        <ele>569</ele>
        <time>2013-07-27T08:37:15Z</time>
      </trkpt>
      <trkpt lat="46.05319" lon="6.35331">
        <ele>569</ele>
        <time>2013-07-27T08:37:17Z</time>
      </trkpt>
      <trkpt lat="46.05314" lon="6.35316">
        <ele>576</ele>
        <time>2013-07-27T08:37:19Z</time>
      </trkpt>
      <trkpt lat="46.05307" lon="6.353">
        <ele>576</ele>
        <time>2013-07-27T08:37:21Z</time>
      </trkpt>
      <trkpt lat="46.05304" lon="6.35277">
        <ele>576</ele>
        <time>2013-07-27T08:37:23Z</time>
      </trkpt>
      <trkpt lat="46.05305" lon="6.35263">
        <ele>576</ele>
        <time>2013-07-27T08:37:24Z</time>
      </trkpt>
      <trkpt lat="46.05308" lon="6.35251">
        <ele>576</ele>
        <time>2013-07-27T08:37:25Z</time>
      </trkpt>
      <trkpt lat="46.05314" lon="6.35228">
        <ele>576</ele>
        <time>2013-07-27T08:37:27Z</time>
      </trkpt>
      <trkpt lat="46.05319" lon="6.35214">
        <ele>576</ele>
        <time>2013-07-27T08:37:29Z</time>
      </trkpt>
      <trkpt lat="46.05324" lon="6.35201">
        <ele>576</ele>
        <time>2013-07-27T08:37:33Z</time>
      </trkpt>
      <trkpt lat="46.0532" lon="6.35188">
        <ele>576</ele>
        <time>2013-07-27T08:37:53Z</time>
      </trkpt>
      <trkpt lat="46.05308" lon="6.35187">
        <ele>576</ele>
        <time>2013-07-27T08:37:56Z</time>
      </trkpt>
      <trkpt lat="46.05294" lon="6.35186">
        <ele>576</ele>
        <time>2013-07-27T08:37:59Z</time>
      </trkpt>
      <trkpt lat="46.05284" lon="6.35184">
        <ele>576</ele>
        <time>2013-07-27T08:38:01Z</time>
      </trkpt>
      <trkpt lat="46.05274" lon="6.35182">
        <ele>582</ele>
        <time>2013-07-27T08:38:03Z</time>
      </trkpt>
      <trkpt lat="46.05265" lon="6.35178">
        <ele>582</ele>
        <time>2013-07-27T08:38:05Z</time>
      </trkpt>
      <trkpt lat="46.05256" lon="6.35174">
        <ele>582</ele>
        <time>2013-07-27T08:38:07Z</time>
      </trkpt>
      <trkpt lat="46.05248" lon="6.35166">
        <ele>588</ele>
        <time>2013-07-27T08:38:09Z</time>
      </trkpt>
      <trkpt lat="46.0524" lon="6.35158">
        <ele>588</ele>
        <time>2013-07-27T08:38:11Z</time>
      </trkpt>
      <trkpt lat="46.0523" lon="6.35149">
        <ele>593</ele>
        <time>2013-07-27T08:38:13Z</time>
      </trkpt>
      <trkpt lat="46.05219" lon="6.35144">
        <ele>593</ele>
        <time>2013-07-27T08:38:15Z</time>
      </trkpt>
      <trkpt lat="46.05209" lon="6.35142">
        <ele>599</ele>
        <time>2013-07-27T08:38:17Z</time>
      </trkpt>
      <trkpt lat="46.05198" lon="6.35145">
        <ele>599</ele>
        <time>2013-07-27T08:38:20Z</time>
      </trkpt>
      <trkpt lat="46.05197" lon="6.35129">
        <ele>613</ele>
        <time>2013-07-27T08:38:32Z</time>
      </trkpt>
      <trkpt lat="46.05197" lon="6.35113">
        <ele>613</ele>
        <time>2013-07-27T08:38:35Z</time>
      </trkpt>
      <trkpt lat="46.052" lon="6.35094">
        <ele>613</ele>
        <time>2013-07-27T08:38:38Z</time>
      </trkpt>
      <trkpt lat="46.05209" lon="6.35086">
        <ele>623</ele>
        <time>2013-07-27T08:38:50Z</time>
      </trkpt>
      <trkpt lat="46.05197" lon="6.35086">
        <ele>623</ele>
        <time>2013-07-27T08:39:14Z</time>
      </trkpt>
      <trkpt lat="46.05183" lon="6.35089">
        <ele>630</ele>
        <time>2013-07-27T08:39:17Z</time>
      </trkpt>
      <trkpt lat="46.05175" lon="6.35095">
        <ele>630</ele>
        <time>2013-07-27T08:39:20Z</time>
      </trkpt>
      <trkpt lat="46.05168" lon="6.35108">
        <ele>636</ele>
        <time>2013-07-27T08:39:22Z</time>
      </trkpt>
      <trkpt lat="46.0516" lon="6.35125">
        <ele>636</ele>
        <time>2013-07-27T08:39:24Z</time>
      </trkpt>
      <trkpt lat="46.05155" lon="6.35142">
        <ele>636</ele>
        <time>2013-07-27T08:39:26Z</time>
      </trkpt>
      <trkpt lat="46.05145" lon="6.35139">
        <ele>636</ele>
        <time>2013-07-27T08:39:31Z</time>
      </trkpt>
      <trkpt lat="46.05142" lon="6.35127">
        <ele>636</ele>
        <time>2013-07-27T08:39:33Z</time>
      </trkpt>
      <trkpt lat="46.05132" lon="6.35113">
        <ele>636</ele>
        <time>2013-07-27T08:39:36Z</time>
      </trkpt>
      <trkpt lat="46.05123" lon="6.35105">
        <ele>636</ele>
        <time>2013-07-27T08:39:38Z</time>
      </trkpt>
      <trkpt lat="46.05113" lon="6.35099">
        <ele>636</ele>
        <time>2013-07-27T08:39:42Z</time>
      </trkpt>
      <trkpt lat="46.05098" lon="6.35101">
        <ele>636</ele>
        <time>2013-07-27T08:39:53Z</time>
      </trkpt>
      <trkpt lat="46.05083" lon="6.35099">
        <ele>636</ele>
        <time>2013-07-27T08:39:55Z</time>
      </trkpt>
      <trkpt lat="46.05066" lon="6.35095">
        <ele>636</ele>
        <time>2013-07-27T08:39:57Z</time>
      </trkpt>
      <trkpt lat="46.05057" lon="6.35092">
        <ele>636</ele>
        <time>2013-07-27T08:39:58Z</time>
      </trkpt>
      <trkpt lat="46.05047" lon="6.35089">
        <ele>641</ele>
        <time>2013-07-27T08:39:59Z</time>
      </trkpt>
      <trkpt lat="46.05038" lon="6.35087">
        <ele>641</ele>
        <time>2013-07-27T08:40:00Z</time>
      </trkpt>
      <trkpt lat="46.05028" lon="6.35086">
        <ele>641</ele>
        <time>2013-07-27T08:40:01Z</time>
      </trkpt>
      <trkpt lat="46.05018" lon="6.35087">
        <ele>641</ele>
        <time>2013-07-27T08:40:02Z</time>
      </trkpt>
      <trkpt lat="46.05008" lon="6.35091">
        <ele>641</ele>
        <time>2013-07-27T08:40:03Z</time>
      </trkpt>
      <trkpt lat="46.04998" lon="6.35096">
        <ele>641</ele>
        <time>2013-07-27T08:40:04Z</time>
      </trkpt>
      <trkpt lat="46.04988" lon="6.35104">
        <ele>641</ele>
        <time>2013-07-27T08:40:05Z</time>
      </trkpt>
      <trkpt lat="46.04978" lon="6.35112">
        <ele>641</ele>
        <time>2013-07-27T08:40:06Z</time>
      </trkpt>
      <trkpt lat="46.04968" lon="6.3512">
        <ele>641</ele>
        <time>2013-07-27T08:40:07Z</time>
      </trkpt>
      <trkpt lat="46.04958" lon="6.35129">
        <ele>641</ele>
        <time>2013-07-27T08:40:08Z</time>
      </trkpt>
      <trkpt lat="46.04948" lon="6.35136">
        <ele>641</ele>
        <time>2013-07-27T08:40:09Z</time>
      </trkpt>
      <trkpt lat="46.04934" lon="6.35148">
        <ele>646</ele>
        <time>2013-07-27T08:40:11Z</time>
      </trkpt>
      <trkpt lat="46.04925" lon="6.35159">
        <ele>646</ele>
        <time>2013-07-27T08:40:13Z</time>
      </trkpt>
      <trkpt lat="46.04911" lon="6.35159">
        <ele>646</ele>
        <time>2013-07-27T08:40:16Z</time>
      </trkpt>
      <trkpt lat="46.04898" lon="6.35153">
        <ele>646</ele>
        <time>2013-07-27T08:40:18Z</time>
      </trkpt>
      <trkpt lat="46.04886" lon="6.35147">
        <ele>646</ele>
        <time>2013-07-27T08:40:20Z</time>
      </trkpt>
      <trkpt lat="46.04873" lon="6.35138">
        <ele>646</ele>
        <time>2013-07-27T08:40:22Z</time>
      </trkpt>
      <trkpt lat="46.04864" lon="6.35122">
        <ele>646</ele>
        <time>2013-07-27T08:40:24Z</time>
      </trkpt>
      <trkpt lat="46.04854" lon="6.35108">
        <ele>646</ele>
        <time>2013-07-27T08:40:26Z</time>
      </trkpt>
      <trkpt lat="46.04841" lon="6.35099">
        <ele>652</ele>
        <time>2013-07-27T08:40:28Z</time>
      </trkpt>
      <trkpt lat="46.04831" lon="6.35091">
        <ele>652</ele>
        <time>2013-07-27T08:40:30Z</time>
      </trkpt>
      <trkpt lat="46.04835" lon="6.35072">
        <ele>652</ele>
        <time>2013-07-27T08:40:34Z</time>
      </trkpt>
      <trkpt lat="46.04844" lon="6.35051">
        <ele>652</ele>
        <time>2013-07-27T08:40:36Z</time>
      </trkpt>
      <trkpt lat="46.04848" lon="6.35038">
        <ele>652</ele>
        <time>2013-07-27T08:40:37Z</time>
      </trkpt>
      <trkpt lat="46.04852" lon="6.35024">
        <ele>652</ele>
        <time>2013-07-27T08:40:38Z</time>
      </trkpt>
      <trkpt lat="46.04855" lon="6.35007">
        <ele>652</ele>
        <time>2013-07-27T08:40:39Z</time>
      </trkpt>
      <trkpt lat="46.04858" lon="6.34991">
        <ele>652</ele>
        <time>2013-07-27T08:40:40Z</time>
      </trkpt>
      <trkpt lat="46.04861" lon="6.34975">
        <ele>652</ele>
        <time>2013-07-27T08:40:41Z</time>
      </trkpt>
      <trkpt lat="46.04865" lon="6.34957">
        <ele>652</ele>
        <time>2013-07-27T08:40:42Z</time>
      </trkpt>
      <trkpt lat="46.04869" lon="6.3494">
        <ele>652</ele>
        <time>2013-07-27T08:40:43Z</time>
      </trkpt>
      <trkpt lat="46.04872" lon="6.34923">
        <ele>652</ele>
        <time>2013-07-27T08:40:44Z</time>
      </trkpt>
      <trkpt lat="46.04874" lon="6.34908">
        <ele>652</ele>
        <time>2013-07-27T08:40:45Z</time>
      </trkpt>
      <trkpt lat="46.04878" lon="6.34894">
        <ele>652</ele>
        <time>2013-07-27T08:40:46Z</time>
      </trkpt>
      <trkpt lat="46.04881" lon="6.3487">
        <ele>652</ele>
        <time>2013-07-27T08:40:48Z</time>
      </trkpt>
      <trkpt lat="46.04883" lon="6.34851">
        <ele>652</ele>
        <time>2013-07-27T08:40:50Z</time>
      </trkpt>
      <trkpt lat="46.04874" lon="6.34838">
        <ele>652</ele>
        <time>2013-07-27T08:40:52Z</time>
      </trkpt>
      <trkpt lat="46.04858" lon="6.34828">
        <ele>652</ele>
        <time>2013-07-27T08:40:54Z</time>
      </trkpt>
      <trkpt lat="46.04846" lon="6.34824">
        <ele>652</ele>
        <time>2013-07-27T08:40:55Z</time>
      </trkpt>
      <trkpt lat="46.04835" lon="6.3482">
        <ele>652</ele>
        <time>2013-07-27T08:40:56Z</time>
      </trkpt>
      <trkpt lat="46.04824" lon="6.34816">
        <ele>652</ele>
        <time>2013-07-27T08:40:57Z</time>
      </trkpt>
      <trkpt lat="46.04813" lon="6.34812">
        <ele>657</ele>
        <time>2013-07-27T08:40:58Z</time>
      </trkpt>
      <trkpt lat="46.04802" lon="6.34808">
        <ele>657</ele>
        <time>2013-07-27T08:40:59Z</time>
      </trkpt>
      <trkpt lat="46.04791" lon="6.34803">
        <ele>657</ele>
        <time>2013-07-27T08:41:00Z</time>
      </trkpt>
      <trkpt lat="46.04779" lon="6.34798">
        <ele>657</ele>
        <time>2013-07-27T08:41:01Z</time>
      </trkpt>
      <trkpt lat="46.04769" lon="6.34794">
        <ele>657</ele>
        <time>2013-07-27T08:41:02Z</time>
      </trkpt>
      <trkpt lat="46.0476" lon="6.34789">
        <ele>663</ele>
        <time>2013-07-27T08:41:03Z</time>
      </trkpt>
      <trkpt lat="46.04746" lon="6.34783">
        <ele>663</ele>
        <time>2013-07-27T08:41:05Z</time>
      </trkpt>
      <trkpt lat="46.04727" lon="6.34776">
        <ele>663</ele>
        <time>2013-07-27T08:41:07Z</time>
      </trkpt>
      <trkpt lat="46.04717" lon="6.34771">
        <ele>663</ele>
        <time>2013-07-27T08:41:08Z</time>
      </trkpt>
      <trkpt lat="46.04706" lon="6.34765">
        <ele>669</ele>
        <time>2013-07-27T08:41:09Z</time>
      </trkpt>
      <trkpt lat="46.04696" lon="6.34758">
        <ele>669</ele>
        <time>2013-07-27T08:41:10Z</time>
      </trkpt>
      <trkpt lat="46.04685" lon="6.34751">
        <ele>669</ele>
        <time>2013-07-27T08:41:11Z</time>
      </trkpt>
      <trkpt lat="46.04676" lon="6.34745">
        <ele>669</ele>
        <time>2013-07-27T08:41:12Z</time>
      </trkpt>
      <trkpt lat="46.04667" lon="6.34742">
        <ele>669</ele>
        <time>2013-07-27T08:41:13Z</time>
      </trkpt>
      <trkpt lat="46.04656" lon="6.34734">
        <ele>675</ele>
        <time>2013-07-27T08:41:15Z</time>
      </trkpt>
      <trkpt lat="46.04652" lon="6.34721">
        <ele>675</ele>
        <time>2013-07-27T08:41:17Z</time>
      </trkpt>
      <trkpt lat="46.04656" lon="6.34696">
        <ele>675</ele>
        <time>2013-07-27T08:41:19Z</time>
      </trkpt>
      <trkpt lat="46.04658" lon="6.3468">
        <ele>675</ele>
        <time>2013-07-27T08:41:20Z</time>
      </trkpt>
      <trkpt lat="46.04661" lon="6.34666">
        <ele>675</ele>
        <time>2013-07-27T08:41:21Z</time>
      </trkpt>
      <trkpt lat="46.04664" lon="6.34645">
        <ele>675</ele>
        <time>2013-07-27T08:41:23Z</time>
      </trkpt>
      <trkpt lat="46.04655" lon="6.34632">
        <ele>675</ele>
        <time>2013-07-27T08:41:26Z</time>
      </trkpt>
      <trkpt lat="46.04639" lon="6.34626">
        <ele>681</ele>
        <time>2013-07-27T08:41:28Z</time>
      </trkpt>
      <trkpt lat="46.04629" lon="6.3462">
        <ele>681</ele>
        <time>2013-07-27T08:41:29Z</time>
      </trkpt>
      <trkpt lat="46.04619" lon="6.34616">
        <ele>681</ele>
        <time>2013-07-27T08:41:30Z</time>
      </trkpt>
      <trkpt lat="46.04609" lon="6.3461">
        <ele>681</ele>
        <time>2013-07-27T08:41:31Z</time>
      </trkpt>
      <trkpt lat="46.046" lon="6.34607">
        <ele>681</ele>
        <time>2013-07-27T08:41:32Z</time>
      </trkpt>
      <trkpt lat="46.04591" lon="6.34605">
        <ele>681</ele>
        <time>2013-07-27T08:41:33Z</time>
      </trkpt>
      <trkpt lat="46.0458" lon="6.34605">
        <ele>686</ele>
        <time>2013-07-27T08:41:34Z</time>
      </trkpt>
      <trkpt lat="46.0457" lon="6.34607">
        <ele>686</ele>
        <time>2013-07-27T08:41:35Z</time>
      </trkpt>
      <trkpt lat="46.04559" lon="6.3461">
        <ele>686</ele>
        <time>2013-07-27T08:41:36Z</time>
      </trkpt>
      <trkpt lat="46.04547" lon="6.34614">
        <ele>686</ele>
        <time>2013-07-27T08:41:37Z</time>
      </trkpt>
      <trkpt lat="46.04535" lon="6.34618">
        <ele>686</ele>
        <time>2013-07-27T08:41:38Z</time>
      </trkpt>
      <trkpt lat="46.04522" lon="6.3462">
        <ele>692</ele>
        <time>2013-07-27T08:41:39Z</time>
      </trkpt>
      <trkpt lat="46.0451" lon="6.34623">
        <ele>692</ele>
        <time>2013-07-27T08:41:40Z</time>
      </trkpt>
      <trkpt lat="46.04499" lon="6.34627">
        <ele>692</ele>
        <time>2013-07-27T08:41:41Z</time>
      </trkpt>
      <trkpt lat="46.04488" lon="6.34634">
        <ele>692</ele>
        <time>2013-07-27T08:41:42Z</time>
      </trkpt>
      <trkpt lat="46.04479" lon="6.34638">
        <ele>692</ele>
        <time>2013-07-27T08:41:43Z</time>
      </trkpt>
      <trkpt lat="46.04469" lon="6.34643">
        <ele>698</ele>
        <time>2013-07-27T08:41:44Z</time>
      </trkpt>
      <trkpt lat="46.04459" lon="6.34645">
        <ele>698</ele>
        <time>2013-07-27T08:41:45Z</time>
      </trkpt>
      <trkpt lat="46.04449" lon="6.34644">
        <ele>698</ele>
        <time>2013-07-27T08:41:46Z</time>
      </trkpt>
      <trkpt lat="46.04439" lon="6.34639">
        <ele>698</ele>
        <time>2013-07-27T08:41:47Z</time>
      </trkpt>
      <trkpt lat="46.04431" lon="6.34632">
        <ele>703</ele>
        <time>2013-07-27T08:41:48Z</time>
      </trkpt>
      <trkpt lat="46.04423" lon="6.3462">
        <ele>703</ele>
        <time>2013-07-27T08:41:49Z</time>
      </trkpt>
      <trkpt lat="46.04416" lon="6.34609">
        <ele>703</ele>
        <time>2013-07-27T08:41:50Z</time>
      </trkpt>
      <trkpt lat="46.04408" lon="6.34601">
        <ele>703</ele>
        <time>2013-07-27T08:41:51Z</time>
      </trkpt>
      <trkpt lat="46.04394" lon="6.34592">
        <ele>709</ele>
        <time>2013-07-27T08:41:53Z</time>
      </trkpt>
      <trkpt lat="46.04378" lon="6.34586">
        <ele>709</ele>
        <time>2013-07-27T08:41:55Z</time>
      </trkpt>
      <trkpt lat="46.0436" lon="6.3458">
        <ele>709</ele>
        <time>2013-07-27T08:41:57Z</time>
      </trkpt>
      <trkpt lat="46.04351" lon="6.34575">
        <ele>715</ele>
        <time>2013-07-27T08:41:58Z</time>
      </trkpt>
      <trkpt lat="46.04342" lon="6.3457">
        <ele>715</ele>
        <time>2013-07-27T08:41:59Z</time>
      </trkpt>
      <trkpt lat="46.04332" lon="6.34561">
        <ele>715</ele>
        <time>2013-07-27T08:42:00Z</time>
      </trkpt>
      <trkpt lat="46.04322" lon="6.34551">
        <ele>715</ele>
        <time>2013-07-27T08:42:01Z</time>
      </trkpt>
      <trkpt lat="46.0431" lon="6.34541">
        <ele>720</ele>
        <time>2013-07-27T08:42:02Z</time>
      </trkpt>
      <trkpt lat="46.043" lon="6.34531">
        <ele>720</ele>
        <time>2013-07-27T08:42:03Z</time>
      </trkpt>
      <trkpt lat="46.04288" lon="6.34522">
        <ele>720</ele>
        <time>2013-07-27T08:42:04Z</time>
      </trkpt>
      <trkpt lat="46.04276" lon="6.34514">
        <ele>726</ele>
        <time>2013-07-27T08:42:05Z</time>
      </trkpt>
      <trkpt lat="46.04264" lon="6.34509">
        <ele>726</ele>
        <time>2013-07-27T08:42:06Z</time>
      </trkpt>
      <trkpt lat="46.04253" lon="6.34506">
        <ele>726</ele>
        <time>2013-07-27T08:42:07Z</time>
      </trkpt>
      <trkpt lat="46.04243" lon="6.34504">
        <ele>732</ele>
        <time>2013-07-27T08:42:08Z</time>
      </trkpt>
      <trkpt lat="46.04234" lon="6.34503">
        <ele>732</ele>
        <time>2013-07-27T08:42:09Z</time>
      </trkpt>
      <trkpt lat="46.04221" lon="6.34491">
        <ele>739</ele>
        <time>2013-07-27T08:42:11Z</time>
      </trkpt>
      <trkpt lat="46.04207" lon="6.3448">
        <ele>739</ele>
        <time>2013-07-27T08:42:13Z</time>
      </trkpt>
      <trkpt lat="46.04194" lon="6.34472">
        <ele>747</ele>
        <time>2013-07-27T08:42:15Z</time>
      </trkpt>
      <trkpt lat="46.0418" lon="6.34466">
        <ele>753</ele>
        <time>2013-07-27T08:42:17Z</time>
      </trkpt>
      <trkpt lat="46.04165" lon="6.34458">
        <ele>753</ele>
        <time>2013-07-27T08:42:19Z</time>
      </trkpt>
      <trkpt lat="46.04156" lon="6.34453">
        <ele>758</ele>
        <time>2013-07-27T08:42:20Z</time>
      </trkpt>
      <trkpt lat="46.04148" lon="6.34449">
        <ele>758</ele>
        <time>2013-07-27T08:42:21Z</time>
      </trkpt>
      <trkpt lat="46.04131" lon="6.34439">
        <ele>767</ele>
        <time>2013-07-27T08:42:23Z</time>
      </trkpt>
      <trkpt lat="46.04122" lon="6.34434">
        <ele>767</ele>
        <time>2013-07-27T08:42:24Z</time>
      </trkpt>
      <trkpt lat="46.04113" lon="6.34431">
        <ele>774</ele>
        <time>2013-07-27T08:42:25Z</time>
      </trkpt>
      <trkpt lat="46.04096" lon="6.34429">
        <ele>782</ele>
        <time>2013-07-27T08:42:27Z</time>
      </trkpt>
      <trkpt lat="46.0408" lon="6.34436">
        <ele>787</ele>
        <time>2013-07-27T08:42:29Z</time>
      </trkpt>
      <trkpt lat="46.0407" lon="6.3444">
        <ele>787</ele>
        <time>2013-07-27T08:42:30Z</time>
      </trkpt>
      <trkpt lat="46.04059" lon="6.34442">
        <ele>794</ele>
        <time>2013-07-27T08:42:31Z</time>
      </trkpt>
      <trkpt lat="46.0405" lon="6.34445">
        <ele>794</ele>
        <time>2013-07-27T08:42:32Z</time>
      </trkpt>
      <trkpt lat="46.04041" lon="6.34447">
        <ele>794</ele>
        <time>2013-07-27T08:42:33Z</time>
      </trkpt>
      <trkpt lat="46.04029" lon="6.34448">
        <ele>800</ele>
        <time>2013-07-27T08:42:34Z</time>
      </trkpt>
      <trkpt lat="46.04017" lon="6.34449">
        <ele>800</ele>
        <time>2013-07-27T08:42:35Z</time>
      </trkpt>
      <trkpt lat="46.04007" lon="6.3445">
        <ele>800</ele>
        <time>2013-07-27T08:42:36Z</time>
      </trkpt>
      <trkpt lat="46.03997" lon="6.3445">
        <ele>806</ele>
        <time>2013-07-27T08:42:37Z</time>
      </trkpt>
      <trkpt lat="46.03987" lon="6.34451">
        <ele>806</ele>
        <time>2013-07-27T08:42:38Z</time>
      </trkpt>
      <trkpt lat="46.03977" lon="6.34449">
        <ele>806</ele>
        <time>2013-07-27T08:42:39Z</time>
      </trkpt>
      <trkpt lat="46.03967" lon="6.34448">
        <ele>806</ele>
        <time>2013-07-27T08:42:40Z</time>
      </trkpt>
      <trkpt lat="46.03957" lon="6.34445">
        <ele>812</ele>
        <time>2013-07-27T08:42:41Z</time>
      </trkpt>
      <trkpt lat="46.03946" lon="6.34442">
        <ele>812</ele>
        <time>2013-07-27T08:42:42Z</time>
      </trkpt>
      <trkpt lat="46.03936" lon="6.34441">
        <ele>817</ele>
        <time>2013-07-27T08:42:43Z</time>
      </trkpt>
      <trkpt lat="46.03919" lon="6.34438">
        <ele>817</ele>
        <time>2013-07-27T08:42:45Z</time>
      </trkpt>
      <trkpt lat="46.03904" lon="6.34441">
        <ele>817</ele>
        <time>2013-07-27T08:42:47Z</time>
      </trkpt>
      <trkpt lat="46.03889" lon="6.34446">
        <ele>826</ele>
        <time>2013-07-27T08:42:49Z</time>
      </trkpt>
      <trkpt lat="46.03874" lon="6.34449">
        <ele>826</ele>
        <time>2013-07-27T08:42:51Z</time>
      </trkpt>
      <trkpt lat="46.03858" lon="6.34449">
        <ele>831</ele>
        <time>2013-07-27T08:42:53Z</time>
      </trkpt>
      <trkpt lat="46.03842" lon="6.34452">
        <ele>831</ele>
        <time>2013-07-27T08:42:55Z</time>
      </trkpt>
      <trkpt lat="46.03827" lon="6.34452">
        <ele>831</ele>
        <time>2013-07-27T08:42:57Z</time>
      </trkpt>
      <trkpt lat="46.03816" lon="6.34449">
        <ele>837</ele>
        <time>2013-07-27T08:42:59Z</time>
      </trkpt>
      <trkpt lat="46.03825" lon="6.34445">
        <ele>845</ele>
        <time>2013-07-27T08:43:07Z</time>
      </trkpt>
      <trkpt lat="46.03819" lon="6.34432">
        <ele>852</ele>
        <time>2013-07-27T08:43:49Z</time>
      </trkpt>
      <trkpt lat="46.03812" lon="6.34419">
        <ele>852</ele>
        <time>2013-07-27T08:43:52Z</time>
      </trkpt>
      <trkpt lat="46.03802" lon="6.34407">
        <ele>852</ele>
        <time>2013-07-27T08:43:54Z</time>
      </trkpt>
      <trkpt lat="46.03791" lon="6.34397">
        <ele>858</ele>
        <time>2013-07-27T08:43:56Z</time>
      </trkpt>
      <trkpt lat="46.03777" lon="6.3439">
        <ele>858</ele>
        <time>2013-07-27T08:43:58Z</time>
      </trkpt>
      <trkpt lat="46.0376" lon="6.34384">
        <ele>869</ele>
        <time>2013-07-27T08:44:00Z</time>
      </trkpt>
      <trkpt lat="46.0375" lon="6.3438">
        <ele>869</ele>
        <time>2013-07-27T08:44:01Z</time>
      </trkpt>
      <trkpt lat="46.03734" lon="6.34371">
        <ele>876</ele>
        <time>2013-07-27T08:44:03Z</time>
      </trkpt>
      <trkpt lat="46.03719" lon="6.34362">
        <ele>882</ele>
        <time>2013-07-27T08:44:05Z</time>
      </trkpt>
      <trkpt lat="46.03705" lon="6.34351">
        <ele>888</ele>
        <time>2013-07-27T08:44:07Z</time>
      </trkpt>
      <trkpt lat="46.03693" lon="6.34335">
        <ele>888</ele>
        <time>2013-07-27T08:44:09Z</time>
      </trkpt>
      <trkpt lat="46.03682" lon="6.3432">
        <ele>895</ele>
        <time>2013-07-27T08:44:11Z</time>
      </trkpt>
      <trkpt lat="46.0367" lon="6.3431">
        <ele>895</ele>
        <time>2013-07-27T08:44:13Z</time>
      </trkpt>
      <trkpt lat="46.03657" lon="6.34302">
        <ele>895</ele>
        <time>2013-07-27T08:44:15Z</time>
      </trkpt>
      <trkpt lat="46.03647" lon="6.34299">
        <ele>895</ele>
        <time>2013-07-27T08:44:17Z</time>
      </trkpt>
      <trkpt lat="46.03638" lon="6.34306">
        <ele>902</ele>
        <time>2013-07-27T08:44:20Z</time>
      </trkpt>
      <trkpt lat="46.03628" lon="6.34314">
        <ele>902</ele>
        <time>2013-07-27T08:44:23Z</time>
      </trkpt>
      <trkpt lat="46.03619" lon="6.34316">
        <ele>902</ele>
        <time>2013-07-27T08:44:25Z</time>
      </trkpt>
      <trkpt lat="46.03609" lon="6.34317">
        <ele>902</ele>
        <time>2013-07-27T08:44:28Z</time>
      </trkpt>
      <trkpt lat="46.03595" lon="6.34313">
        <ele>902</ele>
        <time>2013-07-27T08:44:30Z</time>
      </trkpt>
      <trkpt lat="46.03581" lon="6.34314">
        <ele>902</ele>
        <time>2013-07-27T08:44:32Z</time>
      </trkpt>
      <trkpt lat="46.03569" lon="6.34315">
        <ele>902</ele>
        <time>2013-07-27T08:44:34Z</time>
      </trkpt>
      <trkpt lat="46.03558" lon="6.34314">
        <ele>902</ele>
        <time>2013-07-27T08:44:36Z</time>
      </trkpt>
      <trkpt lat="46.03547" lon="6.34314">
        <ele>902</ele>
        <time>2013-07-27T08:44:38Z</time>
      </trkpt>
      <trkpt lat="46.03536" lon="6.3431">
        <ele>908</ele>
        <time>2013-07-27T08:44:40Z</time>
      </trkpt>
      <trkpt lat="46.03525" lon="6.34308">
        <ele>908</ele>
        <time>2013-07-27T08:44:42Z</time>
      </trkpt>
      <trkpt lat="46.03512" lon="6.34308">
        <ele>908</ele>
        <time>2013-07-27T08:44:45Z</time>
      </trkpt>
      <trkpt lat="46.035" lon="6.34308">
        <ele>908</ele>
        <time>2013-07-27T08:44:47Z</time>
      </trkpt>
      <trkpt lat="46.03488" lon="6.34309">
        <ele>908</ele>
        <time>2013-07-27T08:44:49Z</time>
      </trkpt>
      <trkpt lat="46.03476" lon="6.34312">
        <ele>919</ele>
        <time>2013-07-27T08:44:52Z</time>
      </trkpt>
      <trkpt lat="46.03466" lon="6.34312">
        <ele>919</ele>
        <time>2013-07-27T08:44:55Z</time>
      </trkpt>
      <trkpt lat="46.03476" lon="6.34312">
        <ele>919</ele>
        <time>2013-07-27T08:45:43Z</time>
      </trkpt>
      <trkpt lat="46.03486" lon="6.34313">
        <ele>919</ele>
        <time>2013-07-27T08:46:10Z</time>
      </trkpt>
      <trkpt lat="46.03496" lon="6.34309">
        <ele>919</ele>
        <time>2013-07-27T08:46:28Z</time>
      </trkpt>
      <trkpt lat="46.03506" lon="6.34309">
        <ele>919</ele>
        <time>2013-07-27T08:46:31Z</time>
      </trkpt>
      <trkpt lat="46.03517" lon="6.3431">
        <ele>913</ele>
        <time>2013-07-27T08:46:35Z</time>
      </trkpt>
      <trkpt lat="46.03528" lon="6.34314">
        <ele>913</ele>
        <time>2013-07-27T08:46:38Z</time>
      </trkpt>
      <trkpt lat="46.03538" lon="6.34318">
        <ele>907</ele>
        <time>2013-07-27T08:46:41Z</time>
      </trkpt>
      <trkpt lat="46.03548" lon="6.3432">
        <ele>907</ele>
        <time>2013-07-27T08:46:44Z</time>
      </trkpt>
      <trkpt lat="46.0356" lon="6.34323">
        <ele>907</ele>
        <time>2013-07-27T08:46:47Z</time>
      </trkpt>
      <trkpt lat="46.03571" lon="6.34324">
        <ele>907</ele>
        <time>2013-07-27T08:46:50Z</time>
      </trkpt>
      <trkpt lat="46.03582" lon="6.3432">
        <ele>907</ele>
        <time>2013-07-27T08:46:53Z</time>
      </trkpt>
      <trkpt lat="46.03591" lon="6.34321">
        <ele>907</ele>
        <time>2013-07-27T08:46:55Z</time>
      </trkpt>
      <trkpt lat="46.03604" lon="6.34321">
        <ele>895</ele>
        <time>2013-07-27T08:46:58Z</time>
      </trkpt>
      <trkpt lat="46.03614" lon="6.34319">
        <ele>890</ele>
        <time>2013-07-27T08:47:02Z</time>
      </trkpt>
      <trkpt lat="46.03626" lon="6.34313">
        <ele>890</ele>
        <time>2013-07-27T08:47:06Z</time>
      </trkpt>
      <trkpt lat="46.03636" lon="6.34309">
        <ele>884</ele>
        <time>2013-07-27T08:47:09Z</time>
      </trkpt>
      <trkpt lat="46.03647" lon="6.34313">
        <ele>894</ele>
        <time>2013-07-27T08:47:31Z</time>
      </trkpt>
      <trkpt lat="46.03656" lon="6.34317">
        <ele>884</ele>
        <time>2013-07-27T08:48:05Z</time>
      </trkpt>
      <trkpt lat="46.03665" lon="6.34325">
        <ele>878</ele>
        <time>2013-07-27T08:48:08Z</time>
      </trkpt>
      <trkpt lat="46.03673" lon="6.34338">
        <ele>878</ele>
        <time>2013-07-27T08:48:11Z</time>
      </trkpt>
      <trkpt lat="46.0368" lon="6.3435">
        <ele>878</ele>
        <time>2013-07-27T08:48:13Z</time>
      </trkpt>
      <trkpt lat="46.03688" lon="6.34359">
        <ele>878</ele>
        <time>2013-07-27T08:48:16Z</time>
      </trkpt>
      <trkpt lat="46.03699" lon="6.34362">
        <ele>871</ele>
        <time>2013-07-27T08:48:20Z</time>
      </trkpt>
      <trkpt lat="46.03709" lon="6.34367">
        <ele>871</ele>
        <time>2013-07-27T08:48:22Z</time>
      </trkpt>
      <trkpt lat="46.03721" lon="6.34372">
        <ele>865</ele>
        <time>2013-07-27T08:48:24Z</time>
      </trkpt>
      <trkpt lat="46.03733" lon="6.34379">
        <ele>865</ele>
        <time>2013-07-27T08:48:26Z</time>
      </trkpt>
      <trkpt lat="46.03746" lon="6.34382">
        <ele>858</ele>
        <time>2013-07-27T08:48:28Z</time>
      </trkpt>
      <trkpt lat="46.03755" lon="6.34389">
        <ele>853</ele>
        <time>2013-07-27T08:48:30Z</time>
      </trkpt>
      <trkpt lat="46.03764" lon="6.34398">
        <ele>847</ele>
        <time>2013-07-27T08:48:32Z</time>
      </trkpt>
      <trkpt lat="46.03772" lon="6.34405">
        <ele>842</ele>
        <time>2013-07-27T08:48:34Z</time>
      </trkpt>
      <trkpt lat="46.03782" lon="6.34413">
        <ele>842</ele>
        <time>2013-07-27T08:48:36Z</time>
      </trkpt>
      <trkpt lat="46.03793" lon="6.3442">
        <ele>836</ele>
        <time>2013-07-27T08:48:38Z</time>
      </trkpt>
      <trkpt lat="46.03802" lon="6.34426">
        <ele>836</ele>
        <time>2013-07-27T08:48:40Z</time>
      </trkpt>
      <trkpt lat="46.03809" lon="6.34439">
        <ele>829</ele>
        <time>2013-07-27T08:48:43Z</time>
      </trkpt>
      <trkpt lat="46.03817" lon="6.34449">
        <ele>829</ele>
        <time>2013-07-27T08:48:46Z</time>
      </trkpt>
      <trkpt lat="46.03829" lon="6.34452">
        <ele>824</ele>
        <time>2013-07-27T08:48:49Z</time>
      </trkpt>
      <trkpt lat="46.03842" lon="6.34451">
        <ele>824</ele>
        <time>2013-07-27T08:48:51Z</time>
      </trkpt>
      <trkpt lat="46.03856" lon="6.34452">
        <ele>824</ele>
        <time>2013-07-27T08:48:53Z</time>
      </trkpt>
      <trkpt lat="46.0387" lon="6.34454">
        <ele>824</ele>
        <time>2013-07-27T08:48:55Z</time>
      </trkpt>
      <trkpt lat="46.03884" lon="6.34453">
        <ele>824</ele>
        <time>2013-07-27T08:48:57Z</time>
      </trkpt>
      <trkpt lat="46.03899" lon="6.34451">
        <ele>819</ele>
        <time>2013-07-27T08:48:59Z</time>
      </trkpt>
      <trkpt lat="46.03912" lon="6.34444">
        <ele>819</ele>
        <time>2013-07-27T08:49:01Z</time>
      </trkpt>
      <trkpt lat="46.03926" lon="6.34442">
        <ele>819</ele>
        <time>2013-07-27T08:49:03Z</time>
      </trkpt>
      <trkpt lat="46.03936" lon="6.34442">
        <ele>813</ele>
        <time>2013-07-27T08:49:06Z</time>
      </trkpt>
      <trkpt lat="46.03947" lon="6.34444">
        <ele>813</ele>
        <time>2013-07-27T08:49:09Z</time>
      </trkpt>
      <trkpt lat="46.03957" lon="6.34446">
        <ele>802</ele>
        <time>2013-07-27T08:49:11Z</time>
      </trkpt>
      <trkpt lat="46.03967" lon="6.34449">
        <ele>802</ele>
        <time>2013-07-27T08:49:13Z</time>
      </trkpt>
      <trkpt lat="46.03979" lon="6.3445">
        <ele>797</ele>
        <time>2013-07-27T08:49:15Z</time>
      </trkpt>
      <trkpt lat="46.03989" lon="6.34449">
        <ele>797</ele>
        <time>2013-07-27T08:49:16Z</time>
      </trkpt>
      <trkpt lat="46.04" lon="6.34449">
        <ele>797</ele>
        <time>2013-07-27T08:49:18Z</time>
      </trkpt>
      <trkpt lat="46.04011" lon="6.34449">
        <ele>797</ele>
        <time>2013-07-27T08:49:20Z</time>
      </trkpt>
      <trkpt lat="46.04025" lon="6.34448">
        <ele>797</ele>
        <time>2013-07-27T08:49:22Z</time>
      </trkpt>
      <trkpt lat="46.0404" lon="6.34445">
        <ele>791</ele>
        <time>2013-07-27T08:49:24Z</time>
      </trkpt>
      <trkpt lat="46.04053" lon="6.34444">
        <ele>791</ele>
        <time>2013-07-27T08:49:26Z</time>
      </trkpt>
      <trkpt lat="46.04066" lon="6.34442">
        <ele>783</ele>
        <time>2013-07-27T08:49:28Z</time>
      </trkpt>
      <trkpt lat="46.04077" lon="6.34435">
        <ele>778</ele>
        <time>2013-07-27T08:49:30Z</time>
      </trkpt>
      <trkpt lat="46.04088" lon="6.34428">
        <ele>778</ele>
        <time>2013-07-27T08:49:32Z</time>
      </trkpt>
      <trkpt lat="46.04098" lon="6.3443">
        <ele>778</ele>
        <time>2013-07-27T08:49:34Z</time>
      </trkpt>
      <trkpt lat="46.0411" lon="6.34433">
        <ele>769</ele>
        <time>2013-07-27T08:49:36Z</time>
      </trkpt>
      <trkpt lat="46.04124" lon="6.34441">
        <ele>769</ele>
        <time>2013-07-27T08:49:38Z</time>
      </trkpt>
      <trkpt lat="46.04133" lon="6.34446">
        <ele>762</ele>
        <time>2013-07-27T08:49:39Z</time>
      </trkpt>
      <trkpt lat="46.04145" lon="6.34451">
        <ele>762</ele>
        <time>2013-07-27T08:49:41Z</time>
      </trkpt>
      <trkpt lat="46.04156" lon="6.34453">
        <ele>756</ele>
        <time>2013-07-27T08:49:43Z</time>
      </trkpt>
      <trkpt lat="46.04165" lon="6.34451">
        <ele>756</ele>
        <time>2013-07-27T08:49:45Z</time>
      </trkpt>
      <trkpt lat="46.04159" lon="6.34438">
        <ele>763</ele>
        <time>2013-07-27T08:50:23Z</time>
      </trkpt>
      <trkpt lat="46.04151" lon="6.34424">
        <ele>763</ele>
        <time>2013-07-27T08:50:25Z</time>
      </trkpt>
      <trkpt lat="46.04138" lon="6.34413">
        <ele>754</ele>
        <time>2013-07-27T08:50:27Z</time>
      </trkpt>
      <trkpt lat="46.04123" lon="6.34404">
        <ele>754</ele>
        <time>2013-07-27T08:50:29Z</time>
      </trkpt>
      <trkpt lat="46.04109" lon="6.34393">
        <ele>754</ele>
        <time>2013-07-27T08:50:31Z</time>
      </trkpt>
      <trkpt lat="46.04098" lon="6.34381">
        <ele>754</ele>
        <time>2013-07-27T08:50:33Z</time>
      </trkpt>
      <trkpt lat="46.04086" lon="6.34373">
        <ele>754</ele>
        <time>2013-07-27T08:50:35Z</time>
      </trkpt>
      <trkpt lat="46.04076" lon="6.34371">
        <ele>754</ele>
        <time>2013-07-27T08:50:37Z</time>
      </trkpt>
      <trkpt lat="46.04066" lon="6.34369">
        <ele>754</ele>
        <time>2013-07-27T08:50:39Z</time>
      </trkpt>
      <trkpt lat="46.04056" lon="6.34362">
        <ele>754</ele>
        <time>2013-07-27T08:50:41Z</time>
      </trkpt>
      <trkpt lat="46.04064" lon="6.34344">
        <ele>762</ele>
        <time>2013-07-27T08:50:45Z</time>
      </trkpt>
      <trkpt lat="46.04063" lon="6.34326">
        <ele>762</ele>
        <time>2013-07-27T08:50:48Z</time>
      </trkpt>
      <trkpt lat="46.04058" lon="6.34314">
        <ele>762</ele>
        <time>2013-07-27T08:50:51Z</time>
      </trkpt>
      <trkpt lat="46.04048" lon="6.34309">
        <ele>762</ele>
        <time>2013-07-27T08:50:53Z</time>
      </trkpt>
      <trkpt lat="46.04036" lon="6.34305">
        <ele>762</ele>
        <time>2013-07-27T08:50:55Z</time>
      </trkpt>
      <trkpt lat="46.04024" lon="6.343">
        <ele>762</ele>
        <time>2013-07-27T08:50:57Z</time>
      </trkpt>
      <trkpt lat="46.04012" lon="6.34295">
        <ele>762</ele>
        <time>2013-07-27T08:50:59Z</time>
      </trkpt>
      <trkpt lat="46.03999" lon="6.34288">
        <ele>769</ele>
        <time>2013-07-27T08:51:01Z</time>
      </trkpt>
      <trkpt lat="46.03984" lon="6.34279">
        <ele>769</ele>
        <time>2013-07-27T08:51:03Z</time>
      </trkpt>
      <trkpt lat="46.03966" lon="6.34268">
        <ele>774</ele>
        <time>2013-07-27T08:51:05Z</time>
      </trkpt>
      <trkpt lat="46.03956" lon="6.34262">
        <ele>774</ele>
        <time>2013-07-27T08:51:06Z</time>
      </trkpt>
      <trkpt lat="46.03947" lon="6.34256">
        <ele>774</ele>
        <time>2013-07-27T08:51:07Z</time>
      </trkpt>
      <trkpt lat="46.03932" lon="6.34249">
        <ele>782</ele>
        <time>2013-07-27T08:51:09Z</time>
      </trkpt>
      <trkpt lat="46.03919" lon="6.34245">
        <ele>782</ele>
        <time>2013-07-27T08:51:11Z</time>
      </trkpt>
      <trkpt lat="46.03909" lon="6.34239">
        <ele>789</ele>
        <time>2013-07-27T08:51:13Z</time>
      </trkpt>
      <trkpt lat="46.03897" lon="6.34236">
        <ele>789</ele>
        <time>2013-07-27T08:51:16Z</time>
      </trkpt>
      <trkpt lat="46.03906" lon="6.34229">
        <ele>816</ele>
        <time>2013-07-27T08:52:14Z</time>
      </trkpt>
      <trkpt lat="46.03894" lon="6.34224">
        <ele>816</ele>
        <time>2013-07-27T08:52:28Z</time>
      </trkpt>
      <trkpt lat="46.03882" lon="6.34215">
        <ele>811</ele>
        <time>2013-07-27T08:52:30Z</time>
      </trkpt>
      <trkpt lat="46.0387" lon="6.34205">
        <ele>811</ele>
        <time>2013-07-27T08:52:32Z</time>
      </trkpt>
      <trkpt lat="46.0386" lon="6.34191">
        <ele>816</ele>
        <time>2013-07-27T08:52:34Z</time>
      </trkpt>
      <trkpt lat="46.0385" lon="6.34175">
        <ele>816</ele>
        <time>2013-07-27T08:52:36Z</time>
      </trkpt>
      <trkpt lat="46.0384" lon="6.34157">
        <ele>826</ele>
        <time>2013-07-27T08:52:38Z</time>
      </trkpt>
      <trkpt lat="46.03829" lon="6.3414">
        <ele>831</ele>
        <time>2013-07-27T08:52:40Z</time>
      </trkpt>
      <trkpt lat="46.03819" lon="6.34124">
        <ele>838</ele>
        <time>2013-07-27T08:52:42Z</time>
      </trkpt>
      <trkpt lat="46.03809" lon="6.3411">
        <ele>846</ele>
        <time>2013-07-27T08:52:44Z</time>
      </trkpt>
      <trkpt lat="46.038" lon="6.34097">
        <ele>851</ele>
        <time>2013-07-27T08:52:46Z</time>
      </trkpt>
      <trkpt lat="46.03793" lon="6.34085">
        <ele>851</ele>
        <time>2013-07-27T08:52:48Z</time>
      </trkpt>
      <trkpt lat="46.03778" lon="6.34084">
        <ele>851</ele>
        <time>2013-07-27T08:52:50Z</time>
      </trkpt>
      <trkpt lat="46.03767" lon="6.34088">
        <ele>851</ele>
        <time>2013-07-27T08:52:51Z</time>
      </trkpt>
      <trkpt lat="46.03756" lon="6.34088">
        <ele>857</ele>
        <time>2013-07-27T08:52:53Z</time>
      </trkpt>
      <trkpt lat="46.0374" lon="6.34087">
        <ele>857</ele>
        <time>2013-07-27T08:52:55Z</time>
      </trkpt>
      <trkpt lat="46.03727" lon="6.34084">
        <ele>857</ele>
        <time>2013-07-27T08:52:57Z</time>
      </trkpt>
      <trkpt lat="46.03715" lon="6.34088">
        <ele>857</ele>
        <time>2013-07-27T08:53:00Z</time>
      </trkpt>
      <trkpt lat="46.03705" lon="6.34095">
        <ele>857</ele>
        <time>2013-07-27T08:53:03Z</time>
      </trkpt>
      <trkpt lat="46.03693" lon="6.34102">
        <ele>857</ele>
        <time>2013-07-27T08:53:06Z</time>
      </trkpt>
      <trkpt lat="46.03683" lon="6.34107">
        <ele>857</ele>
        <time>2013-07-27T08:53:10Z</time>
      </trkpt>
      <trkpt lat="46.03674" lon="6.34114">
        <ele>857</ele>
        <time>2013-07-27T08:53:13Z</time>
      </trkpt>
      <trkpt lat="46.03664" lon="6.34118">
        <ele>857</ele>
        <time>2013-07-27T08:53:15Z</time>
      </trkpt>
      <trkpt lat="46.0365" lon="6.34121">
        <ele>857</ele>
        <time>2013-07-27T08:53:18Z</time>
      </trkpt>
      <trkpt lat="46.03641" lon="6.34114">
        <ele>857</ele>
        <time>2013-07-27T08:53:20Z</time>
      </trkpt>
      <trkpt lat="46.03632" lon="6.34105">
        <ele>857</ele>
        <time>2013-07-27T08:53:22Z</time>
      </trkpt>
      <trkpt lat="46.03619" lon="6.34097">
        <ele>857</ele>
        <time>2013-07-27T08:53:24Z</time>
      </trkpt>
      <trkpt lat="46.03607" lon="6.3409">
        <ele>857</ele>
        <time>2013-07-27T08:53:26Z</time>
      </trkpt>
      <trkpt lat="46.03598" lon="6.34079">
        <ele>862</ele>
        <time>2013-07-27T08:53:28Z</time>
      </trkpt>
      <trkpt lat="46.03591" lon="6.34071">
        <ele>862</ele>
        <time>2013-07-27T08:53:30Z</time>
      </trkpt>
      <trkpt lat="46.03581" lon="6.3406">
        <ele>870</ele>
        <time>2013-07-27T08:53:33Z</time>
      </trkpt>
      <trkpt lat="46.03583" lon="6.34045">
        <ele>883</ele>
        <time>2013-07-27T08:53:41Z</time>
      </trkpt>
      <trkpt lat="46.03586" lon="6.34033">
        <ele>873</ele>
        <time>2013-07-27T08:53:51Z</time>
      </trkpt>
      <trkpt lat="46.03583" lon="6.34015">
        <ele>866</ele>
        <time>2013-07-27T08:54:07Z</time>
      </trkpt>
      <trkpt lat="46.03578" lon="6.34">
        <ele>866</ele>
        <time>2013-07-27T08:54:09Z</time>
      </trkpt>
      <trkpt lat="46.03566" lon="6.33988">
        <ele>866</ele>
        <time>2013-07-27T08:54:11Z</time>
      </trkpt>
      <trkpt lat="46.0356" lon="6.33975">
        <ele>866</ele>
        <time>2013-07-27T08:54:14Z</time>
      </trkpt>
      <trkpt lat="46.03572" lon="6.33963">
        <ele>873</ele>
        <time>2013-07-27T08:54:21Z</time>
      </trkpt>
      <trkpt lat="46.03585" lon="6.33961">
        <ele>873</ele>
        <time>2013-07-27T08:54:22Z</time>
      </trkpt>
      <trkpt lat="46.03601" lon="6.33962">
        <ele>873</ele>
        <time>2013-07-27T08:54:24Z</time>
      </trkpt>
      <trkpt lat="46.03613" lon="6.3397">
        <ele>873</ele>
        <time>2013-07-27T08:54:27Z</time>
      </trkpt>
      <trkpt lat="46.03628" lon="6.33971">
        <ele>873</ele>
        <time>2013-07-27T08:54:29Z</time>
      </trkpt>
      <trkpt lat="46.03645" lon="6.33974">
        <ele>873</ele>
        <time>2013-07-27T08:54:31Z</time>
      </trkpt>
      <trkpt lat="46.0366" lon="6.33974">
        <ele>873</ele>
        <time>2013-07-27T08:54:33Z</time>
      </trkpt>
      <trkpt lat="46.0367" lon="6.33979">
        <ele>873</ele>
        <time>2013-07-27T08:54:35Z</time>
      </trkpt>
      <trkpt lat="46.03691" lon="6.33977">
        <ele>873</ele>
        <time>2013-07-27T08:54:38Z</time>
      </trkpt>
      <trkpt lat="46.037" lon="6.33971">
        <ele>873</ele>
        <time>2013-07-27T08:54:40Z</time>
      </trkpt>
      <trkpt lat="46.03708" lon="6.33956">
        <ele>873</ele>
        <time>2013-07-27T08:54:43Z</time>
      </trkpt>
      <trkpt lat="46.03717" lon="6.33944">
        <ele>882</ele>
        <time>2013-07-27T08:54:46Z</time>
      </trkpt>
      <trkpt lat="46.03724" lon="6.33933">
        <ele>882</ele>
        <time>2013-07-27T08:54:49Z</time>
      </trkpt>
      <trkpt lat="46.03732" lon="6.33926">
        <ele>889</ele>
        <time>2013-07-27T08:54:52Z</time>
      </trkpt>
      <trkpt lat="46.03739" lon="6.33915">
        <ele>889</ele>
        <time>2013-07-27T08:54:56Z</time>
      </trkpt>
      <trkpt lat="46.03746" lon="6.33924">
        <ele>919</ele>
        <time>2013-07-27T08:55:46Z</time>
      </trkpt>
      <trkpt lat="46.03738" lon="6.33917">
        <ele>907</ele>
        <time>2013-07-27T08:56:49Z</time>
      </trkpt>
      <trkpt lat="46.03745" lon="6.33925">
        <ele>917</ele>
        <time>2013-07-27T08:59:57Z</time>
      </trkpt>
      <trkpt lat="46.03737" lon="6.33918">
        <ele>905</ele>
        <time>2013-07-27T09:05:40Z</time>
      </trkpt>
      <trkpt lat="46.03745" lon="6.33904">
        <ele>910</ele>
        <time>2013-07-27T09:06:50Z</time>
      </trkpt>
      <trkpt lat="46.0375" lon="6.33889">
        <ele>910</ele>
        <time>2013-07-27T09:06:52Z</time>
      </trkpt>
      <trkpt lat="46.03753" lon="6.33874">
        <ele>910</ele>
        <time>2013-07-27T09:06:54Z</time>
      </trkpt>
      <trkpt lat="46.03754" lon="6.33858">
        <ele>910</ele>
        <time>2013-07-27T09:06:57Z</time>
      </trkpt>
      <trkpt lat="46.03755" lon="6.33844">
        <ele>910</ele>
        <time>2013-07-27T09:07:29Z</time>
      </trkpt>
      <trkpt lat="46.03746" lon="6.33847">
        <ele>915</ele>
        <time>2013-07-27T09:07:56Z</time>
      </trkpt>
      <trkpt lat="46.03755" lon="6.33844">
        <ele>900</ele>
        <time>2013-07-27T09:08:50Z</time>
      </trkpt>
      <trkpt lat="46.03756" lon="6.33828">
        <ele>906</ele>
        <time>2013-07-27T09:09:47Z</time>
      </trkpt>
      <trkpt lat="46.03752" lon="6.33813">
        <ele>906</ele>
        <time>2013-07-27T09:09:49Z</time>
      </trkpt>
      <trkpt lat="46.03747" lon="6.33796">
        <ele>906</ele>
        <time>2013-07-27T09:09:51Z</time>
      </trkpt>
      <trkpt lat="46.0374" lon="6.33786">
        <ele>906</ele>
        <time>2013-07-27T09:09:53Z</time>
      </trkpt>
      <trkpt lat="46.03733" lon="6.33795">
        <ele>906</ele>
        <time>2013-07-27T09:09:58Z</time>
      </trkpt>
      <trkpt lat="46.03729" lon="6.33808">
        <ele>914</ele>
        <time>2013-07-27T09:10:00Z</time>
      </trkpt>
      <trkpt lat="46.03721" lon="6.33814">
        <ele>914</ele>
        <time>2013-07-27T09:10:04Z</time>
      </trkpt>
      <trkpt lat="46.0371" lon="6.3381">
        <ele>923</ele>
        <time>2013-07-27T09:10:08Z</time>
      </trkpt>
      <trkpt lat="46.037" lon="6.33806">
        <ele>923</ele>
        <time>2013-07-27T09:10:10Z</time>
      </trkpt>
      <trkpt lat="46.0369" lon="6.33791">
        <ele>923</ele>
        <time>2013-07-27T09:10:13Z</time>
      </trkpt>
      <trkpt lat="46.03688" lon="6.33771">
        <ele>923</ele>
        <time>2013-07-27T09:10:15Z</time>
      </trkpt>
      <trkpt lat="46.03683" lon="6.33752">
        <ele>923</ele>
        <time>2013-07-27T09:10:17Z</time>
      </trkpt>
      <trkpt lat="46.03676" lon="6.33736">
        <ele>923</ele>
        <time>2013-07-27T09:10:19Z</time>
      </trkpt>
      <trkpt lat="46.03663" lon="6.33723">
        <ele>923</ele>
        <time>2013-07-27T09:10:21Z</time>
      </trkpt>
      <trkpt lat="46.03648" lon="6.33717">
        <ele>929</ele>
        <time>2013-07-27T09:10:23Z</time>
      </trkpt>
      <trkpt lat="46.03635" lon="6.33712">
        <ele>929</ele>
        <time>2013-07-27T09:10:25Z</time>
      </trkpt>
      <trkpt lat="46.03624" lon="6.33702">
        <ele>929</ele>
        <time>2013-07-27T09:10:27Z</time>
      </trkpt>
      <trkpt lat="46.03615" lon="6.33688">
        <ele>929</ele>
        <time>2013-07-27T09:10:29Z</time>
      </trkpt>
      <trkpt lat="46.03605" lon="6.33678">
        <ele>929</ele>
        <time>2013-07-27T09:10:31Z</time>
      </trkpt>
      <trkpt lat="46.03595" lon="6.33665">
        <ele>929</ele>
        <time>2013-07-27T09:10:33Z</time>
      </trkpt>
      <trkpt lat="46.03585" lon="6.33654">
        <ele>929</ele>
        <time>2013-07-27T09:10:35Z</time>
      </trkpt>
      <trkpt lat="46.03572" lon="6.33642">
        <ele>938</ele>
        <time>2013-07-27T09:10:37Z</time>
      </trkpt>
      <trkpt lat="46.03563" lon="6.33628">
        <ele>938</ele>
        <time>2013-07-27T09:10:39Z</time>
      </trkpt>
      <trkpt lat="46.0355" lon="6.33615">
        <ele>943</ele>
        <time>2013-07-27T09:10:41Z</time>
      </trkpt>
      <trkpt lat="46.03535" lon="6.33599">
        <ele>943</ele>
        <time>2013-07-27T09:10:44Z</time>
      </trkpt>
      <trkpt lat="46.0352" lon="6.33588">
        <ele>949</ele>
        <time>2013-07-27T09:10:46Z</time>
      </trkpt>
      <trkpt lat="46.03511" lon="6.3358">
        <ele>949</ele>
        <time>2013-07-27T09:10:48Z</time>
      </trkpt>
      <trkpt lat="46.03501" lon="6.33576">
        <ele>949</ele>
        <time>2013-07-27T09:10:55Z</time>
      </trkpt>
      <trkpt lat="46.03492" lon="6.33574">
        <ele>955</ele>
        <time>2013-07-27T09:10:57Z</time>
      </trkpt>
      <trkpt lat="46.03477" lon="6.33571">
        <ele>955</ele>
        <time>2013-07-27T09:10:59Z</time>
      </trkpt>
      <trkpt lat="46.03464" lon="6.33571">
        <ele>955</ele>
        <time>2013-07-27T09:11:00Z</time>
      </trkpt>
      <trkpt lat="46.03454" lon="6.33571">
        <ele>955</ele>
        <time>2013-07-27T09:11:01Z</time>
      </trkpt>
      <trkpt lat="46.03445" lon="6.33573">
        <ele>955</ele>
        <time>2013-07-27T09:11:02Z</time>
      </trkpt>
      <trkpt lat="46.03435" lon="6.33576">
        <ele>955</ele>
        <time>2013-07-27T09:11:03Z</time>
      </trkpt>
      <trkpt lat="46.03424" lon="6.33578">
        <ele>961</ele>
        <time>2013-07-27T09:11:04Z</time>
      </trkpt>
      <trkpt lat="46.03408" lon="6.33579">
        <ele>967</ele>
        <time>2013-07-27T09:11:06Z</time>
      </trkpt>
      <trkpt lat="46.03393" lon="6.33578">
        <ele>967</ele>
        <time>2013-07-27T09:11:08Z</time>
      </trkpt>
      <trkpt lat="46.03381" lon="6.33576">
        <ele>967</ele>
        <time>2013-07-27T09:11:10Z</time>
      </trkpt>
      <trkpt lat="46.03368" lon="6.33572">
        <ele>967</ele>
        <time>2013-07-27T09:11:12Z</time>
      </trkpt>
      <trkpt lat="46.03354" lon="6.33565">
        <ele>967</ele>
        <time>2013-07-27T09:11:14Z</time>
      </trkpt>
      <trkpt lat="46.03346" lon="6.33554">
        <ele>972</ele>
        <time>2013-07-27T09:11:16Z</time>
      </trkpt>
      <trkpt lat="46.03337" lon="6.3354">
        <ele>972</ele>
        <time>2013-07-27T09:11:18Z</time>
      </trkpt>
      <trkpt lat="46.03329" lon="6.33532">
        <ele>972</ele>
        <time>2013-07-27T09:11:20Z</time>
      </trkpt>
      <trkpt lat="46.03318" lon="6.33527">
        <ele>972</ele>
        <time>2013-07-27T09:11:22Z</time>
      </trkpt>
      <trkpt lat="46.03307" lon="6.33519">
        <ele>972</ele>
        <time>2013-07-27T09:11:24Z</time>
      </trkpt>
      <trkpt lat="46.03299" lon="6.33508">
        <ele>978</ele>
        <time>2013-07-27T09:11:26Z</time>
      </trkpt>
      <trkpt lat="46.03293" lon="6.33493">
        <ele>978</ele>
        <time>2013-07-27T09:11:28Z</time>
      </trkpt>
      <trkpt lat="46.0329" lon="6.33479">
        <ele>978</ele>
        <time>2013-07-27T09:11:30Z</time>
      </trkpt>
      <trkpt lat="46.03285" lon="6.33466">
        <ele>978</ele>
        <time>2013-07-27T09:11:33Z</time>
      </trkpt>
      <trkpt lat="46.03277" lon="6.33452">
        <ele>987</ele>
        <time>2013-07-27T09:11:36Z</time>
      </trkpt>
      <trkpt lat="46.03269" lon="6.33445">
        <ele>987</ele>
        <time>2013-07-27T09:11:38Z</time>
      </trkpt>
      <trkpt lat="46.0326" lon="6.33452">
        <ele>1010</ele>
        <time>2013-07-27T09:12:03Z</time>
      </trkpt>
      <trkpt lat="46.03252" lon="6.33448">
        <ele>1010</ele>
        <time>2013-07-27T09:12:05Z</time>
      </trkpt>
      <trkpt lat="46.03245" lon="6.33435">
        <ele>1010</ele>
        <time>2013-07-27T09:12:07Z</time>
      </trkpt>
      <trkpt lat="46.03239" lon="6.33423">
        <ele>1004</ele>
        <time>2013-07-27T09:12:09Z</time>
      </trkpt>
      <trkpt lat="46.0323" lon="6.33408">
        <ele>1004</ele>
        <time>2013-07-27T09:12:11Z</time>
      </trkpt>
      <trkpt lat="46.03219" lon="6.33399">
        <ele>1004</ele>
        <time>2013-07-27T09:12:13Z</time>
      </trkpt>
      <trkpt lat="46.03205" lon="6.3339">
        <ele>1004</ele>
        <time>2013-07-27T09:12:15Z</time>
      </trkpt>
      <trkpt lat="46.03194" lon="6.33382">
        <ele>1004</ele>
        <time>2013-07-27T09:12:17Z</time>
      </trkpt>
      <trkpt lat="46.0318" lon="6.33376">
        <ele>1004</ele>
        <time>2013-07-27T09:12:19Z</time>
      </trkpt>
      <trkpt lat="46.03166" lon="6.33379">
        <ele>1010</ele>
        <time>2013-07-27T09:12:21Z</time>
      </trkpt>
      <trkpt lat="46.03153" lon="6.33381">
        <ele>1010</ele>
        <time>2013-07-27T09:12:23Z</time>
      </trkpt>
      <trkpt lat="46.03142" lon="6.33386">
        <ele>1019</ele>
        <time>2013-07-27T09:12:25Z</time>
      </trkpt>
      <trkpt lat="46.03128" lon="6.3339">
        <ele>1019</ele>
        <time>2013-07-27T09:12:27Z</time>
      </trkpt>
      <trkpt lat="46.03113" lon="6.33392">
        <ele>1027</ele>
        <time>2013-07-27T09:12:29Z</time>
      </trkpt>
      <trkpt lat="46.03098" lon="6.33388">
        <ele>1034</ele>
        <time>2013-07-27T09:12:31Z</time>
      </trkpt>
      <trkpt lat="46.03089" lon="6.33379">
        <ele>1034</ele>
        <time>2013-07-27T09:12:32Z</time>
      </trkpt>
      <trkpt lat="46.0308" lon="6.33371">
        <ele>1034</ele>
        <time>2013-07-27T09:12:33Z</time>
      </trkpt>
      <trkpt lat="46.03073" lon="6.33361">
        <ele>1043</ele>
        <time>2013-07-27T09:12:34Z</time>
      </trkpt>
      <trkpt lat="46.03067" lon="6.3335">
        <ele>1043</ele>
        <time>2013-07-27T09:12:35Z</time>
      </trkpt>
      <trkpt lat="46.03061" lon="6.3334">
        <ele>1049</ele>
        <time>2013-07-27T09:12:36Z</time>
      </trkpt>
      <trkpt lat="46.0305" lon="6.33326">
        <ele>1058</ele>
        <time>2013-07-27T09:12:38Z</time>
      </trkpt>
      <trkpt lat="46.03037" lon="6.3332">
        <ele>1058</ele>
        <time>2013-07-27T09:12:40Z</time>
      </trkpt>
      <trkpt lat="46.03022" lon="6.33314">
        <ele>1067</ele>
        <time>2013-07-27T09:12:42Z</time>
      </trkpt>
      <trkpt lat="46.03014" lon="6.33308">
        <ele>1067</ele>
        <time>2013-07-27T09:12:43Z</time>
      </trkpt>
      <trkpt lat="46.03004" lon="6.33296">
        <ele>1067</ele>
        <time>2013-07-27T09:12:45Z</time>
      </trkpt>
      <trkpt lat="46.02991" lon="6.33288">
        <ele>1089</ele>
        <time>2013-07-27T09:13:04Z</time>
      </trkpt>
      <trkpt lat="46.02981" lon="6.33296">
        <ele>1089</ele>
        <time>2013-07-27T09:13:06Z</time>
      </trkpt>
      <trkpt lat="46.02971" lon="6.33302">
        <ele>1089</ele>
        <time>2013-07-27T09:13:09Z</time>
      </trkpt>
      <trkpt lat="46.02963" lon="6.33293">
        <ele>1089</ele>
        <time>2013-07-27T09:13:12Z</time>
      </trkpt>
      <trkpt lat="46.02953" lon="6.33279">
        <ele>1081</ele>
        <time>2013-07-27T09:13:15Z</time>
      </trkpt>
      <trkpt lat="46.02943" lon="6.3327">
        <ele>1081</ele>
        <time>2013-07-27T09:13:17Z</time>
      </trkpt>
      <trkpt lat="46.02931" lon="6.33265">
        <ele>1081</ele>
        <time>2013-07-27T09:13:19Z</time>
      </trkpt>
      <trkpt lat="46.02919" lon="6.33261">
        <ele>1081</ele>
        <time>2013-07-27T09:13:21Z</time>
      </trkpt>
      <trkpt lat="46.02902" lon="6.33255">
        <ele>1081</ele>
        <time>2013-07-27T09:13:23Z</time>
      </trkpt>
      <trkpt lat="46.02892" lon="6.33251">
        <ele>1081</ele>
        <time>2013-07-27T09:13:24Z</time>
      </trkpt>
      <trkpt lat="46.02876" lon="6.33245">
        <ele>1081</ele>
        <time>2013-07-27T09:13:26Z</time>
      </trkpt>
      <trkpt lat="46.02861" lon="6.33237">
        <ele>1081</ele>
        <time>2013-07-27T09:13:28Z</time>
      </trkpt>
      <trkpt lat="46.02846" lon="6.33223">
        <ele>1081</ele>
        <time>2013-07-27T09:13:30Z</time>
      </trkpt>
      <trkpt lat="46.02841" lon="6.3321">
        <ele>1081</ele>
        <time>2013-07-27T09:13:32Z</time>
      </trkpt>
      <trkpt lat="46.02839" lon="6.33193">
        <ele>1081</ele>
        <time>2013-07-27T09:13:34Z</time>
      </trkpt>
      <trkpt lat="46.02841" lon="6.33179">
        <ele>1081</ele>
        <time>2013-07-27T09:13:35Z</time>
      </trkpt>
      <trkpt lat="46.02849" lon="6.33163">
        <ele>1081</ele>
        <time>2013-07-27T09:13:36Z</time>
      </trkpt>
      <trkpt lat="46.02858" lon="6.33148">
        <ele>1081</ele>
        <time>2013-07-27T09:13:37Z</time>
      </trkpt>
      <trkpt lat="46.02864" lon="6.33135">
        <ele>1081</ele>
        <time>2013-07-27T09:13:38Z</time>
      </trkpt>
      <trkpt lat="46.02869" lon="6.33124">
        <ele>1081</ele>
        <time>2013-07-27T09:13:39Z</time>
      </trkpt>
      <trkpt lat="46.02878" lon="6.33102">
        <ele>1081</ele>
        <time>2013-07-27T09:13:41Z</time>
      </trkpt>
      <trkpt lat="46.02881" lon="6.33078">
        <ele>1086</ele>
        <time>2013-07-27T09:13:43Z</time>
      </trkpt>
      <trkpt lat="46.0288" lon="6.33059">
        <ele>1086</ele>
        <time>2013-07-27T09:13:45Z</time>
      </trkpt>
      <trkpt lat="46.02873" lon="6.3307">
        <ele>1095</ele>
        <time>2013-07-27T09:13:52Z</time>
      </trkpt>
      <trkpt lat="46.02864" lon="6.33091">
        <ele>1095</ele>
        <time>2013-07-27T09:13:54Z</time>
      </trkpt>
      <trkpt lat="46.02856" lon="6.33108">
        <ele>1095</ele>
        <time>2013-07-27T09:13:56Z</time>
      </trkpt>
      <trkpt lat="46.02843" lon="6.33126">
        <ele>1095</ele>
        <time>2013-07-27T09:13:58Z</time>
      </trkpt>
      <trkpt lat="46.0283" lon="6.33143">
        <ele>1095</ele>
        <time>2013-07-27T09:14:00Z</time>
      </trkpt>
      <trkpt lat="46.02823" lon="6.33168">
        <ele>1095</ele>
        <time>2013-07-27T09:14:02Z</time>
      </trkpt>
      <trkpt lat="46.02819" lon="6.3318">
        <ele>1095</ele>
        <time>2013-07-27T09:14:03Z</time>
      </trkpt>
      <trkpt lat="46.02809" lon="6.33202">
        <ele>1103</ele>
        <time>2013-07-27T09:14:05Z</time>
      </trkpt>
      <trkpt lat="46.02804" lon="6.33214">
        <ele>1103</ele>
        <time>2013-07-27T09:14:06Z</time>
      </trkpt>
      <trkpt lat="46.02795" lon="6.33236">
        <ele>1103</ele>
        <time>2013-07-27T09:14:08Z</time>
      </trkpt>
      <trkpt lat="46.02798" lon="6.33253">
        <ele>1103</ele>
        <time>2013-07-27T09:14:10Z</time>
      </trkpt>
      <trkpt lat="46.02802" lon="6.3327">
        <ele>1109</ele>
        <time>2013-07-27T09:14:12Z</time>
      </trkpt>
      <trkpt lat="46.02805" lon="6.33297">
        <ele>1109</ele>
        <time>2013-07-27T09:14:15Z</time>
      </trkpt>
      <trkpt lat="46.028" lon="6.3331">
        <ele>1114</ele>
        <time>2013-07-27T09:14:17Z</time>
      </trkpt>
      <trkpt lat="46.02791" lon="6.33315">
        <ele>1114</ele>
        <time>2013-07-27T09:14:19Z</time>
      </trkpt>
      <trkpt lat="46.02779" lon="6.33322">
        <ele>1121</ele>
        <time>2013-07-27T09:14:22Z</time>
      </trkpt>
      <trkpt lat="46.0277" lon="6.33321">
        <ele>1121</ele>
        <time>2013-07-27T09:14:24Z</time>
      </trkpt>
      <trkpt lat="46.02757" lon="6.3331">
        <ele>1121</ele>
        <time>2013-07-27T09:14:26Z</time>
      </trkpt>
      <trkpt lat="46.02746" lon="6.33302">
        <ele>1121</ele>
        <time>2013-07-27T09:14:28Z</time>
      </trkpt>
      <trkpt lat="46.02732" lon="6.33305">
        <ele>1127</ele>
        <time>2013-07-27T09:14:30Z</time>
      </trkpt>
      <trkpt lat="46.02719" lon="6.33309">
        <ele>1127</ele>
        <time>2013-07-27T09:14:32Z</time>
      </trkpt>
      <trkpt lat="46.02706" lon="6.33311">
        <ele>1135</ele>
        <time>2013-07-27T09:14:34Z</time>
      </trkpt>
      <trkpt lat="46.02691" lon="6.33315">
        <ele>1141</ele>
        <time>2013-07-27T09:14:36Z</time>
      </trkpt>
      <trkpt lat="46.02673" lon="6.33316">
        <ele>1141</ele>
        <time>2013-07-27T09:14:38Z</time>
      </trkpt>
      <trkpt lat="46.02655" lon="6.33313">
        <ele>1148</ele>
        <time>2013-07-27T09:14:40Z</time>
      </trkpt>
      <trkpt lat="46.02644" lon="6.3331">
        <ele>1148</ele>
        <time>2013-07-27T09:14:41Z</time>
      </trkpt>
      <trkpt lat="46.02632" lon="6.33307">
        <ele>1148</ele>
        <time>2013-07-27T09:14:42Z</time>
      </trkpt>
      <trkpt lat="46.0262" lon="6.33306">
        <ele>1148</ele>
        <time>2013-07-27T09:14:43Z</time>
      </trkpt>
      <trkpt lat="46.0261" lon="6.33305">
        <ele>1153</ele>
        <time>2013-07-27T09:14:44Z</time>
      </trkpt>
      <trkpt lat="46.02593" lon="6.33302">
        <ele>1153</ele>
        <time>2013-07-27T09:14:46Z</time>
      </trkpt>
      <trkpt lat="46.02585" lon="6.33293">
        <ele>1153</ele>
        <time>2013-07-27T09:14:49Z</time>
      </trkpt>
      <trkpt lat="46.02583" lon="6.33276">
        <ele>1162</ele>
        <time>2013-07-27T09:14:52Z</time>
      </trkpt>
      <trkpt lat="46.02578" lon="6.33264">
        <ele>1168</ele>
        <time>2013-07-27T09:14:56Z</time>
      </trkpt>
      <trkpt lat="46.02572" lon="6.33247">
        <ele>1168</ele>
        <time>2013-07-27T09:14:59Z</time>
      </trkpt>
      <trkpt lat="46.02567" lon="6.33234">
        <ele>1178</ele>
        <time>2013-07-27T09:15:03Z</time>
      </trkpt>
      <trkpt lat="46.02564" lon="6.33221">
        <ele>1199</ele>
        <time>2013-07-27T09:15:24Z</time>
      </trkpt>
      <trkpt lat="46.02556" lon="6.33213">
        <ele>1199</ele>
        <time>2013-07-27T09:15:26Z</time>
      </trkpt>
      <trkpt lat="46.02545" lon="6.33207">
        <ele>1193</ele>
        <time>2013-07-27T09:15:28Z</time>
      </trkpt>
      <trkpt lat="46.02526" lon="6.332">
        <ele>1193</ele>
        <time>2013-07-27T09:15:31Z</time>
      </trkpt>
      <trkpt lat="46.02518" lon="6.33191">
        <ele>1186</ele>
        <time>2013-07-27T09:15:32Z</time>
      </trkpt>
      <trkpt lat="46.0251" lon="6.33178">
        <ele>1186</ele>
        <time>2013-07-27T09:15:34Z</time>
      </trkpt>
      <trkpt lat="46.02503" lon="6.33167">
        <ele>1186</ele>
        <time>2013-07-27T09:15:36Z</time>
      </trkpt>
      <trkpt lat="46.02498" lon="6.33153">
        <ele>1186</ele>
        <time>2013-07-27T09:15:38Z</time>
      </trkpt>
      <trkpt lat="46.02489" lon="6.33138">
        <ele>1186</ele>
        <time>2013-07-27T09:15:40Z</time>
      </trkpt>
      <trkpt lat="46.0248" lon="6.33123">
        <ele>1186</ele>
        <time>2013-07-27T09:15:42Z</time>
      </trkpt>
      <trkpt lat="46.02474" lon="6.3311">
        <ele>1186</ele>
        <time>2013-07-27T09:15:45Z</time>
      </trkpt>
      <trkpt lat="46.02464" lon="6.33098">
        <ele>1186</ele>
        <time>2013-07-27T09:15:49Z</time>
      </trkpt>
      <trkpt lat="46.0247" lon="6.33086">
        <ele>1186</ele>
        <time>2013-07-27T09:16:00Z</time>
      </trkpt>
      <trkpt lat="46.02477" lon="6.33076">
        <ele>1186</ele>
        <time>2013-07-27T09:16:04Z</time>
      </trkpt>
      <trkpt lat="46.02485" lon="6.33065">
        <ele>1181</ele>
        <time>2013-07-27T09:16:07Z</time>
      </trkpt>
      <trkpt lat="46.02491" lon="6.33054">
        <ele>1181</ele>
        <time>2013-07-27T09:16:09Z</time>
      </trkpt>
      <trkpt lat="46.02498" lon="6.3304">
        <ele>1181</ele>
        <time>2013-07-27T09:16:11Z</time>
      </trkpt>
      <trkpt lat="46.02505" lon="6.33022">
        <ele>1181</ele>
        <time>2013-07-27T09:16:13Z</time>
      </trkpt>
      <trkpt lat="46.02512" lon="6.33002">
        <ele>1175</ele>
        <time>2013-07-27T09:16:15Z</time>
      </trkpt>
      <trkpt lat="46.02515" lon="6.32986">
        <ele>1175</ele>
        <time>2013-07-27T09:16:17Z</time>
      </trkpt>
      <trkpt lat="46.02521" lon="6.32971">
        <ele>1169</ele>
        <time>2013-07-27T09:16:20Z</time>
      </trkpt>
      <trkpt lat="46.02526" lon="6.32955">
        <ele>1169</ele>
        <time>2013-07-27T09:16:24Z</time>
      </trkpt>
      <trkpt lat="46.02534" lon="6.3294">
        <ele>1169</ele>
        <time>2013-07-27T09:16:28Z</time>
      </trkpt>
      <trkpt lat="46.02535" lon="6.3292">
        <ele>1169</ele>
        <time>2013-07-27T09:16:31Z</time>
      </trkpt>
      <trkpt lat="46.02537" lon="6.32904">
        <ele>1169</ele>
        <time>2013-07-27T09:16:33Z</time>
      </trkpt>
      <trkpt lat="46.02535" lon="6.32885">
        <ele>1169</ele>
        <time>2013-07-27T09:16:36Z</time>
      </trkpt>
      <trkpt lat="46.02531" lon="6.32872">
        <ele>1169</ele>
        <time>2013-07-27T09:16:39Z</time>
      </trkpt>
      <trkpt lat="46.02527" lon="6.32859">
        <ele>1169</ele>
        <time>2013-07-27T09:16:44Z</time>
      </trkpt>
      <trkpt lat="46.02523" lon="6.32846">
        <ele>1174</ele>
        <time>2013-07-27T09:16:48Z</time>
      </trkpt>
      <trkpt lat="46.02516" lon="6.32837">
        <ele>1174</ele>
        <time>2013-07-27T09:16:51Z</time>
      </trkpt>
      <trkpt lat="46.02511" lon="6.32823">
        <ele>1174</ele>
        <time>2013-07-27T09:16:56Z</time>
      </trkpt>
      <trkpt lat="46.02503" lon="6.32808">
        <ele>1174</ele>
        <time>2013-07-27T09:17:00Z</time>
      </trkpt>
      <trkpt lat="46.02498" lon="6.32798">
        <ele>1174</ele>
        <time>2013-07-27T09:17:03Z</time>
      </trkpt>
      <trkpt lat="46.02492" lon="6.32784">
        <ele>1167</ele>
        <time>2013-07-27T09:17:06Z</time>
      </trkpt>
      <trkpt lat="46.02481" lon="6.32763">
        <ele>1167</ele>
        <time>2013-07-27T09:17:10Z</time>
      </trkpt>
      <trkpt lat="46.02471" lon="6.32744">
        <ele>1167</ele>
        <time>2013-07-27T09:17:13Z</time>
      </trkpt>
      <trkpt lat="46.02465" lon="6.32728">
        <ele>1161</ele>
        <time>2013-07-27T09:17:15Z</time>
      </trkpt>
      <trkpt lat="46.02462" lon="6.32713">
        <ele>1161</ele>
        <time>2013-07-27T09:17:17Z</time>
      </trkpt>
      <trkpt lat="46.02455" lon="6.327">
        <ele>1161</ele>
        <time>2013-07-27T09:17:19Z</time>
      </trkpt>
      <trkpt lat="46.0245" lon="6.32684">
        <ele>1161</ele>
        <time>2013-07-27T09:17:21Z</time>
      </trkpt>
      <trkpt lat="46.02445" lon="6.32664">
        <ele>1167</ele>
        <time>2013-07-27T09:17:23Z</time>
      </trkpt>
      <trkpt lat="46.02438" lon="6.32642">
        <ele>1167</ele>
        <time>2013-07-27T09:17:25Z</time>
      </trkpt>
      <trkpt lat="46.02434" lon="6.32623">
        <ele>1173</ele>
        <time>2013-07-27T09:17:27Z</time>
      </trkpt>
      <trkpt lat="46.02427" lon="6.32604">
        <ele>1173</ele>
        <time>2013-07-27T09:17:29Z</time>
      </trkpt>
      <trkpt lat="46.02419" lon="6.32575">
        <ele>1179</ele>
        <time>2013-07-27T09:17:32Z</time>
      </trkpt>
      <trkpt lat="46.02419" lon="6.32558">
        <ele>1179</ele>
        <time>2013-07-27T09:17:34Z</time>
      </trkpt>
      <trkpt lat="46.02411" lon="6.3253">
        <ele>1184</ele>
        <time>2013-07-27T09:17:37Z</time>
      </trkpt>
      <trkpt lat="46.02409" lon="6.32517">
        <ele>1184</ele>
        <time>2013-07-27T09:17:38Z</time>
      </trkpt>
      <trkpt lat="46.02404" lon="6.32483">
        <ele>1184</ele>
        <time>2013-07-27T09:17:42Z</time>
      </trkpt>
      <trkpt lat="46.02396" lon="6.32466">
        <ele>1184</ele>
        <time>2013-07-27T09:17:44Z</time>
      </trkpt>
      <trkpt lat="46.02389" lon="6.32457">
        <ele>1184</ele>
        <time>2013-07-27T09:17:45Z</time>
      </trkpt>
      <trkpt lat="46.02375" lon="6.32445">
        <ele>1184</ele>
        <time>2013-07-27T09:17:47Z</time>
      </trkpt>
      <trkpt lat="46.02364" lon="6.32439">
        <ele>1184</ele>
        <time>2013-07-27T09:17:48Z</time>
      </trkpt>
      <trkpt lat="46.02355" lon="6.32434">
        <ele>1184</ele>
        <time>2013-07-27T09:17:49Z</time>
      </trkpt>
      <trkpt lat="46.02346" lon="6.32429">
        <ele>1190</ele>
        <time>2013-07-27T09:17:50Z</time>
      </trkpt>
      <trkpt lat="46.02336" lon="6.32422">
        <ele>1190</ele>
        <time>2013-07-27T09:17:51Z</time>
      </trkpt>
      <trkpt lat="46.02312" lon="6.32409">
        <ele>1190</ele>
        <time>2013-07-27T09:17:54Z</time>
      </trkpt>
      <trkpt lat="46.02303" lon="6.32404">
        <ele>1190</ele>
        <time>2013-07-27T09:17:55Z</time>
      </trkpt>
      <trkpt lat="46.02287" lon="6.32393">
        <ele>1190</ele>
        <time>2013-07-27T09:17:57Z</time>
      </trkpt>
      <trkpt lat="46.02274" lon="6.32387">
        <ele>1190</ele>
        <time>2013-07-27T09:17:59Z</time>
      </trkpt>
      <trkpt lat="46.02261" lon="6.32379">
        <ele>1196</ele>
        <time>2013-07-27T09:18:01Z</time>
      </trkpt>
      <trkpt lat="46.02248" lon="6.32371">
        <ele>1196</ele>
        <time>2013-07-27T09:18:03Z</time>
      </trkpt>
      <trkpt lat="46.02222" lon="6.32359">
        <ele>1196</ele>
        <time>2013-07-27T09:18:07Z</time>
      </trkpt>
      <trkpt lat="46.02211" lon="6.32353">
        <ele>1196</ele>
        <time>2013-07-27T09:18:10Z</time>
      </trkpt>
      <trkpt lat="46.02202" lon="6.32353">
        <ele>1190</ele>
        <time>2013-07-27T09:18:12Z</time>
      </trkpt>
      <trkpt lat="46.0219" lon="6.32354">
        <ele>1190</ele>
        <time>2013-07-27T09:18:14Z</time>
      </trkpt>
      <trkpt lat="46.0218" lon="6.32354">
        <ele>1190</ele>
        <time>2013-07-27T09:18:16Z</time>
      </trkpt>
      <trkpt lat="46.0217" lon="6.32351">
        <ele>1190</ele>
        <time>2013-07-27T09:18:18Z</time>
      </trkpt>
      <trkpt lat="46.0216" lon="6.32348">
        <ele>1183</ele>
        <time>2013-07-27T09:18:20Z</time>
      </trkpt>
      <trkpt lat="46.0215" lon="6.32352">
        <ele>1183</ele>
        <time>2013-07-27T09:18:25Z</time>
      </trkpt>
      <trkpt lat="46.0214" lon="6.32359">
        <ele>1183</ele>
        <time>2013-07-27T09:19:06Z</time>
      </trkpt>
      <trkpt lat="46.0213" lon="6.32366">
        <ele>1183</ele>
        <time>2013-07-27T09:19:08Z</time>
      </trkpt>
      <trkpt lat="46.0212" lon="6.32374">
        <ele>1183</ele>
        <time>2013-07-27T09:19:10Z</time>
      </trkpt>
      <trkpt lat="46.02109" lon="6.3238">
        <ele>1183</ele>
        <time>2013-07-27T09:19:12Z</time>
      </trkpt>
      <trkpt lat="46.02093" lon="6.32387">
        <ele>1183</ele>
        <time>2013-07-27T09:19:14Z</time>
      </trkpt>
      <trkpt lat="46.02077" lon="6.32394">
        <ele>1183</ele>
        <time>2013-07-27T09:19:16Z</time>
      </trkpt>
      <trkpt lat="46.02063" lon="6.32402">
        <ele>1183</ele>
        <time>2013-07-27T09:19:18Z</time>
      </trkpt>
      <trkpt lat="46.0205" lon="6.3241">
        <ele>1183</ele>
        <time>2013-07-27T09:19:20Z</time>
      </trkpt>
      <trkpt lat="46.02038" lon="6.32417">
        <ele>1177</ele>
        <time>2013-07-27T09:19:22Z</time>
      </trkpt>
      <trkpt lat="46.02021" lon="6.3242">
        <ele>1177</ele>
        <time>2013-07-27T09:19:24Z</time>
      </trkpt>
      <trkpt lat="46.02006" lon="6.32425">
        <ele>1177</ele>
        <time>2013-07-27T09:19:26Z</time>
      </trkpt>
      <trkpt lat="46.0199" lon="6.32427">
        <ele>1177</ele>
        <time>2013-07-27T09:19:28Z</time>
      </trkpt>
      <trkpt lat="46.0198" lon="6.32427">
        <ele>1177</ele>
        <time>2013-07-27T09:19:29Z</time>
      </trkpt>
      <trkpt lat="46.01965" lon="6.32433">
        <ele>1172</ele>
        <time>2013-07-27T09:19:31Z</time>
      </trkpt>
      <trkpt lat="46.01956" lon="6.32436">
        <ele>1172</ele>
        <time>2013-07-27T09:19:32Z</time>
      </trkpt>
      <trkpt lat="46.01938" lon="6.32441">
        <ele>1172</ele>
        <time>2013-07-27T09:19:34Z</time>
      </trkpt>
      <trkpt lat="46.01923" lon="6.32445">
        <ele>1172</ele>
        <time>2013-07-27T09:19:36Z</time>
      </trkpt>
      <trkpt lat="46.01911" lon="6.32451">
        <ele>1172</ele>
        <time>2013-07-27T09:19:38Z</time>
      </trkpt>
      <trkpt lat="46.01885" lon="6.32463">
        <ele>1179</ele>
        <time>2013-07-27T09:19:42Z</time>
      </trkpt>
      <trkpt lat="46.01871" lon="6.32469">
        <ele>1179</ele>
        <time>2013-07-27T09:19:44Z</time>
      </trkpt>
      <trkpt lat="46.01861" lon="6.32477">
        <ele>1169</ele>
        <time>2013-07-27T09:19:46Z</time>
      </trkpt>
      <trkpt lat="46.01848" lon="6.32487">
        <ele>1164</ele>
        <time>2013-07-27T09:19:48Z</time>
      </trkpt>
      <trkpt lat="46.01835" lon="6.32498">
        <ele>1164</ele>
        <time>2013-07-27T09:19:50Z</time>
      </trkpt>
      <trkpt lat="46.01826" lon="6.32506">
        <ele>1164</ele>
        <time>2013-07-27T09:19:52Z</time>
      </trkpt>
      <trkpt lat="46.01807" lon="6.3252">
        <ele>1164</ele>
        <time>2013-07-27T09:19:55Z</time>
      </trkpt>
      <trkpt lat="46.01797" lon="6.32529">
        <ele>1164</ele>
        <time>2013-07-27T09:19:56Z</time>
      </trkpt>
      <trkpt lat="46.01771" lon="6.32543">
        <ele>1158</ele>
        <time>2013-07-27T09:20:00Z</time>
      </trkpt>
      <trkpt lat="46.01757" lon="6.32544">
        <ele>1158</ele>
        <time>2013-07-27T09:20:01Z</time>
      </trkpt>
      <trkpt lat="46.01745" lon="6.32542">
        <ele>1158</ele>
        <time>2013-07-27T09:20:02Z</time>
      </trkpt>
      <trkpt lat="46.01735" lon="6.32554">
        <ele>1158</ele>
        <time>2013-07-27T09:20:04Z</time>
      </trkpt>
      <trkpt lat="46.01722" lon="6.32561">
        <ele>1158</ele>
        <time>2013-07-27T09:20:06Z</time>
      </trkpt>
      <trkpt lat="46.01711" lon="6.32571">
        <ele>1158</ele>
        <time>2013-07-27T09:20:09Z</time>
      </trkpt>
      <trkpt lat="46.017" lon="6.32579">
        <ele>1158</ele>
        <time>2013-07-27T09:20:12Z</time>
      </trkpt>
      <trkpt lat="46.01689" lon="6.32587">
        <ele>1158</ele>
        <time>2013-07-27T09:20:14Z</time>
      </trkpt>
      <trkpt lat="46.01675" lon="6.326">
        <ele>1158</ele>
        <time>2013-07-27T09:20:17Z</time>
      </trkpt>
      <trkpt lat="46.01665" lon="6.32604">
        <ele>1158</ele>
        <time>2013-07-27T09:20:18Z</time>
      </trkpt>
      <trkpt lat="46.01658" lon="6.32618">
        <ele>1158</ele>
        <time>2013-07-27T09:20:20Z</time>
      </trkpt>
      <trkpt lat="46.01657" lon="6.32632">
        <ele>1158</ele>
        <time>2013-07-27T09:20:22Z</time>
      </trkpt>
      <trkpt lat="46.01647" lon="6.32639">
        <ele>1158</ele>
        <time>2013-07-27T09:20:24Z</time>
      </trkpt>
      <trkpt lat="46.01633" lon="6.32645">
        <ele>1158</ele>
        <time>2013-07-27T09:20:26Z</time>
      </trkpt>
      <trkpt lat="46.01621" lon="6.32654">
        <ele>1158</ele>
        <time>2013-07-27T09:20:28Z</time>
      </trkpt>
      <trkpt lat="46.01608" lon="6.32657">
        <ele>1158</ele>
        <time>2013-07-27T09:20:30Z</time>
      </trkpt>
      <trkpt lat="46.01598" lon="6.32661">
        <ele>1158</ele>
        <time>2013-07-27T09:20:32Z</time>
      </trkpt>
      <trkpt lat="46.0159" lon="6.32672">
        <ele>1158</ele>
        <time>2013-07-27T09:20:34Z</time>
      </trkpt>
      <trkpt lat="46.0158" lon="6.32683">
        <ele>1158</ele>
        <time>2013-07-27T09:20:36Z</time>
      </trkpt>
      <trkpt lat="46.01571" lon="6.32691">
        <ele>1158</ele>
        <time>2013-07-27T09:20:38Z</time>
      </trkpt>
      <trkpt lat="46.01561" lon="6.32684">
        <ele>1163</ele>
        <time>2013-07-27T09:20:53Z</time>
      </trkpt>
      <trkpt lat="46.01553" lon="6.32677">
        <ele>1163</ele>
        <time>2013-07-27T09:20:57Z</time>
      </trkpt>
      <trkpt lat="46.01543" lon="6.32672">
        <ele>1163</ele>
        <time>2013-07-27T09:20:59Z</time>
      </trkpt>
      <trkpt lat="46.0153" lon="6.32666">
        <ele>1163</ele>
        <time>2013-07-27T09:21:01Z</time>
      </trkpt>
      <trkpt lat="46.01522" lon="6.32659">
        <ele>1163</ele>
        <time>2013-07-27T09:21:04Z</time>
      </trkpt>
      <trkpt lat="46.0153" lon="6.32642">
        <ele>1163</ele>
        <time>2013-07-27T09:21:08Z</time>
      </trkpt>
      <trkpt lat="46.01538" lon="6.32631">
        <ele>1163</ele>
        <time>2013-07-27T09:21:10Z</time>
      </trkpt>
      <trkpt lat="46.01547" lon="6.32619">
        <ele>1163</ele>
        <time>2013-07-27T09:21:12Z</time>
      </trkpt>
      <trkpt lat="46.01552" lon="6.32602">
        <ele>1163</ele>
        <time>2013-07-27T09:21:15Z</time>
      </trkpt>
      <trkpt lat="46.01555" lon="6.32585">
        <ele>1163</ele>
        <time>2013-07-27T09:21:17Z</time>
      </trkpt>
      <trkpt lat="46.01556" lon="6.32566">
        <ele>1163</ele>
        <time>2013-07-27T09:21:19Z</time>
      </trkpt>
      <trkpt lat="46.01558" lon="6.32551">
        <ele>1163</ele>
        <time>2013-07-27T09:21:21Z</time>
      </trkpt>
      <trkpt lat="46.01557" lon="6.32537">
        <ele>1163</ele>
        <time>2013-07-27T09:21:23Z</time>
      </trkpt>
      <trkpt lat="46.01555" lon="6.32522">
        <ele>1163</ele>
        <time>2013-07-27T09:21:25Z</time>
      </trkpt>
      <trkpt lat="46.01556" lon="6.32506">
        <ele>1163</ele>
        <time>2013-07-27T09:21:27Z</time>
      </trkpt>
      <trkpt lat="46.0156" lon="6.32491">
        <ele>1163</ele>
        <time>2013-07-27T09:21:29Z</time>
      </trkpt>
      <trkpt lat="46.0157" lon="6.32477">
        <ele>1169</ele>
        <time>2013-07-27T09:21:32Z</time>
      </trkpt>
      <trkpt lat="46.01569" lon="6.32462">
        <ele>1169</ele>
        <time>2013-07-27T09:21:39Z</time>
      </trkpt>
      <trkpt lat="46.01571" lon="6.32446">
        <ele>1169</ele>
        <time>2013-07-27T09:21:42Z</time>
      </trkpt>
      <trkpt lat="46.0158" lon="6.32437">
        <ele>1178</ele>
        <time>2013-07-27T09:21:45Z</time>
      </trkpt>
      <trkpt lat="46.01606" lon="6.32413">
        <ele>1178</ele>
        <time>2013-07-27T09:21:50Z</time>
      </trkpt>
      <trkpt lat="46.01622" lon="6.32406">
        <ele>1178</ele>
        <time>2013-07-27T09:21:51Z</time>
      </trkpt>
      <trkpt lat="46.01632" lon="6.32399">
        <ele>1178</ele>
        <time>2013-07-27T09:21:52Z</time>
      </trkpt>
      <trkpt lat="46.0164" lon="6.32392">
        <ele>1178</ele>
        <time>2013-07-27T09:21:53Z</time>
      </trkpt>
      <trkpt lat="46.0166" lon="6.32367">
        <ele>1178</ele>
        <time>2013-07-27T09:21:58Z</time>
      </trkpt>
      <trkpt lat="46.01667" lon="6.32356">
        <ele>1172</ele>
        <time>2013-07-27T09:22:01Z</time>
      </trkpt>
      <trkpt lat="46.01672" lon="6.32343">
        <ele>1165</ele>
        <time>2013-07-27T09:22:04Z</time>
      </trkpt>
      <trkpt lat="46.01672" lon="6.32328">
        <ele>1165</ele>
        <time>2013-07-27T09:22:06Z</time>
      </trkpt>
      <trkpt lat="46.01672" lon="6.32305">
        <ele>1165</ele>
        <time>2013-07-27T09:22:08Z</time>
      </trkpt>
      <trkpt lat="46.01675" lon="6.3228">
        <ele>1158</ele>
        <time>2013-07-27T09:22:10Z</time>
      </trkpt>
      <trkpt lat="46.01679" lon="6.32256">
        <ele>1158</ele>
        <time>2013-07-27T09:22:12Z</time>
      </trkpt>
      <trkpt lat="46.01676" lon="6.32239">
        <ele>1158</ele>
        <time>2013-07-27T09:22:14Z</time>
      </trkpt>
      <trkpt lat="46.01664" lon="6.32233">
        <ele>1158</ele>
        <time>2013-07-27T09:22:16Z</time>
      </trkpt>
      <trkpt lat="46.01653" lon="6.32224">
        <ele>1152</ele>
        <time>2013-07-27T09:22:18Z</time>
      </trkpt>
      <trkpt lat="46.01649" lon="6.32213">
        <ele>1152</ele>
        <time>2013-07-27T09:22:20Z</time>
      </trkpt>
      <trkpt lat="46.0165" lon="6.32195">
        <ele>1152</ele>
        <time>2013-07-27T09:22:22Z</time>
      </trkpt>
      <trkpt lat="46.01653" lon="6.3218">
        <ele>1152</ele>
        <time>2013-07-27T09:22:24Z</time>
      </trkpt>
      <trkpt lat="46.01659" lon="6.32167">
        <ele>1152</ele>
        <time>2013-07-27T09:22:27Z</time>
      </trkpt>
      <trkpt lat="46.0167" lon="6.32155">
        <ele>1147</ele>
        <time>2013-07-27T09:22:30Z</time>
      </trkpt>
      <trkpt lat="46.0167" lon="6.32142">
        <ele>1147</ele>
        <time>2013-07-27T09:22:35Z</time>
      </trkpt>
      <trkpt lat="46.01667" lon="6.32127">
        <ele>1147</ele>
        <time>2013-07-27T09:22:39Z</time>
      </trkpt>
      <trkpt lat="46.01664" lon="6.32109">
        <ele>1147</ele>
        <time>2013-07-27T09:22:42Z</time>
      </trkpt>
      <trkpt lat="46.0167" lon="6.32099">
        <ele>1147</ele>
        <time>2013-07-27T09:22:45Z</time>
      </trkpt>
      <trkpt lat="46.0168" lon="6.32092">
        <ele>1147</ele>
        <time>2013-07-27T09:22:47Z</time>
      </trkpt>
      <trkpt lat="46.0169" lon="6.32082">
        <ele>1147</ele>
        <time>2013-07-27T09:22:49Z</time>
      </trkpt>
      <trkpt lat="46.01697" lon="6.32071">
        <ele>1147</ele>
        <time>2013-07-27T09:22:52Z</time>
      </trkpt>
      <trkpt lat="46.01705" lon="6.32057">
        <ele>1147</ele>
        <time>2013-07-27T09:22:56Z</time>
      </trkpt>
      <trkpt lat="46.01709" lon="6.32043">
        <ele>1147</ele>
        <time>2013-07-27T09:22:59Z</time>
      </trkpt>
      <trkpt lat="46.01713" lon="6.32029">
        <ele>1152</ele>
        <time>2013-07-27T09:23:02Z</time>
      </trkpt>
      <trkpt lat="46.01719" lon="6.32015">
        <ele>1152</ele>
        <time>2013-07-27T09:23:05Z</time>
      </trkpt>
      <trkpt lat="46.01725" lon="6.32003">
        <ele>1158</ele>
        <time>2013-07-27T09:23:08Z</time>
      </trkpt>
      <trkpt lat="46.01732" lon="6.31993">
        <ele>1158</ele>
        <time>2013-07-27T09:23:11Z</time>
      </trkpt>
      <trkpt lat="46.01737" lon="6.3198">
        <ele>1168</ele>
        <time>2013-07-27T09:23:18Z</time>
      </trkpt>
      <trkpt lat="46.01737" lon="6.31966">
        <ele>1168</ele>
        <time>2013-07-27T09:23:21Z</time>
      </trkpt>
      <trkpt lat="46.01739" lon="6.3195">
        <ele>1168</ele>
        <time>2013-07-27T09:23:24Z</time>
      </trkpt>
      <trkpt lat="46.01741" lon="6.31933">
        <ele>1161</ele>
        <time>2013-07-27T09:23:27Z</time>
      </trkpt>
      <trkpt lat="46.01744" lon="6.31915">
        <ele>1161</ele>
        <time>2013-07-27T09:23:31Z</time>
      </trkpt>
      <trkpt lat="46.01751" lon="6.31902">
        <ele>1161</ele>
        <time>2013-07-27T09:23:34Z</time>
      </trkpt>
      <trkpt lat="46.01756" lon="6.3189">
        <ele>1161</ele>
        <time>2013-07-27T09:23:37Z</time>
      </trkpt>
      <trkpt lat="46.01757" lon="6.31873">
        <ele>1161</ele>
        <time>2013-07-27T09:23:41Z</time>
      </trkpt>
      <trkpt lat="46.01759" lon="6.31861">
        <ele>1161</ele>
        <time>2013-07-27T09:23:43Z</time>
      </trkpt>
      <trkpt lat="46.01762" lon="6.31845">
        <ele>1161</ele>
        <time>2013-07-27T09:23:45Z</time>
      </trkpt>
      <trkpt lat="46.01762" lon="6.3183">
        <ele>1155</ele>
        <time>2013-07-27T09:23:48Z</time>
      </trkpt>
      <trkpt lat="46.01762" lon="6.31812">
        <ele>1163</ele>
        <time>2013-07-27T09:23:55Z</time>
      </trkpt>
      <trkpt lat="46.01763" lon="6.31792">
        <ele>1158</ele>
        <time>2013-07-27T09:23:57Z</time>
      </trkpt>
      <trkpt lat="46.01764" lon="6.31776">
        <ele>1158</ele>
        <time>2013-07-27T09:23:59Z</time>
      </trkpt>
      <trkpt lat="46.01763" lon="6.31762">
        <ele>1158</ele>
        <time>2013-07-27T09:24:01Z</time>
      </trkpt>
      <trkpt lat="46.01761" lon="6.31749">
        <ele>1158</ele>
        <time>2013-07-27T09:24:03Z</time>
      </trkpt>
      <trkpt lat="46.01759" lon="6.31736">
        <ele>1158</ele>
        <time>2013-07-27T09:24:05Z</time>
      </trkpt>
      <trkpt lat="46.01754" lon="6.31718">
        <ele>1150</ele>
        <time>2013-07-27T09:24:08Z</time>
      </trkpt>
      <trkpt lat="46.01754" lon="6.31703">
        <ele>1150</ele>
        <time>2013-07-27T09:24:11Z</time>
      </trkpt>
      <trkpt lat="46.01748" lon="6.31689">
        <ele>1150</ele>
        <time>2013-07-27T09:24:14Z</time>
      </trkpt>
      <trkpt lat="46.01742" lon="6.31674">
        <ele>1150</ele>
        <time>2013-07-27T09:24:16Z</time>
      </trkpt>
      <trkpt lat="46.01734" lon="6.31658">
        <ele>1150</ele>
        <time>2013-07-27T09:24:18Z</time>
      </trkpt>
      <trkpt lat="46.01727" lon="6.31647">
        <ele>1150</ele>
        <time>2013-07-27T09:24:20Z</time>
      </trkpt>
      <trkpt lat="46.01719" lon="6.31641">
        <ele>1150</ele>
        <time>2013-07-27T09:24:24Z</time>
      </trkpt>
      <trkpt lat="46.0171" lon="6.3165">
        <ele>1150</ele>
        <time>2013-07-27T09:24:27Z</time>
      </trkpt>
      <trkpt lat="46.01697" lon="6.31659">
        <ele>1157</ele>
        <time>2013-07-27T09:24:30Z</time>
      </trkpt>
      <trkpt lat="46.01683" lon="6.31668">
        <ele>1157</ele>
        <time>2013-07-27T09:24:32Z</time>
      </trkpt>
      <trkpt lat="46.01669" lon="6.31675">
        <ele>1157</ele>
        <time>2013-07-27T09:24:34Z</time>
      </trkpt>
      <trkpt lat="46.01655" lon="6.31682">
        <ele>1167</ele>
        <time>2013-07-27T09:24:36Z</time>
      </trkpt>
      <trkpt lat="46.01645" lon="6.31694">
        <ele>1167</ele>
        <time>2013-07-27T09:24:38Z</time>
      </trkpt>
      <trkpt lat="46.01633" lon="6.31703">
        <ele>1167</ele>
        <time>2013-07-27T09:24:40Z</time>
      </trkpt>
      <trkpt lat="46.01628" lon="6.31719">
        <ele>1176</ele>
        <time>2013-07-27T09:24:42Z</time>
      </trkpt>
      <trkpt lat="46.0162" lon="6.31745">
        <ele>1176</ele>
        <time>2013-07-27T09:24:45Z</time>
      </trkpt>
      <trkpt lat="46.01615" lon="6.31758">
        <ele>1176</ele>
        <time>2013-07-27T09:24:46Z</time>
      </trkpt>
      <trkpt lat="46.01612" lon="6.31771">
        <ele>1176</ele>
        <time>2013-07-27T09:24:47Z</time>
      </trkpt>
      <trkpt lat="46.01609" lon="6.31786">
        <ele>1176</ele>
        <time>2013-07-27T09:24:48Z</time>
      </trkpt>
      <trkpt lat="46.01603" lon="6.31808">
        <ele>1176</ele>
        <time>2013-07-27T09:24:50Z</time>
      </trkpt>
      <trkpt lat="46.01598" lon="6.31819">
        <ele>1176</ele>
        <time>2013-07-27T09:24:51Z</time>
      </trkpt>
      <trkpt lat="46.01594" lon="6.31831">
        <ele>1176</ele>
        <time>2013-07-27T09:24:52Z</time>
      </trkpt>
      <trkpt lat="46.01585" lon="6.31848">
        <ele>1176</ele>
        <time>2013-07-27T09:24:54Z</time>
      </trkpt>
      <trkpt lat="46.01577" lon="6.31861">
        <ele>1185</ele>
        <time>2013-07-27T09:24:56Z</time>
      </trkpt>
      <trkpt lat="46.01566" lon="6.31868">
        <ele>1185</ele>
        <time>2013-07-27T09:24:58Z</time>
      </trkpt>
      <trkpt lat="46.0156" lon="6.3188">
        <ele>1193</ele>
        <time>2013-07-27T09:25:00Z</time>
      </trkpt>
      <trkpt lat="46.01556" lon="6.31899">
        <ele>1193</ele>
        <time>2013-07-27T09:25:02Z</time>
      </trkpt>
      <trkpt lat="46.01554" lon="6.31922">
        <ele>1193</ele>
        <time>2013-07-27T09:25:04Z</time>
      </trkpt>
      <trkpt lat="46.0155" lon="6.31949">
        <ele>1199</ele>
        <time>2013-07-27T09:25:07Z</time>
      </trkpt>
      <trkpt lat="46.01543" lon="6.31964">
        <ele>1199</ele>
        <time>2013-07-27T09:25:09Z</time>
      </trkpt>
      <trkpt lat="46.01542" lon="6.31982">
        <ele>1204</ele>
        <time>2013-07-27T09:25:11Z</time>
      </trkpt>
      <trkpt lat="46.01536" lon="6.31994">
        <ele>1204</ele>
        <time>2013-07-27T09:25:13Z</time>
      </trkpt>
      <trkpt lat="46.01529" lon="6.32009">
        <ele>1204</ele>
        <time>2013-07-27T09:25:15Z</time>
      </trkpt>
      <trkpt lat="46.01517" lon="6.32019">
        <ele>1204</ele>
        <time>2013-07-27T09:25:17Z</time>
      </trkpt>
      <trkpt lat="46.01508" lon="6.32028">
        <ele>1204</ele>
        <time>2013-07-27T09:25:19Z</time>
      </trkpt>
      <trkpt lat="46.01498" lon="6.3204">
        <ele>1204</ele>
        <time>2013-07-27T09:25:21Z</time>
      </trkpt>
      <trkpt lat="46.01488" lon="6.32053">
        <ele>1204</ele>
        <time>2013-07-27T09:25:23Z</time>
      </trkpt>
      <trkpt lat="46.01479" lon="6.32065">
        <ele>1216</ele>
        <time>2013-07-27T09:25:25Z</time>
      </trkpt>
      <trkpt lat="46.01469" lon="6.32079">
        <ele>1222</ele>
        <time>2013-07-27T09:25:27Z</time>
      </trkpt>
      <trkpt lat="46.01461" lon="6.3209">
        <ele>1222</ele>
        <time>2013-07-27T09:25:29Z</time>
      </trkpt>
      <trkpt lat="46.01464" lon="6.32103">
        <ele>1258</ele>
        <time>2013-07-27T09:25:38Z</time>
      </trkpt>
      <trkpt lat="46.01453" lon="6.32098">
        <ele>1236</ele>
        <time>2013-07-27T09:26:00Z</time>
      </trkpt>
      <trkpt lat="46.01441" lon="6.321">
        <ele>1236</ele>
        <time>2013-07-27T09:26:02Z</time>
      </trkpt>
      <trkpt lat="46.01426" lon="6.321">
        <ele>1236</ele>
        <time>2013-07-27T09:26:04Z</time>
      </trkpt>
      <trkpt lat="46.01416" lon="6.32096">
        <ele>1236</ele>
        <time>2013-07-27T09:26:10Z</time>
      </trkpt>
      <trkpt lat="46.01406" lon="6.32101">
        <ele>1236</ele>
        <time>2013-07-27T09:26:20Z</time>
      </trkpt>
      <trkpt lat="46.01394" lon="6.321">
        <ele>1236</ele>
        <time>2013-07-27T09:26:25Z</time>
      </trkpt>
      <trkpt lat="46.01385" lon="6.32094">
        <ele>1236</ele>
        <time>2013-07-27T09:26:28Z</time>
      </trkpt>
      <trkpt lat="46.01377" lon="6.32084">
        <ele>1236</ele>
        <time>2013-07-27T09:26:31Z</time>
      </trkpt>
      <trkpt lat="46.01379" lon="6.3207">
        <ele>1241</ele>
        <time>2013-07-27T09:26:34Z</time>
      </trkpt>
      <trkpt lat="46.01385" lon="6.32059">
        <ele>1248</ele>
        <time>2013-07-27T09:26:46Z</time>
      </trkpt>
      <trkpt lat="46.01377" lon="6.32049">
        <ele>1240</ele>
        <time>2013-07-27T09:27:03Z</time>
      </trkpt>
      <trkpt lat="46.01369" lon="6.32042">
        <ele>1228</ele>
        <time>2013-07-27T09:27:15Z</time>
      </trkpt>
      <trkpt lat="46.01378" lon="6.32048">
        <ele>1234</ele>
        <time>2013-07-27T09:27:37Z</time>
      </trkpt>
      <trkpt lat="46.01384" lon="6.3206">
        <ele>1251</ele>
        <time>2013-07-27T09:27:59Z</time>
      </trkpt>
      <trkpt lat="46.01376" lon="6.32053">
        <ele>1245</ele>
        <time>2013-07-27T09:30:02Z</time>
      </trkpt>
      <trkpt lat="46.01366" lon="6.3205">
        <ele>1254</ele>
        <time>2013-07-27T09:33:05Z</time>
      </trkpt>
      <trkpt lat="46.01376" lon="6.32052">
        <ele>1236</ele>
        <time>2013-07-27T09:35:47Z</time>
      </trkpt>
      <trkpt lat="46.01369" lon="6.32043">
        <ele>1236</ele>
        <time>2013-07-27T09:36:37Z</time>
      </trkpt>
      <trkpt lat="46.01376" lon="6.32051">
        <ele>1257</ele>
        <time>2013-07-27T09:38:10Z</time>
      </trkpt>
      <trkpt lat="46.01384" lon="6.32058">
        <ele>1257</ele>
        <time>2013-07-27T09:39:49Z</time>
      </trkpt>
      <trkpt lat="46.01382" lon="6.32044">
        <ele>1251</ele>
        <time>2013-07-27T09:48:37Z</time>
      </trkpt>
      <trkpt lat="46.01387" lon="6.32028">
        <ele>1251</ele>
        <time>2013-07-27T09:48:40Z</time>
      </trkpt>
      <trkpt lat="46.01389" lon="6.32012">
        <ele>1251</ele>
        <time>2013-07-27T09:48:42Z</time>
      </trkpt>
      <trkpt lat="46.01391" lon="6.31996">
        <ele>1251</ele>
        <time>2013-07-27T09:48:44Z</time>
      </trkpt>
      <trkpt lat="46.01398" lon="6.31985">
        <ele>1257</ele>
        <time>2013-07-27T09:48:46Z</time>
      </trkpt>
      <trkpt lat="46.01404" lon="6.3197">
        <ele>1257</ele>
        <time>2013-07-27T09:48:48Z</time>
      </trkpt>
      <trkpt lat="46.01406" lon="6.31952">
        <ele>1257</ele>
        <time>2013-07-27T09:48:50Z</time>
      </trkpt>
      <trkpt lat="46.01408" lon="6.31928">
        <ele>1257</ele>
        <time>2013-07-27T09:48:52Z</time>
      </trkpt>
      <trkpt lat="46.01408" lon="6.31914">
        <ele>1257</ele>
        <time>2013-07-27T09:48:53Z</time>
      </trkpt>
      <trkpt lat="46.01408" lon="6.319">
        <ele>1257</ele>
        <time>2013-07-27T09:48:54Z</time>
      </trkpt>
      <trkpt lat="46.01414" lon="6.31881">
        <ele>1264</ele>
        <time>2013-07-27T09:48:56Z</time>
      </trkpt>
      <trkpt lat="46.01413" lon="6.31862">
        <ele>1264</ele>
        <time>2013-07-27T09:48:58Z</time>
      </trkpt>
      <trkpt lat="46.0141" lon="6.31842">
        <ele>1264</ele>
        <time>2013-07-27T09:49:00Z</time>
      </trkpt>
      <trkpt lat="46.01408" lon="6.31821">
        <ele>1264</ele>
        <time>2013-07-27T09:49:02Z</time>
      </trkpt>
      <trkpt lat="46.01404" lon="6.318">
        <ele>1270</ele>
        <time>2013-07-27T09:49:04Z</time>
      </trkpt>
      <trkpt lat="46.01401" lon="6.3178">
        <ele>1270</ele>
        <time>2013-07-27T09:49:06Z</time>
      </trkpt>
      <trkpt lat="46.01398" lon="6.31759">
        <ele>1270</ele>
        <time>2013-07-27T09:49:08Z</time>
      </trkpt>
      <trkpt lat="46.01397" lon="6.3174">
        <ele>1275</ele>
        <time>2013-07-27T09:49:10Z</time>
      </trkpt>
      <trkpt lat="46.01399" lon="6.31723">
        <ele>1275</ele>
        <time>2013-07-27T09:49:12Z</time>
      </trkpt>
      <trkpt lat="46.01403" lon="6.31707">
        <ele>1275</ele>
        <time>2013-07-27T09:49:14Z</time>
      </trkpt>
      <trkpt lat="46.01401" lon="6.31691">
        <ele>1282</ele>
        <time>2013-07-27T09:49:16Z</time>
      </trkpt>
      <trkpt lat="46.01399" lon="6.31676">
        <ele>1282</ele>
        <time>2013-07-27T09:49:18Z</time>
      </trkpt>
      <trkpt lat="46.01397" lon="6.31662">
        <ele>1282</ele>
        <time>2013-07-27T09:49:20Z</time>
      </trkpt>
      <trkpt lat="46.01393" lon="6.31647">
        <ele>1288</ele>
        <time>2013-07-27T09:49:22Z</time>
      </trkpt>
      <trkpt lat="46.0139" lon="6.31631">
        <ele>1288</ele>
        <time>2013-07-27T09:49:24Z</time>
      </trkpt>
      <trkpt lat="46.01389" lon="6.31614">
        <ele>1288</ele>
        <time>2013-07-27T09:49:26Z</time>
      </trkpt>
      <trkpt lat="46.01387" lon="6.31594">
        <ele>1296</ele>
        <time>2013-07-27T09:49:29Z</time>
      </trkpt>
      <trkpt lat="46.01383" lon="6.31579">
        <ele>1296</ele>
        <time>2013-07-27T09:49:31Z</time>
      </trkpt>
      <trkpt lat="46.01378" lon="6.31567">
        <ele>1296</ele>
        <time>2013-07-27T09:49:33Z</time>
      </trkpt>
      <trkpt lat="46.01372" lon="6.31552">
        <ele>1303</ele>
        <time>2013-07-27T09:49:36Z</time>
      </trkpt>
      <trkpt lat="46.01367" lon="6.31537">
        <ele>1303</ele>
        <time>2013-07-27T09:49:39Z</time>
      </trkpt>
      <trkpt lat="46.01368" lon="6.31523">
        <ele>1311</ele>
        <time>2013-07-27T09:49:46Z</time>
      </trkpt>
      <trkpt lat="46.01367" lon="6.31504">
        <ele>1311</ele>
        <time>2013-07-27T09:49:49Z</time>
      </trkpt>
      <trkpt lat="46.01366" lon="6.31485">
        <ele>1311</ele>
        <time>2013-07-27T09:49:52Z</time>
      </trkpt>
      <trkpt lat="46.01358" lon="6.31477">
        <ele>1311</ele>
        <time>2013-07-27T09:50:06Z</time>
      </trkpt>
      <trkpt lat="46.01349" lon="6.31474">
        <ele>1311</ele>
        <time>2013-07-27T09:50:33Z</time>
      </trkpt>
      <trkpt lat="46.01356" lon="6.31482">
        <ele>1311</ele>
        <time>2013-07-27T09:50:51Z</time>
      </trkpt>
      <trkpt lat="46.01361" lon="6.31497">
        <ele>1311</ele>
        <time>2013-07-27T09:50:55Z</time>
      </trkpt>
      <trkpt lat="46.01364" lon="6.3151">
        <ele>1311</ele>
        <time>2013-07-27T09:50:58Z</time>
      </trkpt>
      <trkpt lat="46.01363" lon="6.31524">
        <ele>1306</ele>
        <time>2013-07-27T09:51:01Z</time>
      </trkpt>
      <trkpt lat="46.01367" lon="6.31537">
        <ele>1306</ele>
        <time>2013-07-27T09:51:04Z</time>
      </trkpt>
      <trkpt lat="46.01373" lon="6.31552">
        <ele>1306</ele>
        <time>2013-07-27T09:51:07Z</time>
      </trkpt>
      <trkpt lat="46.01381" lon="6.31565">
        <ele>1306</ele>
        <time>2013-07-27T09:51:10Z</time>
      </trkpt>
      <trkpt lat="46.01385" lon="6.31577">
        <ele>1301</ele>
        <time>2013-07-27T09:51:13Z</time>
      </trkpt>
      <trkpt lat="46.0139" lon="6.31593">
        <ele>1301</ele>
        <time>2013-07-27T09:51:16Z</time>
      </trkpt>
      <trkpt lat="46.01391" lon="6.31608">
        <ele>1292</ele>
        <time>2013-07-27T09:51:19Z</time>
      </trkpt>
      <trkpt lat="46.01391" lon="6.31628">
        <ele>1292</ele>
        <time>2013-07-27T09:51:22Z</time>
      </trkpt>
      <trkpt lat="46.01394" lon="6.31641">
        <ele>1292</ele>
        <time>2013-07-27T09:51:24Z</time>
      </trkpt>
      <trkpt lat="46.01397" lon="6.31661">
        <ele>1286</ele>
        <time>2013-07-27T09:51:27Z</time>
      </trkpt>
      <trkpt lat="46.01398" lon="6.31676">
        <ele>1286</ele>
        <time>2013-07-27T09:51:29Z</time>
      </trkpt>
      <trkpt lat="46.01401" lon="6.31691">
        <ele>1281</ele>
        <time>2013-07-27T09:51:31Z</time>
      </trkpt>
      <trkpt lat="46.01403" lon="6.31706">
        <ele>1281</ele>
        <time>2013-07-27T09:51:33Z</time>
      </trkpt>
      <trkpt lat="46.01403" lon="6.31721">
        <ele>1281</ele>
        <time>2013-07-27T09:51:35Z</time>
      </trkpt>
      <trkpt lat="46.01401" lon="6.31737">
        <ele>1274</ele>
        <time>2013-07-27T09:51:37Z</time>
      </trkpt>
      <trkpt lat="46.01401" lon="6.31753">
        <ele>1274</ele>
        <time>2013-07-27T09:51:39Z</time>
      </trkpt>
      <trkpt lat="46.01404" lon="6.31773">
        <ele>1274</ele>
        <time>2013-07-27T09:51:41Z</time>
      </trkpt>
      <trkpt lat="46.01408" lon="6.3179">
        <ele>1274</ele>
        <time>2013-07-27T09:51:43Z</time>
      </trkpt>
      <trkpt lat="46.01409" lon="6.31805">
        <ele>1274</ele>
        <time>2013-07-27T09:51:45Z</time>
      </trkpt>
      <trkpt lat="46.0141" lon="6.31821">
        <ele>1274</ele>
        <time>2013-07-27T09:51:47Z</time>
      </trkpt>
      <trkpt lat="46.01411" lon="6.31836">
        <ele>1265</ele>
        <time>2013-07-27T09:51:49Z</time>
      </trkpt>
      <trkpt lat="46.01411" lon="6.31852">
        <ele>1265</ele>
        <time>2013-07-27T09:51:51Z</time>
      </trkpt>
      <trkpt lat="46.01416" lon="6.31869">
        <ele>1265</ele>
        <time>2013-07-27T09:51:53Z</time>
      </trkpt>
      <trkpt lat="46.01417" lon="6.31885">
        <ele>1258</ele>
        <time>2013-07-27T09:51:55Z</time>
      </trkpt>
      <trkpt lat="46.01416" lon="6.31903">
        <ele>1258</ele>
        <time>2013-07-27T09:51:57Z</time>
      </trkpt>
      <trkpt lat="46.01413" lon="6.31921">
        <ele>1258</ele>
        <time>2013-07-27T09:51:59Z</time>
      </trkpt>
      <trkpt lat="46.01413" lon="6.3194">
        <ele>1258</ele>
        <time>2013-07-27T09:52:01Z</time>
      </trkpt>
      <trkpt lat="46.0141" lon="6.31955">
        <ele>1258</ele>
        <time>2013-07-27T09:52:03Z</time>
      </trkpt>
      <trkpt lat="46.01408" lon="6.31968">
        <ele>1251</ele>
        <time>2013-07-27T09:52:05Z</time>
      </trkpt>
      <trkpt lat="46.01401" lon="6.31977">
        <ele>1251</ele>
        <time>2013-07-27T09:52:07Z</time>
      </trkpt>
      <trkpt lat="46.01392" lon="6.31989">
        <ele>1242</ele>
        <time>2013-07-27T09:52:09Z</time>
      </trkpt>
      <trkpt lat="46.01386" lon="6.32003">
        <ele>1242</ele>
        <time>2013-07-27T09:52:11Z</time>
      </trkpt>
      <trkpt lat="46.01384" lon="6.32017">
        <ele>1242</ele>
        <time>2013-07-27T09:52:13Z</time>
      </trkpt>
      <trkpt lat="46.01384" lon="6.32034">
        <ele>1242</ele>
        <time>2013-07-27T09:52:16Z</time>
      </trkpt>
      <trkpt lat="46.01381" lon="6.32047">
        <ele>1242</ele>
        <time>2013-07-27T09:52:19Z</time>
      </trkpt>
      <trkpt lat="46.01392" lon="6.32047">
        <ele>1242</ele>
        <time>2013-07-27T09:52:25Z</time>
      </trkpt>
      <trkpt lat="46.01408" lon="6.3204">
        <ele>1242</ele>
        <time>2013-07-27T09:52:29Z</time>
      </trkpt>
      <trkpt lat="46.01421" lon="6.32034">
        <ele>1249</ele>
        <time>2013-07-27T09:52:31Z</time>
      </trkpt>
      <trkpt lat="46.01433" lon="6.32024">
        <ele>1249</ele>
        <time>2013-07-27T09:52:33Z</time>
      </trkpt>
      <trkpt lat="46.0144" lon="6.32015">
        <ele>1249</ele>
        <time>2013-07-27T09:52:35Z</time>
      </trkpt>
      <trkpt lat="46.01446" lon="6.32003">
        <ele>1243</ele>
        <time>2013-07-27T09:52:37Z</time>
      </trkpt>
      <trkpt lat="46.01451" lon="6.31989">
        <ele>1238</ele>
        <time>2013-07-27T09:52:39Z</time>
      </trkpt>
      <trkpt lat="46.01459" lon="6.31975">
        <ele>1238</ele>
        <time>2013-07-27T09:52:41Z</time>
      </trkpt>
      <trkpt lat="46.01466" lon="6.31957">
        <ele>1238</ele>
        <time>2013-07-27T09:52:43Z</time>
      </trkpt>
      <trkpt lat="46.01472" lon="6.31941">
        <ele>1238</ele>
        <time>2013-07-27T09:52:45Z</time>
      </trkpt>
      <trkpt lat="46.01475" lon="6.31924">
        <ele>1233</ele>
        <time>2013-07-27T09:52:47Z</time>
      </trkpt>
      <trkpt lat="46.01482" lon="6.31906">
        <ele>1233</ele>
        <time>2013-07-27T09:52:50Z</time>
      </trkpt>
      <trkpt lat="46.01488" lon="6.31888">
        <ele>1233</ele>
        <time>2013-07-27T09:52:52Z</time>
      </trkpt>
      <trkpt lat="46.01495" lon="6.31873">
        <ele>1233</ele>
        <time>2013-07-27T09:52:54Z</time>
      </trkpt>
      <trkpt lat="46.01495" lon="6.31857">
        <ele>1226</ele>
        <time>2013-07-27T09:52:56Z</time>
      </trkpt>
      <trkpt lat="46.01495" lon="6.31837">
        <ele>1226</ele>
        <time>2013-07-27T09:52:59Z</time>
      </trkpt>
      <trkpt lat="46.015" lon="6.31822">
        <ele>1226</ele>
        <time>2013-07-27T09:53:01Z</time>
      </trkpt>
      <trkpt lat="46.01504" lon="6.3181">
        <ele>1226</ele>
        <time>2013-07-27T09:53:03Z</time>
      </trkpt>
      <trkpt lat="46.01504" lon="6.31792">
        <ele>1226</ele>
        <time>2013-07-27T09:53:05Z</time>
      </trkpt>
      <trkpt lat="46.01503" lon="6.31779">
        <ele>1221</ele>
        <time>2013-07-27T09:53:06Z</time>
      </trkpt>
      <trkpt lat="46.01503" lon="6.31765">
        <ele>1221</ele>
        <time>2013-07-27T09:53:07Z</time>
      </trkpt>
      <trkpt lat="46.01502" lon="6.31751">
        <ele>1221</ele>
        <time>2013-07-27T09:53:08Z</time>
      </trkpt>
      <trkpt lat="46.01505" lon="6.31729">
        <ele>1221</ele>
        <time>2013-07-27T09:53:10Z</time>
      </trkpt>
      <trkpt lat="46.01504" lon="6.31714">
        <ele>1221</ele>
        <time>2013-07-27T09:53:12Z</time>
      </trkpt>
      <trkpt lat="46.01505" lon="6.31697">
        <ele>1221</ele>
        <time>2013-07-27T09:53:15Z</time>
      </trkpt>
      <trkpt lat="46.01504" lon="6.31683">
        <ele>1221</ele>
        <time>2013-07-27T09:53:17Z</time>
      </trkpt>
      <trkpt lat="46.01508" lon="6.3167">
        <ele>1221</ele>
        <time>2013-07-27T09:53:19Z</time>
      </trkpt>
      <trkpt lat="46.0151" lon="6.31656">
        <ele>1221</ele>
        <time>2013-07-27T09:53:21Z</time>
      </trkpt>
      <trkpt lat="46.0151" lon="6.31636">
        <ele>1221</ele>
        <time>2013-07-27T09:53:24Z</time>
      </trkpt>
      <trkpt lat="46.01508" lon="6.31621">
        <ele>1221</ele>
        <time>2013-07-27T09:53:26Z</time>
      </trkpt>
      <trkpt lat="46.0151" lon="6.31607">
        <ele>1221</ele>
        <time>2013-07-27T09:53:28Z</time>
      </trkpt>
      <trkpt lat="46.01516" lon="6.31595">
        <ele>1230</ele>
        <time>2013-07-27T09:53:30Z</time>
      </trkpt>
      <trkpt lat="46.01521" lon="6.31572">
        <ele>1230</ele>
        <time>2013-07-27T09:53:34Z</time>
      </trkpt>
      <trkpt lat="46.01524" lon="6.31557">
        <ele>1230</ele>
        <time>2013-07-27T09:53:36Z</time>
      </trkpt>
      <trkpt lat="46.01527" lon="6.31541">
        <ele>1230</ele>
        <time>2013-07-27T09:53:38Z</time>
      </trkpt>
      <trkpt lat="46.0153" lon="6.31525">
        <ele>1230</ele>
        <time>2013-07-27T09:53:40Z</time>
      </trkpt>
      <trkpt lat="46.01531" lon="6.31509">
        <ele>1224</ele>
        <time>2013-07-27T09:53:43Z</time>
      </trkpt>
      <trkpt lat="46.01533" lon="6.31492">
        <ele>1224</ele>
        <time>2013-07-27T09:53:45Z</time>
      </trkpt>
      <trkpt lat="46.01535" lon="6.3147">
        <ele>1224</ele>
        <time>2013-07-27T09:53:47Z</time>
      </trkpt>
      <trkpt lat="46.0154" lon="6.3145">
        <ele>1224</ele>
        <time>2013-07-27T09:53:49Z</time>
      </trkpt>
      <trkpt lat="46.01538" lon="6.31437">
        <ele>1218</ele>
        <time>2013-07-27T09:53:52Z</time>
      </trkpt>
      <trkpt lat="46.01546" lon="6.3143">
        <ele>1227</ele>
        <time>2013-07-27T09:54:08Z</time>
      </trkpt>
      <trkpt lat="46.01553" lon="6.31419">
        <ele>1221</ele>
        <time>2013-07-27T09:54:12Z</time>
      </trkpt>
      <trkpt lat="46.01562" lon="6.3141">
        <ele>1221</ele>
        <time>2013-07-27T09:54:14Z</time>
      </trkpt>
      <trkpt lat="46.01565" lon="6.31393">
        <ele>1221</ele>
        <time>2013-07-27T09:54:16Z</time>
      </trkpt>
      <trkpt lat="46.0157" lon="6.31375">
        <ele>1215</ele>
        <time>2013-07-27T09:54:18Z</time>
      </trkpt>
      <trkpt lat="46.01578" lon="6.31358">
        <ele>1215</ele>
        <time>2013-07-27T09:54:20Z</time>
      </trkpt>
      <trkpt lat="46.01582" lon="6.31345">
        <ele>1215</ele>
        <time>2013-07-27T09:54:22Z</time>
      </trkpt>
      <trkpt lat="46.01586" lon="6.31332">
        <ele>1209</ele>
        <time>2013-07-27T09:54:25Z</time>
      </trkpt>
      <trkpt lat="46.01577" lon="6.31332">
        <ele>1209</ele>
        <time>2013-07-27T09:54:30Z</time>
      </trkpt>
      <trkpt lat="46.01564" lon="6.31335">
        <ele>1209</ele>
        <time>2013-07-27T09:54:33Z</time>
      </trkpt>
      <trkpt lat="46.01552" lon="6.31334">
        <ele>1209</ele>
        <time>2013-07-27T09:54:36Z</time>
      </trkpt>
      <trkpt lat="46.01541" lon="6.31331">
        <ele>1209</ele>
        <time>2013-07-27T09:54:38Z</time>
      </trkpt>
      <trkpt lat="46.01529" lon="6.31326">
        <ele>1217</ele>
        <time>2013-07-27T09:54:40Z</time>
      </trkpt>
      <trkpt lat="46.01518" lon="6.31313">
        <ele>1217</ele>
        <time>2013-07-27T09:54:42Z</time>
      </trkpt>
      <trkpt lat="46.01511" lon="6.31297">
        <ele>1224</ele>
        <time>2013-07-27T09:54:44Z</time>
      </trkpt>
      <trkpt lat="46.01501" lon="6.31283">
        <ele>1224</ele>
        <time>2013-07-27T09:54:46Z</time>
      </trkpt>
      <trkpt lat="46.01496" lon="6.3127">
        <ele>1224</ele>
        <time>2013-07-27T09:54:48Z</time>
      </trkpt>
      <trkpt lat="46.01495" lon="6.31256">
        <ele>1224</ele>
        <time>2013-07-27T09:54:53Z</time>
      </trkpt>
      <trkpt lat="46.0149" lon="6.31243">
        <ele>1224</ele>
        <time>2013-07-27T09:54:56Z</time>
      </trkpt>
      <trkpt lat="46.01487" lon="6.31223">
        <ele>1224</ele>
        <time>2013-07-27T09:54:59Z</time>
      </trkpt>
      <trkpt lat="46.01488" lon="6.31206">
        <ele>1224</ele>
        <time>2013-07-27T09:55:01Z</time>
      </trkpt>
      <trkpt lat="46.01483" lon="6.31182">
        <ele>1224</ele>
        <time>2013-07-27T09:55:03Z</time>
      </trkpt>
      <trkpt lat="46.01481" lon="6.31169">
        <ele>1224</ele>
        <time>2013-07-27T09:55:04Z</time>
      </trkpt>
      <trkpt lat="46.01474" lon="6.31146">
        <ele>1224</ele>
        <time>2013-07-27T09:55:06Z</time>
      </trkpt>
      <trkpt lat="46.01466" lon="6.3112">
        <ele>1224</ele>
        <time>2013-07-27T09:55:08Z</time>
      </trkpt>
      <trkpt lat="46.01459" lon="6.31102">
        <ele>1224</ele>
        <time>2013-07-27T09:55:10Z</time>
      </trkpt>
      <trkpt lat="46.01464" lon="6.3109">
        <ele>1231</ele>
        <time>2013-07-27T09:55:16Z</time>
      </trkpt>
      <trkpt lat="46.01463" lon="6.31075">
        <ele>1231</ele>
        <time>2013-07-27T09:55:21Z</time>
      </trkpt>
      <trkpt lat="46.01458" lon="6.3106">
        <ele>1231</ele>
        <time>2013-07-27T09:55:30Z</time>
      </trkpt>
      <trkpt lat="46.01453" lon="6.31047">
        <ele>1231</ele>
        <time>2013-07-27T09:55:35Z</time>
      </trkpt>
      <trkpt lat="46.01449" lon="6.31034">
        <ele>1231</ele>
        <time>2013-07-27T09:55:38Z</time>
      </trkpt>
      <trkpt lat="46.01444" lon="6.31015">
        <ele>1231</ele>
        <time>2013-07-27T09:55:41Z</time>
      </trkpt>
      <trkpt lat="46.01444" lon="6.31001">
        <ele>1231</ele>
        <time>2013-07-27T09:55:43Z</time>
      </trkpt>
      <trkpt lat="46.01439" lon="6.30985">
        <ele>1224</ele>
        <time>2013-07-27T09:55:45Z</time>
      </trkpt>
      <trkpt lat="46.01431" lon="6.30966">
        <ele>1224</ele>
        <time>2013-07-27T09:55:47Z</time>
      </trkpt>
      <trkpt lat="46.01424" lon="6.3095">
        <ele>1224</ele>
        <time>2013-07-27T09:55:49Z</time>
      </trkpt>
      <trkpt lat="46.01418" lon="6.30936">
        <ele>1217</ele>
        <time>2013-07-27T09:55:51Z</time>
      </trkpt>
      <trkpt lat="46.01414" lon="6.30923">
        <ele>1217</ele>
        <time>2013-07-27T09:55:53Z</time>
      </trkpt>
      <trkpt lat="46.01416" lon="6.30909">
        <ele>1223</ele>
        <time>2013-07-27T09:55:57Z</time>
      </trkpt>
      <trkpt lat="46.01413" lon="6.30892">
        <ele>1223</ele>
        <time>2013-07-27T09:56:01Z</time>
      </trkpt>
      <trkpt lat="46.01408" lon="6.30877">
        <ele>1223</ele>
        <time>2013-07-27T09:56:04Z</time>
      </trkpt>
      <trkpt lat="46.01404" lon="6.30864">
        <ele>1223</ele>
        <time>2013-07-27T09:56:06Z</time>
      </trkpt>
      <trkpt lat="46.01399" lon="6.30849">
        <ele>1215</ele>
        <time>2013-07-27T09:56:08Z</time>
      </trkpt>
      <trkpt lat="46.01394" lon="6.30833">
        <ele>1215</ele>
        <time>2013-07-27T09:56:10Z</time>
      </trkpt>
      <trkpt lat="46.01392" lon="6.30818">
        <ele>1215</ele>
        <time>2013-07-27T09:56:12Z</time>
      </trkpt>
      <trkpt lat="46.01392" lon="6.30804">
        <ele>1215</ele>
        <time>2013-07-27T09:56:14Z</time>
      </trkpt>
      <trkpt lat="46.01391" lon="6.30789">
        <ele>1215</ele>
        <time>2013-07-27T09:56:16Z</time>
      </trkpt>
      <trkpt lat="46.01392" lon="6.30771">
        <ele>1208</ele>
        <time>2013-07-27T09:56:18Z</time>
      </trkpt>
      <trkpt lat="46.01391" lon="6.3075">
        <ele>1208</ele>
        <time>2013-07-27T09:56:20Z</time>
      </trkpt>
      <trkpt lat="46.01388" lon="6.30731">
        <ele>1208</ele>
        <time>2013-07-27T09:56:22Z</time>
      </trkpt>
      <trkpt lat="46.01382" lon="6.30712">
        <ele>1203</ele>
        <time>2013-07-27T09:56:24Z</time>
      </trkpt>
      <trkpt lat="46.01378" lon="6.30696">
        <ele>1203</ele>
        <time>2013-07-27T09:56:26Z</time>
      </trkpt>
      <trkpt lat="46.01375" lon="6.30681">
        <ele>1203</ele>
        <time>2013-07-27T09:56:28Z</time>
      </trkpt>
      <trkpt lat="46.01374" lon="6.30664">
        <ele>1195</ele>
        <time>2013-07-27T09:56:30Z</time>
      </trkpt>
      <trkpt lat="46.01379" lon="6.30648">
        <ele>1195</ele>
        <time>2013-07-27T09:56:32Z</time>
      </trkpt>
      <trkpt lat="46.01382" lon="6.30632">
        <ele>1195</ele>
        <time>2013-07-27T09:56:34Z</time>
      </trkpt>
      <trkpt lat="46.01381" lon="6.30613">
        <ele>1189</ele>
        <time>2013-07-27T09:56:36Z</time>
      </trkpt>
      <trkpt lat="46.01379" lon="6.30593">
        <ele>1189</ele>
        <time>2013-07-27T09:56:38Z</time>
      </trkpt>
      <trkpt lat="46.01376" lon="6.30574">
        <ele>1189</ele>
        <time>2013-07-27T09:56:40Z</time>
      </trkpt>
      <trkpt lat="46.0137" lon="6.30556">
        <ele>1189</ele>
        <time>2013-07-27T09:56:42Z</time>
      </trkpt>
      <trkpt lat="46.01364" lon="6.30538">
        <ele>1183</ele>
        <time>2013-07-27T09:56:44Z</time>
      </trkpt>
      <trkpt lat="46.0136" lon="6.30521">
        <ele>1183</ele>
        <time>2013-07-27T09:56:46Z</time>
      </trkpt>
      <trkpt lat="46.01354" lon="6.30504">
        <ele>1183</ele>
        <time>2013-07-27T09:56:48Z</time>
      </trkpt>
      <trkpt lat="46.01351" lon="6.30487">
        <ele>1175</ele>
        <time>2013-07-27T09:56:50Z</time>
      </trkpt>
      <trkpt lat="46.01354" lon="6.30471">
        <ele>1175</ele>
        <time>2013-07-27T09:56:52Z</time>
      </trkpt>
      <trkpt lat="46.01357" lon="6.30453">
        <ele>1175</ele>
        <time>2013-07-27T09:56:54Z</time>
      </trkpt>
      <trkpt lat="46.01357" lon="6.30434">
        <ele>1175</ele>
        <time>2013-07-27T09:56:56Z</time>
      </trkpt>
      <trkpt lat="46.01357" lon="6.30415">
        <ele>1168</ele>
        <time>2013-07-27T09:56:58Z</time>
      </trkpt>
      <trkpt lat="46.01356" lon="6.30399">
        <ele>1168</ele>
        <time>2013-07-27T09:57:00Z</time>
      </trkpt>
      <trkpt lat="46.01357" lon="6.30384">
        <ele>1168</ele>
        <time>2013-07-27T09:57:02Z</time>
      </trkpt>
      <trkpt lat="46.01357" lon="6.30368">
        <ele>1160</ele>
        <time>2013-07-27T09:57:04Z</time>
      </trkpt>
      <trkpt lat="46.0136" lon="6.30351">
        <ele>1160</ele>
        <time>2013-07-27T09:57:06Z</time>
      </trkpt>
      <trkpt lat="46.01362" lon="6.30333">
        <ele>1154</ele>
        <time>2013-07-27T09:57:08Z</time>
      </trkpt>
      <trkpt lat="46.01366" lon="6.30318">
        <ele>1154</ele>
        <time>2013-07-27T09:57:10Z</time>
      </trkpt>
      <trkpt lat="46.01371" lon="6.30304">
        <ele>1147</ele>
        <time>2013-07-27T09:57:12Z</time>
      </trkpt>
      <trkpt lat="46.01376" lon="6.30291">
        <ele>1147</ele>
        <time>2013-07-27T09:57:14Z</time>
      </trkpt>
      <trkpt lat="46.01382" lon="6.30279">
        <ele>1140</ele>
        <time>2013-07-27T09:57:16Z</time>
      </trkpt>
      <trkpt lat="46.0139" lon="6.30265">
        <ele>1140</ele>
        <time>2013-07-27T09:57:18Z</time>
      </trkpt>
      <trkpt lat="46.01399" lon="6.30254">
        <ele>1134</ele>
        <time>2013-07-27T09:57:20Z</time>
      </trkpt>
      <trkpt lat="46.01408" lon="6.30244">
        <ele>1134</ele>
        <time>2013-07-27T09:57:22Z</time>
      </trkpt>
      <trkpt lat="46.01413" lon="6.30232">
        <ele>1128</ele>
        <time>2013-07-27T09:57:24Z</time>
      </trkpt>
      <trkpt lat="46.01418" lon="6.30219">
        <ele>1128</ele>
        <time>2013-07-27T09:57:26Z</time>
      </trkpt>
      <trkpt lat="46.01422" lon="6.30202">
        <ele>1120</ele>
        <time>2013-07-27T09:57:28Z</time>
      </trkpt>
      <trkpt lat="46.01423" lon="6.30183">
        <ele>1115</ele>
        <time>2013-07-27T09:57:31Z</time>
      </trkpt>
      <trkpt lat="46.01418" lon="6.30169">
        <ele>1115</ele>
        <time>2013-07-27T09:57:34Z</time>
      </trkpt>
      <trkpt lat="46.01411" lon="6.30159">
        <ele>1115</ele>
        <time>2013-07-27T09:57:36Z</time>
      </trkpt>
      <trkpt lat="46.01406" lon="6.30146">
        <ele>1108</ele>
        <time>2013-07-27T09:57:39Z</time>
      </trkpt>
      <trkpt lat="46.01411" lon="6.30131">
        <ele>1108</ele>
        <time>2013-07-27T09:57:43Z</time>
      </trkpt>
      <trkpt lat="46.01409" lon="6.30118">
        <ele>1101</ele>
        <time>2013-07-27T09:57:47Z</time>
      </trkpt>
      <trkpt lat="46.01401" lon="6.30105">
        <ele>1101</ele>
        <time>2013-07-27T09:57:51Z</time>
      </trkpt>
      <trkpt lat="46.01396" lon="6.30092">
        <ele>1096</ele>
        <time>2013-07-27T09:57:53Z</time>
      </trkpt>
      <trkpt lat="46.01392" lon="6.30075">
        <ele>1096</ele>
        <time>2013-07-27T09:57:55Z</time>
      </trkpt>
      <trkpt lat="46.01386" lon="6.30055">
        <ele>1096</ele>
        <time>2013-07-27T09:57:57Z</time>
      </trkpt>
      <trkpt lat="46.01377" lon="6.30034">
        <ele>1090</ele>
        <time>2013-07-27T09:57:59Z</time>
      </trkpt>
      <trkpt lat="46.01364" lon="6.30029">
        <ele>1090</ele>
        <time>2013-07-27T09:58:01Z</time>
      </trkpt>
      <trkpt lat="46.01354" lon="6.30025">
        <ele>1090</ele>
        <time>2013-07-27T09:58:02Z</time>
      </trkpt>
      <trkpt lat="46.01337" lon="6.30014">
        <ele>1090</ele>
        <time>2013-07-27T09:58:04Z</time>
      </trkpt>
      <trkpt lat="46.01321" lon="6.29985">
        <ele>1090</ele>
        <time>2013-07-27T09:58:08Z</time>
      </trkpt>
      <trkpt lat="46.01327" lon="6.29974">
        <ele>1090</ele>
        <time>2013-07-27T09:58:09Z</time>
      </trkpt>
      <trkpt lat="46.01327" lon="6.29951">
        <ele>1081</ele>
        <time>2013-07-27T09:58:11Z</time>
      </trkpt>
      <trkpt lat="46.01321" lon="6.29927">
        <ele>1081</ele>
        <time>2013-07-27T09:58:13Z</time>
      </trkpt>
      <trkpt lat="46.01316" lon="6.29915">
        <ele>1081</ele>
        <time>2013-07-27T09:58:14Z</time>
      </trkpt>
      <trkpt lat="46.01311" lon="6.29901">
        <ele>1081</ele>
        <time>2013-07-27T09:58:15Z</time>
      </trkpt>
      <trkpt lat="46.01306" lon="6.29888">
        <ele>1081</ele>
        <time>2013-07-27T09:58:16Z</time>
      </trkpt>
      <trkpt lat="46.013" lon="6.29874">
        <ele>1081</ele>
        <time>2013-07-27T09:58:17Z</time>
      </trkpt>
      <trkpt lat="46.01296" lon="6.29861">
        <ele>1081</ele>
        <time>2013-07-27T09:58:18Z</time>
      </trkpt>
      <trkpt lat="46.01289" lon="6.29837">
        <ele>1075</ele>
        <time>2013-07-27T09:58:20Z</time>
      </trkpt>
      <trkpt lat="46.01281" lon="6.29814">
        <ele>1075</ele>
        <time>2013-07-27T09:58:22Z</time>
      </trkpt>
      <trkpt lat="46.01273" lon="6.29792">
        <ele>1075</ele>
        <time>2013-07-27T09:58:24Z</time>
      </trkpt>
      <trkpt lat="46.01269" lon="6.2978">
        <ele>1069</ele>
        <time>2013-07-27T09:58:25Z</time>
      </trkpt>
      <trkpt lat="46.01259" lon="6.29759">
        <ele>1069</ele>
        <time>2013-07-27T09:58:27Z</time>
      </trkpt>
      <trkpt lat="46.01254" lon="6.29745">
        <ele>1064</ele>
        <time>2013-07-27T09:58:29Z</time>
      </trkpt>
      <trkpt lat="46.01251" lon="6.29732">
        <ele>1072</ele>
        <time>2013-07-27T10:04:34Z</time>
      </trkpt>
      <trkpt lat="46.01245" lon="6.29719">
        <ele>1072</ele>
        <time>2013-07-27T10:04:36Z</time>
      </trkpt>
      <trkpt lat="46.01235" lon="6.29706">
        <ele>1072</ele>
        <time>2013-07-27T10:04:38Z</time>
      </trkpt>
      <trkpt lat="46.01225" lon="6.29691">
        <ele>1066</ele>
        <time>2013-07-27T10:04:40Z</time>
      </trkpt>
      <trkpt lat="46.01215" lon="6.29679">
        <ele>1066</ele>
        <time>2013-07-27T10:04:42Z</time>
      </trkpt>
      <trkpt lat="46.01205" lon="6.29667">
        <ele>1061</ele>
        <time>2013-07-27T10:04:44Z</time>
      </trkpt>
      <trkpt lat="46.01195" lon="6.29655">
        <ele>1061</ele>
        <time>2013-07-27T10:04:46Z</time>
      </trkpt>
      <trkpt lat="46.01187" lon="6.29645">
        <ele>1055</ele>
        <time>2013-07-27T10:04:48Z</time>
      </trkpt>
      <trkpt lat="46.01178" lon="6.29636">
        <ele>1055</ele>
        <time>2013-07-27T10:04:50Z</time>
      </trkpt>
      <trkpt lat="46.01169" lon="6.29629">
        <ele>1055</ele>
        <time>2013-07-27T10:04:52Z</time>
      </trkpt>
      <trkpt lat="46.01158" lon="6.29625">
        <ele>1049</ele>
        <time>2013-07-27T10:04:54Z</time>
      </trkpt>
      <trkpt lat="46.0115" lon="6.29617">
        <ele>1049</ele>
        <time>2013-07-27T10:04:56Z</time>
      </trkpt>
      <trkpt lat="46.01145" lon="6.296">
        <ele>1049</ele>
        <time>2013-07-27T10:04:59Z</time>
      </trkpt>
      <trkpt lat="46.01146" lon="6.29585">
        <ele>1049</ele>
        <time>2013-07-27T10:05:01Z</time>
      </trkpt>
      <trkpt lat="46.01149" lon="6.29566">
        <ele>1049</ele>
        <time>2013-07-27T10:05:04Z</time>
      </trkpt>
      <trkpt lat="46.01152" lon="6.29552">
        <ele>1043</ele>
        <time>2013-07-27T10:05:06Z</time>
      </trkpt>
      <trkpt lat="46.01153" lon="6.29536">
        <ele>1043</ele>
        <time>2013-07-27T10:05:08Z</time>
      </trkpt>
      <trkpt lat="46.01152" lon="6.29519">
        <ele>1043</ele>
        <time>2013-07-27T10:05:10Z</time>
      </trkpt>
      <trkpt lat="46.01152" lon="6.29503">
        <ele>1043</ele>
        <time>2013-07-27T10:05:12Z</time>
      </trkpt>
      <trkpt lat="46.0115" lon="6.29488">
        <ele>1043</ele>
        <time>2013-07-27T10:05:14Z</time>
      </trkpt>
      <trkpt lat="46.01145" lon="6.29476">
        <ele>1043</ele>
        <time>2013-07-27T10:05:16Z</time>
      </trkpt>
      <trkpt lat="46.0114" lon="6.29459">
        <ele>1036</ele>
        <time>2013-07-27T10:05:19Z</time>
      </trkpt>
      <trkpt lat="46.01135" lon="6.29446">
        <ele>1030</ele>
        <time>2013-07-27T10:05:26Z</time>
      </trkpt>
      <trkpt lat="46.01128" lon="6.29435">
        <ele>1039</ele>
        <time>2013-07-27T10:05:40Z</time>
      </trkpt>
      <trkpt lat="46.01114" lon="6.29427">
        <ele>1039</ele>
        <time>2013-07-27T10:05:43Z</time>
      </trkpt>
      <trkpt lat="46.01099" lon="6.29416">
        <ele>1039</ele>
        <time>2013-07-27T10:05:45Z</time>
      </trkpt>
      <trkpt lat="46.01086" lon="6.29405">
        <ele>1039</ele>
        <time>2013-07-27T10:05:47Z</time>
      </trkpt>
      <trkpt lat="46.01071" lon="6.29393">
        <ele>1039</ele>
        <time>2013-07-27T10:05:49Z</time>
      </trkpt>
      <trkpt lat="46.01063" lon="6.29387">
        <ele>1039</ele>
        <time>2013-07-27T10:05:50Z</time>
      </trkpt>
      <trkpt lat="46.01054" lon="6.2938">
        <ele>1039</ele>
        <time>2013-07-27T10:05:51Z</time>
      </trkpt>
      <trkpt lat="46.01046" lon="6.29374">
        <ele>1039</ele>
        <time>2013-07-27T10:05:52Z</time>
      </trkpt>
      <trkpt lat="46.01031" lon="6.29362">
        <ele>1039</ele>
        <time>2013-07-27T10:05:54Z</time>
      </trkpt>
      <trkpt lat="46.01019" lon="6.29351">
        <ele>1039</ele>
        <time>2013-07-27T10:05:56Z</time>
      </trkpt>
      <trkpt lat="46.01007" lon="6.29341">
        <ele>1039</ele>
        <time>2013-07-27T10:05:58Z</time>
      </trkpt>
      <trkpt lat="46.00996" lon="6.29334">
        <ele>1039</ele>
        <time>2013-07-27T10:06:00Z</time>
      </trkpt>
      <trkpt lat="46.00981" lon="6.29326">
        <ele>1044</ele>
        <time>2013-07-27T10:06:02Z</time>
      </trkpt>
      <trkpt lat="46.00967" lon="6.2932">
        <ele>1044</ele>
        <time>2013-07-27T10:06:04Z</time>
      </trkpt>
      <trkpt lat="46.00954" lon="6.29318">
        <ele>1044</ele>
        <time>2013-07-27T10:06:06Z</time>
      </trkpt>
      <trkpt lat="46.00943" lon="6.29317">
        <ele>1050</ele>
        <time>2013-07-27T10:06:08Z</time>
      </trkpt>
      <trkpt lat="46.00934" lon="6.29317">
        <ele>1050</ele>
        <time>2013-07-27T10:06:10Z</time>
      </trkpt>
      <trkpt lat="46.00921" lon="6.2932">
        <ele>1050</ele>
        <time>2013-07-27T10:06:13Z</time>
      </trkpt>
      <trkpt lat="46.00908" lon="6.29321">
        <ele>1050</ele>
        <time>2013-07-27T10:06:16Z</time>
      </trkpt>
      <trkpt lat="46.00896" lon="6.29315">
        <ele>1050</ele>
        <time>2013-07-27T10:06:19Z</time>
      </trkpt>
      <trkpt lat="46.00884" lon="6.2931">
        <ele>1050</ele>
        <time>2013-07-27T10:06:21Z</time>
      </trkpt>
      <trkpt lat="46.00872" lon="6.29302">
        <ele>1050</ele>
        <time>2013-07-27T10:06:23Z</time>
      </trkpt>
      <trkpt lat="46.0086" lon="6.29287">
        <ele>1050</ele>
        <time>2013-07-27T10:06:25Z</time>
      </trkpt>
      <trkpt lat="46.00851" lon="6.2927">
        <ele>1044</ele>
        <time>2013-07-27T10:06:27Z</time>
      </trkpt>
      <trkpt lat="46.00845" lon="6.29255">
        <ele>1044</ele>
        <time>2013-07-27T10:06:29Z</time>
      </trkpt>
      <trkpt lat="46.00838" lon="6.29238">
        <ele>1044</ele>
        <time>2013-07-27T10:06:32Z</time>
      </trkpt>
      <trkpt lat="46.00828" lon="6.2923">
        <ele>1044</ele>
        <time>2013-07-27T10:06:34Z</time>
      </trkpt>
      <trkpt lat="46.00813" lon="6.29229">
        <ele>1044</ele>
        <time>2013-07-27T10:06:36Z</time>
      </trkpt>
      <trkpt lat="46.00801" lon="6.29231">
        <ele>1038</ele>
        <time>2013-07-27T10:06:38Z</time>
      </trkpt>
      <trkpt lat="46.00792" lon="6.29222">
        <ele>1038</ele>
        <time>2013-07-27T10:06:42Z</time>
      </trkpt>
      <trkpt lat="46.00798" lon="6.29206">
        <ele>1038</ele>
        <time>2013-07-27T10:06:45Z</time>
      </trkpt>
      <trkpt lat="46.00805" lon="6.2919">
        <ele>1032</ele>
        <time>2013-07-27T10:06:48Z</time>
      </trkpt>
      <trkpt lat="46.00806" lon="6.29176">
        <ele>1032</ele>
        <time>2013-07-27T10:06:50Z</time>
      </trkpt>
      <trkpt lat="46.00803" lon="6.29158">
        <ele>1025</ele>
        <time>2013-07-27T10:06:53Z</time>
      </trkpt>
      <trkpt lat="46.00801" lon="6.29137">
        <ele>1018</ele>
        <time>2013-07-27T10:06:57Z</time>
      </trkpt>
      <trkpt lat="46.00798" lon="6.29123">
        <ele>1009</ele>
        <time>2013-07-27T10:06:59Z</time>
      </trkpt>
      <trkpt lat="46.00798" lon="6.2911">
        <ele>1009</ele>
        <time>2013-07-27T10:07:01Z</time>
      </trkpt>
      <trkpt lat="46.00802" lon="6.29091">
        <ele>1009</ele>
        <time>2013-07-27T10:07:04Z</time>
      </trkpt>
      <trkpt lat="46.00809" lon="6.29077">
        <ele>1009</ele>
        <time>2013-07-27T10:07:06Z</time>
      </trkpt>
      <trkpt lat="46.00815" lon="6.29062">
        <ele>1009</ele>
        <time>2013-07-27T10:07:08Z</time>
      </trkpt>
      <trkpt lat="46.00822" lon="6.29053">
        <ele>1009</ele>
        <time>2013-07-27T10:07:09Z</time>
      </trkpt>
      <trkpt lat="46.00834" lon="6.29039">
        <ele>1015</ele>
        <time>2013-07-27T10:07:11Z</time>
      </trkpt>
      <trkpt lat="46.00846" lon="6.29026">
        <ele>1015</ele>
        <time>2013-07-27T10:07:13Z</time>
      </trkpt>
      <trkpt lat="46.00853" lon="6.29008">
        <ele>1015</ele>
        <time>2013-07-27T10:07:15Z</time>
      </trkpt>
      <trkpt lat="46.00857" lon="6.28995">
        <ele>1015</ele>
        <time>2013-07-27T10:07:17Z</time>
      </trkpt>
      <trkpt lat="46.00855" lon="6.28975">
        <ele>1004</ele>
        <time>2013-07-27T10:07:20Z</time>
      </trkpt>
      <trkpt lat="46.00846" lon="6.28956">
        <ele>1004</ele>
        <time>2013-07-27T10:07:22Z</time>
      </trkpt>
      <trkpt lat="46.00839" lon="6.28947">
        <ele>998</ele>
        <time>2013-07-27T10:07:23Z</time>
      </trkpt>
      <trkpt lat="46.00827" lon="6.28933">
        <ele>998</ele>
        <time>2013-07-27T10:07:25Z</time>
      </trkpt>
      <trkpt lat="46.00816" lon="6.2892">
        <ele>998</ele>
        <time>2013-07-27T10:07:27Z</time>
      </trkpt>
      <trkpt lat="46.00805" lon="6.28908">
        <ele>998</ele>
        <time>2013-07-27T10:07:29Z</time>
      </trkpt>
      <trkpt lat="46.00793" lon="6.28899">
        <ele>992</ele>
        <time>2013-07-27T10:07:31Z</time>
      </trkpt>
      <trkpt lat="46.00782" lon="6.2889">
        <ele>992</ele>
        <time>2013-07-27T10:07:33Z</time>
      </trkpt>
      <trkpt lat="46.00773" lon="6.28879">
        <ele>992</ele>
        <time>2013-07-27T10:07:36Z</time>
      </trkpt>
      <trkpt lat="46.00764" lon="6.28876">
        <ele>992</ele>
        <time>2013-07-27T10:07:39Z</time>
      </trkpt>
      <trkpt lat="46.00753" lon="6.28884">
        <ele>992</ele>
        <time>2013-07-27T10:07:42Z</time>
      </trkpt>
      <trkpt lat="46.00743" lon="6.28894">
        <ele>992</ele>
        <time>2013-07-27T10:07:44Z</time>
      </trkpt>
      <trkpt lat="46.00734" lon="6.28902">
        <ele>999</ele>
        <time>2013-07-27T10:07:46Z</time>
      </trkpt>
      <trkpt lat="46.00724" lon="6.28903">
        <ele>1007</ele>
        <time>2013-07-27T10:07:49Z</time>
      </trkpt>
      <trkpt lat="46.00713" lon="6.28891">
        <ele>1016</ele>
        <time>2013-07-27T10:07:53Z</time>
      </trkpt>
      <trkpt lat="46.00703" lon="6.28885">
        <ele>1016</ele>
        <time>2013-07-27T10:07:55Z</time>
      </trkpt>
      <trkpt lat="46.00692" lon="6.28873">
        <ele>1023</ele>
        <time>2013-07-27T10:07:57Z</time>
      </trkpt>
      <trkpt lat="46.0068" lon="6.28856">
        <ele>1023</ele>
        <time>2013-07-27T10:07:59Z</time>
      </trkpt>
      <trkpt lat="46.00672" lon="6.28849">
        <ele>1023</ele>
        <time>2013-07-27T10:08:04Z</time>
      </trkpt>
      <trkpt lat="46.00665" lon="6.28836">
        <ele>1023</ele>
        <time>2013-07-27T10:08:07Z</time>
      </trkpt>
      <trkpt lat="46.00658" lon="6.28823">
        <ele>1023</ele>
        <time>2013-07-27T10:08:09Z</time>
      </trkpt>
      <trkpt lat="46.0065" lon="6.28807">
        <ele>1023</ele>
        <time>2013-07-27T10:08:11Z</time>
      </trkpt>
      <trkpt lat="46.00641" lon="6.28791">
        <ele>1023</ele>
        <time>2013-07-27T10:08:13Z</time>
      </trkpt>
      <trkpt lat="46.00632" lon="6.28775">
        <ele>1023</ele>
        <time>2013-07-27T10:08:15Z</time>
      </trkpt>
      <trkpt lat="46.00618" lon="6.28759">
        <ele>1023</ele>
        <time>2013-07-27T10:08:17Z</time>
      </trkpt>
      <trkpt lat="46.0061" lon="6.28751">
        <ele>1028</ele>
        <time>2013-07-27T10:08:18Z</time>
      </trkpt>
      <trkpt lat="46.00603" lon="6.28743">
        <ele>1028</ele>
        <time>2013-07-27T10:08:19Z</time>
      </trkpt>
      <trkpt lat="46.00591" lon="6.28726">
        <ele>1028</ele>
        <time>2013-07-27T10:08:21Z</time>
      </trkpt>
      <trkpt lat="46.00578" lon="6.28711">
        <ele>1033</ele>
        <time>2013-07-27T10:08:23Z</time>
      </trkpt>
      <trkpt lat="46.00564" lon="6.28701">
        <ele>1033</ele>
        <time>2013-07-27T10:08:25Z</time>
      </trkpt>
      <trkpt lat="46.00556" lon="6.28695">
        <ele>1033</ele>
        <time>2013-07-27T10:08:26Z</time>
      </trkpt>
      <trkpt lat="46.00547" lon="6.28688">
        <ele>1039</ele>
        <time>2013-07-27T10:08:27Z</time>
      </trkpt>
      <trkpt lat="46.00537" lon="6.28682">
        <ele>1039</ele>
        <time>2013-07-27T10:08:28Z</time>
      </trkpt>
      <trkpt lat="46.00528" lon="6.28674">
        <ele>1039</ele>
        <time>2013-07-27T10:08:29Z</time>
      </trkpt>
      <trkpt lat="46.00519" lon="6.28666">
        <ele>1044</ele>
        <time>2013-07-27T10:08:30Z</time>
      </trkpt>
      <trkpt lat="46.00508" lon="6.28655">
        <ele>1044</ele>
        <time>2013-07-27T10:08:31Z</time>
      </trkpt>
      <trkpt lat="46.00498" lon="6.28646">
        <ele>1044</ele>
        <time>2013-07-27T10:08:32Z</time>
      </trkpt>
      <trkpt lat="46.00489" lon="6.28637">
        <ele>1050</ele>
        <time>2013-07-27T10:08:33Z</time>
      </trkpt>
      <trkpt lat="46.00475" lon="6.28627">
        <ele>1050</ele>
        <time>2013-07-27T10:08:35Z</time>
      </trkpt>
      <trkpt lat="46.00462" lon="6.28635">
        <ele>1061</ele>
        <time>2013-07-27T10:08:38Z</time>
      </trkpt>
      <trkpt lat="46.00449" lon="6.28637">
        <ele>1061</ele>
        <time>2013-07-27T10:08:40Z</time>
      </trkpt>
      <trkpt lat="46.00433" lon="6.28624">
        <ele>1068</ele>
        <time>2013-07-27T10:08:42Z</time>
      </trkpt>
      <trkpt lat="46.0042" lon="6.2861">
        <ele>1068</ele>
        <time>2013-07-27T10:08:44Z</time>
      </trkpt>
      <trkpt lat="46.00407" lon="6.28599">
        <ele>1079</ele>
        <time>2013-07-27T10:08:46Z</time>
      </trkpt>
      <trkpt lat="46.00392" lon="6.28587">
        <ele>1079</ele>
        <time>2013-07-27T10:08:48Z</time>
      </trkpt>
      <trkpt lat="46.00376" lon="6.28583">
        <ele>1089</ele>
        <time>2013-07-27T10:08:50Z</time>
      </trkpt>
      <trkpt lat="46.00363" lon="6.28585">
        <ele>1095</ele>
        <time>2013-07-27T10:08:52Z</time>
      </trkpt>
      <trkpt lat="46.00352" lon="6.28588">
        <ele>1101</ele>
        <time>2013-07-27T10:08:54Z</time>
      </trkpt>
      <trkpt lat="46.00342" lon="6.28592">
        <ele>1112</ele>
        <time>2013-07-27T10:08:56Z</time>
      </trkpt>
      <trkpt lat="46.00328" lon="6.28595">
        <ele>1112</ele>
        <time>2013-07-27T10:08:58Z</time>
      </trkpt>
      <trkpt lat="46.00311" lon="6.28602">
        <ele>1112</ele>
        <time>2013-07-27T10:09:00Z</time>
      </trkpt>
      <trkpt lat="46.00302" lon="6.28604">
        <ele>1112</ele>
        <time>2013-07-27T10:09:01Z</time>
      </trkpt>
      <trkpt lat="46.00292" lon="6.28605">
        <ele>1121</ele>
        <time>2013-07-27T10:09:03Z</time>
      </trkpt>
      <trkpt lat="46.0028" lon="6.28605">
        <ele>1121</ele>
        <time>2013-07-27T10:09:07Z</time>
      </trkpt>
      <trkpt lat="46.00271" lon="6.28601">
        <ele>1129</ele>
        <time>2013-07-27T10:09:21Z</time>
      </trkpt>
      <trkpt lat="46.00261" lon="6.28606">
        <ele>1123</ele>
        <time>2013-07-27T10:09:32Z</time>
      </trkpt>
      <trkpt lat="46.00252" lon="6.28606">
        <ele>1123</ele>
        <time>2013-07-27T10:09:34Z</time>
      </trkpt>
      <trkpt lat="46.00242" lon="6.28602">
        <ele>1117</ele>
        <time>2013-07-27T10:09:36Z</time>
      </trkpt>
      <trkpt lat="46.00229" lon="6.28593">
        <ele>1110</ele>
        <time>2013-07-27T10:09:38Z</time>
      </trkpt>
      <trkpt lat="46.00218" lon="6.28582">
        <ele>1110</ele>
        <time>2013-07-27T10:09:40Z</time>
      </trkpt>
      <trkpt lat="46.00205" lon="6.28567">
        <ele>1100</ele>
        <time>2013-07-27T10:09:42Z</time>
      </trkpt>
      <trkpt lat="46.00198" lon="6.28558">
        <ele>1100</ele>
        <time>2013-07-27T10:09:43Z</time>
      </trkpt>
      <trkpt lat="46.00191" lon="6.28549">
        <ele>1100</ele>
        <time>2013-07-27T10:09:44Z</time>
      </trkpt>
      <trkpt lat="46.00184" lon="6.28538">
        <ele>1100</ele>
        <time>2013-07-27T10:09:45Z</time>
      </trkpt>
      <trkpt lat="46.00178" lon="6.28528">
        <ele>1093</ele>
        <time>2013-07-27T10:09:46Z</time>
      </trkpt>
      <trkpt lat="46.00167" lon="6.2851">
        <ele>1093</ele>
        <time>2013-07-27T10:09:48Z</time>
      </trkpt>
      <trkpt lat="46.00157" lon="6.28489">
        <ele>1085</ele>
        <time>2013-07-27T10:09:50Z</time>
      </trkpt>
      <trkpt lat="46.0015" lon="6.28468">
        <ele>1085</ele>
        <time>2013-07-27T10:09:52Z</time>
      </trkpt>
      <trkpt lat="46.00144" lon="6.28448">
        <ele>1085</ele>
        <time>2013-07-27T10:09:54Z</time>
      </trkpt>
      <trkpt lat="46.00137" lon="6.28429">
        <ele>1085</ele>
        <time>2013-07-27T10:09:56Z</time>
      </trkpt>
      <trkpt lat="46.00127" lon="6.28417">
        <ele>1085</ele>
        <time>2013-07-27T10:09:58Z</time>
      </trkpt>
      <trkpt lat="46.00115" lon="6.28413">
        <ele>1091</ele>
        <time>2013-07-27T10:10:00Z</time>
      </trkpt>
      <trkpt lat="46.00104" lon="6.28415">
        <ele>1091</ele>
        <time>2013-07-27T10:10:02Z</time>
      </trkpt>
      <trkpt lat="46.00094" lon="6.2842">
        <ele>1091</ele>
        <time>2013-07-27T10:10:04Z</time>
      </trkpt>
      <trkpt lat="46.00084" lon="6.28417">
        <ele>1091</ele>
        <time>2013-07-27T10:10:08Z</time>
      </trkpt>
      <trkpt lat="46.00075" lon="6.28408">
        <ele>1091</ele>
        <time>2013-07-27T10:10:11Z</time>
      </trkpt>
      <trkpt lat="46.00067" lon="6.28399">
        <ele>1084</ele>
        <time>2013-07-27T10:10:13Z</time>
      </trkpt>
      <trkpt lat="46.0006" lon="6.28389">
        <ele>1078</ele>
        <time>2013-07-27T10:10:15Z</time>
      </trkpt>
      <trkpt lat="46.00055" lon="6.28377">
        <ele>1078</ele>
        <time>2013-07-27T10:10:17Z</time>
      </trkpt>
      <trkpt lat="46.0005" lon="6.28364">
        <ele>1073</ele>
        <time>2013-07-27T10:10:19Z</time>
      </trkpt>
      <trkpt lat="46.00047" lon="6.28351">
        <ele>1073</ele>
        <time>2013-07-27T10:10:21Z</time>
      </trkpt>
      <trkpt lat="46.00042" lon="6.28332">
        <ele>1066</ele>
        <time>2013-07-27T10:10:24Z</time>
      </trkpt>
      <trkpt lat="46.00034" lon="6.28317">
        <ele>1066</ele>
        <time>2013-07-27T10:10:26Z</time>
      </trkpt>
      <trkpt lat="46.00028" lon="6.28305">
        <ele>1066</ele>
        <time>2013-07-27T10:10:28Z</time>
      </trkpt>
      <trkpt lat="46.00025" lon="6.28288">
        <ele>1057</ele>
        <time>2013-07-27T10:10:31Z</time>
      </trkpt>
      <trkpt lat="46.00021" lon="6.28275">
        <ele>1049</ele>
        <time>2013-07-27T10:10:33Z</time>
      </trkpt>
      <trkpt lat="46.00018" lon="6.28259">
        <ele>1049</ele>
        <time>2013-07-27T10:10:35Z</time>
      </trkpt>
      <trkpt lat="46.00016" lon="6.28243">
        <ele>1044</ele>
        <time>2013-07-27T10:10:37Z</time>
      </trkpt>
      <trkpt lat="46.00015" lon="6.28223">
        <ele>1044</ele>
        <time>2013-07-27T10:10:39Z</time>
      </trkpt>
      <trkpt lat="46.00013" lon="6.28199">
        <ele>1053</ele>
        <time>2013-07-27T10:10:41Z</time>
      </trkpt>
      <trkpt lat="46.00011" lon="6.28186">
        <ele>1053</ele>
        <time>2013-07-27T10:10:43Z</time>
      </trkpt>
      <trkpt lat="46.00007" lon="6.28173">
        <ele>1053</ele>
        <time>2013-07-27T10:10:45Z</time>
      </trkpt>
      <trkpt lat="46.00004" lon="6.28159">
        <ele>1053</ele>
        <time>2013-07-27T10:10:48Z</time>
      </trkpt>
      <trkpt lat="46.00005" lon="6.28144">
        <ele>1047</ele>
        <time>2013-07-27T10:10:51Z</time>
      </trkpt>
      <trkpt lat="46.00008" lon="6.2813">
        <ele>1047</ele>
        <time>2013-07-27T10:10:54Z</time>
      </trkpt>
      <trkpt lat="46.00015" lon="6.28117">
        <ele>1041</ele>
        <time>2013-07-27T10:11:01Z</time>
      </trkpt>
      <trkpt lat="46.00021" lon="6.28104">
        <ele>1041</ele>
        <time>2013-07-27T10:11:04Z</time>
      </trkpt>
      <trkpt lat="46.00022" lon="6.28087">
        <ele>1041</ele>
        <time>2013-07-27T10:11:06Z</time>
      </trkpt>
      <trkpt lat="46.00022" lon="6.28069">
        <ele>1036</ele>
        <time>2013-07-27T10:11:09Z</time>
      </trkpt>
      <trkpt lat="46.00017" lon="6.28054">
        <ele>1036</ele>
        <time>2013-07-27T10:11:12Z</time>
      </trkpt>
      <trkpt lat="46.00005" lon="6.28046">
        <ele>1028</ele>
        <time>2013-07-27T10:11:15Z</time>
      </trkpt>
      <trkpt lat="45.99995" lon="6.28041">
        <ele>1028</ele>
        <time>2013-07-27T10:11:17Z</time>
      </trkpt>
      <trkpt lat="45.99985" lon="6.28036">
        <ele>1021</ele>
        <time>2013-07-27T10:11:19Z</time>
      </trkpt>
      <trkpt lat="45.99975" lon="6.2803">
        <ele>1021</ele>
        <time>2013-07-27T10:11:21Z</time>
      </trkpt>
      <trkpt lat="45.99966" lon="6.28021">
        <ele>1015</ele>
        <time>2013-07-27T10:11:23Z</time>
      </trkpt>
      <trkpt lat="45.99958" lon="6.2801">
        <ele>1015</ele>
        <time>2013-07-27T10:11:26Z</time>
      </trkpt>
      <trkpt lat="45.99954" lon="6.27997">
        <ele>1015</ele>
        <time>2013-07-27T10:11:29Z</time>
      </trkpt>
      <trkpt lat="45.99947" lon="6.27984">
        <ele>1015</ele>
        <time>2013-07-27T10:11:32Z</time>
      </trkpt>
      <trkpt lat="45.99941" lon="6.27971">
        <ele>1007</ele>
        <time>2013-07-27T10:11:35Z</time>
      </trkpt>
      <trkpt lat="45.99936" lon="6.27955">
        <ele>998</ele>
        <time>2013-07-27T10:11:39Z</time>
      </trkpt>
      <trkpt lat="45.99931" lon="6.2794">
        <ele>985</ele>
        <time>2013-07-27T10:11:42Z</time>
      </trkpt>
      <trkpt lat="45.99932" lon="6.27925">
        <ele>979</ele>
        <time>2013-07-27T10:11:44Z</time>
      </trkpt>
      <trkpt lat="45.99935" lon="6.2791">
        <ele>979</ele>
        <time>2013-07-27T10:11:46Z</time>
      </trkpt>
      <trkpt lat="45.99935" lon="6.27894">
        <ele>971</ele>
        <time>2013-07-27T10:11:48Z</time>
      </trkpt>
      <trkpt lat="45.99931" lon="6.2787">
        <ele>971</ele>
        <time>2013-07-27T10:11:50Z</time>
      </trkpt>
      <trkpt lat="45.99928" lon="6.27849">
        <ele>964</ele>
        <time>2013-07-27T10:11:52Z</time>
      </trkpt>
      <trkpt lat="45.99923" lon="6.27832">
        <ele>964</ele>
        <time>2013-07-27T10:11:54Z</time>
      </trkpt>
      <trkpt lat="45.99917" lon="6.27819">
        <ele>964</ele>
        <time>2013-07-27T10:11:56Z</time>
      </trkpt>
      <trkpt lat="45.99913" lon="6.27805">
        <ele>964</ele>
        <time>2013-07-27T10:11:58Z</time>
      </trkpt>
      <trkpt lat="45.9991" lon="6.27789">
        <ele>958</ele>
        <time>2013-07-27T10:12:00Z</time>
      </trkpt>
      <trkpt lat="45.99908" lon="6.27771">
        <ele>958</ele>
        <time>2013-07-27T10:12:02Z</time>
      </trkpt>
      <trkpt lat="45.999" lon="6.27755">
        <ele>958</ele>
        <time>2013-07-27T10:12:04Z</time>
      </trkpt>
      <trkpt lat="45.99889" lon="6.27744">
        <ele>958</ele>
        <time>2013-07-27T10:12:06Z</time>
      </trkpt>
      <trkpt lat="45.99878" lon="6.27735">
        <ele>950</ele>
        <time>2013-07-27T10:12:08Z</time>
      </trkpt>
      <trkpt lat="45.99868" lon="6.27727">
        <ele>950</ele>
        <time>2013-07-27T10:12:10Z</time>
      </trkpt>
      <trkpt lat="45.99862" lon="6.27713">
        <ele>944</ele>
        <time>2013-07-27T10:12:12Z</time>
      </trkpt>
      <trkpt lat="45.99855" lon="6.27697">
        <ele>944</ele>
        <time>2013-07-27T10:12:14Z</time>
      </trkpt>
      <trkpt lat="45.99854" lon="6.27678">
        <ele>944</ele>
        <time>2013-07-27T10:12:16Z</time>
      </trkpt>
      <trkpt lat="45.99856" lon="6.2766">
        <ele>951</ele>
        <time>2013-07-27T10:12:18Z</time>
      </trkpt>
      <trkpt lat="45.99859" lon="6.27646">
        <ele>951</ele>
        <time>2013-07-27T10:12:20Z</time>
      </trkpt>
      <trkpt lat="45.99863" lon="6.27623">
        <ele>960</ele>
        <time>2013-07-27T10:12:22Z</time>
      </trkpt>
      <trkpt lat="45.99864" lon="6.27608">
        <ele>960</ele>
        <time>2013-07-27T10:12:24Z</time>
      </trkpt>
      <trkpt lat="45.99864" lon="6.27592">
        <ele>960</ele>
        <time>2013-07-27T10:12:26Z</time>
      </trkpt>
      <trkpt lat="45.99861" lon="6.27578">
        <ele>960</ele>
        <time>2013-07-27T10:12:28Z</time>
      </trkpt>
      <trkpt lat="45.99859" lon="6.27564">
        <ele>960</ele>
        <time>2013-07-27T10:12:30Z</time>
      </trkpt>
      <trkpt lat="45.99854" lon="6.27553">
        <ele>954</ele>
        <time>2013-07-27T10:12:38Z</time>
      </trkpt>
      <trkpt lat="45.99841" lon="6.27547">
        <ele>939</ele>
        <time>2013-07-27T10:13:02Z</time>
      </trkpt>
      <trkpt lat="45.99831" lon="6.27541">
        <ele>939</ele>
        <time>2013-07-27T10:13:04Z</time>
      </trkpt>
      <trkpt lat="45.99823" lon="6.27531">
        <ele>939</ele>
        <time>2013-07-27T10:13:06Z</time>
      </trkpt>
      <trkpt lat="45.99813" lon="6.27517">
        <ele>945</ele>
        <time>2013-07-27T10:13:08Z</time>
      </trkpt>
      <trkpt lat="45.99802" lon="6.27504">
        <ele>945</ele>
        <time>2013-07-27T10:13:10Z</time>
      </trkpt>
      <trkpt lat="45.99792" lon="6.27489">
        <ele>952</ele>
        <time>2013-07-27T10:13:12Z</time>
      </trkpt>
      <trkpt lat="45.99781" lon="6.27478">
        <ele>952</ele>
        <time>2013-07-27T10:13:14Z</time>
      </trkpt>
      <trkpt lat="45.99771" lon="6.27464">
        <ele>959</ele>
        <time>2013-07-27T10:13:16Z</time>
      </trkpt>
      <trkpt lat="45.99768" lon="6.27445">
        <ele>959</ele>
        <time>2013-07-27T10:13:18Z</time>
      </trkpt>
      <trkpt lat="45.99766" lon="6.27423">
        <ele>971</ele>
        <time>2013-07-27T10:13:20Z</time>
      </trkpt>
      <trkpt lat="45.99762" lon="6.274">
        <ele>971</ele>
        <time>2013-07-27T10:13:22Z</time>
      </trkpt>
      <trkpt lat="45.99752" lon="6.27377">
        <ele>976</ele>
        <time>2013-07-27T10:13:24Z</time>
      </trkpt>
      <trkpt lat="45.99744" lon="6.27365">
        <ele>976</ele>
        <time>2013-07-27T10:13:25Z</time>
      </trkpt>
      <trkpt lat="45.99737" lon="6.27354">
        <ele>976</ele>
        <time>2013-07-27T10:13:26Z</time>
      </trkpt>
      <trkpt lat="45.9973" lon="6.27344">
        <ele>976</ele>
        <time>2013-07-27T10:13:27Z</time>
      </trkpt>
      <trkpt lat="45.99725" lon="6.27333">
        <ele>976</ele>
        <time>2013-07-27T10:13:28Z</time>
      </trkpt>
      <trkpt lat="45.9972" lon="6.27321">
        <ele>976</ele>
        <time>2013-07-27T10:13:29Z</time>
      </trkpt>
      <trkpt lat="45.99717" lon="6.27307">
        <ele>982</ele>
        <time>2013-07-27T10:13:30Z</time>
      </trkpt>
      <trkpt lat="45.99712" lon="6.27295">
        <ele>982</ele>
        <time>2013-07-27T10:13:31Z</time>
      </trkpt>
      <trkpt lat="45.99708" lon="6.27284">
        <ele>982</ele>
        <time>2013-07-27T10:13:32Z</time>
      </trkpt>
      <trkpt lat="45.99701" lon="6.27266">
        <ele>988</ele>
        <time>2013-07-27T10:13:34Z</time>
      </trkpt>
      <trkpt lat="45.99697" lon="6.27252">
        <ele>988</ele>
        <time>2013-07-27T10:13:36Z</time>
      </trkpt>
      <trkpt lat="45.99703" lon="6.27264">
        <ele>1004</ele>
        <time>2013-07-27T10:14:42Z</time>
      </trkpt>
      <trkpt lat="45.99695" lon="6.27258">
        <ele>993</ele>
        <time>2013-07-27T10:18:40Z</time>
      </trkpt>
      <trkpt lat="45.9969" lon="6.27269">
        <ele>1002</ele>
        <time>2013-07-27T10:20:26Z</time>
      </trkpt>
      <trkpt lat="45.99689" lon="6.27255">
        <ele>984</ele>
        <time>2013-07-27T10:21:14Z</time>
      </trkpt>
      <trkpt lat="45.99687" lon="6.27242">
        <ele>984</ele>
        <time>2013-07-27T10:21:28Z</time>
      </trkpt>
      <trkpt lat="45.99685" lon="6.27256">
        <ele>984</ele>
        <time>2013-07-27T10:22:21Z</time>
      </trkpt>
      <trkpt lat="45.99693" lon="6.27264">
        <ele>993</ele>
        <time>2013-07-27T10:24:34Z</time>
      </trkpt>
      <trkpt lat="45.99684" lon="6.27249">
        <ele>1000</ele>
        <time>2013-07-27T10:24:49Z</time>
      </trkpt>
      <trkpt lat="45.99675" lon="6.27241">
        <ele>1000</ele>
        <time>2013-07-27T10:24:51Z</time>
      </trkpt>
      <trkpt lat="45.99664" lon="6.27233">
        <ele>1000</ele>
        <time>2013-07-27T10:24:54Z</time>
      </trkpt>
      <trkpt lat="45.99657" lon="6.27223">
        <ele>993</ele>
        <time>2013-07-27T10:25:26Z</time>
      </trkpt>
      <trkpt lat="45.9965" lon="6.27206">
        <ele>993</ele>
        <time>2013-07-27T10:25:29Z</time>
      </trkpt>
      <trkpt lat="45.99645" lon="6.27195">
        <ele>993</ele>
        <time>2013-07-27T10:25:32Z</time>
      </trkpt>
      <trkpt lat="45.99652" lon="6.2721">
        <ele>982</ele>
        <time>2013-07-27T10:25:59Z</time>
      </trkpt>
      <trkpt lat="45.9966" lon="6.2722">
        <ele>982</ele>
        <time>2013-07-27T10:26:02Z</time>
      </trkpt>
      <trkpt lat="45.99667" lon="6.27229">
        <ele>982</ele>
        <time>2013-07-27T10:26:05Z</time>
      </trkpt>
      <trkpt lat="45.99679" lon="6.27236">
        <ele>982</ele>
        <time>2013-07-27T10:26:29Z</time>
      </trkpt>
      <trkpt lat="45.99687" lon="6.27244">
        <ele>982</ele>
        <time>2013-07-27T10:26:31Z</time>
      </trkpt>
      <trkpt lat="45.99697" lon="6.27252">
        <ele>982</ele>
        <time>2013-07-27T10:26:33Z</time>
      </trkpt>
      <trkpt lat="45.99705" lon="6.27261">
        <ele>982</ele>
        <time>2013-07-27T10:26:35Z</time>
      </trkpt>
      <trkpt lat="45.99715" lon="6.27271">
        <ele>982</ele>
        <time>2013-07-27T10:26:37Z</time>
      </trkpt>
      <trkpt lat="45.99727" lon="6.27281">
        <ele>982</ele>
        <time>2013-07-27T10:26:39Z</time>
      </trkpt>
      <trkpt lat="45.99736" lon="6.27293">
        <ele>982</ele>
        <time>2013-07-27T10:26:41Z</time>
      </trkpt>
      <trkpt lat="45.9975" lon="6.27281">
        <ele>982</ele>
        <time>2013-07-27T10:26:43Z</time>
      </trkpt>
      <trkpt lat="45.99757" lon="6.27273">
        <ele>982</ele>
        <time>2013-07-27T10:26:44Z</time>
      </trkpt>
      <trkpt lat="45.99772" lon="6.2726">
        <ele>982</ele>
        <time>2013-07-27T10:26:46Z</time>
      </trkpt>
      <trkpt lat="45.99782" lon="6.27247">
        <ele>982</ele>
        <time>2013-07-27T10:26:48Z</time>
      </trkpt>
      <trkpt lat="45.99784" lon="6.27225">
        <ele>975</ele>
        <time>2013-07-27T10:26:50Z</time>
      </trkpt>
      <trkpt lat="45.99782" lon="6.27202">
        <ele>975</ele>
        <time>2013-07-27T10:26:52Z</time>
      </trkpt>
      <trkpt lat="45.99774" lon="6.27179">
        <ele>969</ele>
        <time>2013-07-27T10:26:54Z</time>
      </trkpt>
      <trkpt lat="45.99768" lon="6.27155">
        <ele>969</ele>
        <time>2013-07-27T10:26:56Z</time>
      </trkpt>
      <trkpt lat="45.99766" lon="6.27131">
        <ele>964</ele>
        <time>2013-07-27T10:26:58Z</time>
      </trkpt>
      <trkpt lat="45.99764" lon="6.27111">
        <ele>964</ele>
        <time>2013-07-27T10:27:00Z</time>
      </trkpt>
      <trkpt lat="45.99758" lon="6.27096">
        <ele>957</ele>
        <time>2013-07-27T10:27:02Z</time>
      </trkpt>
      <trkpt lat="45.99747" lon="6.27083">
        <ele>957</ele>
        <time>2013-07-27T10:27:04Z</time>
      </trkpt>
      <trkpt lat="45.99736" lon="6.27064">
        <ele>951</ele>
        <time>2013-07-27T10:27:06Z</time>
      </trkpt>
      <trkpt lat="45.99729" lon="6.27054">
        <ele>951</ele>
        <time>2013-07-27T10:27:07Z</time>
      </trkpt>
      <trkpt lat="45.99723" lon="6.27043">
        <ele>951</ele>
        <time>2013-07-27T10:27:08Z</time>
      </trkpt>
      <trkpt lat="45.99719" lon="6.27031">
        <ele>951</ele>
        <time>2013-07-27T10:27:09Z</time>
      </trkpt>
      <trkpt lat="45.99714" lon="6.2702">
        <ele>951</ele>
        <time>2013-07-27T10:27:10Z</time>
      </trkpt>
      <trkpt lat="45.99706" lon="6.26998">
        <ele>944</ele>
        <time>2013-07-27T10:27:12Z</time>
      </trkpt>
      <trkpt lat="45.99699" lon="6.26976">
        <ele>944</ele>
        <time>2013-07-27T10:27:14Z</time>
      </trkpt>
      <trkpt lat="45.99696" lon="6.26953">
        <ele>944</ele>
        <time>2013-07-27T10:27:16Z</time>
      </trkpt>
      <trkpt lat="45.99694" lon="6.26935">
        <ele>936</ele>
        <time>2013-07-27T10:27:18Z</time>
      </trkpt>
      <trkpt lat="45.9969" lon="6.2692">
        <ele>936</ele>
        <time>2013-07-27T10:27:20Z</time>
      </trkpt>
      <trkpt lat="45.99682" lon="6.26906">
        <ele>936</ele>
        <time>2013-07-27T10:27:22Z</time>
      </trkpt>
      <trkpt lat="45.99671" lon="6.26895">
        <ele>931</ele>
        <time>2013-07-27T10:27:24Z</time>
      </trkpt>
      <trkpt lat="45.99654" lon="6.26886">
        <ele>931</ele>
        <time>2013-07-27T10:27:26Z</time>
      </trkpt>
      <trkpt lat="45.99638" lon="6.2688">
        <ele>925</ele>
        <time>2013-07-27T10:27:28Z</time>
      </trkpt>
      <trkpt lat="45.99622" lon="6.26876">
        <ele>925</ele>
        <time>2013-07-27T10:27:30Z</time>
      </trkpt>
      <trkpt lat="45.99605" lon="6.26876">
        <ele>925</ele>
        <time>2013-07-27T10:27:32Z</time>
      </trkpt>
      <trkpt lat="45.99592" lon="6.26878">
        <ele>925</ele>
        <time>2013-07-27T10:27:34Z</time>
      </trkpt>
      <trkpt lat="45.99584" lon="6.2687">
        <ele>925</ele>
        <time>2013-07-27T10:27:37Z</time>
      </trkpt>
      <trkpt lat="45.99586" lon="6.26855">
        <ele>925</ele>
        <time>2013-07-27T10:27:41Z</time>
      </trkpt>
      <trkpt lat="45.99595" lon="6.26853">
        <ele>931</ele>
        <time>2013-07-27T10:27:47Z</time>
      </trkpt>
      <trkpt lat="45.99607" lon="6.26851">
        <ele>937</ele>
        <time>2013-07-27T10:27:54Z</time>
      </trkpt>
      <trkpt lat="45.99618" lon="6.26844">
        <ele>937</ele>
        <time>2013-07-27T10:27:56Z</time>
      </trkpt>
      <trkpt lat="45.99632" lon="6.26835">
        <ele>931</ele>
        <time>2013-07-27T10:27:58Z</time>
      </trkpt>
      <trkpt lat="45.99648" lon="6.26822">
        <ele>931</ele>
        <time>2013-07-27T10:28:00Z</time>
      </trkpt>
      <trkpt lat="45.99657" lon="6.26817">
        <ele>931</ele>
        <time>2013-07-27T10:28:01Z</time>
      </trkpt>
      <trkpt lat="45.99667" lon="6.26813">
        <ele>931</ele>
        <time>2013-07-27T10:28:02Z</time>
      </trkpt>
      <trkpt lat="45.99677" lon="6.2681">
        <ele>931</ele>
        <time>2013-07-27T10:28:03Z</time>
      </trkpt>
      <trkpt lat="45.99687" lon="6.2681">
        <ele>931</ele>
        <time>2013-07-27T10:28:04Z</time>
      </trkpt>
      <trkpt lat="45.99696" lon="6.2681">
        <ele>931</ele>
        <time>2013-07-27T10:28:05Z</time>
      </trkpt>
      <trkpt lat="45.99705" lon="6.2681">
        <ele>925</ele>
        <time>2013-07-27T10:28:06Z</time>
      </trkpt>
      <trkpt lat="45.99715" lon="6.26812">
        <ele>925</ele>
        <time>2013-07-27T10:28:07Z</time>
      </trkpt>
      <trkpt lat="45.99725" lon="6.26812">
        <ele>925</ele>
        <time>2013-07-27T10:28:08Z</time>
      </trkpt>
      <trkpt lat="45.99735" lon="6.26814">
        <ele>919</ele>
        <time>2013-07-27T10:28:09Z</time>
      </trkpt>
      <trkpt lat="45.99745" lon="6.26817">
        <ele>919</ele>
        <time>2013-07-27T10:28:10Z</time>
      </trkpt>
      <trkpt lat="45.99755" lon="6.2682">
        <ele>919</ele>
        <time>2013-07-27T10:28:11Z</time>
      </trkpt>
      <trkpt lat="45.99764" lon="6.26821">
        <ele>912</ele>
        <time>2013-07-27T10:28:12Z</time>
      </trkpt>
      <trkpt lat="45.99779" lon="6.26823">
        <ele>912</ele>
        <time>2013-07-27T10:28:14Z</time>
      </trkpt>
      <trkpt lat="45.99788" lon="6.26834">
        <ele>902</ele>
        <time>2013-07-27T10:28:16Z</time>
      </trkpt>
      <trkpt lat="45.99796" lon="6.26848">
        <ele>902</ele>
        <time>2013-07-27T10:28:18Z</time>
      </trkpt>
      <trkpt lat="45.99791" lon="6.26828">
        <ele>886</ele>
        <time>2013-07-27T10:28:24Z</time>
      </trkpt>
      <trkpt lat="45.99783" lon="6.26807">
        <ele>886</ele>
        <time>2013-07-27T10:28:26Z</time>
      </trkpt>
      <trkpt lat="45.99774" lon="6.26792">
        <ele>886</ele>
        <time>2013-07-27T10:28:28Z</time>
      </trkpt>
      <trkpt lat="45.99759" lon="6.26781">
        <ele>886</ele>
        <time>2013-07-27T10:28:30Z</time>
      </trkpt>
      <trkpt lat="45.99752" lon="6.26772">
        <ele>886</ele>
        <time>2013-07-27T10:28:31Z</time>
      </trkpt>
      <trkpt lat="45.99745" lon="6.26764">
        <ele>886</ele>
        <time>2013-07-27T10:28:32Z</time>
      </trkpt>
      <trkpt lat="45.99737" lon="6.26756">
        <ele>880</ele>
        <time>2013-07-27T10:28:33Z</time>
      </trkpt>
      <trkpt lat="45.9973" lon="6.26746">
        <ele>880</ele>
        <time>2013-07-27T10:28:34Z</time>
      </trkpt>
      <trkpt lat="45.99722" lon="6.26735">
        <ele>880</ele>
        <time>2013-07-27T10:28:35Z</time>
      </trkpt>
      <trkpt lat="45.99714" lon="6.26725">
        <ele>875</ele>
        <time>2013-07-27T10:28:36Z</time>
      </trkpt>
      <trkpt lat="45.99705" lon="6.26716">
        <ele>875</ele>
        <time>2013-07-27T10:28:37Z</time>
      </trkpt>
      <trkpt lat="45.99696" lon="6.26707">
        <ele>875</ele>
        <time>2013-07-27T10:28:38Z</time>
      </trkpt>
      <trkpt lat="45.99687" lon="6.26698">
        <ele>869</ele>
        <time>2013-07-27T10:28:39Z</time>
      </trkpt>
      <trkpt lat="45.99677" lon="6.26685">
        <ele>869</ele>
        <time>2013-07-27T10:28:40Z</time>
      </trkpt>
      <trkpt lat="45.99669" lon="6.26673">
        <ele>869</ele>
        <time>2013-07-27T10:28:41Z</time>
      </trkpt>
      <trkpt lat="45.9966" lon="6.26662">
        <ele>869</ele>
        <time>2013-07-27T10:28:42Z</time>
      </trkpt>
      <trkpt lat="45.99653" lon="6.2665">
        <ele>869</ele>
        <time>2013-07-27T10:28:43Z</time>
      </trkpt>
      <trkpt lat="45.99645" lon="6.26641">
        <ele>869</ele>
        <time>2013-07-27T10:28:44Z</time>
      </trkpt>
      <trkpt lat="45.99638" lon="6.26632">
        <ele>869</ele>
        <time>2013-07-27T10:28:45Z</time>
      </trkpt>
      <trkpt lat="45.99623" lon="6.26624">
        <ele>869</ele>
        <time>2013-07-27T10:28:47Z</time>
      </trkpt>
      <trkpt lat="45.99609" lon="6.26624">
        <ele>869</ele>
        <time>2013-07-27T10:28:49Z</time>
      </trkpt>
      <trkpt lat="45.99599" lon="6.26621">
        <ele>869</ele>
        <time>2013-07-27T10:28:51Z</time>
      </trkpt>
      <trkpt lat="45.9959" lon="6.26621">
        <ele>869</ele>
        <time>2013-07-27T10:28:53Z</time>
      </trkpt>
      <trkpt lat="45.99578" lon="6.26627">
        <ele>869</ele>
        <time>2013-07-27T10:28:55Z</time>
      </trkpt>
      <trkpt lat="45.99567" lon="6.26634">
        <ele>869</ele>
        <time>2013-07-27T10:28:57Z</time>
      </trkpt>
      <trkpt lat="45.99558" lon="6.26641">
        <ele>863</ele>
        <time>2013-07-27T10:28:59Z</time>
      </trkpt>
      <trkpt lat="45.99547" lon="6.26644">
        <ele>863</ele>
        <time>2013-07-27T10:29:01Z</time>
      </trkpt>
      <trkpt lat="45.99531" lon="6.2665">
        <ele>863</ele>
        <time>2013-07-27T10:29:03Z</time>
      </trkpt>
      <trkpt lat="45.99516" lon="6.26656">
        <ele>863</ele>
        <time>2013-07-27T10:29:05Z</time>
      </trkpt>
      <trkpt lat="45.99504" lon="6.26661">
        <ele>863</ele>
        <time>2013-07-27T10:29:07Z</time>
      </trkpt>
      <trkpt lat="45.99493" lon="6.26667">
        <ele>863</ele>
        <time>2013-07-27T10:29:09Z</time>
      </trkpt>
      <trkpt lat="45.99482" lon="6.2668">
        <ele>863</ele>
        <time>2013-07-27T10:29:11Z</time>
      </trkpt>
      <trkpt lat="45.9947" lon="6.26694">
        <ele>863</ele>
        <time>2013-07-27T10:29:13Z</time>
      </trkpt>
      <trkpt lat="45.99461" lon="6.26713">
        <ele>863</ele>
        <time>2013-07-27T10:29:15Z</time>
      </trkpt>
      <trkpt lat="45.99457" lon="6.26735">
        <ele>849</ele>
        <time>2013-07-27T10:29:16Z</time>
      </trkpt>
      <trkpt lat="45.99453" lon="6.26749">
        <ele>849</ele>
        <time>2013-07-27T10:29:17Z</time>
      </trkpt>
      <trkpt lat="45.99444" lon="6.26767">
        <ele>842</ele>
        <time>2013-07-27T10:29:19Z</time>
      </trkpt>
      <trkpt lat="45.99436" lon="6.26775">
        <ele>842</ele>
        <time>2013-07-27T10:29:21Z</time>
      </trkpt>
      <trkpt lat="45.99426" lon="6.26772">
        <ele>842</ele>
        <time>2013-07-27T10:29:24Z</time>
      </trkpt>
      <trkpt lat="45.99418" lon="6.26764">
        <ele>842</ele>
        <time>2013-07-27T10:29:29Z</time>
      </trkpt>
      <trkpt lat="45.99409" lon="6.26768">
        <ele>835</ele>
        <time>2013-07-27T10:29:46Z</time>
      </trkpt>
      <trkpt lat="45.99407" lon="6.26755">
        <ele>870</ele>
        <time>2013-07-27T10:30:03Z</time>
      </trkpt>
      <trkpt lat="45.99401" lon="6.26745">
        <ele>897</ele>
        <time>2013-07-27T10:30:14Z</time>
      </trkpt>
      <trkpt lat="45.99401" lon="6.26759">
        <ele>874</ele>
        <time>2013-07-27T10:30:39Z</time>
      </trkpt>
      <trkpt lat="45.99408" lon="6.2675">
        <ele>845</ele>
        <time>2013-07-27T10:31:15Z</time>
      </trkpt>
      <trkpt lat="45.99402" lon="6.26738">
        <ele>845</ele>
        <time>2013-07-27T10:31:32Z</time>
      </trkpt>
      <trkpt lat="45.99394" lon="6.26728">
        <ele>845</ele>
        <time>2013-07-27T10:31:35Z</time>
      </trkpt>
      <trkpt lat="45.99383" lon="6.26722">
        <ele>836</ele>
        <time>2013-07-27T10:31:38Z</time>
      </trkpt>
      <trkpt lat="45.99373" lon="6.26709">
        <ele>829</ele>
        <time>2013-07-27T10:31:41Z</time>
      </trkpt>
      <trkpt lat="45.99364" lon="6.26697">
        <ele>824</ele>
        <time>2013-07-27T10:31:43Z</time>
      </trkpt>
      <trkpt lat="45.99355" lon="6.26684">
        <ele>824</ele>
        <time>2013-07-27T10:31:45Z</time>
      </trkpt>
      <trkpt lat="45.99349" lon="6.26667">
        <ele>813</ele>
        <time>2013-07-27T10:31:47Z</time>
      </trkpt>
      <trkpt lat="45.99342" lon="6.26654">
        <ele>807</ele>
        <time>2013-07-27T10:31:49Z</time>
      </trkpt>
      <trkpt lat="45.99332" lon="6.2664">
        <ele>807</ele>
        <time>2013-07-27T10:31:51Z</time>
      </trkpt>
      <trkpt lat="45.99322" lon="6.26624">
        <ele>799</ele>
        <time>2013-07-27T10:31:53Z</time>
      </trkpt>
      <trkpt lat="45.99317" lon="6.26606">
        <ele>799</ele>
        <time>2013-07-27T10:31:55Z</time>
      </trkpt>
      <trkpt lat="45.99312" lon="6.2659">
        <ele>793</ele>
        <time>2013-07-27T10:31:57Z</time>
      </trkpt>
      <trkpt lat="45.99304" lon="6.2658">
        <ele>793</ele>
        <time>2013-07-27T10:31:59Z</time>
      </trkpt>
      <trkpt lat="45.99292" lon="6.26573">
        <ele>783</ele>
        <time>2013-07-27T10:32:01Z</time>
      </trkpt>
      <trkpt lat="45.99275" lon="6.26571">
        <ele>783</ele>
        <time>2013-07-27T10:32:03Z</time>
      </trkpt>
      <trkpt lat="45.99258" lon="6.26569">
        <ele>773</ele>
        <time>2013-07-27T10:32:05Z</time>
      </trkpt>
      <trkpt lat="45.9925" lon="6.26563">
        <ele>773</ele>
        <time>2013-07-27T10:32:06Z</time>
      </trkpt>
      <trkpt lat="45.99233" lon="6.2656">
        <ele>773</ele>
        <time>2013-07-27T10:32:08Z</time>
      </trkpt>
      <trkpt lat="45.99223" lon="6.26559">
        <ele>773</ele>
        <time>2013-07-27T10:32:09Z</time>
      </trkpt>
      <trkpt lat="45.99206" lon="6.26557">
        <ele>773</ele>
        <time>2013-07-27T10:32:11Z</time>
      </trkpt>
      <trkpt lat="45.99196" lon="6.26555">
        <ele>768</ele>
        <time>2013-07-27T10:32:13Z</time>
      </trkpt>
      <trkpt lat="45.99186" lon="6.26552">
        <ele>768</ele>
        <time>2013-07-27T10:32:15Z</time>
      </trkpt>
      <trkpt lat="45.99176" lon="6.26545">
        <ele>768</ele>
        <time>2013-07-27T10:32:17Z</time>
      </trkpt>
      <trkpt lat="45.99164" lon="6.26541">
        <ele>768</ele>
        <time>2013-07-27T10:32:19Z</time>
      </trkpt>
      <trkpt lat="45.9915" lon="6.26538">
        <ele>768</ele>
        <time>2013-07-27T10:32:21Z</time>
      </trkpt>
      <trkpt lat="45.99136" lon="6.26537">
        <ele>761</ele>
        <time>2013-07-27T10:32:23Z</time>
      </trkpt>
      <trkpt lat="45.99119" lon="6.26535">
        <ele>761</ele>
        <time>2013-07-27T10:32:25Z</time>
      </trkpt>
      <trkpt lat="45.99105" lon="6.26538">
        <ele>755</ele>
        <time>2013-07-27T10:32:27Z</time>
      </trkpt>
      <trkpt lat="45.99094" lon="6.26544">
        <ele>755</ele>
        <time>2013-07-27T10:32:29Z</time>
      </trkpt>
      <trkpt lat="45.99084" lon="6.2655">
        <ele>749</ele>
        <time>2013-07-27T10:32:31Z</time>
      </trkpt>
      <trkpt lat="45.99075" lon="6.26554">
        <ele>749</ele>
        <time>2013-07-27T10:32:33Z</time>
      </trkpt>
      <trkpt lat="45.99066" lon="6.2655">
        <ele>741</ele>
        <time>2013-07-27T10:32:37Z</time>
      </trkpt>
      <trkpt lat="45.99072" lon="6.26537">
        <ele>741</ele>
        <time>2013-07-27T10:32:41Z</time>
      </trkpt>
      <trkpt lat="45.99067" lon="6.26524">
        <ele>741</ele>
        <time>2013-07-27T10:32:45Z</time>
      </trkpt>
      <trkpt lat="45.99059" lon="6.2653">
        <ele>741</ele>
        <time>2013-07-27T10:33:13Z</time>
      </trkpt>
      <trkpt lat="45.99049" lon="6.26521">
        <ele>741</ele>
        <time>2013-07-27T10:33:16Z</time>
      </trkpt>
      <trkpt lat="45.99046" lon="6.26508">
        <ele>741</ele>
        <time>2013-07-27T10:33:19Z</time>
      </trkpt>
      <trkpt lat="45.99052" lon="6.26497">
        <ele>741</ele>
        <time>2013-07-27T10:33:59Z</time>
      </trkpt>
      <trkpt lat="45.99062" lon="6.26491">
        <ele>741</ele>
        <time>2013-07-27T10:34:01Z</time>
      </trkpt>
      <trkpt lat="45.99074" lon="6.26482">
        <ele>741</ele>
        <time>2013-07-27T10:34:03Z</time>
      </trkpt>
      <trkpt lat="45.99088" lon="6.26467">
        <ele>741</ele>
        <time>2013-07-27T10:34:05Z</time>
      </trkpt>
      <trkpt lat="45.99096" lon="6.26458">
        <ele>741</ele>
        <time>2013-07-27T10:34:06Z</time>
      </trkpt>
      <trkpt lat="45.99104" lon="6.26448">
        <ele>741</ele>
        <time>2013-07-27T10:34:07Z</time>
      </trkpt>
      <trkpt lat="45.99112" lon="6.26438">
        <ele>741</ele>
        <time>2013-07-27T10:34:08Z</time>
      </trkpt>
      <trkpt lat="45.99119" lon="6.26425">
        <ele>741</ele>
        <time>2013-07-27T10:34:09Z</time>
      </trkpt>
      <trkpt lat="45.99127" lon="6.26411">
        <ele>741</ele>
        <time>2013-07-27T10:34:10Z</time>
      </trkpt>
      <trkpt lat="45.99135" lon="6.264">
        <ele>741</ele>
        <time>2013-07-27T10:34:11Z</time>
      </trkpt>
      <trkpt lat="45.99143" lon="6.26388">
        <ele>734</ele>
        <time>2013-07-27T10:34:12Z</time>
      </trkpt>
      <trkpt lat="45.99151" lon="6.26375">
        <ele>734</ele>
        <time>2013-07-27T10:34:13Z</time>
      </trkpt>
      <trkpt lat="45.99158" lon="6.26359">
        <ele>726</ele>
        <time>2013-07-27T10:34:14Z</time>
      </trkpt>
      <trkpt lat="45.99163" lon="6.26341">
        <ele>726</ele>
        <time>2013-07-27T10:34:15Z</time>
      </trkpt>
      <trkpt lat="45.99169" lon="6.26323">
        <ele>726</ele>
        <time>2013-07-27T10:34:16Z</time>
      </trkpt>
      <trkpt lat="45.99175" lon="6.26305">
        <ele>720</ele>
        <time>2013-07-27T10:34:17Z</time>
      </trkpt>
      <trkpt lat="45.99183" lon="6.26287">
        <ele>720</ele>
        <time>2013-07-27T10:34:18Z</time>
      </trkpt>
      <trkpt lat="45.99191" lon="6.26271">
        <ele>720</ele>
        <time>2013-07-27T10:34:19Z</time>
      </trkpt>
      <trkpt lat="45.992" lon="6.26256">
        <ele>720</ele>
        <time>2013-07-27T10:34:20Z</time>
      </trkpt>
      <trkpt lat="45.99209" lon="6.26243">
        <ele>720</ele>
        <time>2013-07-27T10:34:21Z</time>
      </trkpt>
      <trkpt lat="45.9922" lon="6.2623">
        <ele>714</ele>
        <time>2013-07-27T10:34:22Z</time>
      </trkpt>
      <trkpt lat="45.9923" lon="6.26218">
        <ele>714</ele>
        <time>2013-07-27T10:34:23Z</time>
      </trkpt>
      <trkpt lat="45.9924" lon="6.26207">
        <ele>714</ele>
        <time>2013-07-27T10:34:24Z</time>
      </trkpt>
      <trkpt lat="45.99251" lon="6.26195">
        <ele>714</ele>
        <time>2013-07-27T10:34:25Z</time>
      </trkpt>
      <trkpt lat="45.99261" lon="6.26183">
        <ele>714</ele>
        <time>2013-07-27T10:34:26Z</time>
      </trkpt>
      <trkpt lat="45.99271" lon="6.26172">
        <ele>709</ele>
        <time>2013-07-27T10:34:27Z</time>
      </trkpt>
      <trkpt lat="45.99282" lon="6.26159">
        <ele>709</ele>
        <time>2013-07-27T10:34:28Z</time>
      </trkpt>
      <trkpt lat="45.99292" lon="6.26147">
        <ele>709</ele>
        <time>2013-07-27T10:34:29Z</time>
      </trkpt>
      <trkpt lat="45.99301" lon="6.26135">
        <ele>709</ele>
        <time>2013-07-27T10:34:30Z</time>
      </trkpt>
      <trkpt lat="45.99311" lon="6.26123">
        <ele>709</ele>
        <time>2013-07-27T10:34:31Z</time>
      </trkpt>
      <trkpt lat="45.9932" lon="6.26111">
        <ele>709</ele>
        <time>2013-07-27T10:34:32Z</time>
      </trkpt>
      <trkpt lat="45.9933" lon="6.26098">
        <ele>703</ele>
        <time>2013-07-27T10:34:33Z</time>
      </trkpt>
      <trkpt lat="45.9934" lon="6.26086">
        <ele>703</ele>
        <time>2013-07-27T10:34:34Z</time>
      </trkpt>
      <trkpt lat="45.99351" lon="6.26075">
        <ele>703</ele>
        <time>2013-07-27T10:34:35Z</time>
      </trkpt>
      <trkpt lat="45.99362" lon="6.26065">
        <ele>703</ele>
        <time>2013-07-27T10:34:36Z</time>
      </trkpt>
      <trkpt lat="45.99372" lon="6.26056">
        <ele>703</ele>
        <time>2013-07-27T10:34:37Z</time>
      </trkpt>
      <trkpt lat="45.99383" lon="6.26048">
        <ele>703</ele>
        <time>2013-07-27T10:34:38Z</time>
      </trkpt>
      <trkpt lat="45.99393" lon="6.26041">
        <ele>703</ele>
        <time>2013-07-27T10:34:39Z</time>
      </trkpt>
      <trkpt lat="45.99401" lon="6.26035">
        <ele>703</ele>
        <time>2013-07-27T10:34:40Z</time>
      </trkpt>
      <trkpt lat="45.99414" lon="6.26024">
        <ele>703</ele>
        <time>2013-07-27T10:34:42Z</time>
      </trkpt>
      <trkpt lat="45.99425" lon="6.26014">
        <ele>703</ele>
        <time>2013-07-27T10:34:44Z</time>
      </trkpt>
      <trkpt lat="45.99433" lon="6.26004">
        <ele>703</ele>
        <time>2013-07-27T10:34:46Z</time>
      </trkpt>
      <trkpt lat="45.9944" lon="6.25994">
        <ele>697</ele>
        <time>2013-07-27T10:34:49Z</time>
      </trkpt>
      <trkpt lat="45.9943" lon="6.25999">
        <ele>697</ele>
        <time>2013-07-27T10:35:01Z</time>
      </trkpt>
      <trkpt lat="45.99421" lon="6.26013">
        <ele>697</ele>
        <time>2013-07-27T10:35:03Z</time>
      </trkpt>
      <trkpt lat="45.99408" lon="6.26028">
        <ele>697</ele>
        <time>2013-07-27T10:35:05Z</time>
      </trkpt>
      <trkpt lat="45.99395" lon="6.26039">
        <ele>697</ele>
        <time>2013-07-27T10:35:07Z</time>
      </trkpt>
      <trkpt lat="45.99385" lon="6.26045">
        <ele>697</ele>
        <time>2013-07-27T10:35:09Z</time>
      </trkpt>
      <trkpt lat="45.99381" lon="6.26031">
        <ele>697</ele>
        <time>2013-07-27T10:35:16Z</time>
      </trkpt>
      <trkpt lat="45.99387" lon="6.2602">
        <ele>697</ele>
        <time>2013-07-27T10:35:19Z</time>
      </trkpt>
      <trkpt lat="45.99379" lon="6.2603">
        <ele>697</ele>
        <time>2013-07-27T10:35:27Z</time>
      </trkpt>
      <trkpt lat="45.9938" lon="6.26043">
        <ele>697</ele>
        <time>2013-07-27T10:35:31Z</time>
      </trkpt>
      <trkpt lat="45.99391" lon="6.26043">
        <ele>697</ele>
        <time>2013-07-27T10:35:35Z</time>
      </trkpt>
      <trkpt lat="45.99404" lon="6.26033">
        <ele>697</ele>
        <time>2013-07-27T10:35:37Z</time>
      </trkpt>
      <trkpt lat="45.99412" lon="6.26025">
        <ele>697</ele>
        <time>2013-07-27T10:35:38Z</time>
      </trkpt>
      <trkpt lat="45.99421" lon="6.26016">
        <ele>697</ele>
        <time>2013-07-27T10:35:39Z</time>
      </trkpt>
      <trkpt lat="45.99429" lon="6.26004">
        <ele>697</ele>
        <time>2013-07-27T10:35:40Z</time>
      </trkpt>
      <trkpt lat="45.99438" lon="6.2599">
        <ele>697</ele>
        <time>2013-07-27T10:35:41Z</time>
      </trkpt>
      <trkpt lat="45.99448" lon="6.25974">
        <ele>697</ele>
        <time>2013-07-27T10:35:42Z</time>
      </trkpt>
      <trkpt lat="45.99458" lon="6.25956">
        <ele>692</ele>
        <time>2013-07-27T10:35:43Z</time>
      </trkpt>
      <trkpt lat="45.99469" lon="6.25939">
        <ele>692</ele>
        <time>2013-07-27T10:35:44Z</time>
      </trkpt>
      <trkpt lat="45.99483" lon="6.25922">
        <ele>692</ele>
        <time>2013-07-27T10:35:45Z</time>
      </trkpt>
      <trkpt lat="45.99496" lon="6.25905">
        <ele>692</ele>
        <time>2013-07-27T10:35:46Z</time>
      </trkpt>
      <trkpt lat="45.99509" lon="6.25888">
        <ele>692</ele>
        <time>2013-07-27T10:35:47Z</time>
      </trkpt>
      <trkpt lat="45.99522" lon="6.25872">
        <ele>692</ele>
        <time>2013-07-27T10:35:48Z</time>
      </trkpt>
      <trkpt lat="45.99535" lon="6.25857">
        <ele>692</ele>
        <time>2013-07-27T10:35:49Z</time>
      </trkpt>
      <trkpt lat="45.99546" lon="6.25846">
        <ele>692</ele>
        <time>2013-07-27T10:35:50Z</time>
      </trkpt>
      <trkpt lat="45.99558" lon="6.25837">
        <ele>692</ele>
        <time>2013-07-27T10:35:51Z</time>
      </trkpt>
      <trkpt lat="45.99571" lon="6.25831">
        <ele>692</ele>
        <time>2013-07-27T10:35:52Z</time>
      </trkpt>
      <trkpt lat="45.99584" lon="6.25828">
        <ele>692</ele>
        <time>2013-07-27T10:35:53Z</time>
      </trkpt>
      <trkpt lat="45.99598" lon="6.25826">
        <ele>692</ele>
        <time>2013-07-27T10:35:54Z</time>
      </trkpt>
      <trkpt lat="45.99612" lon="6.25824">
        <ele>687</ele>
        <time>2013-07-27T10:35:55Z</time>
      </trkpt>
      <trkpt lat="45.99626" lon="6.25822">
        <ele>687</ele>
        <time>2013-07-27T10:35:56Z</time>
      </trkpt>
      <trkpt lat="45.99639" lon="6.25819">
        <ele>687</ele>
        <time>2013-07-27T10:35:57Z</time>
      </trkpt>
      <trkpt lat="45.99652" lon="6.25816">
        <ele>687</ele>
        <time>2013-07-27T10:35:58Z</time>
      </trkpt>
      <trkpt lat="45.99662" lon="6.25811">
        <ele>687</ele>
        <time>2013-07-27T10:35:59Z</time>
      </trkpt>
      <trkpt lat="45.99672" lon="6.25806">
        <ele>687</ele>
        <time>2013-07-27T10:36:00Z</time>
      </trkpt>
      <trkpt lat="45.9968" lon="6.25799">
        <ele>687</ele>
        <time>2013-07-27T10:36:01Z</time>
      </trkpt>
      <trkpt lat="45.99687" lon="6.25788">
        <ele>687</ele>
        <time>2013-07-27T10:36:02Z</time>
      </trkpt>
      <trkpt lat="45.99691" lon="6.25775">
        <ele>687</ele>
        <time>2013-07-27T10:36:03Z</time>
      </trkpt>
      <trkpt lat="45.99691" lon="6.2576">
        <ele>687</ele>
        <time>2013-07-27T10:36:04Z</time>
      </trkpt>
      <trkpt lat="45.99687" lon="6.25744">
        <ele>687</ele>
        <time>2013-07-27T10:36:05Z</time>
      </trkpt>
      <trkpt lat="45.9968" lon="6.25731">
        <ele>687</ele>
        <time>2013-07-27T10:36:06Z</time>
      </trkpt>
      <trkpt lat="45.99672" lon="6.2572">
        <ele>687</ele>
        <time>2013-07-27T10:36:07Z</time>
      </trkpt>
      <trkpt lat="45.99659" lon="6.25713">
        <ele>682</ele>
        <time>2013-07-27T10:36:08Z</time>
      </trkpt>
      <trkpt lat="45.99645" lon="6.25707">
        <ele>682</ele>
        <time>2013-07-27T10:36:09Z</time>
      </trkpt>
      <trkpt lat="45.99633" lon="6.25702">
        <ele>682</ele>
        <time>2013-07-27T10:36:10Z</time>
      </trkpt>
      <trkpt lat="45.99622" lon="6.25697">
        <ele>682</ele>
        <time>2013-07-27T10:36:11Z</time>
      </trkpt>
      <trkpt lat="45.99613" lon="6.25692">
        <ele>682</ele>
        <time>2013-07-27T10:36:12Z</time>
      </trkpt>
      <trkpt lat="45.99605" lon="6.25686">
        <ele>682</ele>
        <time>2013-07-27T10:36:13Z</time>
      </trkpt>
      <trkpt lat="45.99597" lon="6.25666">
        <ele>682</ele>
        <time>2013-07-27T10:36:15Z</time>
      </trkpt>
      <trkpt lat="45.996" lon="6.25646">
        <ele>675</ele>
        <time>2013-07-27T10:36:17Z</time>
      </trkpt>
      <trkpt lat="45.99615" lon="6.25634">
        <ele>675</ele>
        <time>2013-07-27T10:36:19Z</time>
      </trkpt>
      <trkpt lat="45.99628" lon="6.25634">
        <ele>675</ele>
        <time>2013-07-27T10:36:20Z</time>
      </trkpt>
      <trkpt lat="45.99643" lon="6.25642">
        <ele>675</ele>
        <time>2013-07-27T10:36:21Z</time>
      </trkpt>
      <trkpt lat="45.99655" lon="6.25648">
        <ele>675</ele>
        <time>2013-07-27T10:36:22Z</time>
      </trkpt>
      <trkpt lat="45.99667" lon="6.25652">
        <ele>675</ele>
        <time>2013-07-27T10:36:23Z</time>
      </trkpt>
      <trkpt lat="45.99679" lon="6.25652">
        <ele>675</ele>
        <time>2013-07-27T10:36:24Z</time>
      </trkpt>
      <trkpt lat="45.9969" lon="6.2565">
        <ele>675</ele>
        <time>2013-07-27T10:36:25Z</time>
      </trkpt>
      <trkpt lat="45.99702" lon="6.25642">
        <ele>675</ele>
        <time>2013-07-27T10:36:26Z</time>
      </trkpt>
      <trkpt lat="45.99712" lon="6.25628">
        <ele>670</ele>
        <time>2013-07-27T10:36:27Z</time>
      </trkpt>
      <trkpt lat="45.9972" lon="6.2561">
        <ele>670</ele>
        <time>2013-07-27T10:36:28Z</time>
      </trkpt>
      <trkpt lat="45.99727" lon="6.2559">
        <ele>670</ele>
        <time>2013-07-27T10:36:29Z</time>
      </trkpt>
      <trkpt lat="45.99736" lon="6.25572">
        <ele>670</ele>
        <time>2013-07-27T10:36:30Z</time>
      </trkpt>
      <trkpt lat="45.99743" lon="6.25554">
        <ele>670</ele>
        <time>2013-07-27T10:36:31Z</time>
      </trkpt>
      <trkpt lat="45.99751" lon="6.25537">
        <ele>670</ele>
        <time>2013-07-27T10:36:32Z</time>
      </trkpt>
      <trkpt lat="45.9976" lon="6.25523">
        <ele>664</ele>
        <time>2013-07-27T10:36:33Z</time>
      </trkpt>
      <trkpt lat="45.99769" lon="6.2551">
        <ele>664</ele>
        <time>2013-07-27T10:36:34Z</time>
      </trkpt>
      <trkpt lat="45.99778" lon="6.25499">
        <ele>664</ele>
        <time>2013-07-27T10:36:35Z</time>
      </trkpt>
      <trkpt lat="45.99787" lon="6.25489">
        <ele>664</ele>
        <time>2013-07-27T10:36:36Z</time>
      </trkpt>
      <trkpt lat="45.99796" lon="6.2548">
        <ele>664</ele>
        <time>2013-07-27T10:36:37Z</time>
      </trkpt>
      <trkpt lat="45.99803" lon="6.25472">
        <ele>664</ele>
        <time>2013-07-27T10:36:38Z</time>
      </trkpt>
      <trkpt lat="45.9981" lon="6.25461">
        <ele>664</ele>
        <time>2013-07-27T10:36:39Z</time>
      </trkpt>
      <trkpt lat="45.99815" lon="6.25448">
        <ele>664</ele>
        <time>2013-07-27T10:36:40Z</time>
      </trkpt>
      <trkpt lat="45.99819" lon="6.25433">
        <ele>664</ele>
        <time>2013-07-27T10:36:41Z</time>
      </trkpt>
      <trkpt lat="45.99821" lon="6.25419">
        <ele>659</ele>
        <time>2013-07-27T10:36:42Z</time>
      </trkpt>
      <trkpt lat="45.99818" lon="6.25393">
        <ele>659</ele>
        <time>2013-07-27T10:36:44Z</time>
      </trkpt>
      <trkpt lat="45.99806" lon="6.25373">
        <ele>659</ele>
        <time>2013-07-27T10:36:46Z</time>
      </trkpt>
      <trkpt lat="45.99796" lon="6.25369">
        <ele>659</ele>
        <time>2013-07-27T10:36:47Z</time>
      </trkpt>
      <trkpt lat="45.99785" lon="6.25366">
        <ele>659</ele>
        <time>2013-07-27T10:36:48Z</time>
      </trkpt>
      <trkpt lat="45.99774" lon="6.25362">
        <ele>659</ele>
        <time>2013-07-27T10:36:49Z</time>
      </trkpt>
      <trkpt lat="45.99765" lon="6.25358">
        <ele>659</ele>
        <time>2013-07-27T10:36:50Z</time>
      </trkpt>
      <trkpt lat="45.99752" lon="6.25345">
        <ele>659</ele>
        <time>2013-07-27T10:36:52Z</time>
      </trkpt>
      <trkpt lat="45.99742" lon="6.25334">
        <ele>659</ele>
        <time>2013-07-27T10:36:54Z</time>
      </trkpt>
      <trkpt lat="45.99732" lon="6.25333">
        <ele>659</ele>
        <time>2013-07-27T10:36:58Z</time>
      </trkpt>
      <trkpt lat="45.9972" lon="6.25339">
        <ele>665</ele>
        <time>2013-07-27T10:37:00Z</time>
      </trkpt>
      <trkpt lat="45.99702" lon="6.25342">
        <ele>665</ele>
        <time>2013-07-27T10:37:02Z</time>
      </trkpt>
      <trkpt lat="45.99692" lon="6.25342">
        <ele>665</ele>
        <time>2013-07-27T10:37:03Z</time>
      </trkpt>
      <trkpt lat="45.99682" lon="6.25341">
        <ele>665</ele>
        <time>2013-07-27T10:37:04Z</time>
      </trkpt>
      <trkpt lat="45.9967" lon="6.25341">
        <ele>665</ele>
        <time>2013-07-27T10:37:05Z</time>
      </trkpt>
      <trkpt lat="45.99658" lon="6.2534">
        <ele>665</ele>
        <time>2013-07-27T10:37:06Z</time>
      </trkpt>
      <trkpt lat="45.99646" lon="6.2534">
        <ele>665</ele>
        <time>2013-07-27T10:37:07Z</time>
      </trkpt>
      <trkpt lat="45.99634" lon="6.25339">
        <ele>665</ele>
        <time>2013-07-27T10:37:08Z</time>
      </trkpt>
      <trkpt lat="45.99623" lon="6.25338">
        <ele>665</ele>
        <time>2013-07-27T10:37:09Z</time>
      </trkpt>
      <trkpt lat="45.99612" lon="6.25337">
        <ele>665</ele>
        <time>2013-07-27T10:37:10Z</time>
      </trkpt>
      <trkpt lat="45.99602" lon="6.25335">
        <ele>665</ele>
        <time>2013-07-27T10:37:11Z</time>
      </trkpt>
      <trkpt lat="45.99591" lon="6.25331">
        <ele>665</ele>
        <time>2013-07-27T10:37:12Z</time>
      </trkpt>
      <trkpt lat="45.9958" lon="6.25325">
        <ele>659</ele>
        <time>2013-07-27T10:37:13Z</time>
      </trkpt>
      <trkpt lat="45.9957" lon="6.25316">
        <ele>659</ele>
        <time>2013-07-27T10:37:14Z</time>
      </trkpt>
      <trkpt lat="45.99559" lon="6.25307">
        <ele>659</ele>
        <time>2013-07-27T10:37:15Z</time>
      </trkpt>
      <trkpt lat="45.99548" lon="6.25299">
        <ele>659</ele>
        <time>2013-07-27T10:37:16Z</time>
      </trkpt>
      <trkpt lat="45.99538" lon="6.25294">
        <ele>659</ele>
        <time>2013-07-27T10:37:17Z</time>
      </trkpt>
      <trkpt lat="45.99526" lon="6.25289">
        <ele>659</ele>
        <time>2013-07-27T10:37:18Z</time>
      </trkpt>
      <trkpt lat="45.99516" lon="6.25285">
        <ele>659</ele>
        <time>2013-07-27T10:37:19Z</time>
      </trkpt>
      <trkpt lat="45.99506" lon="6.25281">
        <ele>659</ele>
        <time>2013-07-27T10:37:20Z</time>
      </trkpt>
      <trkpt lat="45.99496" lon="6.25279">
        <ele>659</ele>
        <time>2013-07-27T10:37:21Z</time>
      </trkpt>
      <trkpt lat="45.99486" lon="6.25274">
        <ele>654</ele>
        <time>2013-07-27T10:37:22Z</time>
      </trkpt>
      <trkpt lat="45.99476" lon="6.25269">
        <ele>654</ele>
        <time>2013-07-27T10:37:23Z</time>
      </trkpt>
      <trkpt lat="45.99468" lon="6.2526">
        <ele>654</ele>
        <time>2013-07-27T10:37:24Z</time>
      </trkpt>
      <trkpt lat="45.99461" lon="6.25248">
        <ele>654</ele>
        <time>2013-07-27T10:37:25Z</time>
      </trkpt>
      <trkpt lat="45.99454" lon="6.25234">
        <ele>654</ele>
        <time>2013-07-27T10:37:26Z</time>
      </trkpt>
      <trkpt lat="45.99449" lon="6.25218">
        <ele>654</ele>
        <time>2013-07-27T10:37:27Z</time>
      </trkpt>
      <trkpt lat="45.99444" lon="6.252">
        <ele>654</ele>
        <time>2013-07-27T10:37:28Z</time>
      </trkpt>
      <trkpt lat="45.99438" lon="6.25183">
        <ele>649</ele>
        <time>2013-07-27T10:37:29Z</time>
      </trkpt>
      <trkpt lat="45.99432" lon="6.25168">
        <ele>649</ele>
        <time>2013-07-27T10:37:30Z</time>
      </trkpt>
      <trkpt lat="45.99425" lon="6.25155">
        <ele>649</ele>
        <time>2013-07-27T10:37:31Z</time>
      </trkpt>
      <trkpt lat="45.99418" lon="6.25142">
        <ele>649</ele>
        <time>2013-07-27T10:37:32Z</time>
      </trkpt>
      <trkpt lat="45.99411" lon="6.25129">
        <ele>649</ele>
        <time>2013-07-27T10:37:33Z</time>
      </trkpt>
      <trkpt lat="45.99406" lon="6.25114">
        <ele>649</ele>
        <time>2013-07-27T10:37:34Z</time>
      </trkpt>
      <trkpt lat="45.994" lon="6.25098">
        <ele>649</ele>
        <time>2013-07-27T10:37:35Z</time>
      </trkpt>
      <trkpt lat="45.99396" lon="6.25081">
        <ele>649</ele>
        <time>2013-07-27T10:37:36Z</time>
      </trkpt>
      <trkpt lat="45.99392" lon="6.25062">
        <ele>649</ele>
        <time>2013-07-27T10:37:37Z</time>
      </trkpt>
      <trkpt lat="45.9939" lon="6.25042">
        <ele>649</ele>
        <time>2013-07-27T10:37:38Z</time>
      </trkpt>
      <trkpt lat="45.99391" lon="6.25022">
        <ele>649</ele>
        <time>2013-07-27T10:37:39Z</time>
      </trkpt>
      <trkpt lat="45.99391" lon="6.25001">
        <ele>649</ele>
        <time>2013-07-27T10:37:40Z</time>
      </trkpt>
      <trkpt lat="45.9939" lon="6.24983">
        <ele>649</ele>
        <time>2013-07-27T10:37:41Z</time>
      </trkpt>
      <trkpt lat="45.99389" lon="6.24964">
        <ele>649</ele>
        <time>2013-07-27T10:37:42Z</time>
      </trkpt>
      <trkpt lat="45.99387" lon="6.24946">
        <ele>649</ele>
        <time>2013-07-27T10:37:43Z</time>
      </trkpt>
      <trkpt lat="45.99384" lon="6.24928">
        <ele>649</ele>
        <time>2013-07-27T10:37:44Z</time>
      </trkpt>
      <trkpt lat="45.9938" lon="6.24909">
        <ele>644</ele>
        <time>2013-07-27T10:37:45Z</time>
      </trkpt>
      <trkpt lat="45.99374" lon="6.24892">
        <ele>644</ele>
        <time>2013-07-27T10:37:46Z</time>
      </trkpt>
      <trkpt lat="45.99367" lon="6.24875">
        <ele>644</ele>
        <time>2013-07-27T10:37:47Z</time>
      </trkpt>
      <trkpt lat="45.99357" lon="6.2486">
        <ele>644</ele>
        <time>2013-07-27T10:37:48Z</time>
      </trkpt>
      <trkpt lat="45.99347" lon="6.24847">
        <ele>644</ele>
        <time>2013-07-27T10:37:49Z</time>
      </trkpt>
      <trkpt lat="45.99337" lon="6.24836">
        <ele>644</ele>
        <time>2013-07-27T10:37:50Z</time>
      </trkpt>
      <trkpt lat="45.99325" lon="6.24826">
        <ele>644</ele>
        <time>2013-07-27T10:37:51Z</time>
      </trkpt>
      <trkpt lat="45.99315" lon="6.2482">
        <ele>644</ele>
        <time>2013-07-27T10:37:52Z</time>
      </trkpt>
      <trkpt lat="45.99304" lon="6.24814">
        <ele>644</ele>
        <time>2013-07-27T10:37:53Z</time>
      </trkpt>
      <trkpt lat="45.99292" lon="6.24811">
        <ele>638</ele>
        <time>2013-07-27T10:37:54Z</time>
      </trkpt>
      <trkpt lat="45.9928" lon="6.2481">
        <ele>638</ele>
        <time>2013-07-27T10:37:55Z</time>
      </trkpt>
      <trkpt lat="45.99267" lon="6.24809">
        <ele>638</ele>
        <time>2013-07-27T10:37:56Z</time>
      </trkpt>
      <trkpt lat="45.99254" lon="6.2481">
        <ele>638</ele>
        <time>2013-07-27T10:37:57Z</time>
      </trkpt>
      <trkpt lat="45.99242" lon="6.24812">
        <ele>638</ele>
        <time>2013-07-27T10:37:58Z</time>
      </trkpt>
      <trkpt lat="45.99231" lon="6.24814">
        <ele>632</ele>
        <time>2013-07-27T10:37:59Z</time>
      </trkpt>
      <trkpt lat="45.9922" lon="6.24816">
        <ele>632</ele>
        <time>2013-07-27T10:38:00Z</time>
      </trkpt>
      <trkpt lat="45.99211" lon="6.24818">
        <ele>632</ele>
        <time>2013-07-27T10:38:01Z</time>
      </trkpt>
      <trkpt lat="45.99196" lon="6.2482">
        <ele>632</ele>
        <time>2013-07-27T10:38:03Z</time>
      </trkpt>
      <trkpt lat="45.99186" lon="6.24818">
        <ele>632</ele>
        <time>2013-07-27T10:38:05Z</time>
      </trkpt>
      <trkpt lat="45.99192" lon="6.24829">
        <ele>632</ele>
        <time>2013-07-27T10:38:27Z</time>
      </trkpt>
      <trkpt lat="45.99209" lon="6.24826">
        <ele>632</ele>
        <time>2013-07-27T10:38:29Z</time>
      </trkpt>
      <trkpt lat="45.9922" lon="6.24824">
        <ele>632</ele>
        <time>2013-07-27T10:38:30Z</time>
      </trkpt>
      <trkpt lat="45.99231" lon="6.24822">
        <ele>632</ele>
        <time>2013-07-27T10:38:31Z</time>
      </trkpt>
      <trkpt lat="45.99244" lon="6.24821">
        <ele>632</ele>
        <time>2013-07-27T10:38:32Z</time>
      </trkpt>
      <trkpt lat="45.99257" lon="6.2482">
        <ele>632</ele>
        <time>2013-07-27T10:38:33Z</time>
      </trkpt>
      <trkpt lat="45.9927" lon="6.24819">
        <ele>632</ele>
        <time>2013-07-27T10:38:34Z</time>
      </trkpt>
      <trkpt lat="45.99281" lon="6.24819">
        <ele>638</ele>
        <time>2013-07-27T10:38:35Z</time>
      </trkpt>
      <trkpt lat="45.99292" lon="6.24821">
        <ele>638</ele>
        <time>2013-07-27T10:38:36Z</time>
      </trkpt>
      <trkpt lat="45.99302" lon="6.24822">
        <ele>638</ele>
        <time>2013-07-27T10:38:37Z</time>
      </trkpt>
      <trkpt lat="45.99318" lon="6.24827">
        <ele>638</ele>
        <time>2013-07-27T10:38:39Z</time>
      </trkpt>
      <trkpt lat="45.99329" lon="6.24822">
        <ele>638</ele>
        <time>2013-07-27T10:38:41Z</time>
      </trkpt>
      <trkpt lat="45.99335" lon="6.24803">
        <ele>638</ele>
        <time>2013-07-27T10:38:43Z</time>
      </trkpt>
      <trkpt lat="45.99338" lon="6.24788">
        <ele>638</ele>
        <time>2013-07-27T10:38:44Z</time>
      </trkpt>
      <trkpt lat="45.9934" lon="6.24772">
        <ele>638</ele>
        <time>2013-07-27T10:38:45Z</time>
      </trkpt>
      <trkpt lat="45.99342" lon="6.24754">
        <ele>638</ele>
        <time>2013-07-27T10:38:46Z</time>
      </trkpt>
      <trkpt lat="45.99345" lon="6.24736">
        <ele>638</ele>
        <time>2013-07-27T10:38:47Z</time>
      </trkpt>
      <trkpt lat="45.99347" lon="6.24718">
        <ele>638</ele>
        <time>2013-07-27T10:38:48Z</time>
      </trkpt>
      <trkpt lat="45.9935" lon="6.24701">
        <ele>638</ele>
        <time>2013-07-27T10:38:49Z</time>
      </trkpt>
      <trkpt lat="45.99353" lon="6.24684">
        <ele>638</ele>
        <time>2013-07-27T10:38:50Z</time>
      </trkpt>
      <trkpt lat="45.99355" lon="6.24669">
        <ele>638</ele>
        <time>2013-07-27T10:38:51Z</time>
      </trkpt>
      <trkpt lat="45.99359" lon="6.24654">
        <ele>638</ele>
        <time>2013-07-27T10:38:52Z</time>
      </trkpt>
      <trkpt lat="45.99362" lon="6.24641">
        <ele>638</ele>
        <time>2013-07-27T10:38:53Z</time>
      </trkpt>
      <trkpt lat="45.99367" lon="6.24627">
        <ele>638</ele>
        <time>2013-07-27T10:38:54Z</time>
      </trkpt>
      <trkpt lat="45.99371" lon="6.24614">
        <ele>638</ele>
        <time>2013-07-27T10:38:55Z</time>
      </trkpt>
      <trkpt lat="45.99376" lon="6.246">
        <ele>638</ele>
        <time>2013-07-27T10:38:56Z</time>
      </trkpt>
      <trkpt lat="45.99381" lon="6.24587">
        <ele>638</ele>
        <time>2013-07-27T10:38:57Z</time>
      </trkpt>
      <trkpt lat="45.99386" lon="6.24574">
        <ele>638</ele>
        <time>2013-07-27T10:38:58Z</time>
      </trkpt>
      <trkpt lat="45.99389" lon="6.24562">
        <ele>638</ele>
        <time>2013-07-27T10:38:59Z</time>
      </trkpt>
      <trkpt lat="45.9939" lon="6.24548">
        <ele>638</ele>
        <time>2013-07-27T10:39:00Z</time>
      </trkpt>
      <trkpt lat="45.99389" lon="6.24534">
        <ele>638</ele>
        <time>2013-07-27T10:39:01Z</time>
      </trkpt>
      <trkpt lat="45.99386" lon="6.24519">
        <ele>638</ele>
        <time>2013-07-27T10:39:02Z</time>
      </trkpt>
      <trkpt lat="45.99382" lon="6.24505">
        <ele>638</ele>
        <time>2013-07-27T10:39:03Z</time>
      </trkpt>
      <trkpt lat="45.99377" lon="6.24493">
        <ele>638</ele>
        <time>2013-07-27T10:39:04Z</time>
      </trkpt>
      <trkpt lat="45.99372" lon="6.24481">
        <ele>638</ele>
        <time>2013-07-27T10:39:05Z</time>
      </trkpt>
      <trkpt lat="45.99368" lon="6.24468">
        <ele>638</ele>
        <time>2013-07-27T10:39:06Z</time>
      </trkpt>
      <trkpt lat="45.99365" lon="6.24454">
        <ele>638</ele>
        <time>2013-07-27T10:39:07Z</time>
      </trkpt>
      <trkpt lat="45.99365" lon="6.2444">
        <ele>638</ele>
        <time>2013-07-27T10:39:08Z</time>
      </trkpt>
      <trkpt lat="45.99365" lon="6.24425">
        <ele>638</ele>
        <time>2013-07-27T10:39:09Z</time>
      </trkpt>
      <trkpt lat="45.99365" lon="6.24412">
        <ele>638</ele>
        <time>2013-07-27T10:39:10Z</time>
      </trkpt>
      <trkpt lat="45.99367" lon="6.24391">
        <ele>638</ele>
        <time>2013-07-27T10:39:12Z</time>
      </trkpt>
      <trkpt lat="45.99368" lon="6.24375">
        <ele>638</ele>
        <time>2013-07-27T10:39:15Z</time>
      </trkpt>
      <trkpt lat="45.99366" lon="6.2439">
        <ele>631</ele>
        <time>2013-07-27T10:39:30Z</time>
      </trkpt>
      <trkpt lat="45.99366" lon="6.24407">
        <ele>631</ele>
        <time>2013-07-27T10:39:32Z</time>
      </trkpt>
      <trkpt lat="45.99365" lon="6.24427">
        <ele>631</ele>
        <time>2013-07-27T10:39:34Z</time>
      </trkpt>
      <trkpt lat="45.99364" lon="6.2445">
        <ele>631</ele>
        <time>2013-07-27T10:39:36Z</time>
      </trkpt>
      <trkpt lat="45.99366" lon="6.24475">
        <ele>631</ele>
        <time>2013-07-27T10:39:38Z</time>
      </trkpt>
      <trkpt lat="45.99373" lon="6.24497">
        <ele>631</ele>
        <time>2013-07-27T10:39:40Z</time>
      </trkpt>
      <trkpt lat="45.9938" lon="6.24521">
        <ele>636</ele>
        <time>2013-07-27T10:39:42Z</time>
      </trkpt>
      <trkpt lat="45.99385" lon="6.24545">
        <ele>636</ele>
        <time>2013-07-27T10:39:44Z</time>
      </trkpt>
      <trkpt lat="45.99387" lon="6.24567">
        <ele>636</ele>
        <time>2013-07-27T10:39:46Z</time>
      </trkpt>
      <trkpt lat="45.99384" lon="6.24589">
        <ele>636</ele>
        <time>2013-07-27T10:39:48Z</time>
      </trkpt>
      <trkpt lat="45.99379" lon="6.246">
        <ele>636</ele>
        <time>2013-07-27T10:39:49Z</time>
      </trkpt>
      <trkpt lat="45.99375" lon="6.24612">
        <ele>636</ele>
        <time>2013-07-27T10:39:50Z</time>
      </trkpt>
      <trkpt lat="45.99367" lon="6.24632">
        <ele>636</ele>
        <time>2013-07-27T10:39:52Z</time>
      </trkpt>
      <trkpt lat="45.9936" lon="6.24651">
        <ele>636</ele>
        <time>2013-07-27T10:39:54Z</time>
      </trkpt>
      <trkpt lat="45.99357" lon="6.24663">
        <ele>636</ele>
        <time>2013-07-27T10:39:55Z</time>
      </trkpt>
      <trkpt lat="45.99354" lon="6.24679">
        <ele>636</ele>
        <time>2013-07-27T10:39:56Z</time>
      </trkpt>
      <trkpt lat="45.9935" lon="6.24695">
        <ele>636</ele>
        <time>2013-07-27T10:39:57Z</time>
      </trkpt>
      <trkpt lat="45.99347" lon="6.24711">
        <ele>636</ele>
        <time>2013-07-27T10:39:58Z</time>
      </trkpt>
      <trkpt lat="45.99345" lon="6.24727">
        <ele>636</ele>
        <time>2013-07-27T10:39:59Z</time>
      </trkpt>
      <trkpt lat="45.99342" lon="6.24743">
        <ele>636</ele>
        <time>2013-07-27T10:40:00Z</time>
      </trkpt>
      <trkpt lat="45.9934" lon="6.24759">
        <ele>636</ele>
        <time>2013-07-27T10:40:01Z</time>
      </trkpt>
      <trkpt lat="45.99338" lon="6.24774">
        <ele>636</ele>
        <time>2013-07-27T10:40:02Z</time>
      </trkpt>
      <trkpt lat="45.99335" lon="6.24787">
        <ele>636</ele>
        <time>2013-07-27T10:40:03Z</time>
      </trkpt>
      <trkpt lat="45.99332" lon="6.2481">
        <ele>636</ele>
        <time>2013-07-27T10:40:05Z</time>
      </trkpt>
      <trkpt lat="45.99329" lon="6.24826">
        <ele>636</ele>
        <time>2013-07-27T10:40:07Z</time>
      </trkpt>
      <trkpt lat="45.99333" lon="6.2484">
        <ele>636</ele>
        <time>2013-07-27T10:40:09Z</time>
      </trkpt>
      <trkpt lat="45.99342" lon="6.24856">
        <ele>636</ele>
        <time>2013-07-27T10:40:11Z</time>
      </trkpt>
      <trkpt lat="45.99354" lon="6.24874">
        <ele>636</ele>
        <time>2013-07-27T10:40:13Z</time>
      </trkpt>
      <trkpt lat="45.99361" lon="6.24886">
        <ele>636</ele>
        <time>2013-07-27T10:40:14Z</time>
      </trkpt>
      <trkpt lat="45.99368" lon="6.24899">
        <ele>636</ele>
        <time>2013-07-27T10:40:15Z</time>
      </trkpt>
      <trkpt lat="45.99374" lon="6.24912">
        <ele>636</ele>
        <time>2013-07-27T10:40:16Z</time>
      </trkpt>
      <trkpt lat="45.99379" lon="6.24925">
        <ele>636</ele>
        <time>2013-07-27T10:40:17Z</time>
      </trkpt>
      <trkpt lat="45.99385" lon="6.24946">
        <ele>643</ele>
        <time>2013-07-27T10:40:19Z</time>
      </trkpt>
      <trkpt lat="45.99389" lon="6.24962">
        <ele>643</ele>
        <time>2013-07-27T10:40:21Z</time>
      </trkpt>
      <trkpt lat="45.99397" lon="6.24971">
        <ele>643</ele>
        <time>2013-07-27T10:40:24Z</time>
      </trkpt>
      <trkpt lat="45.99406" lon="6.24962">
        <ele>643</ele>
        <time>2013-07-27T10:40:32Z</time>
      </trkpt>
      <trkpt lat="45.99416" lon="6.24946">
        <ele>643</ele>
        <time>2013-07-27T10:40:34Z</time>
      </trkpt>
      <trkpt lat="45.99422" lon="6.24936">
        <ele>643</ele>
        <time>2013-07-27T10:40:35Z</time>
      </trkpt>
      <trkpt lat="45.99428" lon="6.24924">
        <ele>643</ele>
        <time>2013-07-27T10:40:36Z</time>
      </trkpt>
      <trkpt lat="45.99435" lon="6.24909">
        <ele>649</ele>
        <time>2013-07-27T10:40:37Z</time>
      </trkpt>
      <trkpt lat="45.99442" lon="6.24893">
        <ele>649</ele>
        <time>2013-07-27T10:40:38Z</time>
      </trkpt>
      <trkpt lat="45.99449" lon="6.24876">
        <ele>649</ele>
        <time>2013-07-27T10:40:39Z</time>
      </trkpt>
      <trkpt lat="45.99456" lon="6.24857">
        <ele>654</ele>
        <time>2013-07-27T10:40:40Z</time>
      </trkpt>
      <trkpt lat="45.99463" lon="6.24835">
        <ele>654</ele>
        <time>2013-07-27T10:40:41Z</time>
      </trkpt>
      <trkpt lat="45.99469" lon="6.24812">
        <ele>654</ele>
        <time>2013-07-27T10:40:42Z</time>
      </trkpt>
      <trkpt lat="45.99475" lon="6.24788">
        <ele>654</ele>
        <time>2013-07-27T10:40:43Z</time>
      </trkpt>
      <trkpt lat="45.99481" lon="6.24766">
        <ele>660</ele>
        <time>2013-07-27T10:40:44Z</time>
      </trkpt>
      <trkpt lat="45.99486" lon="6.24742">
        <ele>660</ele>
        <time>2013-07-27T10:40:45Z</time>
      </trkpt>
      <trkpt lat="45.99492" lon="6.2472">
        <ele>660</ele>
        <time>2013-07-27T10:40:46Z</time>
      </trkpt>
      <trkpt lat="45.99496" lon="6.24697">
        <ele>660</ele>
        <time>2013-07-27T10:40:47Z</time>
      </trkpt>
      <trkpt lat="45.99498" lon="6.24674">
        <ele>660</ele>
        <time>2013-07-27T10:40:48Z</time>
      </trkpt>
      <trkpt lat="45.99498" lon="6.24652">
        <ele>660</ele>
        <time>2013-07-27T10:40:49Z</time>
      </trkpt>
      <trkpt lat="45.99496" lon="6.24631">
        <ele>660</ele>
        <time>2013-07-27T10:40:50Z</time>
      </trkpt>
      <trkpt lat="45.99496" lon="6.24611">
        <ele>665</ele>
        <time>2013-07-27T10:40:51Z</time>
      </trkpt>
      <trkpt lat="45.99498" lon="6.24592">
        <ele>665</ele>
        <time>2013-07-27T10:40:52Z</time>
      </trkpt>
      <trkpt lat="45.99501" lon="6.24574">
        <ele>665</ele>
        <time>2013-07-27T10:40:53Z</time>
      </trkpt>
      <trkpt lat="45.99506" lon="6.24557">
        <ele>665</ele>
        <time>2013-07-27T10:40:54Z</time>
      </trkpt>
      <trkpt lat="45.99513" lon="6.24541">
        <ele>665</ele>
        <time>2013-07-27T10:40:55Z</time>
      </trkpt>
      <trkpt lat="45.99521" lon="6.24525">
        <ele>665</ele>
        <time>2013-07-27T10:40:56Z</time>
      </trkpt>
      <trkpt lat="45.9953" lon="6.24508">
        <ele>665</ele>
        <time>2013-07-27T10:40:57Z</time>
      </trkpt>
      <trkpt lat="45.99539" lon="6.24492">
        <ele>665</ele>
        <time>2013-07-27T10:40:58Z</time>
      </trkpt>
      <trkpt lat="45.99547" lon="6.24476">
        <ele>665</ele>
        <time>2013-07-27T10:40:59Z</time>
      </trkpt>
      <trkpt lat="45.99555" lon="6.24462">
        <ele>665</ele>
        <time>2013-07-27T10:41:00Z</time>
      </trkpt>
      <trkpt lat="45.99565" lon="6.2445">
        <ele>665</ele>
        <time>2013-07-27T10:41:01Z</time>
      </trkpt>
      <trkpt lat="45.99573" lon="6.24439">
        <ele>665</ele>
        <time>2013-07-27T10:41:02Z</time>
      </trkpt>
      <trkpt lat="45.99583" lon="6.24429">
        <ele>665</ele>
        <time>2013-07-27T10:41:03Z</time>
      </trkpt>
      <trkpt lat="45.99593" lon="6.24422">
        <ele>665</ele>
        <time>2013-07-27T10:41:04Z</time>
      </trkpt>
      <trkpt lat="45.99603" lon="6.24416">
        <ele>671</ele>
        <time>2013-07-27T10:41:05Z</time>
      </trkpt>
      <trkpt lat="45.99613" lon="6.24412">
        <ele>671</ele>
        <time>2013-07-27T10:41:06Z</time>
      </trkpt>
      <trkpt lat="45.99622" lon="6.24407">
        <ele>671</ele>
        <time>2013-07-27T10:41:07Z</time>
      </trkpt>
      <trkpt lat="45.99635" lon="6.24403">
        <ele>678</ele>
        <time>2013-07-27T10:41:09Z</time>
      </trkpt>
      <trkpt lat="45.99645" lon="6.24409">
        <ele>678</ele>
        <time>2013-07-27T10:41:11Z</time>
      </trkpt>
      <trkpt lat="45.9965" lon="6.2443">
        <ele>678</ele>
        <time>2013-07-27T10:41:13Z</time>
      </trkpt>
      <trkpt lat="45.9965" lon="6.24454">
        <ele>678</ele>
        <time>2013-07-27T10:41:15Z</time>
      </trkpt>
      <trkpt lat="45.99652" lon="6.24476">
        <ele>678</ele>
        <time>2013-07-27T10:41:17Z</time>
      </trkpt>
      <trkpt lat="45.99653" lon="6.24503">
        <ele>678</ele>
        <time>2013-07-27T10:41:19Z</time>
      </trkpt>
      <trkpt lat="45.99655" lon="6.24518">
        <ele>678</ele>
        <time>2013-07-27T10:41:20Z</time>
      </trkpt>
      <trkpt lat="45.99657" lon="6.24533">
        <ele>678</ele>
        <time>2013-07-27T10:41:21Z</time>
      </trkpt>
      <trkpt lat="45.99657" lon="6.24547">
        <ele>678</ele>
        <time>2013-07-27T10:41:22Z</time>
      </trkpt>
      <trkpt lat="45.99658" lon="6.24561">
        <ele>684</ele>
        <time>2013-07-27T10:41:23Z</time>
      </trkpt>
      <trkpt lat="45.9966" lon="6.24586">
        <ele>684</ele>
        <time>2013-07-27T10:41:25Z</time>
      </trkpt>
      <trkpt lat="45.99661" lon="6.246">
        <ele>684</ele>
        <time>2013-07-27T10:41:26Z</time>
      </trkpt>
      <trkpt lat="45.99662" lon="6.24615">
        <ele>684</ele>
        <time>2013-07-27T10:41:27Z</time>
      </trkpt>
      <trkpt lat="45.99664" lon="6.2463">
        <ele>684</ele>
        <time>2013-07-27T10:41:28Z</time>
      </trkpt>
      <trkpt lat="45.99666" lon="6.24645">
        <ele>684</ele>
        <time>2013-07-27T10:41:29Z</time>
      </trkpt>
      <trkpt lat="45.99668" lon="6.24661">
        <ele>684</ele>
        <time>2013-07-27T10:41:30Z</time>
      </trkpt>
      <trkpt lat="45.99669" lon="6.24674">
        <ele>684</ele>
        <time>2013-07-27T10:41:31Z</time>
      </trkpt>
      <trkpt lat="45.99672" lon="6.24698">
        <ele>684</ele>
        <time>2013-07-27T10:41:33Z</time>
      </trkpt>
      <trkpt lat="45.99674" lon="6.24722">
        <ele>684</ele>
        <time>2013-07-27T10:41:35Z</time>
      </trkpt>
      <trkpt lat="45.99677" lon="6.24747">
        <ele>684</ele>
        <time>2013-07-27T10:41:37Z</time>
      </trkpt>
      <trkpt lat="45.99677" lon="6.2476">
        <ele>684</ele>
        <time>2013-07-27T10:41:38Z</time>
      </trkpt>
      <trkpt lat="45.99676" lon="6.24787">
        <ele>684</ele>
        <time>2013-07-27T10:41:40Z</time>
      </trkpt>
      <trkpt lat="45.99675" lon="6.24802">
        <ele>684</ele>
        <time>2013-07-27T10:41:41Z</time>
      </trkpt>
      <trkpt lat="45.99674" lon="6.24816">
        <ele>684</ele>
        <time>2013-07-27T10:41:42Z</time>
      </trkpt>
      <trkpt lat="45.99672" lon="6.24831">
        <ele>684</ele>
        <time>2013-07-27T10:41:43Z</time>
      </trkpt>
      <trkpt lat="45.9967" lon="6.24846">
        <ele>684</ele>
        <time>2013-07-27T10:41:44Z</time>
      </trkpt>
      <trkpt lat="45.99669" lon="6.2486">
        <ele>684</ele>
        <time>2013-07-27T10:41:45Z</time>
      </trkpt>
      <trkpt lat="45.99667" lon="6.24874">
        <ele>684</ele>
        <time>2013-07-27T10:41:46Z</time>
      </trkpt>
      <trkpt lat="45.99666" lon="6.24895">
        <ele>684</ele>
        <time>2013-07-27T10:41:48Z</time>
      </trkpt>
      <trkpt lat="45.99665" lon="6.24911">
        <ele>684</ele>
        <time>2013-07-27T10:41:50Z</time>
      </trkpt>
      <trkpt lat="45.99657" lon="6.24919">
        <ele>684</ele>
        <time>2013-07-27T10:41:54Z</time>
      </trkpt>
      <trkpt lat="45.99648" lon="6.24914">
        <ele>690</ele>
        <time>2013-07-27T10:42:00Z</time>
      </trkpt>
      <trkpt lat="45.99637" lon="6.24913">
        <ele>690</ele>
        <time>2013-07-27T10:42:14Z</time>
      </trkpt>
      <trkpt lat="45.99628" lon="6.24919">
        <ele>697</ele>
        <time>2013-07-27T10:42:45Z</time>
      </trkpt>
      <trkpt lat="45.99637" lon="6.24916">
        <ele>692</ele>
        <time>2013-07-27T10:43:29Z</time>
      </trkpt>
      <trkpt lat="45.99647" lon="6.24911">
        <ele>692</ele>
        <time>2013-07-27T10:43:38Z</time>
      </trkpt>
      <trkpt lat="45.99656" lon="6.24917">
        <ele>692</ele>
        <time>2013-07-27T10:43:46Z</time>
      </trkpt>
      <trkpt lat="45.99656" lon="6.24931">
        <ele>702</ele>
        <time>2013-07-27T10:44:02Z</time>
      </trkpt>
      <trkpt lat="45.99653" lon="6.24944">
        <ele>725</ele>
        <time>2013-07-27T10:44:18Z</time>
      </trkpt>
      <trkpt lat="45.99646" lon="6.24952">
        <ele>730</ele>
        <time>2013-07-27T10:46:16Z</time>
      </trkpt>
      <trkpt lat="45.99642" lon="6.24965">
        <ele>752</ele>
        <time>2013-07-27T10:46:37Z</time>
      </trkpt>
      <trkpt lat="45.99648" lon="6.24954">
        <ele>745</ele>
        <time>2013-07-27T10:47:07Z</time>
      </trkpt>
      <trkpt lat="45.99652" lon="6.24942">
        <ele>730</ele>
        <time>2013-07-27T10:47:23Z</time>
      </trkpt>
      <trkpt lat="45.99657" lon="6.2493">
        <ele>718</ele>
        <time>2013-07-27T10:47:46Z</time>
      </trkpt>
      <trkpt lat="45.9965" lon="6.2494">
        <ele>718</ele>
        <time>2013-07-27T10:48:21Z</time>
      </trkpt>
      <trkpt lat="45.99648" lon="6.24953">
        <ele>741</ele>
        <time>2013-07-27T10:50:11Z</time>
      </trkpt>
      <trkpt lat="45.99652" lon="6.2494">
        <ele>724</ele>
        <time>2013-07-27T10:50:49Z</time>
      </trkpt>
      <trkpt lat="45.99648" lon="6.24952">
        <ele>737</ele>
        <time>2013-07-27T10:52:12Z</time>
      </trkpt>
      <trkpt lat="45.99639" lon="6.24961">
        <ele>752</ele>
        <time>2013-07-27T10:53:25Z</time>
      </trkpt>
      <trkpt lat="45.99647" lon="6.24952">
        <ele>736</ele>
        <time>2013-07-27T10:53:52Z</time>
      </trkpt>
      <trkpt lat="45.99653" lon="6.24941">
        <ele>723</ele>
        <time>2013-07-27T10:54:06Z</time>
      </trkpt>
      <trkpt lat="45.99656" lon="6.24928">
        <ele>696</ele>
        <time>2013-07-27T10:56:41Z</time>
      </trkpt>
      <trkpt lat="45.99654" lon="6.24942">
        <ele>736</ele>
        <time>2013-07-27T10:57:11Z</time>
      </trkpt>
      <trkpt lat="45.99658" lon="6.24928">
        <ele>711</ele>
        <time>2013-07-27T10:57:43Z</time>
      </trkpt>
      <trkpt lat="45.99669" lon="6.24928">
        <ele>725</ele>
        <time>2013-07-27T10:57:52Z</time>
      </trkpt>
      <trkpt lat="45.99662" lon="6.24939">
        <ele>737</ele>
        <time>2013-07-27T10:58:03Z</time>
      </trkpt>
      <trkpt lat="45.99656" lon="6.24949">
        <ele>737</ele>
        <time>2013-07-27T10:58:10Z</time>
      </trkpt>
      <trkpt lat="46.00245" lon="6.2471">
        <ele>778</ele>
        <time>2013-07-27T11:29:14Z</time>
      </trkpt>
      <trkpt lat="46.00256" lon="6.24711">
        <ele>778</ele>
        <time>2013-07-27T11:29:48Z</time>
      </trkpt>
      <trkpt lat="46.0027" lon="6.24703">
        <ele>783</ele>
        <time>2013-07-27T11:29:51Z</time>
      </trkpt>
      <trkpt lat="46.00278" lon="6.24696">
        <ele>783</ele>
        <time>2013-07-27T11:29:53Z</time>
      </trkpt>
      <trkpt lat="46.00288" lon="6.24688">
        <ele>783</ele>
        <time>2013-07-27T11:29:55Z</time>
      </trkpt>
      <trkpt lat="46.003" lon="6.24677">
        <ele>788</ele>
        <time>2013-07-27T11:29:57Z</time>
      </trkpt>
      <trkpt lat="46.00311" lon="6.2467">
        <ele>788</ele>
        <time>2013-07-27T11:29:59Z</time>
      </trkpt>
      <trkpt lat="46.00326" lon="6.24669">
        <ele>788</ele>
        <time>2013-07-27T11:30:01Z</time>
      </trkpt>
      <trkpt lat="46.00335" lon="6.24665">
        <ele>794</ele>
        <time>2013-07-27T11:30:02Z</time>
      </trkpt>
      <trkpt lat="46.00348" lon="6.24661">
        <ele>794</ele>
        <time>2013-07-27T11:30:04Z</time>
      </trkpt>
      <trkpt lat="46.0036" lon="6.24653">
        <ele>800</ele>
        <time>2013-07-27T11:30:06Z</time>
      </trkpt>
      <trkpt lat="46.0037" lon="6.24644">
        <ele>800</ele>
        <time>2013-07-27T11:30:08Z</time>
      </trkpt>
      <trkpt lat="46.00378" lon="6.24637">
        <ele>806</ele>
        <time>2013-07-27T11:30:11Z</time>
      </trkpt>
      <trkpt lat="46.0039" lon="6.24635">
        <ele>806</ele>
        <time>2013-07-27T11:30:14Z</time>
      </trkpt>
      <trkpt lat="46.00403" lon="6.24631">
        <ele>806</ele>
        <time>2013-07-27T11:30:16Z</time>
      </trkpt>
      <trkpt lat="46.00424" lon="6.24626">
        <ele>814</ele>
        <time>2013-07-27T11:30:18Z</time>
      </trkpt>
      <trkpt lat="46.00435" lon="6.24621">
        <ele>814</ele>
        <time>2013-07-27T11:30:19Z</time>
      </trkpt>
      <trkpt lat="46.00445" lon="6.24619">
        <ele>814</ele>
        <time>2013-07-27T11:30:20Z</time>
      </trkpt>
      <trkpt lat="46.00455" lon="6.24619">
        <ele>820</ele>
        <time>2013-07-27T11:30:21Z</time>
      </trkpt>
      <trkpt lat="46.00465" lon="6.24619">
        <ele>820</ele>
        <time>2013-07-27T11:30:22Z</time>
      </trkpt>
      <trkpt lat="46.00477" lon="6.24623">
        <ele>825</ele>
        <time>2013-07-27T11:30:24Z</time>
      </trkpt>
      <trkpt lat="46.00488" lon="6.24627">
        <ele>825</ele>
        <time>2013-07-27T11:30:38Z</time>
      </trkpt>
      <trkpt lat="46.00504" lon="6.24632">
        <ele>825</ele>
        <time>2013-07-27T11:30:40Z</time>
      </trkpt>
      <trkpt lat="46.00514" lon="6.24634">
        <ele>831</ele>
        <time>2013-07-27T11:30:41Z</time>
      </trkpt>
      <trkpt lat="46.00529" lon="6.24635">
        <ele>831</ele>
        <time>2013-07-27T11:30:43Z</time>
      </trkpt>
      <trkpt lat="46.00539" lon="6.24631">
        <ele>831</ele>
        <time>2013-07-27T11:30:45Z</time>
      </trkpt>
      <trkpt lat="46.00549" lon="6.24624">
        <ele>837</ele>
        <time>2013-07-27T11:30:48Z</time>
      </trkpt>
      <trkpt lat="46.00558" lon="6.24617">
        <ele>837</ele>
        <time>2013-07-27T11:30:50Z</time>
      </trkpt>
      <trkpt lat="46.00572" lon="6.24608">
        <ele>837</ele>
        <time>2013-07-27T11:30:52Z</time>
      </trkpt>
      <trkpt lat="46.00581" lon="6.24603">
        <ele>843</ele>
        <time>2013-07-27T11:30:53Z</time>
      </trkpt>
      <trkpt lat="46.00597" lon="6.24598">
        <ele>843</ele>
        <time>2013-07-27T11:30:55Z</time>
      </trkpt>
      <trkpt lat="46.0061" lon="6.24594">
        <ele>843</ele>
        <time>2013-07-27T11:30:57Z</time>
      </trkpt>
      <trkpt lat="46.0062" lon="6.24591">
        <ele>851</ele>
        <time>2013-07-27T11:30:59Z</time>
      </trkpt>
      <trkpt lat="46.00628" lon="6.24582">
        <ele>851</ele>
        <time>2013-07-27T11:31:02Z</time>
      </trkpt>
      <trkpt lat="46.00638" lon="6.24568">
        <ele>863</ele>
        <time>2013-07-27T11:31:05Z</time>
      </trkpt>
      <trkpt lat="46.00646" lon="6.24558">
        <ele>870</ele>
        <time>2013-07-27T11:31:07Z</time>
      </trkpt>
      <trkpt lat="46.00658" lon="6.24553">
        <ele>876</ele>
        <time>2013-07-27T11:31:09Z</time>
      </trkpt>
      <trkpt lat="46.00668" lon="6.24543">
        <ele>882</ele>
        <time>2013-07-27T11:31:11Z</time>
      </trkpt>
      <trkpt lat="46.00677" lon="6.2453">
        <ele>882</ele>
        <time>2013-07-27T11:31:13Z</time>
      </trkpt>
      <trkpt lat="46.00685" lon="6.24516">
        <ele>889</ele>
        <time>2013-07-27T11:31:15Z</time>
      </trkpt>
      <trkpt lat="46.00694" lon="6.24505">
        <ele>889</ele>
        <time>2013-07-27T11:31:17Z</time>
      </trkpt>
      <trkpt lat="46.00705" lon="6.24494">
        <ele>889</ele>
        <time>2013-07-27T11:31:19Z</time>
      </trkpt>
      <trkpt lat="46.00716" lon="6.24476">
        <ele>897</ele>
        <time>2013-07-27T11:31:21Z</time>
      </trkpt>
      <trkpt lat="46.00728" lon="6.2446">
        <ele>897</ele>
        <time>2013-07-27T11:31:23Z</time>
      </trkpt>
      <trkpt lat="46.0074" lon="6.24447">
        <ele>897</ele>
        <time>2013-07-27T11:31:25Z</time>
      </trkpt>
      <trkpt lat="46.00753" lon="6.24434">
        <ele>897</ele>
        <time>2013-07-27T11:31:27Z</time>
      </trkpt>
      <trkpt lat="46.00762" lon="6.24427">
        <ele>897</ele>
        <time>2013-07-27T11:31:28Z</time>
      </trkpt>
      <trkpt lat="46.0077" lon="6.2442">
        <ele>902</ele>
        <time>2013-07-27T11:31:29Z</time>
      </trkpt>
      <trkpt lat="46.00779" lon="6.24414">
        <ele>902</ele>
        <time>2013-07-27T11:31:30Z</time>
      </trkpt>
      <trkpt lat="46.00796" lon="6.24405">
        <ele>902</ele>
        <time>2013-07-27T11:31:32Z</time>
      </trkpt>
      <trkpt lat="46.00812" lon="6.24397">
        <ele>902</ele>
        <time>2013-07-27T11:31:34Z</time>
      </trkpt>
      <trkpt lat="46.00825" lon="6.24395">
        <ele>909</ele>
        <time>2013-07-27T11:31:36Z</time>
      </trkpt>
      <trkpt lat="46.00835" lon="6.24401">
        <ele>898</ele>
        <time>2013-07-27T11:40:39Z</time>
      </trkpt>
      <trkpt lat="46.00852" lon="6.24404">
        <ele>898</ele>
        <time>2013-07-27T11:40:41Z</time>
      </trkpt>
      <trkpt lat="46.00862" lon="6.24407">
        <ele>898</ele>
        <time>2013-07-27T11:40:42Z</time>
      </trkpt>
      <trkpt lat="46.00873" lon="6.24412">
        <ele>898</ele>
        <time>2013-07-27T11:40:43Z</time>
      </trkpt>
      <trkpt lat="46.00885" lon="6.24417">
        <ele>898</ele>
        <time>2013-07-27T11:40:44Z</time>
      </trkpt>
      <trkpt lat="46.00896" lon="6.24421">
        <ele>898</ele>
        <time>2013-07-27T11:40:45Z</time>
      </trkpt>
      <trkpt lat="46.00909" lon="6.24423">
        <ele>898</ele>
        <time>2013-07-27T11:40:46Z</time>
      </trkpt>
      <trkpt lat="46.00921" lon="6.24425">
        <ele>898</ele>
        <time>2013-07-27T11:40:47Z</time>
      </trkpt>
      <trkpt lat="46.00933" lon="6.24428">
        <ele>898</ele>
        <time>2013-07-27T11:40:48Z</time>
      </trkpt>
      <trkpt lat="46.00944" lon="6.2443">
        <ele>898</ele>
        <time>2013-07-27T11:40:49Z</time>
      </trkpt>
      <trkpt lat="46.00955" lon="6.2443">
        <ele>898</ele>
        <time>2013-07-27T11:40:50Z</time>
      </trkpt>
      <trkpt lat="46.00964" lon="6.24429">
        <ele>898</ele>
        <time>2013-07-27T11:40:51Z</time>
      </trkpt>
      <trkpt lat="46.00973" lon="6.24424">
        <ele>898</ele>
        <time>2013-07-27T11:40:52Z</time>
      </trkpt>
      <trkpt lat="46.00983" lon="6.24419">
        <ele>898</ele>
        <time>2013-07-27T11:40:53Z</time>
      </trkpt>
      <trkpt lat="46.00994" lon="6.24411">
        <ele>898</ele>
        <time>2013-07-27T11:40:54Z</time>
      </trkpt>
      <trkpt lat="46.01005" lon="6.244">
        <ele>898</ele>
        <time>2013-07-27T11:40:55Z</time>
      </trkpt>
      <trkpt lat="46.01016" lon="6.24388">
        <ele>898</ele>
        <time>2013-07-27T11:40:56Z</time>
      </trkpt>
      <trkpt lat="46.01028" lon="6.24378">
        <ele>898</ele>
        <time>2013-07-27T11:40:57Z</time>
      </trkpt>
      <trkpt lat="46.01039" lon="6.24369">
        <ele>898</ele>
        <time>2013-07-27T11:40:58Z</time>
      </trkpt>
      <trkpt lat="46.01051" lon="6.24363">
        <ele>898</ele>
        <time>2013-07-27T11:40:59Z</time>
      </trkpt>
      <trkpt lat="46.01064" lon="6.24359">
        <ele>898</ele>
        <time>2013-07-27T11:41:00Z</time>
      </trkpt>
      <trkpt lat="46.01077" lon="6.24356">
        <ele>898</ele>
        <time>2013-07-27T11:41:01Z</time>
      </trkpt>
      <trkpt lat="46.01091" lon="6.24353">
        <ele>903</ele>
        <time>2013-07-27T11:41:02Z</time>
      </trkpt>
      <trkpt lat="46.01104" lon="6.2435">
        <ele>903</ele>
        <time>2013-07-27T11:41:03Z</time>
      </trkpt>
      <trkpt lat="46.01117" lon="6.24347">
        <ele>903</ele>
        <time>2013-07-27T11:41:04Z</time>
      </trkpt>
      <trkpt lat="46.01129" lon="6.24343">
        <ele>903</ele>
        <time>2013-07-27T11:41:05Z</time>
      </trkpt>
      <trkpt lat="46.0114" lon="6.24337">
        <ele>903</ele>
        <time>2013-07-27T11:41:06Z</time>
      </trkpt>
      <trkpt lat="46.01151" lon="6.24333">
        <ele>903</ele>
        <time>2013-07-27T11:41:07Z</time>
      </trkpt>
      <trkpt lat="46.01162" lon="6.24328">
        <ele>903</ele>
        <time>2013-07-27T11:41:08Z</time>
      </trkpt>
      <trkpt lat="46.01173" lon="6.24325">
        <ele>903</ele>
        <time>2013-07-27T11:41:09Z</time>
      </trkpt>
      <trkpt lat="46.01186" lon="6.24322">
        <ele>903</ele>
        <time>2013-07-27T11:41:10Z</time>
      </trkpt>
      <trkpt lat="46.01199" lon="6.24321">
        <ele>903</ele>
        <time>2013-07-27T11:41:11Z</time>
      </trkpt>
      <trkpt lat="46.01214" lon="6.24327">
        <ele>903</ele>
        <time>2013-07-27T11:41:12Z</time>
      </trkpt>
      <trkpt lat="46.01227" lon="6.2433">
        <ele>903</ele>
        <time>2013-07-27T11:41:13Z</time>
      </trkpt>
      <trkpt lat="46.01239" lon="6.24332">
        <ele>903</ele>
        <time>2013-07-27T11:41:14Z</time>
      </trkpt>
      <trkpt lat="46.01249" lon="6.24335">
        <ele>903</ele>
        <time>2013-07-27T11:41:15Z</time>
      </trkpt>
      <trkpt lat="46.01262" lon="6.24338">
        <ele>903</ele>
        <time>2013-07-27T11:41:17Z</time>
      </trkpt>
      <trkpt lat="46.01272" lon="6.24344">
        <ele>903</ele>
        <time>2013-07-27T11:41:20Z</time>
      </trkpt>
      <trkpt lat="46.0127" lon="6.24359">
        <ele>903</ele>
        <time>2013-07-27T11:41:28Z</time>
      </trkpt>
      <trkpt lat="46.01273" lon="6.24375">
        <ele>903</ele>
        <time>2013-07-27T11:41:30Z</time>
      </trkpt>
      <trkpt lat="46.01277" lon="6.24393">
        <ele>903</ele>
        <time>2013-07-27T11:41:32Z</time>
      </trkpt>
      <trkpt lat="46.01279" lon="6.24413">
        <ele>903</ele>
        <time>2013-07-27T11:41:34Z</time>
      </trkpt>
      <trkpt lat="46.0128" lon="6.24438">
        <ele>903</ele>
        <time>2013-07-27T11:41:36Z</time>
      </trkpt>
      <trkpt lat="46.01284" lon="6.24459">
        <ele>903</ele>
        <time>2013-07-27T11:41:38Z</time>
      </trkpt>
      <trkpt lat="46.01289" lon="6.24471">
        <ele>903</ele>
        <time>2013-07-27T11:41:39Z</time>
      </trkpt>
      <trkpt lat="46.01296" lon="6.24481">
        <ele>903</ele>
        <time>2013-07-27T11:41:40Z</time>
      </trkpt>
      <trkpt lat="46.01305" lon="6.24491">
        <ele>909</ele>
        <time>2013-07-27T11:41:41Z</time>
      </trkpt>
      <trkpt lat="46.01314" lon="6.24503">
        <ele>909</ele>
        <time>2013-07-27T11:41:42Z</time>
      </trkpt>
      <trkpt lat="46.01322" lon="6.24512">
        <ele>909</ele>
        <time>2013-07-27T11:41:43Z</time>
      </trkpt>
      <trkpt lat="46.01329" lon="6.24522">
        <ele>909</ele>
        <time>2013-07-27T11:41:44Z</time>
      </trkpt>
      <trkpt lat="46.01334" lon="6.24533">
        <ele>909</ele>
        <time>2013-07-27T11:41:45Z</time>
      </trkpt>
      <trkpt lat="46.01337" lon="6.24548">
        <ele>914</ele>
        <time>2013-07-27T11:41:46Z</time>
      </trkpt>
      <trkpt lat="46.01338" lon="6.24566">
        <ele>914</ele>
        <time>2013-07-27T11:41:47Z</time>
      </trkpt>
      <trkpt lat="46.01339" lon="6.2459">
        <ele>914</ele>
        <time>2013-07-27T11:41:48Z</time>
      </trkpt>
      <trkpt lat="46.0134" lon="6.24613">
        <ele>914</ele>
        <time>2013-07-27T11:41:49Z</time>
      </trkpt>
      <trkpt lat="46.01341" lon="6.24635">
        <ele>914</ele>
        <time>2013-07-27T11:41:50Z</time>
      </trkpt>
      <trkpt lat="46.01339" lon="6.24657">
        <ele>914</ele>
        <time>2013-07-27T11:41:51Z</time>
      </trkpt>
      <trkpt lat="46.01339" lon="6.24676">
        <ele>920</ele>
        <time>2013-07-27T11:41:52Z</time>
      </trkpt>
      <trkpt lat="46.01337" lon="6.24694">
        <ele>920</ele>
        <time>2013-07-27T11:41:53Z</time>
      </trkpt>
      <trkpt lat="46.01334" lon="6.24715">
        <ele>920</ele>
        <time>2013-07-27T11:41:54Z</time>
      </trkpt>
      <trkpt lat="46.01331" lon="6.24737">
        <ele>920</ele>
        <time>2013-07-27T11:41:55Z</time>
      </trkpt>
      <trkpt lat="46.01329" lon="6.24758">
        <ele>920</ele>
        <time>2013-07-27T11:41:56Z</time>
      </trkpt>
      <trkpt lat="46.01326" lon="6.24781">
        <ele>920</ele>
        <time>2013-07-27T11:41:57Z</time>
      </trkpt>
      <trkpt lat="46.01324" lon="6.24803">
        <ele>925</ele>
        <time>2013-07-27T11:41:58Z</time>
      </trkpt>
      <trkpt lat="46.01321" lon="6.24825">
        <ele>925</ele>
        <time>2013-07-27T11:41:59Z</time>
      </trkpt>
      <trkpt lat="46.01319" lon="6.24842">
        <ele>925</ele>
        <time>2013-07-27T11:42:00Z</time>
      </trkpt>
      <trkpt lat="46.01316" lon="6.24855">
        <ele>925</ele>
        <time>2013-07-27T11:42:01Z</time>
      </trkpt>
      <trkpt lat="46.01314" lon="6.24867">
        <ele>931</ele>
        <time>2013-07-27T11:42:02Z</time>
      </trkpt>
      <trkpt lat="46.01307" lon="6.24879">
        <ele>931</ele>
        <time>2013-07-27T11:42:04Z</time>
      </trkpt>
      <trkpt lat="46.01301" lon="6.24892">
        <ele>931</ele>
        <time>2013-07-27T11:42:06Z</time>
      </trkpt>
      <trkpt lat="46.01297" lon="6.24905">
        <ele>939</ele>
        <time>2013-07-27T11:42:09Z</time>
      </trkpt>
      <trkpt lat="46.01302" lon="6.2492">
        <ele>939</ele>
        <time>2013-07-27T11:42:13Z</time>
      </trkpt>
      <trkpt lat="46.01303" lon="6.24936">
        <ele>939</ele>
        <time>2013-07-27T11:42:15Z</time>
      </trkpt>
      <trkpt lat="46.01306" lon="6.24953">
        <ele>939</ele>
        <time>2013-07-27T11:42:17Z</time>
      </trkpt>
      <trkpt lat="46.0131" lon="6.24968">
        <ele>945</ele>
        <time>2013-07-27T11:42:19Z</time>
      </trkpt>
      <trkpt lat="46.01317" lon="6.24982">
        <ele>945</ele>
        <time>2013-07-27T11:42:21Z</time>
      </trkpt>
      <trkpt lat="46.01326" lon="6.25004">
        <ele>945</ele>
        <time>2013-07-27T11:42:23Z</time>
      </trkpt>
      <trkpt lat="46.01335" lon="6.2502">
        <ele>945</ele>
        <time>2013-07-27T11:42:25Z</time>
      </trkpt>
      <trkpt lat="46.01339" lon="6.25032">
        <ele>945</ele>
        <time>2013-07-27T11:42:28Z</time>
      </trkpt>
      <trkpt lat="46.01344" lon="6.25051">
        <ele>945</ele>
        <time>2013-07-27T11:42:31Z</time>
      </trkpt>
      <trkpt lat="46.01352" lon="6.25068">
        <ele>938</ele>
        <time>2013-07-27T11:42:33Z</time>
      </trkpt>
      <trkpt lat="46.01357" lon="6.25085">
        <ele>938</ele>
        <time>2013-07-27T11:42:35Z</time>
      </trkpt>
      <trkpt lat="46.01361" lon="6.25102">
        <ele>938</ele>
        <time>2013-07-27T11:42:38Z</time>
      </trkpt>
      <trkpt lat="46.01357" lon="6.25118">
        <ele>938</ele>
        <time>2013-07-27T11:42:41Z</time>
      </trkpt>
      <trkpt lat="46.01351" lon="6.25127">
        <ele>932</ele>
        <time>2013-07-27T11:42:43Z</time>
      </trkpt>
      <trkpt lat="46.01342" lon="6.25133">
        <ele>932</ele>
        <time>2013-07-27T11:42:49Z</time>
      </trkpt>
      <trkpt lat="46.01331" lon="6.25136">
        <ele>938</ele>
        <time>2013-07-27T11:42:57Z</time>
      </trkpt>
      <trkpt lat="46.01322" lon="6.25148">
        <ele>938</ele>
        <time>2013-07-27T11:43:02Z</time>
      </trkpt>
      <trkpt lat="46.01324" lon="6.25164">
        <ele>943</ele>
        <time>2013-07-27T11:43:04Z</time>
      </trkpt>
      <trkpt lat="46.01324" lon="6.25181">
        <ele>943</ele>
        <time>2013-07-27T11:43:07Z</time>
      </trkpt>
      <trkpt lat="46.01323" lon="6.25195">
        <ele>952</ele>
        <time>2013-07-27T11:43:09Z</time>
      </trkpt>
      <trkpt lat="46.01326" lon="6.25209">
        <ele>952</ele>
        <time>2013-07-27T11:43:11Z</time>
      </trkpt>
      <trkpt lat="46.01333" lon="6.25219">
        <ele>952</ele>
        <time>2013-07-27T11:43:13Z</time>
      </trkpt>
      <trkpt lat="46.01338" lon="6.25234">
        <ele>959</ele>
        <time>2013-07-27T11:43:16Z</time>
      </trkpt>
      <trkpt lat="46.01336" lon="6.25252">
        <ele>959</ele>
        <time>2013-07-27T11:43:19Z</time>
      </trkpt>
      <trkpt lat="46.01332" lon="6.25266">
        <ele>959</ele>
        <time>2013-07-27T11:43:23Z</time>
      </trkpt>
      <trkpt lat="46.01326" lon="6.25277">
        <ele>959</ele>
        <time>2013-07-27T11:43:26Z</time>
      </trkpt>
      <trkpt lat="46.01324" lon="6.25289">
        <ele>951</ele>
        <time>2013-07-27T11:43:28Z</time>
      </trkpt>
      <trkpt lat="46.0132" lon="6.25304">
        <ele>951</ele>
        <time>2013-07-27T11:43:30Z</time>
      </trkpt>
      <trkpt lat="46.01312" lon="6.2532">
        <ele>943</ele>
        <time>2013-07-27T11:43:32Z</time>
      </trkpt>
      <trkpt lat="46.01307" lon="6.25332">
        <ele>943</ele>
        <time>2013-07-27T11:43:34Z</time>
      </trkpt>
      <trkpt lat="46.01302" lon="6.25346">
        <ele>936</ele>
        <time>2013-07-27T11:43:36Z</time>
      </trkpt>
      <trkpt lat="46.01307" lon="6.25367">
        <ele>936</ele>
        <time>2013-07-27T11:43:39Z</time>
      </trkpt>
      <trkpt lat="46.01309" lon="6.25386">
        <ele>936</ele>
        <time>2013-07-27T11:43:41Z</time>
      </trkpt>
      <trkpt lat="46.01315" lon="6.25412">
        <ele>936</ele>
        <time>2013-07-27T11:43:43Z</time>
      </trkpt>
      <trkpt lat="46.01319" lon="6.25424">
        <ele>936</ele>
        <time>2013-07-27T11:43:44Z</time>
      </trkpt>
      <trkpt lat="46.01323" lon="6.25438">
        <ele>936</ele>
        <time>2013-07-27T11:43:45Z</time>
      </trkpt>
      <trkpt lat="46.01327" lon="6.25451">
        <ele>936</ele>
        <time>2013-07-27T11:43:46Z</time>
      </trkpt>
      <trkpt lat="46.0133" lon="6.25464">
        <ele>936</ele>
        <time>2013-07-27T11:43:47Z</time>
      </trkpt>
      <trkpt lat="46.01337" lon="6.25486">
        <ele>936</ele>
        <time>2013-07-27T11:43:49Z</time>
      </trkpt>
      <trkpt lat="46.01342" lon="6.25499">
        <ele>936</ele>
        <time>2013-07-27T11:43:50Z</time>
      </trkpt>
      <trkpt lat="46.01352" lon="6.25514">
        <ele>936</ele>
        <time>2013-07-27T11:43:51Z</time>
      </trkpt>
      <trkpt lat="46.01361" lon="6.25534">
        <ele>936</ele>
        <time>2013-07-27T11:43:52Z</time>
      </trkpt>
      <trkpt lat="46.0137" lon="6.25555">
        <ele>936</ele>
        <time>2013-07-27T11:43:53Z</time>
      </trkpt>
      <trkpt lat="46.0138" lon="6.25579">
        <ele>936</ele>
        <time>2013-07-27T11:43:54Z</time>
      </trkpt>
      <trkpt lat="46.01389" lon="6.25605">
        <ele>936</ele>
        <time>2013-07-27T11:43:55Z</time>
      </trkpt>
      <trkpt lat="46.01398" lon="6.25627">
        <ele>936</ele>
        <time>2013-07-27T11:43:56Z</time>
      </trkpt>
      <trkpt lat="46.01406" lon="6.25649">
        <ele>936</ele>
        <time>2013-07-27T11:43:57Z</time>
      </trkpt>
      <trkpt lat="46.01413" lon="6.25669">
        <ele>941</ele>
        <time>2013-07-27T11:43:58Z</time>
      </trkpt>
      <trkpt lat="46.01418" lon="6.25687">
        <ele>941</ele>
        <time>2013-07-27T11:43:59Z</time>
      </trkpt>
      <trkpt lat="46.01424" lon="6.25707">
        <ele>946</ele>
        <time>2013-07-27T11:44:00Z</time>
      </trkpt>
      <trkpt lat="46.01431" lon="6.25727">
        <ele>946</ele>
        <time>2013-07-27T11:44:01Z</time>
      </trkpt>
      <trkpt lat="46.01439" lon="6.25746">
        <ele>946</ele>
        <time>2013-07-27T11:44:02Z</time>
      </trkpt>
      <trkpt lat="46.01447" lon="6.25762">
        <ele>946</ele>
        <time>2013-07-27T11:44:03Z</time>
      </trkpt>
      <trkpt lat="46.01454" lon="6.25778">
        <ele>946</ele>
        <time>2013-07-27T11:44:04Z</time>
      </trkpt>
      <trkpt lat="46.01464" lon="6.25795">
        <ele>946</ele>
        <time>2013-07-27T11:44:05Z</time>
      </trkpt>
      <trkpt lat="46.01474" lon="6.2581">
        <ele>946</ele>
        <time>2013-07-27T11:44:06Z</time>
      </trkpt>
      <trkpt lat="46.01483" lon="6.25829">
        <ele>946</ele>
        <time>2013-07-27T11:44:07Z</time>
      </trkpt>
      <trkpt lat="46.01492" lon="6.25847">
        <ele>946</ele>
        <time>2013-07-27T11:44:08Z</time>
      </trkpt>
      <trkpt lat="46.015" lon="6.25863">
        <ele>946</ele>
        <time>2013-07-27T11:44:09Z</time>
      </trkpt>
      <trkpt lat="46.01508" lon="6.25881">
        <ele>946</ele>
        <time>2013-07-27T11:44:10Z</time>
      </trkpt>
      <trkpt lat="46.01514" lon="6.25894">
        <ele>946</ele>
        <time>2013-07-27T11:44:11Z</time>
      </trkpt>
      <trkpt lat="46.01521" lon="6.25909">
        <ele>946</ele>
        <time>2013-07-27T11:44:12Z</time>
      </trkpt>
      <trkpt lat="46.01529" lon="6.25923">
        <ele>946</ele>
        <time>2013-07-27T11:44:13Z</time>
      </trkpt>
      <trkpt lat="46.01537" lon="6.25938">
        <ele>946</ele>
        <time>2013-07-27T11:44:14Z</time>
      </trkpt>
      <trkpt lat="46.01545" lon="6.25953">
        <ele>946</ele>
        <time>2013-07-27T11:44:15Z</time>
      </trkpt>
      <trkpt lat="46.01553" lon="6.2597">
        <ele>946</ele>
        <time>2013-07-27T11:44:16Z</time>
      </trkpt>
      <trkpt lat="46.01561" lon="6.25987">
        <ele>946</ele>
        <time>2013-07-27T11:44:17Z</time>
      </trkpt>
      <trkpt lat="46.0157" lon="6.26004">
        <ele>946</ele>
        <time>2013-07-27T11:44:18Z</time>
      </trkpt>
      <trkpt lat="46.01581" lon="6.26019">
        <ele>946</ele>
        <time>2013-07-27T11:44:19Z</time>
      </trkpt>
      <trkpt lat="46.01593" lon="6.26031">
        <ele>946</ele>
        <time>2013-07-27T11:44:20Z</time>
      </trkpt>
      <trkpt lat="46.01604" lon="6.26044">
        <ele>946</ele>
        <time>2013-07-27T11:44:21Z</time>
      </trkpt>
      <trkpt lat="46.01615" lon="6.26056">
        <ele>946</ele>
        <time>2013-07-27T11:44:22Z</time>
      </trkpt>
      <trkpt lat="46.01625" lon="6.26067">
        <ele>946</ele>
        <time>2013-07-27T11:44:23Z</time>
      </trkpt>
      <trkpt lat="46.01635" lon="6.26074">
        <ele>946</ele>
        <time>2013-07-27T11:44:24Z</time>
      </trkpt>
      <trkpt lat="46.01643" lon="6.26082">
        <ele>946</ele>
        <time>2013-07-27T11:44:25Z</time>
      </trkpt>
      <trkpt lat="46.0165" lon="6.26091">
        <ele>946</ele>
        <time>2013-07-27T11:44:26Z</time>
      </trkpt>
      <trkpt lat="46.01658" lon="6.26099">
        <ele>946</ele>
        <time>2013-07-27T11:44:27Z</time>
      </trkpt>
      <trkpt lat="46.01667" lon="6.26106">
        <ele>946</ele>
        <time>2013-07-27T11:44:28Z</time>
      </trkpt>
      <trkpt lat="46.01674" lon="6.26114">
        <ele>946</ele>
        <time>2013-07-27T11:44:29Z</time>
      </trkpt>
      <trkpt lat="46.01682" lon="6.26124">
        <ele>946</ele>
        <time>2013-07-27T11:44:30Z</time>
      </trkpt>
      <trkpt lat="46.01689" lon="6.26132">
        <ele>946</ele>
        <time>2013-07-27T11:44:31Z</time>
      </trkpt>
      <trkpt lat="46.01697" lon="6.26141">
        <ele>946</ele>
        <time>2013-07-27T11:44:32Z</time>
      </trkpt>
      <trkpt lat="46.01706" lon="6.26149">
        <ele>946</ele>
        <time>2013-07-27T11:44:33Z</time>
      </trkpt>
      <trkpt lat="46.01715" lon="6.26158">
        <ele>946</ele>
        <time>2013-07-27T11:44:34Z</time>
      </trkpt>
      <trkpt lat="46.01724" lon="6.26167">
        <ele>946</ele>
        <time>2013-07-27T11:44:35Z</time>
      </trkpt>
      <trkpt lat="46.01734" lon="6.26177">
        <ele>946</ele>
        <time>2013-07-27T11:44:36Z</time>
      </trkpt>
      <trkpt lat="46.01742" lon="6.26189">
        <ele>946</ele>
        <time>2013-07-27T11:44:37Z</time>
      </trkpt>
      <trkpt lat="46.0175" lon="6.26203">
        <ele>946</ele>
        <time>2013-07-27T11:44:38Z</time>
      </trkpt>
      <trkpt lat="46.01757" lon="6.26218">
        <ele>946</ele>
        <time>2013-07-27T11:44:39Z</time>
      </trkpt>
      <trkpt lat="46.01766" lon="6.26235">
        <ele>946</ele>
        <time>2013-07-27T11:44:40Z</time>
      </trkpt>
      <trkpt lat="46.01774" lon="6.26251">
        <ele>946</ele>
        <time>2013-07-27T11:44:41Z</time>
      </trkpt>
      <trkpt lat="46.01781" lon="6.26264">
        <ele>946</ele>
        <time>2013-07-27T11:44:42Z</time>
      </trkpt>
      <trkpt lat="46.01786" lon="6.26276">
        <ele>946</ele>
        <time>2013-07-27T11:44:43Z</time>
      </trkpt>
      <trkpt lat="46.01791" lon="6.26287">
        <ele>946</ele>
        <time>2013-07-27T11:44:46Z</time>
      </trkpt>
      <trkpt lat="46.01797" lon="6.26277">
        <ele>954</ele>
        <time>2013-07-27T11:45:08Z</time>
      </trkpt>
      <trkpt lat="46.0181" lon="6.26265">
        <ele>954</ele>
        <time>2013-07-27T11:45:10Z</time>
      </trkpt>
      <trkpt lat="46.01821" lon="6.26253">
        <ele>954</ele>
        <time>2013-07-27T11:45:12Z</time>
      </trkpt>
      <trkpt lat="46.0183" lon="6.26243">
        <ele>954</ele>
        <time>2013-07-27T11:45:14Z</time>
      </trkpt>
      <trkpt lat="46.01838" lon="6.26233">
        <ele>954</ele>
        <time>2013-07-27T11:45:16Z</time>
      </trkpt>
      <trkpt lat="46.01845" lon="6.26221">
        <ele>954</ele>
        <time>2013-07-27T11:45:19Z</time>
      </trkpt>
      <trkpt lat="46.01842" lon="6.26207">
        <ele>954</ele>
        <time>2013-07-27T11:45:22Z</time>
      </trkpt>
      <trkpt lat="46.01834" lon="6.26195">
        <ele>954</ele>
        <time>2013-07-27T11:45:24Z</time>
      </trkpt>
      <trkpt lat="46.01824" lon="6.26181">
        <ele>954</ele>
        <time>2013-07-27T11:45:26Z</time>
      </trkpt>
      <trkpt lat="46.01813" lon="6.26165">
        <ele>947</ele>
        <time>2013-07-27T11:45:28Z</time>
      </trkpt>
      <trkpt lat="46.01799" lon="6.26147">
        <ele>947</ele>
        <time>2013-07-27T11:45:30Z</time>
      </trkpt>
      <trkpt lat="46.01791" lon="6.26137">
        <ele>947</ele>
        <time>2013-07-27T11:45:31Z</time>
      </trkpt>
      <trkpt lat="46.01784" lon="6.26128">
        <ele>947</ele>
        <time>2013-07-27T11:45:32Z</time>
      </trkpt>
      <trkpt lat="46.01779" lon="6.26116">
        <ele>947</ele>
        <time>2013-07-27T11:45:33Z</time>
      </trkpt>
      <trkpt lat="46.01772" lon="6.26106">
        <ele>947</ele>
        <time>2013-07-27T11:45:34Z</time>
      </trkpt>
      <trkpt lat="46.0176" lon="6.26085">
        <ele>947</ele>
        <time>2013-07-27T11:45:36Z</time>
      </trkpt>
      <trkpt lat="46.01753" lon="6.26074">
        <ele>947</ele>
        <time>2013-07-27T11:45:37Z</time>
      </trkpt>
      <trkpt lat="46.0174" lon="6.26054">
        <ele>947</ele>
        <time>2013-07-27T11:45:39Z</time>
      </trkpt>
      <trkpt lat="46.01734" lon="6.26035">
        <ele>947</ele>
        <time>2013-07-27T11:45:41Z</time>
      </trkpt>
      <trkpt lat="46.01734" lon="6.26022">
        <ele>953</ele>
        <time>2013-07-27T11:45:46Z</time>
      </trkpt>
      <trkpt lat="46.01743" lon="6.26006">
        <ele>953</ele>
        <time>2013-07-27T11:45:50Z</time>
      </trkpt>
      <trkpt lat="46.01749" lon="6.25996">
        <ele>953</ele>
        <time>2013-07-27T11:45:52Z</time>
      </trkpt>
      <trkpt lat="46.01754" lon="6.25984">
        <ele>953</ele>
        <time>2013-07-27T11:45:57Z</time>
      </trkpt>
      <trkpt lat="46.01758" lon="6.25969">
        <ele>953</ele>
        <time>2013-07-27T11:46:01Z</time>
      </trkpt>
      <trkpt lat="46.01766" lon="6.25953">
        <ele>953</ele>
        <time>2013-07-27T11:46:04Z</time>
      </trkpt>
      <trkpt lat="46.01773" lon="6.25941">
        <ele>953</ele>
        <time>2013-07-27T11:46:06Z</time>
      </trkpt>
      <trkpt lat="46.01777" lon="6.25929">
        <ele>953</ele>
        <time>2013-07-27T11:46:12Z</time>
      </trkpt>
      <trkpt lat="46.01783" lon="6.25918">
        <ele>953</ele>
        <time>2013-07-27T11:46:22Z</time>
      </trkpt>
      <trkpt lat="46.01792" lon="6.2591">
        <ele>953</ele>
        <time>2013-07-27T11:46:26Z</time>
      </trkpt>
      <trkpt lat="46.01801" lon="6.25897">
        <ele>953</ele>
        <time>2013-07-27T11:46:28Z</time>
      </trkpt>
      <trkpt lat="46.01807" lon="6.25887">
        <ele>953</ele>
        <time>2013-07-27T11:46:30Z</time>
      </trkpt>
      <trkpt lat="46.01817" lon="6.25881">
        <ele>953</ele>
        <time>2013-07-27T11:46:33Z</time>
      </trkpt>
      <trkpt lat="46.01827" lon="6.25881">
        <ele>953</ele>
        <time>2013-07-27T11:46:36Z</time>
      </trkpt>
      <trkpt lat="46.01837" lon="6.25872">
        <ele>953</ele>
        <time>2013-07-27T11:46:38Z</time>
      </trkpt>
      <trkpt lat="46.01852" lon="6.25861">
        <ele>947</ele>
        <time>2013-07-27T11:46:40Z</time>
      </trkpt>
      <trkpt lat="46.01859" lon="6.25853">
        <ele>947</ele>
        <time>2013-07-27T11:46:41Z</time>
      </trkpt>
      <trkpt lat="46.01869" lon="6.2584">
        <ele>947</ele>
        <time>2013-07-27T11:46:43Z</time>
      </trkpt>
      <trkpt lat="46.01878" lon="6.25833">
        <ele>947</ele>
        <time>2013-07-27T11:46:47Z</time>
      </trkpt>
      <trkpt lat="46.01881" lon="6.2582">
        <ele>947</ele>
        <time>2013-07-27T11:46:52Z</time>
      </trkpt>
      <trkpt lat="46.01892" lon="6.2582">
        <ele>942</ele>
        <time>2013-07-27T11:46:55Z</time>
      </trkpt>
      <trkpt lat="46.01903" lon="6.2582">
        <ele>942</ele>
        <time>2013-07-27T11:46:58Z</time>
      </trkpt>
      <trkpt lat="46.01916" lon="6.2582">
        <ele>942</ele>
        <time>2013-07-27T11:47:01Z</time>
      </trkpt>
      <trkpt lat="46.01925" lon="6.25823">
        <ele>942</ele>
        <time>2013-07-27T11:47:03Z</time>
      </trkpt>
      <trkpt lat="46.01937" lon="6.25822">
        <ele>942</ele>
        <time>2013-07-27T11:47:05Z</time>
      </trkpt>
      <trkpt lat="46.0195" lon="6.25815">
        <ele>942</ele>
        <time>2013-07-27T11:47:08Z</time>
      </trkpt>
      <trkpt lat="46.01963" lon="6.25808">
        <ele>935</ele>
        <time>2013-07-27T11:47:10Z</time>
      </trkpt>
      <trkpt lat="46.01975" lon="6.25797">
        <ele>935</ele>
        <time>2013-07-27T11:47:12Z</time>
      </trkpt>
      <trkpt lat="46.01988" lon="6.25787">
        <ele>935</ele>
        <time>2013-07-27T11:47:14Z</time>
      </trkpt>
      <trkpt lat="46.02001" lon="6.25775">
        <ele>930</ele>
        <time>2013-07-27T11:47:16Z</time>
      </trkpt>
      <trkpt lat="46.02013" lon="6.25764">
        <ele>930</ele>
        <time>2013-07-27T11:47:18Z</time>
      </trkpt>
      <trkpt lat="46.02023" lon="6.25757">
        <ele>930</ele>
        <time>2013-07-27T11:47:21Z</time>
      </trkpt>
      <trkpt lat="46.02036" lon="6.2575">
        <ele>930</ele>
        <time>2013-07-27T11:47:26Z</time>
      </trkpt>
      <trkpt lat="46.02047" lon="6.25743">
        <ele>930</ele>
        <time>2013-07-27T11:47:29Z</time>
      </trkpt>
      <trkpt lat="46.02058" lon="6.25736">
        <ele>930</ele>
        <time>2013-07-27T11:47:31Z</time>
      </trkpt>
      <trkpt lat="46.02065" lon="6.25718">
        <ele>930</ele>
        <time>2013-07-27T11:47:34Z</time>
      </trkpt>
      <trkpt lat="46.02065" lon="6.25696">
        <ele>930</ele>
        <time>2013-07-27T11:47:36Z</time>
      </trkpt>
      <trkpt lat="46.02065" lon="6.25675">
        <ele>924</ele>
        <time>2013-07-27T11:47:38Z</time>
      </trkpt>
      <trkpt lat="46.02065" lon="6.25652">
        <ele>918</ele>
        <time>2013-07-27T11:47:40Z</time>
      </trkpt>
      <trkpt lat="46.02066" lon="6.25632">
        <ele>918</ele>
        <time>2013-07-27T11:47:42Z</time>
      </trkpt>
      <trkpt lat="46.02068" lon="6.25612">
        <ele>911</ele>
        <time>2013-07-27T11:47:44Z</time>
      </trkpt>
      <trkpt lat="46.02072" lon="6.25596">
        <ele>911</ele>
        <time>2013-07-27T11:47:46Z</time>
      </trkpt>
      <trkpt lat="46.02078" lon="6.25575">
        <ele>911</ele>
        <time>2013-07-27T11:47:48Z</time>
      </trkpt>
      <trkpt lat="46.0208" lon="6.25562">
        <ele>906</ele>
        <time>2013-07-27T11:47:49Z</time>
      </trkpt>
      <trkpt lat="46.02083" lon="6.25545">
        <ele>906</ele>
        <time>2013-07-27T11:47:50Z</time>
      </trkpt>
      <trkpt lat="46.02084" lon="6.25528">
        <ele>906</ele>
        <time>2013-07-27T11:47:51Z</time>
      </trkpt>
      <trkpt lat="46.02085" lon="6.25509">
        <ele>906</ele>
        <time>2013-07-27T11:47:52Z</time>
      </trkpt>
      <trkpt lat="46.02085" lon="6.25489">
        <ele>906</ele>
        <time>2013-07-27T11:47:53Z</time>
      </trkpt>
      <trkpt lat="46.02086" lon="6.2547">
        <ele>906</ele>
        <time>2013-07-27T11:47:54Z</time>
      </trkpt>
      <trkpt lat="46.02087" lon="6.25453">
        <ele>906</ele>
        <time>2013-07-27T11:47:55Z</time>
      </trkpt>
      <trkpt lat="46.02088" lon="6.25436">
        <ele>906</ele>
        <time>2013-07-27T11:47:56Z</time>
      </trkpt>
      <trkpt lat="46.0209" lon="6.25418">
        <ele>901</ele>
        <time>2013-07-27T11:47:57Z</time>
      </trkpt>
      <trkpt lat="46.02091" lon="6.25399">
        <ele>901</ele>
        <time>2013-07-27T11:47:58Z</time>
      </trkpt>
      <trkpt lat="46.02092" lon="6.25383">
        <ele>901</ele>
        <time>2013-07-27T11:47:59Z</time>
      </trkpt>
      <trkpt lat="46.02093" lon="6.25368">
        <ele>901</ele>
        <time>2013-07-27T11:48:00Z</time>
      </trkpt>
      <trkpt lat="46.02093" lon="6.25352">
        <ele>901</ele>
        <time>2013-07-27T11:48:01Z</time>
      </trkpt>
      <trkpt lat="46.02093" lon="6.25338">
        <ele>901</ele>
        <time>2013-07-27T11:48:02Z</time>
      </trkpt>
      <trkpt lat="46.02092" lon="6.25323">
        <ele>895</ele>
        <time>2013-07-27T11:48:03Z</time>
      </trkpt>
      <trkpt lat="46.0209" lon="6.25307">
        <ele>895</ele>
        <time>2013-07-27T11:48:04Z</time>
      </trkpt>
      <trkpt lat="46.02087" lon="6.25292">
        <ele>895</ele>
        <time>2013-07-27T11:48:05Z</time>
      </trkpt>
      <trkpt lat="46.02082" lon="6.25279">
        <ele>895</ele>
        <time>2013-07-27T11:48:06Z</time>
      </trkpt>
      <trkpt lat="46.02078" lon="6.25264">
        <ele>890</ele>
        <time>2013-07-27T11:48:07Z</time>
      </trkpt>
      <trkpt lat="46.02077" lon="6.2525">
        <ele>890</ele>
        <time>2013-07-27T11:48:08Z</time>
      </trkpt>
      <trkpt lat="46.02077" lon="6.25227">
        <ele>890</ele>
        <time>2013-07-27T11:48:10Z</time>
      </trkpt>
      <trkpt lat="46.02078" lon="6.25213">
        <ele>890</ele>
        <time>2013-07-27T11:48:12Z</time>
      </trkpt>
      <trkpt lat="46.02081" lon="6.25226">
        <ele>883</ele>
        <time>2013-07-27T11:48:51Z</time>
      </trkpt>
      <trkpt lat="46.02083" lon="6.25241">
        <ele>883</ele>
        <time>2013-07-27T11:48:54Z</time>
      </trkpt>
      <trkpt lat="46.02092" lon="6.25247">
        <ele>883</ele>
        <time>2013-07-27T11:48:56Z</time>
      </trkpt>
      <trkpt lat="46.02106" lon="6.25255">
        <ele>883</ele>
        <time>2013-07-27T11:48:58Z</time>
      </trkpt>
      <trkpt lat="46.02122" lon="6.25265">
        <ele>883</ele>
        <time>2013-07-27T11:49:00Z</time>
      </trkpt>
      <trkpt lat="46.02135" lon="6.25272">
        <ele>883</ele>
        <time>2013-07-27T11:49:02Z</time>
      </trkpt>
      <trkpt lat="46.02147" lon="6.25278">
        <ele>883</ele>
        <time>2013-07-27T11:49:04Z</time>
      </trkpt>
      <trkpt lat="46.0216" lon="6.25285">
        <ele>883</ele>
        <time>2013-07-27T11:49:06Z</time>
      </trkpt>
      <trkpt lat="46.02171" lon="6.25294">
        <ele>883</ele>
        <time>2013-07-27T11:49:08Z</time>
      </trkpt>
      <trkpt lat="46.02182" lon="6.25305">
        <ele>883</ele>
        <time>2013-07-27T11:49:10Z</time>
      </trkpt>
      <trkpt lat="46.02196" lon="6.25314">
        <ele>883</ele>
        <time>2013-07-27T11:49:12Z</time>
      </trkpt>
      <trkpt lat="46.02206" lon="6.25322">
        <ele>883</ele>
        <time>2013-07-27T11:49:14Z</time>
      </trkpt>
      <trkpt lat="46.02215" lon="6.25329">
        <ele>883</ele>
        <time>2013-07-27T11:49:16Z</time>
      </trkpt>
      <trkpt lat="46.02226" lon="6.25329">
        <ele>889</ele>
        <time>2013-07-27T11:49:18Z</time>
      </trkpt>
      <trkpt lat="46.02237" lon="6.25331">
        <ele>889</ele>
        <time>2013-07-27T11:49:22Z</time>
      </trkpt>
      <trkpt lat="46.02243" lon="6.25342">
        <ele>895</ele>
        <time>2013-07-27T11:49:37Z</time>
      </trkpt>
      <trkpt lat="46.02253" lon="6.25361">
        <ele>895</ele>
        <time>2013-07-27T11:49:40Z</time>
      </trkpt>
      <trkpt lat="46.02259" lon="6.25372">
        <ele>895</ele>
        <time>2013-07-27T11:49:41Z</time>
      </trkpt>
      <trkpt lat="46.02266" lon="6.25382">
        <ele>895</ele>
        <time>2013-07-27T11:49:42Z</time>
      </trkpt>
      <trkpt lat="46.02272" lon="6.25393">
        <ele>889</ele>
        <time>2013-07-27T11:49:43Z</time>
      </trkpt>
      <trkpt lat="46.02277" lon="6.25407">
        <ele>889</ele>
        <time>2013-07-27T11:49:44Z</time>
      </trkpt>
      <trkpt lat="46.0228" lon="6.25422">
        <ele>889</ele>
        <time>2013-07-27T11:49:45Z</time>
      </trkpt>
      <trkpt lat="46.02282" lon="6.25437">
        <ele>889</ele>
        <time>2013-07-27T11:49:46Z</time>
      </trkpt>
      <trkpt lat="46.02284" lon="6.25454">
        <ele>889</ele>
        <time>2013-07-27T11:49:47Z</time>
      </trkpt>
      <trkpt lat="46.02287" lon="6.25474">
        <ele>883</ele>
        <time>2013-07-27T11:49:48Z</time>
      </trkpt>
      <trkpt lat="46.02292" lon="6.25494">
        <ele>883</ele>
        <time>2013-07-27T11:49:49Z</time>
      </trkpt>
      <trkpt lat="46.02297" lon="6.25515">
        <ele>883</ele>
        <time>2013-07-27T11:49:50Z</time>
      </trkpt>
      <trkpt lat="46.02302" lon="6.25532">
        <ele>883</ele>
        <time>2013-07-27T11:49:51Z</time>
      </trkpt>
      <trkpt lat="46.02304" lon="6.25549">
        <ele>883</ele>
        <time>2013-07-27T11:49:52Z</time>
      </trkpt>
      <trkpt lat="46.02307" lon="6.25566">
        <ele>883</ele>
        <time>2013-07-27T11:49:53Z</time>
      </trkpt>
      <trkpt lat="46.02312" lon="6.25583">
        <ele>883</ele>
        <time>2013-07-27T11:49:54Z</time>
      </trkpt>
      <trkpt lat="46.02314" lon="6.25598">
        <ele>883</ele>
        <time>2013-07-27T11:49:55Z</time>
      </trkpt>
      <trkpt lat="46.02316" lon="6.25612">
        <ele>883</ele>
        <time>2013-07-27T11:49:56Z</time>
      </trkpt>
      <trkpt lat="46.02323" lon="6.25634">
        <ele>883</ele>
        <time>2013-07-27T11:49:58Z</time>
      </trkpt>
      <trkpt lat="46.02336" lon="6.25651">
        <ele>883</ele>
        <time>2013-07-27T11:50:00Z</time>
      </trkpt>
      <trkpt lat="46.02344" lon="6.25659">
        <ele>883</ele>
        <time>2013-07-27T11:50:01Z</time>
      </trkpt>
      <trkpt lat="46.02352" lon="6.25669">
        <ele>883</ele>
        <time>2013-07-27T11:50:02Z</time>
      </trkpt>
      <trkpt lat="46.0236" lon="6.25683">
        <ele>883</ele>
        <time>2013-07-27T11:50:03Z</time>
      </trkpt>
      <trkpt lat="46.02368" lon="6.25699">
        <ele>883</ele>
        <time>2013-07-27T11:50:04Z</time>
      </trkpt>
      <trkpt lat="46.02375" lon="6.25717">
        <ele>883</ele>
        <time>2013-07-27T11:50:05Z</time>
      </trkpt>
      <trkpt lat="46.02383" lon="6.25733">
        <ele>883</ele>
        <time>2013-07-27T11:50:06Z</time>
      </trkpt>
      <trkpt lat="46.0239" lon="6.25749">
        <ele>883</ele>
        <time>2013-07-27T11:50:07Z</time>
      </trkpt>
      <trkpt lat="46.02397" lon="6.25762">
        <ele>883</ele>
        <time>2013-07-27T11:50:08Z</time>
      </trkpt>
      <trkpt lat="46.02404" lon="6.25774">
        <ele>883</ele>
        <time>2013-07-27T11:50:09Z</time>
      </trkpt>
      <trkpt lat="46.02409" lon="6.25785">
        <ele>883</ele>
        <time>2013-07-27T11:50:10Z</time>
      </trkpt>
      <trkpt lat="46.02411" lon="6.25801">
        <ele>883</ele>
        <time>2013-07-27T11:50:11Z</time>
      </trkpt>
      <trkpt lat="46.02408" lon="6.25817">
        <ele>883</ele>
        <time>2013-07-27T11:50:12Z</time>
      </trkpt>
      <trkpt lat="46.02403" lon="6.25835">
        <ele>889</ele>
        <time>2013-07-27T11:50:13Z</time>
      </trkpt>
      <trkpt lat="46.02399" lon="6.25851">
        <ele>889</ele>
        <time>2013-07-27T11:50:14Z</time>
      </trkpt>
      <trkpt lat="46.02397" lon="6.25866">
        <ele>889</ele>
        <time>2013-07-27T11:50:15Z</time>
      </trkpt>
      <trkpt lat="46.02395" lon="6.25881">
        <ele>889</ele>
        <time>2013-07-27T11:50:16Z</time>
      </trkpt>
      <trkpt lat="46.02398" lon="6.25925">
        <ele>889</ele>
        <time>2013-07-27T11:50:19Z</time>
      </trkpt>
      <trkpt lat="46.02399" lon="6.25947">
        <ele>889</ele>
        <time>2013-07-27T11:50:20Z</time>
      </trkpt>
      <trkpt lat="46.024" lon="6.25962">
        <ele>889</ele>
        <time>2013-07-27T11:50:21Z</time>
      </trkpt>
      <trkpt lat="46.024" lon="6.25976">
        <ele>889</ele>
        <time>2013-07-27T11:50:22Z</time>
      </trkpt>
      <trkpt lat="46.02403" lon="6.25996">
        <ele>898</ele>
        <time>2013-07-27T11:50:24Z</time>
      </trkpt>
      <trkpt lat="46.02408" lon="6.26017">
        <ele>898</ele>
        <time>2013-07-27T11:50:26Z</time>
      </trkpt>
      <trkpt lat="46.02416" lon="6.26023">
        <ele>898</ele>
        <time>2013-07-27T11:50:27Z</time>
      </trkpt>
      <trkpt lat="46.02425" lon="6.26033">
        <ele>898</ele>
        <time>2013-07-27T11:50:28Z</time>
      </trkpt>
      <trkpt lat="46.02433" lon="6.2604">
        <ele>898</ele>
        <time>2013-07-27T11:50:29Z</time>
      </trkpt>
      <trkpt lat="46.02443" lon="6.26045">
        <ele>898</ele>
        <time>2013-07-27T11:50:30Z</time>
      </trkpt>
      <trkpt lat="46.02451" lon="6.26053">
        <ele>898</ele>
        <time>2013-07-27T11:50:31Z</time>
      </trkpt>
      <trkpt lat="46.02459" lon="6.26061">
        <ele>898</ele>
        <time>2013-07-27T11:50:32Z</time>
      </trkpt>
      <trkpt lat="46.02467" lon="6.2607">
        <ele>893</ele>
        <time>2013-07-27T11:50:33Z</time>
      </trkpt>
      <trkpt lat="46.02475" lon="6.26083">
        <ele>893</ele>
        <time>2013-07-27T11:50:34Z</time>
      </trkpt>
      <trkpt lat="46.02481" lon="6.26094">
        <ele>893</ele>
        <time>2013-07-27T11:50:35Z</time>
      </trkpt>
      <trkpt lat="46.02487" lon="6.26105">
        <ele>893</ele>
        <time>2013-07-27T11:50:36Z</time>
      </trkpt>
      <trkpt lat="46.02495" lon="6.26125">
        <ele>893</ele>
        <time>2013-07-27T11:50:38Z</time>
      </trkpt>
      <trkpt lat="46.02501" lon="6.26146">
        <ele>893</ele>
        <time>2013-07-27T11:50:40Z</time>
      </trkpt>
      <trkpt lat="46.02506" lon="6.2617">
        <ele>893</ele>
        <time>2013-07-27T11:50:42Z</time>
      </trkpt>
      <trkpt lat="46.02509" lon="6.2619">
        <ele>893</ele>
        <time>2013-07-27T11:50:44Z</time>
      </trkpt>
      <trkpt lat="46.02515" lon="6.26215">
        <ele>893</ele>
        <time>2013-07-27T11:50:46Z</time>
      </trkpt>
      <trkpt lat="46.02518" lon="6.26236">
        <ele>899</ele>
        <time>2013-07-27T11:50:48Z</time>
      </trkpt>
      <trkpt lat="46.02521" lon="6.26256">
        <ele>899</ele>
        <time>2013-07-27T11:50:50Z</time>
      </trkpt>
      <trkpt lat="46.0252" lon="6.26276">
        <ele>899</ele>
        <time>2013-07-27T11:50:52Z</time>
      </trkpt>
      <trkpt lat="46.02522" lon="6.26296">
        <ele>899</ele>
        <time>2013-07-27T11:50:54Z</time>
      </trkpt>
      <trkpt lat="46.02527" lon="6.26311">
        <ele>899</ele>
        <time>2013-07-27T11:50:56Z</time>
      </trkpt>
      <trkpt lat="46.0253" lon="6.26324">
        <ele>899</ele>
        <time>2013-07-27T11:50:59Z</time>
      </trkpt>
      <trkpt lat="46.0254" lon="6.26324">
        <ele>904</ele>
        <time>2013-07-27T11:51:10Z</time>
      </trkpt>
      <trkpt lat="46.02548" lon="6.26331">
        <ele>904</ele>
        <time>2013-07-27T11:51:32Z</time>
      </trkpt>
      <trkpt lat="46.02555" lon="6.26349">
        <ele>898</ele>
        <time>2013-07-27T11:51:34Z</time>
      </trkpt>
      <trkpt lat="46.02558" lon="6.26361">
        <ele>898</ele>
        <time>2013-07-27T11:51:35Z</time>
      </trkpt>
      <trkpt lat="46.02562" lon="6.26376">
        <ele>898</ele>
        <time>2013-07-27T11:51:36Z</time>
      </trkpt>
      <trkpt lat="46.02565" lon="6.26393">
        <ele>898</ele>
        <time>2013-07-27T11:51:37Z</time>
      </trkpt>
      <trkpt lat="46.02569" lon="6.26411">
        <ele>898</ele>
        <time>2013-07-27T11:51:38Z</time>
      </trkpt>
      <trkpt lat="46.02572" lon="6.26431">
        <ele>898</ele>
        <time>2013-07-27T11:51:39Z</time>
      </trkpt>
      <trkpt lat="46.02575" lon="6.26449">
        <ele>898</ele>
        <time>2013-07-27T11:51:40Z</time>
      </trkpt>
      <trkpt lat="46.02576" lon="6.26467">
        <ele>898</ele>
        <time>2013-07-27T11:51:41Z</time>
      </trkpt>
      <trkpt lat="46.02578" lon="6.26485">
        <ele>898</ele>
        <time>2013-07-27T11:51:42Z</time>
      </trkpt>
      <trkpt lat="46.02581" lon="6.26501">
        <ele>898</ele>
        <time>2013-07-27T11:51:43Z</time>
      </trkpt>
      <trkpt lat="46.02585" lon="6.26517">
        <ele>898</ele>
        <time>2013-07-27T11:51:44Z</time>
      </trkpt>
      <trkpt lat="46.02588" lon="6.26531">
        <ele>898</ele>
        <time>2013-07-27T11:51:45Z</time>
      </trkpt>
      <trkpt lat="46.02593" lon="6.26544">
        <ele>898</ele>
        <time>2013-07-27T11:51:46Z</time>
      </trkpt>
      <trkpt lat="46.026" lon="6.26562">
        <ele>898</ele>
        <time>2013-07-27T11:51:48Z</time>
      </trkpt>
      <trkpt lat="46.026" lon="6.26578">
        <ele>898</ele>
        <time>2013-07-27T11:51:52Z</time>
      </trkpt>
      <trkpt lat="46.02603" lon="6.26593">
        <ele>898</ele>
        <time>2013-07-27T11:51:59Z</time>
      </trkpt>
      <trkpt lat="46.02605" lon="6.26606">
        <ele>898</ele>
        <time>2013-07-27T11:52:01Z</time>
      </trkpt>
      <trkpt lat="46.02605" lon="6.2662">
        <ele>898</ele>
        <time>2013-07-27T11:52:04Z</time>
      </trkpt>
      <trkpt lat="46.02611" lon="6.26632">
        <ele>898</ele>
        <time>2013-07-27T11:52:10Z</time>
      </trkpt>
      <trkpt lat="46.02611" lon="6.2665">
        <ele>898</ele>
        <time>2013-07-27T11:52:19Z</time>
      </trkpt>
      <trkpt lat="46.02611" lon="6.26668">
        <ele>904</ele>
        <time>2013-07-27T11:52:21Z</time>
      </trkpt>
      <trkpt lat="46.02609" lon="6.26694">
        <ele>904</ele>
        <time>2013-07-27T11:52:23Z</time>
      </trkpt>
      <trkpt lat="46.02607" lon="6.26709">
        <ele>904</ele>
        <time>2013-07-27T11:52:24Z</time>
      </trkpt>
      <trkpt lat="46.02603" lon="6.26723">
        <ele>904</ele>
        <time>2013-07-27T11:52:25Z</time>
      </trkpt>
      <trkpt lat="46.02598" lon="6.26736">
        <ele>904</ele>
        <time>2013-07-27T11:52:26Z</time>
      </trkpt>
      <trkpt lat="46.02596" lon="6.26749">
        <ele>904</ele>
        <time>2013-07-27T11:52:27Z</time>
      </trkpt>
      <trkpt lat="46.02597" lon="6.26765">
        <ele>904</ele>
        <time>2013-07-27T11:52:29Z</time>
      </trkpt>
      <trkpt lat="46.02606" lon="6.2678">
        <ele>904</ele>
        <time>2013-07-27T11:52:31Z</time>
      </trkpt>
      <trkpt lat="46.02613" lon="6.26799">
        <ele>909</ele>
        <time>2013-07-27T11:52:33Z</time>
      </trkpt>
      <trkpt lat="46.02616" lon="6.26811">
        <ele>909</ele>
        <time>2013-07-27T11:52:34Z</time>
      </trkpt>
      <trkpt lat="46.02623" lon="6.26835">
        <ele>909</ele>
        <time>2013-07-27T11:52:36Z</time>
      </trkpt>
      <trkpt lat="46.02629" lon="6.26855">
        <ele>909</ele>
        <time>2013-07-27T11:52:38Z</time>
      </trkpt>
      <trkpt lat="46.02643" lon="6.26871">
        <ele>904</ele>
        <time>2013-07-27T11:52:40Z</time>
      </trkpt>
      <trkpt lat="46.02653" lon="6.26879">
        <ele>904</ele>
        <time>2013-07-27T11:52:41Z</time>
      </trkpt>
      <trkpt lat="46.0266" lon="6.26889">
        <ele>904</ele>
        <time>2013-07-27T11:52:42Z</time>
      </trkpt>
      <trkpt lat="46.02667" lon="6.26901">
        <ele>899</ele>
        <time>2013-07-27T11:52:43Z</time>
      </trkpt>
      <trkpt lat="46.02674" lon="6.26912">
        <ele>899</ele>
        <time>2013-07-27T11:52:44Z</time>
      </trkpt>
      <trkpt lat="46.0268" lon="6.26924">
        <ele>899</ele>
        <time>2013-07-27T11:52:45Z</time>
      </trkpt>
      <trkpt lat="46.0269" lon="6.26933">
        <ele>899</ele>
        <time>2013-07-27T11:52:46Z</time>
      </trkpt>
      <trkpt lat="46.02697" lon="6.26945">
        <ele>899</ele>
        <time>2013-07-27T11:52:47Z</time>
      </trkpt>
      <trkpt lat="46.02705" lon="6.26955">
        <ele>899</ele>
        <time>2013-07-27T11:52:48Z</time>
      </trkpt>
      <trkpt lat="46.02717" lon="6.26966">
        <ele>899</ele>
        <time>2013-07-27T11:52:50Z</time>
      </trkpt>
      <trkpt lat="46.02729" lon="6.26983">
        <ele>899</ele>
        <time>2013-07-27T11:52:52Z</time>
      </trkpt>
      <trkpt lat="46.02741" lon="6.26998">
        <ele>905</ele>
        <time>2013-07-27T11:52:54Z</time>
      </trkpt>
      <trkpt lat="46.02752" lon="6.27013">
        <ele>905</ele>
        <time>2013-07-27T11:52:56Z</time>
      </trkpt>
      <trkpt lat="46.02764" lon="6.27027">
        <ele>896</ele>
        <time>2013-07-27T11:52:58Z</time>
      </trkpt>
      <trkpt lat="46.02772" lon="6.27034">
        <ele>896</ele>
        <time>2013-07-27T11:52:59Z</time>
      </trkpt>
      <trkpt lat="46.02781" lon="6.27041">
        <ele>896</ele>
        <time>2013-07-27T11:53:00Z</time>
      </trkpt>
      <trkpt lat="46.02793" lon="6.27052">
        <ele>896</ele>
        <time>2013-07-27T11:53:01Z</time>
      </trkpt>
      <trkpt lat="46.02802" lon="6.2706">
        <ele>896</ele>
        <time>2013-07-27T11:53:02Z</time>
      </trkpt>
      <trkpt lat="46.02817" lon="6.2707">
        <ele>896</ele>
        <time>2013-07-27T11:53:04Z</time>
      </trkpt>
      <trkpt lat="46.02831" lon="6.27074">
        <ele>890</ele>
        <time>2013-07-27T11:53:06Z</time>
      </trkpt>
      <trkpt lat="46.02849" lon="6.27065">
        <ele>890</ele>
        <time>2013-07-27T11:53:08Z</time>
      </trkpt>
      <trkpt lat="46.0286" lon="6.2706">
        <ele>890</ele>
        <time>2013-07-27T11:53:09Z</time>
      </trkpt>
      <trkpt lat="46.02869" lon="6.27056">
        <ele>890</ele>
        <time>2013-07-27T11:53:10Z</time>
      </trkpt>
      <trkpt lat="46.02879" lon="6.27052">
        <ele>890</ele>
        <time>2013-07-27T11:53:12Z</time>
      </trkpt>
      <trkpt lat="46.0289" lon="6.27049">
        <ele>890</ele>
        <time>2013-07-27T11:53:15Z</time>
      </trkpt>
      <trkpt lat="46.02899" lon="6.27054">
        <ele>890</ele>
        <time>2013-07-27T11:53:17Z</time>
      </trkpt>
      <trkpt lat="46.02909" lon="6.27056">
        <ele>890</ele>
        <time>2013-07-27T11:53:19Z</time>
      </trkpt>
      <trkpt lat="46.02919" lon="6.27061">
        <ele>890</ele>
        <time>2013-07-27T11:53:21Z</time>
      </trkpt>
      <trkpt lat="46.02934" lon="6.27075">
        <ele>890</ele>
        <time>2013-07-27T11:53:23Z</time>
      </trkpt>
      <trkpt lat="46.02947" lon="6.27088">
        <ele>890</ele>
        <time>2013-07-27T11:53:25Z</time>
      </trkpt>
      <trkpt lat="46.02961" lon="6.27096">
        <ele>890</ele>
        <time>2013-07-27T11:53:27Z</time>
      </trkpt>
      <trkpt lat="46.02973" lon="6.271">
        <ele>890</ele>
        <time>2013-07-27T11:53:29Z</time>
      </trkpt>
      <trkpt lat="46.02985" lon="6.27103">
        <ele>890</ele>
        <time>2013-07-27T11:53:31Z</time>
      </trkpt>
      <trkpt lat="46.02997" lon="6.27103">
        <ele>890</ele>
        <time>2013-07-27T11:53:33Z</time>
      </trkpt>
      <trkpt lat="46.03006" lon="6.27103">
        <ele>890</ele>
        <time>2013-07-27T11:53:36Z</time>
      </trkpt>
      <trkpt lat="46.03014" lon="6.27118">
        <ele>890</ele>
        <time>2013-07-27T11:53:48Z</time>
      </trkpt>
      <trkpt lat="46.03018" lon="6.2714">
        <ele>890</ele>
        <time>2013-07-27T11:53:50Z</time>
      </trkpt>
      <trkpt lat="46.0302" lon="6.27162">
        <ele>890</ele>
        <time>2013-07-27T11:53:52Z</time>
      </trkpt>
      <trkpt lat="46.03021" lon="6.2718">
        <ele>890</ele>
        <time>2013-07-27T11:53:54Z</time>
      </trkpt>
      <trkpt lat="46.03023" lon="6.27201">
        <ele>885</ele>
        <time>2013-07-27T11:53:56Z</time>
      </trkpt>
      <trkpt lat="46.03027" lon="6.27226">
        <ele>885</ele>
        <time>2013-07-27T11:53:58Z</time>
      </trkpt>
      <trkpt lat="46.0303" lon="6.2724">
        <ele>885</ele>
        <time>2013-07-27T11:53:59Z</time>
      </trkpt>
      <trkpt lat="46.03033" lon="6.27255">
        <ele>885</ele>
        <time>2013-07-27T11:54:00Z</time>
      </trkpt>
      <trkpt lat="46.03037" lon="6.27268">
        <ele>885</ele>
        <time>2013-07-27T11:54:01Z</time>
      </trkpt>
      <trkpt lat="46.03041" lon="6.27282">
        <ele>879</ele>
        <time>2013-07-27T11:54:02Z</time>
      </trkpt>
      <trkpt lat="46.03047" lon="6.27304">
        <ele>879</ele>
        <time>2013-07-27T11:54:04Z</time>
      </trkpt>
      <trkpt lat="46.03049" lon="6.27318">
        <ele>879</ele>
        <time>2013-07-27T11:54:06Z</time>
      </trkpt>
      <trkpt lat="46.03058" lon="6.27325">
        <ele>879</ele>
        <time>2013-07-27T11:54:25Z</time>
      </trkpt>
      <trkpt lat="46.03072" lon="6.27333">
        <ele>871</ele>
        <time>2013-07-27T11:54:28Z</time>
      </trkpt>
      <trkpt lat="46.03082" lon="6.27336">
        <ele>871</ele>
        <time>2013-07-27T11:54:29Z</time>
      </trkpt>
      <trkpt lat="46.03093" lon="6.27339">
        <ele>871</ele>
        <time>2013-07-27T11:54:30Z</time>
      </trkpt>
      <trkpt lat="46.03117" lon="6.2733">
        <ele>871</ele>
        <time>2013-07-27T11:54:31Z</time>
      </trkpt>
      <trkpt lat="46.03136" lon="6.27322">
        <ele>871</ele>
        <time>2013-07-27T11:54:32Z</time>
      </trkpt>
      <trkpt lat="46.03152" lon="6.27316">
        <ele>871</ele>
        <time>2013-07-27T11:54:33Z</time>
      </trkpt>
      <trkpt lat="46.03167" lon="6.27312">
        <ele>871</ele>
        <time>2013-07-27T11:54:34Z</time>
      </trkpt>
      <trkpt lat="46.03183" lon="6.27306">
        <ele>871</ele>
        <time>2013-07-27T11:54:35Z</time>
      </trkpt>
      <trkpt lat="46.03199" lon="6.27303">
        <ele>871</ele>
        <time>2013-07-27T11:54:36Z</time>
      </trkpt>
      <trkpt lat="46.03215" lon="6.27302">
        <ele>871</ele>
        <time>2013-07-27T11:54:37Z</time>
      </trkpt>
      <trkpt lat="46.0323" lon="6.27301">
        <ele>871</ele>
        <time>2013-07-27T11:54:38Z</time>
      </trkpt>
      <trkpt lat="46.03246" lon="6.27302">
        <ele>871</ele>
        <time>2013-07-27T11:54:39Z</time>
      </trkpt>
      <trkpt lat="46.0326" lon="6.27303">
        <ele>871</ele>
        <time>2013-07-27T11:54:40Z</time>
      </trkpt>
      <trkpt lat="46.03274" lon="6.27304">
        <ele>871</ele>
        <time>2013-07-27T11:54:41Z</time>
      </trkpt>
      <trkpt lat="46.03286" lon="6.27308">
        <ele>871</ele>
        <time>2013-07-27T11:54:42Z</time>
      </trkpt>
      <trkpt lat="46.03299" lon="6.27313">
        <ele>871</ele>
        <time>2013-07-27T11:54:43Z</time>
      </trkpt>
      <trkpt lat="46.03312" lon="6.27321">
        <ele>871</ele>
        <time>2013-07-27T11:54:44Z</time>
      </trkpt>
      <trkpt lat="46.03324" lon="6.27329">
        <ele>871</ele>
        <time>2013-07-27T11:54:45Z</time>
      </trkpt>
      <trkpt lat="46.03338" lon="6.27335">
        <ele>871</ele>
        <time>2013-07-27T11:54:46Z</time>
      </trkpt>
      <trkpt lat="46.03352" lon="6.27341">
        <ele>871</ele>
        <time>2013-07-27T11:54:47Z</time>
      </trkpt>
      <trkpt lat="46.03366" lon="6.27347">
        <ele>871</ele>
        <time>2013-07-27T11:54:48Z</time>
      </trkpt>
      <trkpt lat="46.03378" lon="6.27351">
        <ele>871</ele>
        <time>2013-07-27T11:54:49Z</time>
      </trkpt>
      <trkpt lat="46.0339" lon="6.27356">
        <ele>871</ele>
        <time>2013-07-27T11:54:50Z</time>
      </trkpt>
      <trkpt lat="46.03399" lon="6.27361">
        <ele>871</ele>
        <time>2013-07-27T11:54:51Z</time>
      </trkpt>
      <trkpt lat="46.03414" lon="6.27369">
        <ele>871</ele>
        <time>2013-07-27T11:54:53Z</time>
      </trkpt>
      <trkpt lat="46.03426" lon="6.27376">
        <ele>871</ele>
        <time>2013-07-27T11:54:55Z</time>
      </trkpt>
      <trkpt lat="46.03436" lon="6.27389">
        <ele>871</ele>
        <time>2013-07-27T11:54:57Z</time>
      </trkpt>
      <trkpt lat="46.03441" lon="6.27405">
        <ele>871</ele>
        <time>2013-07-27T11:54:59Z</time>
      </trkpt>
      <trkpt lat="46.03443" lon="6.27421">
        <ele>871</ele>
        <time>2013-07-27T11:55:01Z</time>
      </trkpt>
      <trkpt lat="46.03448" lon="6.27435">
        <ele>871</ele>
        <time>2013-07-27T11:55:03Z</time>
      </trkpt>
      <trkpt lat="46.03457" lon="6.27448">
        <ele>871</ele>
        <time>2013-07-27T11:55:05Z</time>
      </trkpt>
      <trkpt lat="46.03463" lon="6.27459">
        <ele>871</ele>
        <time>2013-07-27T11:55:06Z</time>
      </trkpt>
      <trkpt lat="46.0347" lon="6.27469">
        <ele>871</ele>
        <time>2013-07-27T11:55:07Z</time>
      </trkpt>
      <trkpt lat="46.03476" lon="6.2748">
        <ele>871</ele>
        <time>2013-07-27T11:55:08Z</time>
      </trkpt>
      <trkpt lat="46.03485" lon="6.27498">
        <ele>871</ele>
        <time>2013-07-27T11:55:10Z</time>
      </trkpt>
      <trkpt lat="46.03489" lon="6.27509">
        <ele>871</ele>
        <time>2013-07-27T11:55:12Z</time>
      </trkpt>
      <trkpt lat="46.03497" lon="6.27524">
        <ele>871</ele>
        <time>2013-07-27T11:55:15Z</time>
      </trkpt>
      <trkpt lat="46.03503" lon="6.27538">
        <ele>866</ele>
        <time>2013-07-27T11:55:17Z</time>
      </trkpt>
      <trkpt lat="46.03509" lon="6.27555">
        <ele>866</ele>
        <time>2013-07-27T11:55:19Z</time>
      </trkpt>
      <trkpt lat="46.03517" lon="6.27573">
        <ele>866</ele>
        <time>2013-07-27T11:55:21Z</time>
      </trkpt>
      <trkpt lat="46.03525" lon="6.27588">
        <ele>866</ele>
        <time>2013-07-27T11:55:23Z</time>
      </trkpt>
      <trkpt lat="46.03531" lon="6.27604">
        <ele>859</ele>
        <time>2013-07-27T11:55:25Z</time>
      </trkpt>
      <trkpt lat="46.0354" lon="6.2762">
        <ele>859</ele>
        <time>2013-07-27T11:55:27Z</time>
      </trkpt>
      <trkpt lat="46.03548" lon="6.27634">
        <ele>859</ele>
        <time>2013-07-27T11:55:29Z</time>
      </trkpt>
      <trkpt lat="46.0356" lon="6.27648">
        <ele>859</ele>
        <time>2013-07-27T11:55:31Z</time>
      </trkpt>
      <trkpt lat="46.03571" lon="6.27658">
        <ele>853</ele>
        <time>2013-07-27T11:55:33Z</time>
      </trkpt>
      <trkpt lat="46.03579" lon="6.27666">
        <ele>853</ele>
        <time>2013-07-27T11:55:35Z</time>
      </trkpt>
      <trkpt lat="46.03593" lon="6.2767">
        <ele>853</ele>
        <time>2013-07-27T11:55:39Z</time>
      </trkpt>
      <trkpt lat="46.03604" lon="6.27678">
        <ele>847</ele>
        <time>2013-07-27T11:55:41Z</time>
      </trkpt>
      <trkpt lat="46.03619" lon="6.27688">
        <ele>847</ele>
        <time>2013-07-27T11:55:43Z</time>
      </trkpt>
      <trkpt lat="46.03635" lon="6.277">
        <ele>847</ele>
        <time>2013-07-27T11:55:45Z</time>
      </trkpt>
      <trkpt lat="46.03649" lon="6.27707">
        <ele>847</ele>
        <time>2013-07-27T11:55:47Z</time>
      </trkpt>
      <trkpt lat="46.0366" lon="6.27712">
        <ele>847</ele>
        <time>2013-07-27T11:55:49Z</time>
      </trkpt>
      <trkpt lat="46.03673" lon="6.2772">
        <ele>842</ele>
        <time>2013-07-27T11:55:51Z</time>
      </trkpt>
      <trkpt lat="46.03687" lon="6.27731">
        <ele>842</ele>
        <time>2013-07-27T11:55:53Z</time>
      </trkpt>
      <trkpt lat="46.03698" lon="6.27743">
        <ele>842</ele>
        <time>2013-07-27T11:55:55Z</time>
      </trkpt>
      <trkpt lat="46.03708" lon="6.27759">
        <ele>842</ele>
        <time>2013-07-27T11:55:57Z</time>
      </trkpt>
      <trkpt lat="46.03712" lon="6.27774">
        <ele>842</ele>
        <time>2013-07-27T11:55:59Z</time>
      </trkpt>
      <trkpt lat="46.03715" lon="6.27787">
        <ele>842</ele>
        <time>2013-07-27T11:56:02Z</time>
      </trkpt>
      <trkpt lat="46.03711" lon="6.278">
        <ele>850</ele>
        <time>2013-07-27T11:56:23Z</time>
      </trkpt>
      <trkpt lat="46.03712" lon="6.27821">
        <ele>850</ele>
        <time>2013-07-27T11:56:26Z</time>
      </trkpt>
      <trkpt lat="46.03714" lon="6.27843">
        <ele>850</ele>
        <time>2013-07-27T11:56:28Z</time>
      </trkpt>
      <trkpt lat="46.03718" lon="6.27872">
        <ele>844</ele>
        <time>2013-07-27T11:56:30Z</time>
      </trkpt>
      <trkpt lat="46.03722" lon="6.27887">
        <ele>844</ele>
        <time>2013-07-27T11:56:31Z</time>
      </trkpt>
      <trkpt lat="46.03724" lon="6.27903">
        <ele>844</ele>
        <time>2013-07-27T11:56:32Z</time>
      </trkpt>
      <trkpt lat="46.03727" lon="6.27917">
        <ele>844</ele>
        <time>2013-07-27T11:56:33Z</time>
      </trkpt>
      <trkpt lat="46.03729" lon="6.27932">
        <ele>839</ele>
        <time>2013-07-27T11:56:34Z</time>
      </trkpt>
      <trkpt lat="46.03729" lon="6.27947">
        <ele>839</ele>
        <time>2013-07-27T11:56:35Z</time>
      </trkpt>
      <trkpt lat="46.03726" lon="6.27967">
        <ele>839</ele>
        <time>2013-07-27T11:56:37Z</time>
      </trkpt>
      <trkpt lat="46.03728" lon="6.27982">
        <ele>833</ele>
        <time>2013-07-27T11:56:39Z</time>
      </trkpt>
      <trkpt lat="46.03738" lon="6.27992">
        <ele>833</ele>
        <time>2013-07-27T11:56:41Z</time>
      </trkpt>
      <trkpt lat="46.03755" lon="6.27997">
        <ele>833</ele>
        <time>2013-07-27T11:56:43Z</time>
      </trkpt>
      <trkpt lat="46.03764" lon="6.27999">
        <ele>833</ele>
        <time>2013-07-27T11:56:44Z</time>
      </trkpt>
      <trkpt lat="46.0378" lon="6.28003">
        <ele>827</ele>
        <time>2013-07-27T11:56:46Z</time>
      </trkpt>
      <trkpt lat="46.03795" lon="6.28001">
        <ele>827</ele>
        <time>2013-07-27T11:56:48Z</time>
      </trkpt>
      <trkpt lat="46.0381" lon="6.27997">
        <ele>827</ele>
        <time>2013-07-27T11:56:50Z</time>
      </trkpt>
      <trkpt lat="46.03827" lon="6.28003">
        <ele>822</ele>
        <time>2013-07-27T11:56:52Z</time>
      </trkpt>
      <trkpt lat="46.03835" lon="6.28008">
        <ele>822</ele>
        <time>2013-07-27T11:56:53Z</time>
      </trkpt>
      <trkpt lat="46.03845" lon="6.28013">
        <ele>822</ele>
        <time>2013-07-27T11:56:54Z</time>
      </trkpt>
      <trkpt lat="46.03855" lon="6.28018">
        <ele>822</ele>
        <time>2013-07-27T11:56:55Z</time>
      </trkpt>
      <trkpt lat="46.03866" lon="6.28023">
        <ele>822</ele>
        <time>2013-07-27T11:56:56Z</time>
      </trkpt>
      <trkpt lat="46.03876" lon="6.28028">
        <ele>822</ele>
        <time>2013-07-27T11:56:57Z</time>
      </trkpt>
      <trkpt lat="46.03885" lon="6.28036">
        <ele>822</ele>
        <time>2013-07-27T11:56:58Z</time>
      </trkpt>
      <trkpt lat="46.03897" lon="6.28047">
        <ele>822</ele>
        <time>2013-07-27T11:57:00Z</time>
      </trkpt>
      <trkpt lat="46.03889" lon="6.28038">
        <ele>822</ele>
        <time>2013-07-27T11:57:16Z</time>
      </trkpt>
      <trkpt lat="46.03885" lon="6.28023">
        <ele>822</ele>
        <time>2013-07-27T11:57:18Z</time>
      </trkpt>
      <trkpt lat="46.03888" lon="6.27997">
        <ele>822</ele>
        <time>2013-07-27T11:57:20Z</time>
      </trkpt>
      <trkpt lat="46.03893" lon="6.27983">
        <ele>828</ele>
        <time>2013-07-27T11:57:21Z</time>
      </trkpt>
      <trkpt lat="46.03899" lon="6.27967">
        <ele>828</ele>
        <time>2013-07-27T11:57:22Z</time>
      </trkpt>
      <trkpt lat="46.03904" lon="6.27953">
        <ele>828</ele>
        <time>2013-07-27T11:57:23Z</time>
      </trkpt>
      <trkpt lat="46.03913" lon="6.27941">
        <ele>828</ele>
        <time>2013-07-27T11:57:24Z</time>
      </trkpt>
      <trkpt lat="46.03922" lon="6.2793">
        <ele>833</ele>
        <time>2013-07-27T11:57:25Z</time>
      </trkpt>
      <trkpt lat="46.03932" lon="6.27918">
        <ele>833</ele>
        <time>2013-07-27T11:57:26Z</time>
      </trkpt>
      <trkpt lat="46.03942" lon="6.27908">
        <ele>833</ele>
        <time>2013-07-27T11:57:27Z</time>
      </trkpt>
      <trkpt lat="46.03949" lon="6.27899">
        <ele>833</ele>
        <time>2013-07-27T11:57:28Z</time>
      </trkpt>
      <trkpt lat="46.03964" lon="6.27885">
        <ele>840</ele>
        <time>2013-07-27T11:57:30Z</time>
      </trkpt>
      <trkpt lat="46.03977" lon="6.27871">
        <ele>840</ele>
        <time>2013-07-27T11:57:32Z</time>
      </trkpt>
      <trkpt lat="46.03987" lon="6.2786">
        <ele>840</ele>
        <time>2013-07-27T11:57:34Z</time>
      </trkpt>
      <trkpt lat="46.03996" lon="6.27856">
        <ele>840</ele>
        <time>2013-07-27T11:57:36Z</time>
      </trkpt>
      <trkpt lat="46.04008" lon="6.27866">
        <ele>840</ele>
        <time>2013-07-27T11:57:39Z</time>
      </trkpt>
      <trkpt lat="46.0402" lon="6.2788">
        <ele>840</ele>
        <time>2013-07-27T11:57:41Z</time>
      </trkpt>
      <trkpt lat="46.04028" lon="6.2789">
        <ele>840</ele>
        <time>2013-07-27T11:57:42Z</time>
      </trkpt>
      <trkpt lat="46.04038" lon="6.27901">
        <ele>840</ele>
        <time>2013-07-27T11:57:43Z</time>
      </trkpt>
      <trkpt lat="46.04048" lon="6.27913">
        <ele>840</ele>
        <time>2013-07-27T11:57:44Z</time>
      </trkpt>
      <trkpt lat="46.04058" lon="6.27924">
        <ele>840</ele>
        <time>2013-07-27T11:57:45Z</time>
      </trkpt>
      <trkpt lat="46.04068" lon="6.27936">
        <ele>840</ele>
        <time>2013-07-27T11:57:46Z</time>
      </trkpt>
      <trkpt lat="46.04077" lon="6.27946">
        <ele>840</ele>
        <time>2013-07-27T11:57:47Z</time>
      </trkpt>
      <trkpt lat="46.04087" lon="6.27956">
        <ele>840</ele>
        <time>2013-07-27T11:57:48Z</time>
      </trkpt>
      <trkpt lat="46.04098" lon="6.27965">
        <ele>834</ele>
        <time>2013-07-27T11:57:49Z</time>
      </trkpt>
      <trkpt lat="46.04108" lon="6.27976">
        <ele>834</ele>
        <time>2013-07-27T11:57:50Z</time>
      </trkpt>
      <trkpt lat="46.04119" lon="6.2799">
        <ele>834</ele>
        <time>2013-07-27T11:57:51Z</time>
      </trkpt>
      <trkpt lat="46.0413" lon="6.28004">
        <ele>834</ele>
        <time>2013-07-27T11:57:52Z</time>
      </trkpt>
      <trkpt lat="46.0414" lon="6.28018">
        <ele>829</ele>
        <time>2013-07-27T11:57:53Z</time>
      </trkpt>
      <trkpt lat="46.04149" lon="6.2803">
        <ele>829</ele>
        <time>2013-07-27T11:57:54Z</time>
      </trkpt>
      <trkpt lat="46.04158" lon="6.28044">
        <ele>829</ele>
        <time>2013-07-27T11:57:55Z</time>
      </trkpt>
      <trkpt lat="46.04168" lon="6.28055">
        <ele>829</ele>
        <time>2013-07-27T11:57:56Z</time>
      </trkpt>
      <trkpt lat="46.04178" lon="6.28067">
        <ele>823</ele>
        <time>2013-07-27T11:57:57Z</time>
      </trkpt>
      <trkpt lat="46.04188" lon="6.28079">
        <ele>823</ele>
        <time>2013-07-27T11:57:58Z</time>
      </trkpt>
      <trkpt lat="46.042" lon="6.2809">
        <ele>823</ele>
        <time>2013-07-27T11:57:59Z</time>
      </trkpt>
      <trkpt lat="46.0421" lon="6.281">
        <ele>823</ele>
        <time>2013-07-27T11:58:00Z</time>
      </trkpt>
      <trkpt lat="46.0422" lon="6.28109">
        <ele>823</ele>
        <time>2013-07-27T11:58:01Z</time>
      </trkpt>
      <trkpt lat="46.04228" lon="6.28118">
        <ele>823</ele>
        <time>2013-07-27T11:58:02Z</time>
      </trkpt>
      <trkpt lat="46.04241" lon="6.28131">
        <ele>815</ele>
        <time>2013-07-27T11:58:04Z</time>
      </trkpt>
      <trkpt lat="46.04251" lon="6.28133">
        <ele>815</ele>
        <time>2013-07-27T11:58:06Z</time>
      </trkpt>
      <trkpt lat="46.04257" lon="6.28121">
        <ele>815</ele>
        <time>2013-07-27T11:58:08Z</time>
      </trkpt>
      <trkpt lat="46.04265" lon="6.28097">
        <ele>815</ele>
        <time>2013-07-27T11:58:10Z</time>
      </trkpt>
      <trkpt lat="46.0427" lon="6.28082">
        <ele>815</ele>
        <time>2013-07-27T11:58:11Z</time>
      </trkpt>
      <trkpt lat="46.04278" lon="6.28066">
        <ele>815</ele>
        <time>2013-07-27T11:58:12Z</time>
      </trkpt>
      <trkpt lat="46.04286" lon="6.28049">
        <ele>815</ele>
        <time>2013-07-27T11:58:13Z</time>
      </trkpt>
      <trkpt lat="46.04296" lon="6.28033">
        <ele>815</ele>
        <time>2013-07-27T11:58:14Z</time>
      </trkpt>
      <trkpt lat="46.04306" lon="6.28019">
        <ele>815</ele>
        <time>2013-07-27T11:58:15Z</time>
      </trkpt>
      <trkpt lat="46.04315" lon="6.28006">
        <ele>810</ele>
        <time>2013-07-27T11:58:16Z</time>
      </trkpt>
      <trkpt lat="46.04324" lon="6.27995">
        <ele>810</ele>
        <time>2013-07-27T11:58:17Z</time>
      </trkpt>
      <trkpt lat="46.04336" lon="6.2798">
        <ele>810</ele>
        <time>2013-07-27T11:58:19Z</time>
      </trkpt>
      <trkpt lat="46.04345" lon="6.27972">
        <ele>810</ele>
        <time>2013-07-27T11:58:21Z</time>
      </trkpt>
      <trkpt lat="46.04355" lon="6.27972">
        <ele>810</ele>
        <time>2013-07-27T11:58:39Z</time>
      </trkpt>
      <trkpt lat="46.04367" lon="6.27966">
        <ele>810</ele>
        <time>2013-07-27T11:58:42Z</time>
      </trkpt>
      <trkpt lat="46.04377" lon="6.27957">
        <ele>810</ele>
        <time>2013-07-27T11:58:44Z</time>
      </trkpt>
      <trkpt lat="46.04385" lon="6.2795">
        <ele>810</ele>
        <time>2013-07-27T11:58:46Z</time>
      </trkpt>
      <trkpt lat="46.04394" lon="6.27945">
        <ele>810</ele>
        <time>2013-07-27T11:58:48Z</time>
      </trkpt>
      <trkpt lat="46.04403" lon="6.2794">
        <ele>810</ele>
        <time>2013-07-27T11:58:50Z</time>
      </trkpt>
      <trkpt lat="46.04417" lon="6.27932">
        <ele>810</ele>
        <time>2013-07-27T11:58:53Z</time>
      </trkpt>
      <trkpt lat="46.04428" lon="6.27931">
        <ele>810</ele>
        <time>2013-07-27T11:58:56Z</time>
      </trkpt>
      <trkpt lat="46.04414" lon="6.27936">
        <ele>810</ele>
        <time>2013-07-27T11:59:08Z</time>
      </trkpt>
      <trkpt lat="46.04402" lon="6.27945">
        <ele>810</ele>
        <time>2013-07-27T11:59:10Z</time>
      </trkpt>
      <trkpt lat="46.0439" lon="6.27953">
        <ele>810</ele>
        <time>2013-07-27T11:59:12Z</time>
      </trkpt>
      <trkpt lat="46.0438" lon="6.2796">
        <ele>810</ele>
        <time>2013-07-27T11:59:14Z</time>
      </trkpt>
      <trkpt lat="46.04371" lon="6.27969">
        <ele>810</ele>
        <time>2013-07-27T11:59:16Z</time>
      </trkpt>
      <trkpt lat="46.04362" lon="6.27975">
        <ele>810</ele>
        <time>2013-07-27T11:59:18Z</time>
      </trkpt>
      <trkpt lat="46.04358" lon="6.27987">
        <ele>810</ele>
        <time>2013-07-27T11:59:23Z</time>
      </trkpt>
      <trkpt lat="46.04362" lon="6.2801">
        <ele>810</ele>
        <time>2013-07-27T11:59:26Z</time>
      </trkpt>
      <trkpt lat="46.04372" lon="6.28031">
        <ele>810</ele>
        <time>2013-07-27T11:59:28Z</time>
      </trkpt>
      <trkpt lat="46.04378" lon="6.28041">
        <ele>810</ele>
        <time>2013-07-27T11:59:29Z</time>
      </trkpt>
      <trkpt lat="46.04385" lon="6.28052">
        <ele>810</ele>
        <time>2013-07-27T11:59:30Z</time>
      </trkpt>
      <trkpt lat="46.04392" lon="6.28062">
        <ele>810</ele>
        <time>2013-07-27T11:59:31Z</time>
      </trkpt>
      <trkpt lat="46.04405" lon="6.28079">
        <ele>810</ele>
        <time>2013-07-27T11:59:33Z</time>
      </trkpt>
      <trkpt lat="46.04413" lon="6.28097">
        <ele>810</ele>
        <time>2013-07-27T11:59:35Z</time>
      </trkpt>
      <trkpt lat="46.04418" lon="6.28116">
        <ele>804</ele>
        <time>2013-07-27T11:59:37Z</time>
      </trkpt>
      <trkpt lat="46.0442" lon="6.28135">
        <ele>804</ele>
        <time>2013-07-27T11:59:39Z</time>
      </trkpt>
      <trkpt lat="46.04418" lon="6.28157">
        <ele>804</ele>
        <time>2013-07-27T11:59:41Z</time>
      </trkpt>
      <trkpt lat="46.04413" lon="6.28179">
        <ele>804</ele>
        <time>2013-07-27T11:59:43Z</time>
      </trkpt>
      <trkpt lat="46.0441" lon="6.28204">
        <ele>804</ele>
        <time>2013-07-27T11:59:45Z</time>
      </trkpt>
      <trkpt lat="46.04412" lon="6.2823">
        <ele>798</ele>
        <time>2013-07-27T11:59:47Z</time>
      </trkpt>
      <trkpt lat="46.04413" lon="6.28244">
        <ele>798</ele>
        <time>2013-07-27T11:59:48Z</time>
      </trkpt>
      <trkpt lat="46.04415" lon="6.28259">
        <ele>798</ele>
        <time>2013-07-27T11:59:49Z</time>
      </trkpt>
      <trkpt lat="46.04417" lon="6.28274">
        <ele>798</ele>
        <time>2013-07-27T11:59:50Z</time>
      </trkpt>
      <trkpt lat="46.04416" lon="6.28289">
        <ele>798</ele>
        <time>2013-07-27T11:59:51Z</time>
      </trkpt>
      <trkpt lat="46.04415" lon="6.28302">
        <ele>798</ele>
        <time>2013-07-27T11:59:52Z</time>
      </trkpt>
      <trkpt lat="46.04412" lon="6.28324">
        <ele>798</ele>
        <time>2013-07-27T11:59:54Z</time>
      </trkpt>
      <trkpt lat="46.04412" lon="6.28339">
        <ele>798</ele>
        <time>2013-07-27T11:59:56Z</time>
      </trkpt>
      <trkpt lat="46.04418" lon="6.28351">
        <ele>793</ele>
        <time>2013-07-27T12:00:08Z</time>
      </trkpt>
      <trkpt lat="46.04428" lon="6.28354">
        <ele>793</ele>
        <time>2013-07-27T12:00:10Z</time>
      </trkpt>
      <trkpt lat="46.04444" lon="6.28353">
        <ele>793</ele>
        <time>2013-07-27T12:00:12Z</time>
      </trkpt>
      <trkpt lat="46.04461" lon="6.28347">
        <ele>793</ele>
        <time>2013-07-27T12:00:14Z</time>
      </trkpt>
      <trkpt lat="46.0447" lon="6.28343">
        <ele>793</ele>
        <time>2013-07-27T12:00:15Z</time>
      </trkpt>
      <trkpt lat="46.04479" lon="6.28337">
        <ele>787</ele>
        <time>2013-07-27T12:00:16Z</time>
      </trkpt>
      <trkpt lat="46.04488" lon="6.28332">
        <ele>787</ele>
        <time>2013-07-27T12:00:17Z</time>
      </trkpt>
      <trkpt lat="46.04504" lon="6.2832">
        <ele>787</ele>
        <time>2013-07-27T12:00:19Z</time>
      </trkpt>
      <trkpt lat="46.04518" lon="6.28311">
        <ele>787</ele>
        <time>2013-07-27T12:00:21Z</time>
      </trkpt>
      <trkpt lat="46.04531" lon="6.28304">
        <ele>787</ele>
        <time>2013-07-27T12:00:23Z</time>
      </trkpt>
      <trkpt lat="46.04543" lon="6.28304">
        <ele>787</ele>
        <time>2013-07-27T12:00:25Z</time>
      </trkpt>
      <trkpt lat="46.04555" lon="6.28311">
        <ele>781</ele>
        <time>2013-07-27T12:00:27Z</time>
      </trkpt>
      <trkpt lat="46.0456" lon="6.28323">
        <ele>781</ele>
        <time>2013-07-27T12:00:29Z</time>
      </trkpt>
      <trkpt lat="46.04573" lon="6.28325">
        <ele>781</ele>
        <time>2013-07-27T12:00:32Z</time>
      </trkpt>
      <trkpt lat="46.04582" lon="6.28332">
        <ele>781</ele>
        <time>2013-07-27T12:00:34Z</time>
      </trkpt>
      <trkpt lat="46.04592" lon="6.28346">
        <ele>776</ele>
        <time>2013-07-27T12:00:36Z</time>
      </trkpt>
      <trkpt lat="46.04602" lon="6.28363">
        <ele>776</ele>
        <time>2013-07-27T12:00:38Z</time>
      </trkpt>
      <trkpt lat="46.04606" lon="6.28381">
        <ele>776</ele>
        <time>2013-07-27T12:00:40Z</time>
      </trkpt>
      <trkpt lat="46.04607" lon="6.28399">
        <ele>776</ele>
        <time>2013-07-27T12:00:42Z</time>
      </trkpt>
      <trkpt lat="46.04607" lon="6.28415">
        <ele>776</ele>
        <time>2013-07-27T12:00:44Z</time>
      </trkpt>
      <trkpt lat="46.04619" lon="6.28432">
        <ele>769</ele>
        <time>2013-07-27T12:00:46Z</time>
      </trkpt>
      <trkpt lat="46.04627" lon="6.28443">
        <ele>769</ele>
        <time>2013-07-27T12:00:47Z</time>
      </trkpt>
      <trkpt lat="46.04635" lon="6.28452">
        <ele>769</ele>
        <time>2013-07-27T12:00:48Z</time>
      </trkpt>
      <trkpt lat="46.04644" lon="6.28464">
        <ele>769</ele>
        <time>2013-07-27T12:00:49Z</time>
      </trkpt>
      <trkpt lat="46.04651" lon="6.28477">
        <ele>769</ele>
        <time>2013-07-27T12:00:50Z</time>
      </trkpt>
      <trkpt lat="46.0466" lon="6.28489">
        <ele>769</ele>
        <time>2013-07-27T12:00:51Z</time>
      </trkpt>
      <trkpt lat="46.04669" lon="6.28501">
        <ele>763</ele>
        <time>2013-07-27T12:00:52Z</time>
      </trkpt>
      <trkpt lat="46.04677" lon="6.28514">
        <ele>763</ele>
        <time>2013-07-27T12:00:53Z</time>
      </trkpt>
      <trkpt lat="46.04686" lon="6.28526">
        <ele>763</ele>
        <time>2013-07-27T12:00:54Z</time>
      </trkpt>
      <trkpt lat="46.04694" lon="6.28537">
        <ele>763</ele>
        <time>2013-07-27T12:00:55Z</time>
      </trkpt>
      <trkpt lat="46.04701" lon="6.28548">
        <ele>763</ele>
        <time>2013-07-27T12:00:56Z</time>
      </trkpt>
      <trkpt lat="46.0471" lon="6.28563">
        <ele>763</ele>
        <time>2013-07-27T12:00:58Z</time>
      </trkpt>
      <trkpt lat="46.04717" lon="6.2858">
        <ele>763</ele>
        <time>2013-07-27T12:01:01Z</time>
      </trkpt>
      <trkpt lat="46.04729" lon="6.28593">
        <ele>763</ele>
        <time>2013-07-27T12:01:03Z</time>
      </trkpt>
      <trkpt lat="46.04737" lon="6.28602">
        <ele>758</ele>
        <time>2013-07-27T12:01:04Z</time>
      </trkpt>
      <trkpt lat="46.04745" lon="6.28609">
        <ele>758</ele>
        <time>2013-07-27T12:01:05Z</time>
      </trkpt>
      <trkpt lat="46.04753" lon="6.28618">
        <ele>758</ele>
        <time>2013-07-27T12:01:06Z</time>
      </trkpt>
      <trkpt lat="46.04766" lon="6.28637">
        <ele>758</ele>
        <time>2013-07-27T12:01:08Z</time>
      </trkpt>
      <trkpt lat="46.04771" lon="6.28649">
        <ele>758</ele>
        <time>2013-07-27T12:01:09Z</time>
      </trkpt>
      <trkpt lat="46.04776" lon="6.28662">
        <ele>758</ele>
        <time>2013-07-27T12:01:10Z</time>
      </trkpt>
      <trkpt lat="46.04781" lon="6.28674">
        <ele>758</ele>
        <time>2013-07-27T12:01:11Z</time>
      </trkpt>
      <trkpt lat="46.04794" lon="6.28693">
        <ele>758</ele>
        <time>2013-07-27T12:01:13Z</time>
      </trkpt>
      <trkpt lat="46.04803" lon="6.287">
        <ele>753</ele>
        <time>2013-07-27T12:01:14Z</time>
      </trkpt>
      <trkpt lat="46.04812" lon="6.28706">
        <ele>753</ele>
        <time>2013-07-27T12:01:15Z</time>
      </trkpt>
      <trkpt lat="46.04822" lon="6.2871">
        <ele>753</ele>
        <time>2013-07-27T12:01:16Z</time>
      </trkpt>
      <trkpt lat="46.04832" lon="6.28714">
        <ele>753</ele>
        <time>2013-07-27T12:01:17Z</time>
      </trkpt>
      <trkpt lat="46.04841" lon="6.28718">
        <ele>753</ele>
        <time>2013-07-27T12:01:18Z</time>
      </trkpt>
      <trkpt lat="46.0485" lon="6.28723">
        <ele>753</ele>
        <time>2013-07-27T12:01:19Z</time>
      </trkpt>
      <trkpt lat="46.04864" lon="6.28733">
        <ele>747</ele>
        <time>2013-07-27T12:01:21Z</time>
      </trkpt>
      <trkpt lat="46.04874" lon="6.28737">
        <ele>747</ele>
        <time>2013-07-27T12:01:23Z</time>
      </trkpt>
      <trkpt lat="46.04864" lon="6.28727">
        <ele>747</ele>
        <time>2013-07-27T12:01:29Z</time>
      </trkpt>
      <trkpt lat="46.0485" lon="6.28722">
        <ele>747</ele>
        <time>2013-07-27T12:01:31Z</time>
      </trkpt>
      <trkpt lat="46.04836" lon="6.28716">
        <ele>747</ele>
        <time>2013-07-27T12:01:33Z</time>
      </trkpt>
      <trkpt lat="46.04826" lon="6.28708">
        <ele>747</ele>
        <time>2013-07-27T12:01:35Z</time>
      </trkpt>
      <trkpt lat="46.04824" lon="6.28691">
        <ele>747</ele>
        <time>2013-07-27T12:01:37Z</time>
      </trkpt>
      <trkpt lat="46.04828" lon="6.28666">
        <ele>747</ele>
        <time>2013-07-27T12:01:39Z</time>
      </trkpt>
      <trkpt lat="46.04829" lon="6.28653">
        <ele>747</ele>
        <time>2013-07-27T12:01:40Z</time>
      </trkpt>
      <trkpt lat="46.04829" lon="6.28631">
        <ele>747</ele>
        <time>2013-07-27T12:01:42Z</time>
      </trkpt>
      <trkpt lat="46.04828" lon="6.28614">
        <ele>747</ele>
        <time>2013-07-27T12:01:44Z</time>
      </trkpt>
      <trkpt lat="46.04831" lon="6.28602">
        <ele>747</ele>
        <time>2013-07-27T12:01:46Z</time>
      </trkpt>
      <trkpt lat="46.04835" lon="6.28585">
        <ele>747</ele>
        <time>2013-07-27T12:01:49Z</time>
      </trkpt>
      <trkpt lat="46.04838" lon="6.28571">
        <ele>747</ele>
        <time>2013-07-27T12:01:51Z</time>
      </trkpt>
      <trkpt lat="46.0484" lon="6.28554">
        <ele>747</ele>
        <time>2013-07-27T12:01:53Z</time>
      </trkpt>
      <trkpt lat="46.04841" lon="6.28532">
        <ele>747</ele>
        <time>2013-07-27T12:01:55Z</time>
      </trkpt>
      <trkpt lat="46.04841" lon="6.2851">
        <ele>747</ele>
        <time>2013-07-27T12:01:57Z</time>
      </trkpt>
      <trkpt lat="46.04841" lon="6.28491">
        <ele>747</ele>
        <time>2013-07-27T12:01:59Z</time>
      </trkpt>
      <trkpt lat="46.04841" lon="6.28476">
        <ele>747</ele>
        <time>2013-07-27T12:02:01Z</time>
      </trkpt>
      <trkpt lat="46.04839" lon="6.28459">
        <ele>747</ele>
        <time>2013-07-27T12:02:04Z</time>
      </trkpt>
      <trkpt lat="46.04839" lon="6.28445">
        <ele>747</ele>
        <time>2013-07-27T12:02:06Z</time>
      </trkpt>
      <trkpt lat="46.04836" lon="6.2843">
        <ele>747</ele>
        <time>2013-07-27T12:02:08Z</time>
      </trkpt>
      <trkpt lat="46.04833" lon="6.28409">
        <ele>747</ele>
        <time>2013-07-27T12:02:10Z</time>
      </trkpt>
      <trkpt lat="46.04829" lon="6.28393">
        <ele>747</ele>
        <time>2013-07-27T12:02:12Z</time>
      </trkpt>
      <trkpt lat="46.04826" lon="6.28379">
        <ele>747</ele>
        <time>2013-07-27T12:02:15Z</time>
      </trkpt>
      <trkpt lat="46.04823" lon="6.28366">
        <ele>747</ele>
        <time>2013-07-27T12:02:18Z</time>
      </trkpt>
      <trkpt lat="46.04821" lon="6.28344">
        <ele>747</ele>
        <time>2013-07-27T12:02:21Z</time>
      </trkpt>
      <trkpt lat="46.04819" lon="6.28323">
        <ele>747</ele>
        <time>2013-07-27T12:02:23Z</time>
      </trkpt>
      <trkpt lat="46.04818" lon="6.28302">
        <ele>747</ele>
        <time>2013-07-27T12:02:25Z</time>
      </trkpt>
      <trkpt lat="46.04814" lon="6.28277">
        <ele>747</ele>
        <time>2013-07-27T12:02:27Z</time>
      </trkpt>
      <trkpt lat="46.04813" lon="6.28264">
        <ele>747</ele>
        <time>2013-07-27T12:02:28Z</time>
      </trkpt>
      <trkpt lat="46.04808" lon="6.28238">
        <ele>747</ele>
        <time>2013-07-27T12:02:30Z</time>
      </trkpt>
      <trkpt lat="46.04806" lon="6.28224">
        <ele>747</ele>
        <time>2013-07-27T12:02:31Z</time>
      </trkpt>
      <trkpt lat="46.04804" lon="6.28211">
        <ele>747</ele>
        <time>2013-07-27T12:02:32Z</time>
      </trkpt>
      <trkpt lat="46.04799" lon="6.28187">
        <ele>747</ele>
        <time>2013-07-27T12:02:34Z</time>
      </trkpt>
      <trkpt lat="46.04795" lon="6.28165">
        <ele>747</ele>
        <time>2013-07-27T12:02:36Z</time>
      </trkpt>
      <trkpt lat="46.04793" lon="6.28142">
        <ele>753</ele>
        <time>2013-07-27T12:02:38Z</time>
      </trkpt>
      <trkpt lat="46.04794" lon="6.28121">
        <ele>753</ele>
        <time>2013-07-27T12:02:40Z</time>
      </trkpt>
      <trkpt lat="46.04799" lon="6.28109">
        <ele>753</ele>
        <time>2013-07-27T12:02:43Z</time>
      </trkpt>
      <trkpt lat="46.0481" lon="6.28109">
        <ele>753</ele>
        <time>2013-07-27T12:02:51Z</time>
      </trkpt>
      <trkpt lat="46.04818" lon="6.28119">
        <ele>753</ele>
        <time>2013-07-27T12:02:53Z</time>
      </trkpt>
      <trkpt lat="46.04827" lon="6.28146">
        <ele>753</ele>
        <time>2013-07-27T12:02:55Z</time>
      </trkpt>
      <trkpt lat="46.04831" lon="6.28165">
        <ele>753</ele>
        <time>2013-07-27T12:02:56Z</time>
      </trkpt>
      <trkpt lat="46.04835" lon="6.28186">
        <ele>753</ele>
        <time>2013-07-27T12:02:57Z</time>
      </trkpt>
      <trkpt lat="46.04839" lon="6.28207">
        <ele>753</ele>
        <time>2013-07-27T12:02:58Z</time>
      </trkpt>
      <trkpt lat="46.04843" lon="6.28228">
        <ele>753</ele>
        <time>2013-07-27T12:02:59Z</time>
      </trkpt>
      <trkpt lat="46.04846" lon="6.28248">
        <ele>748</ele>
        <time>2013-07-27T12:03:00Z</time>
      </trkpt>
      <trkpt lat="46.04851" lon="6.28266">
        <ele>748</ele>
        <time>2013-07-27T12:03:01Z</time>
      </trkpt>
      <trkpt lat="46.04856" lon="6.28284">
        <ele>748</ele>
        <time>2013-07-27T12:03:02Z</time>
      </trkpt>
      <trkpt lat="46.0486" lon="6.28301">
        <ele>748</ele>
        <time>2013-07-27T12:03:03Z</time>
      </trkpt>
      <trkpt lat="46.04864" lon="6.28317">
        <ele>742</ele>
        <time>2013-07-27T12:03:04Z</time>
      </trkpt>
      <trkpt lat="46.0487" lon="6.28333">
        <ele>742</ele>
        <time>2013-07-27T12:03:05Z</time>
      </trkpt>
      <trkpt lat="46.04876" lon="6.2835">
        <ele>742</ele>
        <time>2013-07-27T12:03:06Z</time>
      </trkpt>
      <trkpt lat="46.04884" lon="6.28369">
        <ele>742</ele>
        <time>2013-07-27T12:03:07Z</time>
      </trkpt>
      <trkpt lat="46.04892" lon="6.2839">
        <ele>737</ele>
        <time>2013-07-27T12:03:08Z</time>
      </trkpt>
      <trkpt lat="46.04901" lon="6.2841">
        <ele>737</ele>
        <time>2013-07-27T12:03:09Z</time>
      </trkpt>
      <trkpt lat="46.04911" lon="6.28433">
        <ele>737</ele>
        <time>2013-07-27T12:03:10Z</time>
      </trkpt>
      <trkpt lat="46.04923" lon="6.28456">
        <ele>737</ele>
        <time>2013-07-27T12:03:11Z</time>
      </trkpt>
      <trkpt lat="46.04934" lon="6.28478">
        <ele>737</ele>
        <time>2013-07-27T12:03:12Z</time>
      </trkpt>
      <trkpt lat="46.04946" lon="6.28499">
        <ele>732</ele>
        <time>2013-07-27T12:03:13Z</time>
      </trkpt>
      <trkpt lat="46.04958" lon="6.28521">
        <ele>732</ele>
        <time>2013-07-27T12:03:14Z</time>
      </trkpt>
      <trkpt lat="46.04971" lon="6.28541">
        <ele>732</ele>
        <time>2013-07-27T12:03:15Z</time>
      </trkpt>
      <trkpt lat="46.04983" lon="6.28561">
        <ele>732</ele>
        <time>2013-07-27T12:03:16Z</time>
      </trkpt>
      <trkpt lat="46.04993" lon="6.28579">
        <ele>732</ele>
        <time>2013-07-27T12:03:17Z</time>
      </trkpt>
      <trkpt lat="46.05003" lon="6.28593">
        <ele>732</ele>
        <time>2013-07-27T12:03:18Z</time>
      </trkpt>
      <trkpt lat="46.05012" lon="6.28607">
        <ele>732</ele>
        <time>2013-07-27T12:03:19Z</time>
      </trkpt>
      <trkpt lat="46.05021" lon="6.2862">
        <ele>732</ele>
        <time>2013-07-27T12:03:20Z</time>
      </trkpt>
      <trkpt lat="46.05029" lon="6.2863">
        <ele>732</ele>
        <time>2013-07-27T12:03:21Z</time>
      </trkpt>
      <trkpt lat="46.05037" lon="6.28641">
        <ele>732</ele>
        <time>2013-07-27T12:03:22Z</time>
      </trkpt>
      <trkpt lat="46.05044" lon="6.28651">
        <ele>732</ele>
        <time>2013-07-27T12:03:23Z</time>
      </trkpt>
      <trkpt lat="46.05056" lon="6.28666">
        <ele>732</ele>
        <time>2013-07-27T12:03:25Z</time>
      </trkpt>
      <trkpt lat="46.05067" lon="6.28679">
        <ele>732</ele>
        <time>2013-07-27T12:03:27Z</time>
      </trkpt>
      <trkpt lat="46.05078" lon="6.28693">
        <ele>732</ele>
        <time>2013-07-27T12:03:29Z</time>
      </trkpt>
      <trkpt lat="46.05088" lon="6.28708">
        <ele>732</ele>
        <time>2013-07-27T12:03:31Z</time>
      </trkpt>
      <trkpt lat="46.05095" lon="6.28721">
        <ele>732</ele>
        <time>2013-07-27T12:03:33Z</time>
      </trkpt>
      <trkpt lat="46.05103" lon="6.28734">
        <ele>732</ele>
        <time>2013-07-27T12:03:35Z</time>
      </trkpt>
      <trkpt lat="46.05116" lon="6.28749">
        <ele>732</ele>
        <time>2013-07-27T12:03:37Z</time>
      </trkpt>
      <trkpt lat="46.05125" lon="6.28771">
        <ele>732</ele>
        <time>2013-07-27T12:03:39Z</time>
      </trkpt>
      <trkpt lat="46.05128" lon="6.28786">
        <ele>732</ele>
        <time>2013-07-27T12:03:40Z</time>
      </trkpt>
      <trkpt lat="46.0513" lon="6.28802">
        <ele>732</ele>
        <time>2013-07-27T12:03:41Z</time>
      </trkpt>
      <trkpt lat="46.05131" lon="6.28818">
        <ele>732</ele>
        <time>2013-07-27T12:03:42Z</time>
      </trkpt>
      <trkpt lat="46.05133" lon="6.28834">
        <ele>732</ele>
        <time>2013-07-27T12:03:43Z</time>
      </trkpt>
      <trkpt lat="46.05135" lon="6.28849">
        <ele>732</ele>
        <time>2013-07-27T12:03:44Z</time>
      </trkpt>
      <trkpt lat="46.0514" lon="6.28862">
        <ele>732</ele>
        <time>2013-07-27T12:03:45Z</time>
      </trkpt>
      <trkpt lat="46.05147" lon="6.28875">
        <ele>732</ele>
        <time>2013-07-27T12:03:46Z</time>
      </trkpt>
      <trkpt lat="46.05156" lon="6.28887">
        <ele>732</ele>
        <time>2013-07-27T12:03:47Z</time>
      </trkpt>
      <trkpt lat="46.0517" lon="6.28895">
        <ele>726</ele>
        <time>2013-07-27T12:03:48Z</time>
      </trkpt>
      <trkpt lat="46.05185" lon="6.28901">
        <ele>726</ele>
        <time>2013-07-27T12:03:49Z</time>
      </trkpt>
      <trkpt lat="46.05199" lon="6.28908">
        <ele>726</ele>
        <time>2013-07-27T12:03:50Z</time>
      </trkpt>
      <trkpt lat="46.05213" lon="6.28916">
        <ele>726</ele>
        <time>2013-07-27T12:03:51Z</time>
      </trkpt>
      <trkpt lat="46.05227" lon="6.28923">
        <ele>726</ele>
        <time>2013-07-27T12:03:52Z</time>
      </trkpt>
      <trkpt lat="46.0524" lon="6.2893">
        <ele>726</ele>
        <time>2013-07-27T12:03:53Z</time>
      </trkpt>
      <trkpt lat="46.05253" lon="6.28937">
        <ele>726</ele>
        <time>2013-07-27T12:03:54Z</time>
      </trkpt>
      <trkpt lat="46.05265" lon="6.28944">
        <ele>726</ele>
        <time>2013-07-27T12:03:55Z</time>
      </trkpt>
      <trkpt lat="46.05277" lon="6.28949">
        <ele>721</ele>
        <time>2013-07-27T12:03:56Z</time>
      </trkpt>
      <trkpt lat="46.05289" lon="6.28955">
        <ele>721</ele>
        <time>2013-07-27T12:03:57Z</time>
      </trkpt>
      <trkpt lat="46.05302" lon="6.28962">
        <ele>721</ele>
        <time>2013-07-27T12:03:58Z</time>
      </trkpt>
      <trkpt lat="46.05315" lon="6.28967">
        <ele>721</ele>
        <time>2013-07-27T12:03:59Z</time>
      </trkpt>
      <trkpt lat="46.05328" lon="6.28974">
        <ele>721</ele>
        <time>2013-07-27T12:04:00Z</time>
      </trkpt>
      <trkpt lat="46.05339" lon="6.28981">
        <ele>715</ele>
        <time>2013-07-27T12:04:01Z</time>
      </trkpt>
      <trkpt lat="46.05348" lon="6.28987">
        <ele>715</ele>
        <time>2013-07-27T12:04:02Z</time>
      </trkpt>
      <trkpt lat="46.05362" lon="6.29001">
        <ele>715</ele>
        <time>2013-07-27T12:04:04Z</time>
      </trkpt>
      <trkpt lat="46.05371" lon="6.2902">
        <ele>715</ele>
        <time>2013-07-27T12:04:06Z</time>
      </trkpt>
      <trkpt lat="46.05375" lon="6.29043">
        <ele>709</ele>
        <time>2013-07-27T12:04:08Z</time>
      </trkpt>
      <trkpt lat="46.05374" lon="6.29066">
        <ele>709</ele>
        <time>2013-07-27T12:04:10Z</time>
      </trkpt>
      <trkpt lat="46.05374" lon="6.29086">
        <ele>709</ele>
        <time>2013-07-27T12:04:12Z</time>
      </trkpt>
      <trkpt lat="46.05377" lon="6.29106">
        <ele>709</ele>
        <time>2013-07-27T12:04:14Z</time>
      </trkpt>
      <trkpt lat="46.05384" lon="6.29126">
        <ele>704</ele>
        <time>2013-07-27T12:04:16Z</time>
      </trkpt>
      <trkpt lat="46.05396" lon="6.29146">
        <ele>704</ele>
        <time>2013-07-27T12:04:18Z</time>
      </trkpt>
      <trkpt lat="46.05403" lon="6.29155">
        <ele>704</ele>
        <time>2013-07-27T12:04:19Z</time>
      </trkpt>
      <trkpt lat="46.05416" lon="6.29163">
        <ele>704</ele>
        <time>2013-07-27T12:04:21Z</time>
      </trkpt>
      <trkpt lat="46.05429" lon="6.29159">
        <ele>704</ele>
        <time>2013-07-27T12:04:23Z</time>
      </trkpt>
      <trkpt lat="46.05437" lon="6.29151">
        <ele>704</ele>
        <time>2013-07-27T12:04:24Z</time>
      </trkpt>
      <trkpt lat="46.05446" lon="6.29144">
        <ele>698</ele>
        <time>2013-07-27T12:04:25Z</time>
      </trkpt>
      <trkpt lat="46.05453" lon="6.29133">
        <ele>698</ele>
        <time>2013-07-27T12:04:26Z</time>
      </trkpt>
      <trkpt lat="46.05458" lon="6.29122">
        <ele>698</ele>
        <time>2013-07-27T12:04:27Z</time>
      </trkpt>
      <trkpt lat="46.05465" lon="6.29111">
        <ele>698</ele>
        <time>2013-07-27T12:04:28Z</time>
      </trkpt>
      <trkpt lat="46.05474" lon="6.29103">
        <ele>698</ele>
        <time>2013-07-27T12:04:29Z</time>
      </trkpt>
      <trkpt lat="46.05484" lon="6.29096">
        <ele>698</ele>
        <time>2013-07-27T12:04:30Z</time>
      </trkpt>
      <trkpt lat="46.05494" lon="6.29089">
        <ele>698</ele>
        <time>2013-07-27T12:04:31Z</time>
      </trkpt>
      <trkpt lat="46.05505" lon="6.2908">
        <ele>693</ele>
        <time>2013-07-27T12:04:32Z</time>
      </trkpt>
      <trkpt lat="46.05516" lon="6.29073">
        <ele>693</ele>
        <time>2013-07-27T12:04:33Z</time>
      </trkpt>
      <trkpt lat="46.05527" lon="6.29068">
        <ele>693</ele>
        <time>2013-07-27T12:04:34Z</time>
      </trkpt>
      <trkpt lat="46.05537" lon="6.29063">
        <ele>693</ele>
        <time>2013-07-27T12:04:35Z</time>
      </trkpt>
      <trkpt lat="46.05547" lon="6.29061">
        <ele>693</ele>
        <time>2013-07-27T12:04:36Z</time>
      </trkpt>
      <trkpt lat="46.0556" lon="6.29074">
        <ele>693</ele>
        <time>2013-07-27T12:04:38Z</time>
      </trkpt>
      <trkpt lat="46.05566" lon="6.29088">
        <ele>693</ele>
        <time>2013-07-27T12:04:39Z</time>
      </trkpt>
      <trkpt lat="46.05578" lon="6.29105">
        <ele>693</ele>
        <time>2013-07-27T12:04:40Z</time>
      </trkpt>
      <trkpt lat="46.05584" lon="6.29122">
        <ele>693</ele>
        <time>2013-07-27T12:04:41Z</time>
      </trkpt>
      <trkpt lat="46.05599" lon="6.29177">
        <ele>686</ele>
        <time>2013-07-27T12:04:44Z</time>
      </trkpt>
      <trkpt lat="46.05604" lon="6.2921">
        <ele>686</ele>
        <time>2013-07-27T12:04:45Z</time>
      </trkpt>
      <trkpt lat="46.05608" lon="6.29236">
        <ele>681</ele>
        <time>2013-07-27T12:04:46Z</time>
      </trkpt>
      <trkpt lat="46.05611" lon="6.29258">
        <ele>681</ele>
        <time>2013-07-27T12:04:47Z</time>
      </trkpt>
      <trkpt lat="46.05613" lon="6.29278">
        <ele>681</ele>
        <time>2013-07-27T12:04:48Z</time>
      </trkpt>
      <trkpt lat="46.05614" lon="6.29294">
        <ele>681</ele>
        <time>2013-07-27T12:04:49Z</time>
      </trkpt>
      <trkpt lat="46.05619" lon="6.29312">
        <ele>675</ele>
        <time>2013-07-27T12:04:50Z</time>
      </trkpt>
      <trkpt lat="46.05624" lon="6.29327">
        <ele>675</ele>
        <time>2013-07-27T12:04:51Z</time>
      </trkpt>
      <trkpt lat="46.05631" lon="6.29341">
        <ele>675</ele>
        <time>2013-07-27T12:04:52Z</time>
      </trkpt>
      <trkpt lat="46.05644" lon="6.29352">
        <ele>667</ele>
        <time>2013-07-27T12:04:53Z</time>
      </trkpt>
      <trkpt lat="46.05657" lon="6.29363">
        <ele>667</ele>
        <time>2013-07-27T12:04:54Z</time>
      </trkpt>
      <trkpt lat="46.05668" lon="6.29376">
        <ele>667</ele>
        <time>2013-07-27T12:04:55Z</time>
      </trkpt>
      <trkpt lat="46.05678" lon="6.29388">
        <ele>667</ele>
        <time>2013-07-27T12:04:56Z</time>
      </trkpt>
      <trkpt lat="46.05688" lon="6.294">
        <ele>667</ele>
        <time>2013-07-27T12:04:57Z</time>
      </trkpt>
      <trkpt lat="46.05697" lon="6.29413">
        <ele>667</ele>
        <time>2013-07-27T12:04:58Z</time>
      </trkpt>
      <trkpt lat="46.05704" lon="6.29425">
        <ele>662</ele>
        <time>2013-07-27T12:04:59Z</time>
      </trkpt>
      <trkpt lat="46.05709" lon="6.29439">
        <ele>662</ele>
        <time>2013-07-27T12:05:00Z</time>
      </trkpt>
      <trkpt lat="46.05715" lon="6.2945">
        <ele>662</ele>
        <time>2013-07-27T12:05:01Z</time>
      </trkpt>
      <trkpt lat="46.05722" lon="6.29459">
        <ele>662</ele>
        <time>2013-07-27T12:05:02Z</time>
      </trkpt>
      <trkpt lat="46.0573" lon="6.29465">
        <ele>662</ele>
        <time>2013-07-27T12:05:03Z</time>
      </trkpt>
      <trkpt lat="46.05739" lon="6.29468">
        <ele>662</ele>
        <time>2013-07-27T12:05:04Z</time>
      </trkpt>
      <trkpt lat="46.05751" lon="6.2947">
        <ele>662</ele>
        <time>2013-07-27T12:05:05Z</time>
      </trkpt>
      <trkpt lat="46.05764" lon="6.29473">
        <ele>662</ele>
        <time>2013-07-27T12:05:06Z</time>
      </trkpt>
      <trkpt lat="46.05776" lon="6.29477">
        <ele>656</ele>
        <time>2013-07-27T12:05:07Z</time>
      </trkpt>
      <trkpt lat="46.05788" lon="6.29484">
        <ele>656</ele>
        <time>2013-07-27T12:05:08Z</time>
      </trkpt>
      <trkpt lat="46.05798" lon="6.29494">
        <ele>656</ele>
        <time>2013-07-27T12:05:09Z</time>
      </trkpt>
      <trkpt lat="46.05805" lon="6.29507">
        <ele>656</ele>
        <time>2013-07-27T12:05:10Z</time>
      </trkpt>
      <trkpt lat="46.05811" lon="6.29524">
        <ele>656</ele>
        <time>2013-07-27T12:05:11Z</time>
      </trkpt>
      <trkpt lat="46.05818" lon="6.29544">
        <ele>651</ele>
        <time>2013-07-27T12:05:12Z</time>
      </trkpt>
      <trkpt lat="46.05825" lon="6.29561">
        <ele>651</ele>
        <time>2013-07-27T12:05:13Z</time>
      </trkpt>
      <trkpt lat="46.0583" lon="6.2958">
        <ele>651</ele>
        <time>2013-07-27T12:05:14Z</time>
      </trkpt>
      <trkpt lat="46.05836" lon="6.29598">
        <ele>651</ele>
        <time>2013-07-27T12:05:15Z</time>
      </trkpt>
      <trkpt lat="46.05841" lon="6.29612">
        <ele>651</ele>
        <time>2013-07-27T12:05:16Z</time>
      </trkpt>
      <trkpt lat="46.05848" lon="6.29624">
        <ele>651</ele>
        <time>2013-07-27T12:05:17Z</time>
      </trkpt>
      <trkpt lat="46.05855" lon="6.29636">
        <ele>651</ele>
        <time>2013-07-27T12:05:18Z</time>
      </trkpt>
      <trkpt lat="46.05861" lon="6.29645">
        <ele>645</ele>
        <time>2013-07-27T12:05:19Z</time>
      </trkpt>
      <trkpt lat="46.05869" lon="6.29656">
        <ele>645</ele>
        <time>2013-07-27T12:05:20Z</time>
      </trkpt>
      <trkpt lat="46.05878" lon="6.29667">
        <ele>645</ele>
        <time>2013-07-27T12:05:21Z</time>
      </trkpt>
      <trkpt lat="46.05889" lon="6.29678">
        <ele>645</ele>
        <time>2013-07-27T12:05:22Z</time>
      </trkpt>
      <trkpt lat="46.059" lon="6.2969">
        <ele>645</ele>
        <time>2013-07-27T12:05:23Z</time>
      </trkpt>
      <trkpt lat="46.05913" lon="6.29703">
        <ele>645</ele>
        <time>2013-07-27T12:05:24Z</time>
      </trkpt>
      <trkpt lat="46.05925" lon="6.29715">
        <ele>645</ele>
        <time>2013-07-27T12:05:25Z</time>
      </trkpt>
      <trkpt lat="46.05939" lon="6.29727">
        <ele>645</ele>
        <time>2013-07-27T12:05:26Z</time>
      </trkpt>
      <trkpt lat="46.05954" lon="6.29739">
        <ele>645</ele>
        <time>2013-07-27T12:05:27Z</time>
      </trkpt>
      <trkpt lat="46.05968" lon="6.2975">
        <ele>640</ele>
        <time>2013-07-27T12:05:28Z</time>
      </trkpt>
      <trkpt lat="46.05982" lon="6.29759">
        <ele>640</ele>
        <time>2013-07-27T12:05:29Z</time>
      </trkpt>
      <trkpt lat="46.05995" lon="6.29768">
        <ele>640</ele>
        <time>2013-07-27T12:05:30Z</time>
      </trkpt>
      <trkpt lat="46.06007" lon="6.29777">
        <ele>640</ele>
        <time>2013-07-27T12:05:31Z</time>
      </trkpt>
      <trkpt lat="46.0602" lon="6.29786">
        <ele>640</ele>
        <time>2013-07-27T12:05:32Z</time>
      </trkpt>
      <trkpt lat="46.06032" lon="6.29794">
        <ele>640</ele>
        <time>2013-07-27T12:05:33Z</time>
      </trkpt>
      <trkpt lat="46.06043" lon="6.29802">
        <ele>634</ele>
        <time>2013-07-27T12:05:34Z</time>
      </trkpt>
      <trkpt lat="46.06055" lon="6.29809">
        <ele>634</ele>
        <time>2013-07-27T12:05:35Z</time>
      </trkpt>
      <trkpt lat="46.06065" lon="6.29815">
        <ele>634</ele>
        <time>2013-07-27T12:05:36Z</time>
      </trkpt>
      <trkpt lat="46.06075" lon="6.29821">
        <ele>634</ele>
        <time>2013-07-27T12:05:37Z</time>
      </trkpt>
      <trkpt lat="46.06083" lon="6.29824">
        <ele>634</ele>
        <time>2013-07-27T12:05:38Z</time>
      </trkpt>
      <trkpt lat="46.06097" lon="6.2983">
        <ele>628</ele>
        <time>2013-07-27T12:05:40Z</time>
      </trkpt>
      <trkpt lat="46.06085" lon="6.29842">
        <ele>628</ele>
        <time>2013-07-27T12:05:46Z</time>
      </trkpt>
      <trkpt lat="46.06075" lon="6.29847">
        <ele>628</ele>
        <time>2013-07-27T12:05:47Z</time>
      </trkpt>
      <trkpt lat="46.06065" lon="6.29852">
        <ele>623</ele>
        <time>2013-07-27T12:05:48Z</time>
      </trkpt>
      <trkpt lat="46.06054" lon="6.29857">
        <ele>623</ele>
        <time>2013-07-27T12:05:49Z</time>
      </trkpt>
      <trkpt lat="46.06042" lon="6.29862">
        <ele>623</ele>
        <time>2013-07-27T12:05:50Z</time>
      </trkpt>
      <trkpt lat="46.0603" lon="6.29866">
        <ele>623</ele>
        <time>2013-07-27T12:05:51Z</time>
      </trkpt>
      <trkpt lat="46.06017" lon="6.29871">
        <ele>623</ele>
        <time>2013-07-27T12:05:52Z</time>
      </trkpt>
      <trkpt lat="46.06004" lon="6.29876">
        <ele>623</ele>
        <time>2013-07-27T12:05:53Z</time>
      </trkpt>
      <trkpt lat="46.0599" lon="6.2988">
        <ele>623</ele>
        <time>2013-07-27T12:05:54Z</time>
      </trkpt>
      <trkpt lat="46.05978" lon="6.29883">
        <ele>623</ele>
        <time>2013-07-27T12:05:55Z</time>
      </trkpt>
      <trkpt lat="46.05968" lon="6.29886">
        <ele>623</ele>
        <time>2013-07-27T12:05:56Z</time>
      </trkpt>
      <trkpt lat="46.05958" lon="6.29891">
        <ele>623</ele>
        <time>2013-07-27T12:05:57Z</time>
      </trkpt>
      <trkpt lat="46.0595" lon="6.29897">
        <ele>623</ele>
        <time>2013-07-27T12:05:58Z</time>
      </trkpt>
      <trkpt lat="46.05936" lon="6.29907">
        <ele>623</ele>
        <time>2013-07-27T12:06:00Z</time>
      </trkpt>
      <trkpt lat="46.05927" lon="6.29911">
        <ele>623</ele>
        <time>2013-07-27T12:06:02Z</time>
      </trkpt>
      <trkpt lat="46.05918" lon="6.29909">
        <ele>623</ele>
        <time>2013-07-27T12:06:04Z</time>
      </trkpt>
      <trkpt lat="46.05906" lon="6.29898">
        <ele>623</ele>
        <time>2013-07-27T12:06:06Z</time>
      </trkpt>
      <trkpt lat="46.05898" lon="6.29889">
        <ele>623</ele>
        <time>2013-07-27T12:06:07Z</time>
      </trkpt>
      <trkpt lat="46.0589" lon="6.29881">
        <ele>623</ele>
        <time>2013-07-27T12:06:08Z</time>
      </trkpt>
      <trkpt lat="46.0588" lon="6.29873">
        <ele>623</ele>
        <time>2013-07-27T12:06:09Z</time>
      </trkpt>
      <trkpt lat="46.0587" lon="6.29865">
        <ele>623</ele>
        <time>2013-07-27T12:06:10Z</time>
      </trkpt>
      <trkpt lat="46.05858" lon="6.29859">
        <ele>623</ele>
        <time>2013-07-27T12:06:11Z</time>
      </trkpt>
      <trkpt lat="46.05849" lon="6.29854">
        <ele>623</ele>
        <time>2013-07-27T12:06:12Z</time>
      </trkpt>
      <trkpt lat="46.0584" lon="6.29849">
        <ele>623</ele>
        <time>2013-07-27T12:06:13Z</time>
      </trkpt>
      <trkpt lat="46.05825" lon="6.29841">
        <ele>623</ele>
        <time>2013-07-27T12:06:15Z</time>
      </trkpt>
      <trkpt lat="46.05815" lon="6.2983">
        <ele>617</ele>
        <time>2013-07-27T12:06:17Z</time>
      </trkpt>
      <trkpt lat="46.0581" lon="6.29812">
        <ele>617</ele>
        <time>2013-07-27T12:06:19Z</time>
      </trkpt>
      <trkpt lat="46.05806" lon="6.29795">
        <ele>611</ele>
        <time>2013-07-27T12:06:21Z</time>
      </trkpt>
      <trkpt lat="46.05798" lon="6.29781">
        <ele>611</ele>
        <time>2013-07-27T12:06:23Z</time>
      </trkpt>
      <trkpt lat="46.05786" lon="6.29773">
        <ele>611</ele>
        <time>2013-07-27T12:06:25Z</time>
      </trkpt>
      <trkpt lat="46.05771" lon="6.29784">
        <ele>611</ele>
        <time>2013-07-27T12:06:28Z</time>
      </trkpt>
      <trkpt lat="46.05762" lon="6.29797">
        <ele>611</ele>
        <time>2013-07-27T12:06:30Z</time>
      </trkpt>
      <trkpt lat="46.05753" lon="6.2981">
        <ele>611</ele>
        <time>2013-07-27T12:06:32Z</time>
      </trkpt>
      <trkpt lat="46.05749" lon="6.29828">
        <ele>618</ele>
        <time>2013-07-27T12:06:34Z</time>
      </trkpt>
      <trkpt lat="46.05748" lon="6.29847">
        <ele>618</ele>
        <time>2013-07-27T12:06:36Z</time>
      </trkpt>
      <trkpt lat="46.05751" lon="6.2986">
        <ele>623</ele>
        <time>2013-07-27T12:06:37Z</time>
      </trkpt>
      <trkpt lat="46.05751" lon="6.29885">
        <ele>623</ele>
        <time>2013-07-27T12:06:39Z</time>
      </trkpt>
      <trkpt lat="46.05753" lon="6.29911">
        <ele>623</ele>
        <time>2013-07-27T12:06:41Z</time>
      </trkpt>
      <trkpt lat="46.05752" lon="6.29939">
        <ele>623</ele>
        <time>2013-07-27T12:06:43Z</time>
      </trkpt>
      <trkpt lat="46.05752" lon="6.29954">
        <ele>623</ele>
        <time>2013-07-27T12:06:44Z</time>
      </trkpt>
      <trkpt lat="46.05752" lon="6.29967">
        <ele>623</ele>
        <time>2013-07-27T12:06:45Z</time>
      </trkpt>
      <trkpt lat="46.05757" lon="6.29995">
        <ele>623</ele>
        <time>2013-07-27T12:06:47Z</time>
      </trkpt>
      <trkpt lat="46.05766" lon="6.30019">
        <ele>623</ele>
        <time>2013-07-27T12:06:49Z</time>
      </trkpt>
      <trkpt lat="46.05772" lon="6.30032">
        <ele>623</ele>
        <time>2013-07-27T12:06:50Z</time>
      </trkpt>
      <trkpt lat="46.0578" lon="6.30051">
        <ele>623</ele>
        <time>2013-07-27T12:06:52Z</time>
      </trkpt>
      <trkpt lat="46.05767" lon="6.30057">
        <ele>623</ele>
        <time>2013-07-27T12:06:55Z</time>
      </trkpt>
      <trkpt lat="46.05758" lon="6.30068">
        <ele>632</ele>
        <time>2013-07-27T12:07:02Z</time>
      </trkpt>
      <trkpt lat="46.05754" lon="6.30086">
        <ele>632</ele>
        <time>2013-07-27T12:07:04Z</time>
      </trkpt>
      <trkpt lat="46.05751" lon="6.30107">
        <ele>632</ele>
        <time>2013-07-27T12:07:06Z</time>
      </trkpt>
      <trkpt lat="46.05748" lon="6.3012">
        <ele>632</ele>
        <time>2013-07-27T12:07:07Z</time>
      </trkpt>
      <trkpt lat="46.0574" lon="6.30133">
        <ele>632</ele>
        <time>2013-07-27T12:07:08Z</time>
      </trkpt>
      <trkpt lat="46.05732" lon="6.30146">
        <ele>632</ele>
        <time>2013-07-27T12:07:09Z</time>
      </trkpt>
      <trkpt lat="46.05724" lon="6.30159">
        <ele>626</ele>
        <time>2013-07-27T12:07:10Z</time>
      </trkpt>
      <trkpt lat="46.05718" lon="6.30172">
        <ele>626</ele>
        <time>2013-07-27T12:07:11Z</time>
      </trkpt>
      <trkpt lat="46.05709" lon="6.30185">
        <ele>626</ele>
        <time>2013-07-27T12:07:12Z</time>
      </trkpt>
      <trkpt lat="46.05702" lon="6.30196">
        <ele>626</ele>
        <time>2013-07-27T12:07:13Z</time>
      </trkpt>
      <trkpt lat="46.05696" lon="6.30207">
        <ele>626</ele>
        <time>2013-07-27T12:07:14Z</time>
      </trkpt>
      <trkpt lat="46.05684" lon="6.30221">
        <ele>626</ele>
        <time>2013-07-27T12:07:16Z</time>
      </trkpt>
      <trkpt lat="46.05683" lon="6.30239">
        <ele>619</ele>
        <time>2013-07-27T12:07:19Z</time>
      </trkpt>
      <trkpt lat="46.05696" lon="6.30258">
        <ele>619</ele>
        <time>2013-07-27T12:07:21Z</time>
      </trkpt>
      <trkpt lat="46.05704" lon="6.3027">
        <ele>619</ele>
        <time>2013-07-27T12:07:22Z</time>
      </trkpt>
      <trkpt lat="46.05711" lon="6.30281">
        <ele>619</ele>
        <time>2013-07-27T12:07:23Z</time>
      </trkpt>
      <trkpt lat="46.05718" lon="6.30293">
        <ele>619</ele>
        <time>2013-07-27T12:07:24Z</time>
      </trkpt>
      <trkpt lat="46.05723" lon="6.30305">
        <ele>619</ele>
        <time>2013-07-27T12:07:25Z</time>
      </trkpt>
      <trkpt lat="46.05728" lon="6.30316">
        <ele>619</ele>
        <time>2013-07-27T12:07:26Z</time>
      </trkpt>
      <trkpt lat="46.05739" lon="6.30334">
        <ele>619</ele>
        <time>2013-07-27T12:07:28Z</time>
      </trkpt>
      <trkpt lat="46.05746" lon="6.30354">
        <ele>619</ele>
        <time>2013-07-27T12:07:30Z</time>
      </trkpt>
      <trkpt lat="46.05747" lon="6.30379">
        <ele>619</ele>
        <time>2013-07-27T12:07:32Z</time>
      </trkpt>
      <trkpt lat="46.05742" lon="6.30404">
        <ele>619</ele>
        <time>2013-07-27T12:07:34Z</time>
      </trkpt>
      <trkpt lat="46.05739" lon="6.30426">
        <ele>619</ele>
        <time>2013-07-27T12:07:36Z</time>
      </trkpt>
      <trkpt lat="46.05733" lon="6.30442">
        <ele>613</ele>
        <time>2013-07-27T12:07:38Z</time>
      </trkpt>
      <trkpt lat="46.05728" lon="6.30455">
        <ele>613</ele>
        <time>2013-07-27T12:07:40Z</time>
      </trkpt>
      <trkpt lat="46.05715" lon="6.30457">
        <ele>613</ele>
        <time>2013-07-27T12:07:45Z</time>
      </trkpt>
      <trkpt lat="46.05702" lon="6.3045">
        <ele>613</ele>
        <time>2013-07-27T12:07:47Z</time>
      </trkpt>
      <trkpt lat="46.05693" lon="6.30445">
        <ele>613</ele>
        <time>2013-07-27T12:07:48Z</time>
      </trkpt>
      <trkpt lat="46.05683" lon="6.3044">
        <ele>613</ele>
        <time>2013-07-27T12:07:49Z</time>
      </trkpt>
      <trkpt lat="46.05672" lon="6.30437">
        <ele>613</ele>
        <time>2013-07-27T12:07:50Z</time>
      </trkpt>
      <trkpt lat="46.05661" lon="6.30435">
        <ele>613</ele>
        <time>2013-07-27T12:07:51Z</time>
      </trkpt>
      <trkpt lat="46.05648" lon="6.30438">
        <ele>613</ele>
        <time>2013-07-27T12:07:52Z</time>
      </trkpt>
      <trkpt lat="46.05634" lon="6.30446">
        <ele>613</ele>
        <time>2013-07-27T12:07:53Z</time>
      </trkpt>
      <trkpt lat="46.05623" lon="6.30455">
        <ele>613</ele>
        <time>2013-07-27T12:07:54Z</time>
      </trkpt>
      <trkpt lat="46.0561" lon="6.30464">
        <ele>613</ele>
        <time>2013-07-27T12:07:55Z</time>
      </trkpt>
      <trkpt lat="46.05596" lon="6.30475">
        <ele>613</ele>
        <time>2013-07-27T12:07:56Z</time>
      </trkpt>
      <trkpt lat="46.05581" lon="6.30486">
        <ele>613</ele>
        <time>2013-07-27T12:07:57Z</time>
      </trkpt>
      <trkpt lat="46.05566" lon="6.30498">
        <ele>618</ele>
        <time>2013-07-27T12:07:58Z</time>
      </trkpt>
      <trkpt lat="46.0555" lon="6.3051">
        <ele>618</ele>
        <time>2013-07-27T12:07:59Z</time>
      </trkpt>
      <trkpt lat="46.05535" lon="6.30521">
        <ele>618</ele>
        <time>2013-07-27T12:08:00Z</time>
      </trkpt>
      <trkpt lat="46.0552" lon="6.30533">
        <ele>618</ele>
        <time>2013-07-27T12:08:01Z</time>
      </trkpt>
      <trkpt lat="46.05506" lon="6.30545">
        <ele>618</ele>
        <time>2013-07-27T12:08:02Z</time>
      </trkpt>
      <trkpt lat="46.05493" lon="6.30558">
        <ele>618</ele>
        <time>2013-07-27T12:08:03Z</time>
      </trkpt>
      <trkpt lat="46.0548" lon="6.30574">
        <ele>624</ele>
        <time>2013-07-27T12:08:04Z</time>
      </trkpt>
      <trkpt lat="46.05469" lon="6.30594">
        <ele>624</ele>
        <time>2013-07-27T12:08:05Z</time>
      </trkpt>
      <trkpt lat="46.05459" lon="6.30616">
        <ele>624</ele>
        <time>2013-07-27T12:08:06Z</time>
      </trkpt>
      <trkpt lat="46.05449" lon="6.30638">
        <ele>624</ele>
        <time>2013-07-27T12:08:07Z</time>
      </trkpt>
      <trkpt lat="46.05439" lon="6.3066">
        <ele>624</ele>
        <time>2013-07-27T12:08:08Z</time>
      </trkpt>
      <trkpt lat="46.05429" lon="6.30683">
        <ele>624</ele>
        <time>2013-07-27T12:08:09Z</time>
      </trkpt>
      <trkpt lat="46.05419" lon="6.30705">
        <ele>624</ele>
        <time>2013-07-27T12:08:10Z</time>
      </trkpt>
      <trkpt lat="46.05409" lon="6.30729">
        <ele>629</ele>
        <time>2013-07-27T12:08:11Z</time>
      </trkpt>
      <trkpt lat="46.05398" lon="6.30752">
        <ele>629</ele>
        <time>2013-07-27T12:08:12Z</time>
      </trkpt>
      <trkpt lat="46.05389" lon="6.30774">
        <ele>629</ele>
        <time>2013-07-27T12:08:13Z</time>
      </trkpt>
      <trkpt lat="46.0538" lon="6.30793">
        <ele>629</ele>
        <time>2013-07-27T12:08:14Z</time>
      </trkpt>
      <trkpt lat="46.05373" lon="6.30809">
        <ele>629</ele>
        <time>2013-07-27T12:08:15Z</time>
      </trkpt>
      <trkpt lat="46.05365" lon="6.30824">
        <ele>629</ele>
        <time>2013-07-27T12:08:16Z</time>
      </trkpt>
      <trkpt lat="46.05359" lon="6.30837">
        <ele>635</ele>
        <time>2013-07-27T12:08:17Z</time>
      </trkpt>
      <trkpt lat="46.05352" lon="6.30848">
        <ele>635</ele>
        <time>2013-07-27T12:08:18Z</time>
      </trkpt>
      <trkpt lat="46.05337" lon="6.30862">
        <ele>635</ele>
        <time>2013-07-27T12:08:20Z</time>
      </trkpt>
      <trkpt lat="46.0532" lon="6.30865">
        <ele>635</ele>
        <time>2013-07-27T12:08:22Z</time>
      </trkpt>
      <trkpt lat="46.05306" lon="6.30861">
        <ele>635</ele>
        <time>2013-07-27T12:08:24Z</time>
      </trkpt>
      <trkpt lat="46.05294" lon="6.30854">
        <ele>635</ele>
        <time>2013-07-27T12:08:26Z</time>
      </trkpt>
      <trkpt lat="46.05283" lon="6.30854">
        <ele>635</ele>
        <time>2013-07-27T12:08:28Z</time>
      </trkpt>
      <trkpt lat="46.05272" lon="6.30865">
        <ele>640</ele>
        <time>2013-07-27T12:08:30Z</time>
      </trkpt>
      <trkpt lat="46.0526" lon="6.30881">
        <ele>640</ele>
        <time>2013-07-27T12:08:32Z</time>
      </trkpt>
      <trkpt lat="46.05245" lon="6.30896">
        <ele>640</ele>
        <time>2013-07-27T12:08:34Z</time>
      </trkpt>
      <trkpt lat="46.05238" lon="6.30906">
        <ele>640</ele>
        <time>2013-07-27T12:08:35Z</time>
      </trkpt>
      <trkpt lat="46.05231" lon="6.30916">
        <ele>640</ele>
        <time>2013-07-27T12:08:36Z</time>
      </trkpt>
      <trkpt lat="46.05223" lon="6.30934">
        <ele>640</ele>
        <time>2013-07-27T12:08:38Z</time>
      </trkpt>
      <trkpt lat="46.05218" lon="6.30953">
        <ele>640</ele>
        <time>2013-07-27T12:08:40Z</time>
      </trkpt>
      <trkpt lat="46.05215" lon="6.30978">
        <ele>646</ele>
        <time>2013-07-27T12:08:42Z</time>
      </trkpt>
      <trkpt lat="46.05212" lon="6.31">
        <ele>646</ele>
        <time>2013-07-27T12:08:44Z</time>
      </trkpt>
      <trkpt lat="46.05206" lon="6.31022">
        <ele>646</ele>
        <time>2013-07-27T12:08:46Z</time>
      </trkpt>
      <trkpt lat="46.05199" lon="6.31031">
        <ele>646</ele>
        <time>2013-07-27T12:08:47Z</time>
      </trkpt>
      <trkpt lat="46.05192" lon="6.31039">
        <ele>646</ele>
        <time>2013-07-27T12:08:48Z</time>
      </trkpt>
      <trkpt lat="46.05183" lon="6.31048">
        <ele>646</ele>
        <time>2013-07-27T12:08:49Z</time>
      </trkpt>
      <trkpt lat="46.05175" lon="6.31057">
        <ele>646</ele>
        <time>2013-07-27T12:08:50Z</time>
      </trkpt>
      <trkpt lat="46.05168" lon="6.31067">
        <ele>646</ele>
        <time>2013-07-27T12:08:51Z</time>
      </trkpt>
      <trkpt lat="46.05161" lon="6.31077">
        <ele>646</ele>
        <time>2013-07-27T12:08:52Z</time>
      </trkpt>
      <trkpt lat="46.05155" lon="6.31089">
        <ele>646</ele>
        <time>2013-07-27T12:08:53Z</time>
      </trkpt>
      <trkpt lat="46.05145" lon="6.3111">
        <ele>646</ele>
        <time>2013-07-27T12:08:55Z</time>
      </trkpt>
      <trkpt lat="46.05135" lon="6.31125">
        <ele>652</ele>
        <time>2013-07-27T12:08:57Z</time>
      </trkpt>
      <trkpt lat="46.05124" lon="6.31137">
        <ele>652</ele>
        <time>2013-07-27T12:08:59Z</time>
      </trkpt>
      <trkpt lat="46.05113" lon="6.31144">
        <ele>652</ele>
        <time>2013-07-27T12:09:01Z</time>
      </trkpt>
      <trkpt lat="46.05103" lon="6.31146">
        <ele>652</ele>
        <time>2013-07-27T12:09:03Z</time>
      </trkpt>
      <trkpt lat="46.05093" lon="6.31142">
        <ele>652</ele>
        <time>2013-07-27T12:09:05Z</time>
      </trkpt>
      <trkpt lat="46.05107" lon="6.31145">
        <ele>657</ele>
        <time>2013-07-27T12:09:15Z</time>
      </trkpt>
      <trkpt lat="46.0512" lon="6.31141">
        <ele>657</ele>
        <time>2013-07-27T12:09:17Z</time>
      </trkpt>
      <trkpt lat="46.05132" lon="6.3113">
        <ele>657</ele>
        <time>2013-07-27T12:09:19Z</time>
      </trkpt>
      <trkpt lat="46.05143" lon="6.31115">
        <ele>657</ele>
        <time>2013-07-27T12:09:21Z</time>
      </trkpt>
      <trkpt lat="46.05154" lon="6.31095">
        <ele>652</ele>
        <time>2013-07-27T12:09:23Z</time>
      </trkpt>
      <trkpt lat="46.05163" lon="6.31075">
        <ele>652</ele>
        <time>2013-07-27T12:09:25Z</time>
      </trkpt>
      <trkpt lat="46.05174" lon="6.31058">
        <ele>652</ele>
        <time>2013-07-27T12:09:27Z</time>
      </trkpt>
      <trkpt lat="46.05187" lon="6.31043">
        <ele>652</ele>
        <time>2013-07-27T12:09:29Z</time>
      </trkpt>
      <trkpt lat="46.05198" lon="6.31031">
        <ele>647</ele>
        <time>2013-07-27T12:09:31Z</time>
      </trkpt>
      <trkpt lat="46.05205" lon="6.3102">
        <ele>647</ele>
        <time>2013-07-27T12:09:33Z</time>
      </trkpt>
      <trkpt lat="46.0521" lon="6.31005">
        <ele>647</ele>
        <time>2013-07-27T12:09:36Z</time>
      </trkpt>
      <trkpt lat="46.05212" lon="6.3099">
        <ele>647</ele>
        <time>2013-07-27T12:11:05Z</time>
      </trkpt>
      <trkpt lat="46.05215" lon="6.30977">
        <ele>647</ele>
        <time>2013-07-27T12:11:07Z</time>
      </trkpt>
      <trkpt lat="46.05217" lon="6.30961">
        <ele>647</ele>
        <time>2013-07-27T12:11:09Z</time>
      </trkpt>
      <trkpt lat="46.0522" lon="6.30949">
        <ele>641</ele>
        <time>2013-07-27T12:11:12Z</time>
      </trkpt>
      <trkpt lat="46.05233" lon="6.30953">
        <ele>641</ele>
        <time>2013-07-27T12:11:16Z</time>
      </trkpt>
      <trkpt lat="46.05246" lon="6.30969">
        <ele>641</ele>
        <time>2013-07-27T12:11:18Z</time>
      </trkpt>
      <trkpt lat="46.05254" lon="6.30977">
        <ele>641</ele>
        <time>2013-07-27T12:11:19Z</time>
      </trkpt>
      <trkpt lat="46.05262" lon="6.30986">
        <ele>636</ele>
        <time>2013-07-27T12:11:20Z</time>
      </trkpt>
      <trkpt lat="46.05269" lon="6.30994">
        <ele>636</ele>
        <time>2013-07-27T12:11:21Z</time>
      </trkpt>
      <trkpt lat="46.05277" lon="6.31004">
        <ele>636</ele>
        <time>2013-07-27T12:11:22Z</time>
      </trkpt>
      <trkpt lat="46.05287" lon="6.31023">
        <ele>630</ele>
        <time>2013-07-27T12:11:24Z</time>
      </trkpt>
      <trkpt lat="46.05289" lon="6.31043">
        <ele>630</ele>
        <time>2013-07-27T12:11:26Z</time>
      </trkpt>
      <trkpt lat="46.05282" lon="6.31067">
        <ele>630</ele>
        <time>2013-07-27T12:11:28Z</time>
      </trkpt>
      <trkpt lat="46.05277" lon="6.3108">
        <ele>630</ele>
        <time>2013-07-27T12:11:29Z</time>
      </trkpt>
      <trkpt lat="46.05274" lon="6.31093">
        <ele>630</ele>
        <time>2013-07-27T12:11:30Z</time>
      </trkpt>
      <trkpt lat="46.05269" lon="6.31107">
        <ele>630</ele>
        <time>2013-07-27T12:11:31Z</time>
      </trkpt>
      <trkpt lat="46.05265" lon="6.31121">
        <ele>630</ele>
        <time>2013-07-27T12:11:32Z</time>
      </trkpt>
      <trkpt lat="46.05261" lon="6.31136">
        <ele>630</ele>
        <time>2013-07-27T12:11:33Z</time>
      </trkpt>
      <trkpt lat="46.05258" lon="6.3115">
        <ele>630</ele>
        <time>2013-07-27T12:11:34Z</time>
      </trkpt>
      <trkpt lat="46.05254" lon="6.31164">
        <ele>630</ele>
        <time>2013-07-27T12:11:35Z</time>
      </trkpt>
      <trkpt lat="46.05249" lon="6.3118">
        <ele>630</ele>
        <time>2013-07-27T12:11:36Z</time>
      </trkpt>
      <trkpt lat="46.05244" lon="6.31195">
        <ele>630</ele>
        <time>2013-07-27T12:11:37Z</time>
      </trkpt>
      <trkpt lat="46.05237" lon="6.31211">
        <ele>630</ele>
        <time>2013-07-27T12:11:38Z</time>
      </trkpt>
      <trkpt lat="46.0523" lon="6.31226">
        <ele>630</ele>
        <time>2013-07-27T12:11:39Z</time>
      </trkpt>
      <trkpt lat="46.05224" lon="6.31243">
        <ele>630</ele>
        <time>2013-07-27T12:11:40Z</time>
      </trkpt>
      <trkpt lat="46.05217" lon="6.31257">
        <ele>630</ele>
        <time>2013-07-27T12:11:41Z</time>
      </trkpt>
      <trkpt lat="46.05211" lon="6.3127">
        <ele>630</ele>
        <time>2013-07-27T12:11:42Z</time>
      </trkpt>
      <trkpt lat="46.05206" lon="6.31284">
        <ele>630</ele>
        <time>2013-07-27T12:11:43Z</time>
      </trkpt>
      <trkpt lat="46.05201" lon="6.31297">
        <ele>630</ele>
        <time>2013-07-27T12:11:44Z</time>
      </trkpt>
      <trkpt lat="46.05197" lon="6.31321">
        <ele>630</ele>
        <time>2013-07-27T12:11:46Z</time>
      </trkpt>
      <trkpt lat="46.05197" lon="6.31341">
        <ele>630</ele>
        <time>2013-07-27T12:11:48Z</time>
      </trkpt>
      <trkpt lat="46.05203" lon="6.31356">
        <ele>630</ele>
        <time>2013-07-27T12:11:50Z</time>
      </trkpt>
      <trkpt lat="46.0522" lon="6.31364">
        <ele>630</ele>
        <time>2013-07-27T12:11:52Z</time>
      </trkpt>
      <trkpt lat="46.05229" lon="6.31367">
        <ele>625</ele>
        <time>2013-07-27T12:11:53Z</time>
      </trkpt>
      <trkpt lat="46.0524" lon="6.31372">
        <ele>625</ele>
        <time>2013-07-27T12:11:54Z</time>
      </trkpt>
      <trkpt lat="46.05249" lon="6.31376">
        <ele>625</ele>
        <time>2013-07-27T12:11:55Z</time>
      </trkpt>
      <trkpt lat="46.05263" lon="6.31382">
        <ele>625</ele>
        <time>2013-07-27T12:11:57Z</time>
      </trkpt>
      <trkpt lat="46.05272" lon="6.31385">
        <ele>625</ele>
        <time>2013-07-27T12:12:07Z</time>
      </trkpt>
      <trkpt lat="46.0527" lon="6.31405">
        <ele>625</ele>
        <time>2013-07-27T12:12:11Z</time>
      </trkpt>
      <trkpt lat="46.05263" lon="6.31424">
        <ele>625</ele>
        <time>2013-07-27T12:12:13Z</time>
      </trkpt>
      <trkpt lat="46.05256" lon="6.31444">
        <ele>625</ele>
        <time>2013-07-27T12:12:15Z</time>
      </trkpt>
      <trkpt lat="46.05248" lon="6.31464">
        <ele>625</ele>
        <time>2013-07-27T12:12:17Z</time>
      </trkpt>
      <trkpt lat="46.05239" lon="6.31478">
        <ele>625</ele>
        <time>2013-07-27T12:12:19Z</time>
      </trkpt>
      <trkpt lat="46.05237" lon="6.31493">
        <ele>625</ele>
        <time>2013-07-27T12:12:23Z</time>
      </trkpt>
      <trkpt lat="46.05251" lon="6.31501">
        <ele>625</ele>
        <time>2013-07-27T12:12:25Z</time>
      </trkpt>
      <trkpt lat="46.05267" lon="6.3151">
        <ele>625</ele>
        <time>2013-07-27T12:12:27Z</time>
      </trkpt>
      <trkpt lat="46.05283" lon="6.31526">
        <ele>625</ele>
        <time>2013-07-27T12:12:29Z</time>
      </trkpt>
      <trkpt lat="46.05291" lon="6.31534">
        <ele>625</ele>
        <time>2013-07-27T12:12:30Z</time>
      </trkpt>
      <trkpt lat="46.05306" lon="6.31547">
        <ele>619</ele>
        <time>2013-07-27T12:12:32Z</time>
      </trkpt>
      <trkpt lat="46.0532" lon="6.31559">
        <ele>619</ele>
        <time>2013-07-27T12:12:34Z</time>
      </trkpt>
      <trkpt lat="46.05329" lon="6.31564">
        <ele>619</ele>
        <time>2013-07-27T12:12:35Z</time>
      </trkpt>
      <trkpt lat="46.05345" lon="6.31573">
        <ele>619</ele>
        <time>2013-07-27T12:12:37Z</time>
      </trkpt>
      <trkpt lat="46.05361" lon="6.31576">
        <ele>613</ele>
        <time>2013-07-27T12:12:39Z</time>
      </trkpt>
      <trkpt lat="46.0537" lon="6.31577">
        <ele>613</ele>
        <time>2013-07-27T12:12:41Z</time>
      </trkpt>
      <trkpt lat="46.0537" lon="6.31591">
        <ele>613</ele>
        <time>2013-07-27T12:12:46Z</time>
      </trkpt>
      <trkpt lat="46.05373" lon="6.31604">
        <ele>613</ele>
        <time>2013-07-27T12:12:48Z</time>
      </trkpt>
      <trkpt lat="46.0538" lon="6.3162">
        <ele>613</ele>
        <time>2013-07-27T12:12:50Z</time>
      </trkpt>
      <trkpt lat="46.05385" lon="6.31634">
        <ele>613</ele>
        <time>2013-07-27T12:12:52Z</time>
      </trkpt>
      <trkpt lat="46.05394" lon="6.31645">
        <ele>613</ele>
        <time>2013-07-27T12:12:55Z</time>
      </trkpt>
      <trkpt lat="46.05407" lon="6.31648">
        <ele>613</ele>
        <time>2013-07-27T12:12:57Z</time>
      </trkpt>
      <trkpt lat="46.05423" lon="6.31646">
        <ele>608</ele>
        <time>2013-07-27T12:12:59Z</time>
      </trkpt>
      <trkpt lat="46.05437" lon="6.3165">
        <ele>608</ele>
        <time>2013-07-27T12:13:01Z</time>
      </trkpt>
      <trkpt lat="46.05449" lon="6.31658">
        <ele>608</ele>
        <time>2013-07-27T12:13:03Z</time>
      </trkpt>
      <trkpt lat="46.05457" lon="6.31666">
        <ele>608</ele>
        <time>2013-07-27T12:13:05Z</time>
      </trkpt>
      <trkpt lat="46.05471" lon="6.31676">
        <ele>608</ele>
        <time>2013-07-27T12:13:07Z</time>
      </trkpt>
      <trkpt lat="46.05481" lon="6.31682">
        <ele>608</ele>
        <time>2013-07-27T12:13:08Z</time>
      </trkpt>
      <trkpt lat="46.05491" lon="6.31686">
        <ele>602</ele>
        <time>2013-07-27T12:13:09Z</time>
      </trkpt>
      <trkpt lat="46.055" lon="6.31691">
        <ele>602</ele>
        <time>2013-07-27T12:13:10Z</time>
      </trkpt>
      <trkpt lat="46.05509" lon="6.31694">
        <ele>602</ele>
        <time>2013-07-27T12:13:11Z</time>
      </trkpt>
      <trkpt lat="46.05518" lon="6.31698">
        <ele>602</ele>
        <time>2013-07-27T12:13:12Z</time>
      </trkpt>
      <trkpt lat="46.05527" lon="6.31703">
        <ele>602</ele>
        <time>2013-07-27T12:13:13Z</time>
      </trkpt>
      <trkpt lat="46.05536" lon="6.31711">
        <ele>602</ele>
        <time>2013-07-27T12:13:14Z</time>
      </trkpt>
      <trkpt lat="46.05544" lon="6.31721">
        <ele>597</ele>
        <time>2013-07-27T12:13:15Z</time>
      </trkpt>
      <trkpt lat="46.05552" lon="6.3173">
        <ele>597</ele>
        <time>2013-07-27T12:13:16Z</time>
      </trkpt>
      <trkpt lat="46.05561" lon="6.3174">
        <ele>597</ele>
        <time>2013-07-27T12:13:17Z</time>
      </trkpt>
      <trkpt lat="46.05568" lon="6.3175">
        <ele>597</ele>
        <time>2013-07-27T12:13:18Z</time>
      </trkpt>
      <trkpt lat="46.05576" lon="6.31762">
        <ele>597</ele>
        <time>2013-07-27T12:13:19Z</time>
      </trkpt>
      <trkpt lat="46.05583" lon="6.31773">
        <ele>592</ele>
        <time>2013-07-27T12:13:20Z</time>
      </trkpt>
      <trkpt lat="46.0559" lon="6.31784">
        <ele>592</ele>
        <time>2013-07-27T12:13:21Z</time>
      </trkpt>
      <trkpt lat="46.05598" lon="6.31795">
        <ele>592</ele>
        <time>2013-07-27T12:13:22Z</time>
      </trkpt>
      <trkpt lat="46.05604" lon="6.31805">
        <ele>592</ele>
        <time>2013-07-27T12:13:23Z</time>
      </trkpt>
      <trkpt lat="46.05611" lon="6.31815">
        <ele>592</ele>
        <time>2013-07-27T12:13:24Z</time>
      </trkpt>
      <trkpt lat="46.05617" lon="6.31825">
        <ele>592</ele>
        <time>2013-07-27T12:13:25Z</time>
      </trkpt>
      <trkpt lat="46.05627" lon="6.31841">
        <ele>586</ele>
        <time>2013-07-27T12:13:27Z</time>
      </trkpt>
      <trkpt lat="46.05638" lon="6.31854">
        <ele>586</ele>
        <time>2013-07-27T12:13:29Z</time>
      </trkpt>
      <trkpt lat="46.05646" lon="6.31873">
        <ele>586</ele>
        <time>2013-07-27T12:13:31Z</time>
      </trkpt>
      <trkpt lat="46.05653" lon="6.31893">
        <ele>586</ele>
        <time>2013-07-27T12:13:33Z</time>
      </trkpt>
      <trkpt lat="46.05661" lon="6.31912">
        <ele>586</ele>
        <time>2013-07-27T12:13:35Z</time>
      </trkpt>
      <trkpt lat="46.05669" lon="6.31929">
        <ele>581</ele>
        <time>2013-07-27T12:13:37Z</time>
      </trkpt>
      <trkpt lat="46.05672" lon="6.31944">
        <ele>581</ele>
        <time>2013-07-27T12:13:39Z</time>
      </trkpt>
      <trkpt lat="46.05671" lon="6.3196">
        <ele>581</ele>
        <time>2013-07-27T12:13:41Z</time>
      </trkpt>
      <trkpt lat="46.05663" lon="6.31977">
        <ele>581</ele>
        <time>2013-07-27T12:13:43Z</time>
      </trkpt>
      <trkpt lat="46.05656" lon="6.31995">
        <ele>587</ele>
        <time>2013-07-27T12:13:45Z</time>
      </trkpt>
      <trkpt lat="46.05648" lon="6.32008">
        <ele>587</ele>
        <time>2013-07-27T12:13:47Z</time>
      </trkpt>
      <trkpt lat="46.05649" lon="6.32021">
        <ele>587</ele>
        <time>2013-07-27T12:13:50Z</time>
      </trkpt>
      <trkpt lat="46.05656" lon="6.32034">
        <ele>593</ele>
        <time>2013-07-27T12:13:52Z</time>
      </trkpt>
      <trkpt lat="46.05657" lon="6.32055">
        <ele>593</ele>
        <time>2013-07-27T12:13:55Z</time>
      </trkpt>
      <trkpt lat="46.05649" lon="6.32077">
        <ele>602</ele>
        <time>2013-07-27T12:13:57Z</time>
      </trkpt>
      <trkpt lat="46.05645" lon="6.32091">
        <ele>602</ele>
        <time>2013-07-27T12:13:58Z</time>
      </trkpt>
      <trkpt lat="46.05641" lon="6.32106">
        <ele>602</ele>
        <time>2013-07-27T12:13:59Z</time>
      </trkpt>
      <trkpt lat="46.05638" lon="6.32121">
        <ele>602</ele>
        <time>2013-07-27T12:14:00Z</time>
      </trkpt>
      <trkpt lat="46.05634" lon="6.32135">
        <ele>602</ele>
        <time>2013-07-27T12:14:01Z</time>
      </trkpt>
      <trkpt lat="46.05631" lon="6.32158">
        <ele>602</ele>
        <time>2013-07-27T12:14:03Z</time>
      </trkpt>
      <trkpt lat="46.05628" lon="6.32182">
        <ele>602</ele>
        <time>2013-07-27T12:14:05Z</time>
      </trkpt>
      <trkpt lat="46.05627" lon="6.32197">
        <ele>602</ele>
        <time>2013-07-27T12:14:06Z</time>
      </trkpt>
      <trkpt lat="46.05626" lon="6.32213">
        <ele>602</ele>
        <time>2013-07-27T12:14:07Z</time>
      </trkpt>
      <trkpt lat="46.05625" lon="6.32229">
        <ele>602</ele>
        <time>2013-07-27T12:14:08Z</time>
      </trkpt>
      <trkpt lat="46.05624" lon="6.32243">
        <ele>602</ele>
        <time>2013-07-27T12:14:09Z</time>
      </trkpt>
      <trkpt lat="46.0562" lon="6.32266">
        <ele>602</ele>
        <time>2013-07-27T12:14:11Z</time>
      </trkpt>
      <trkpt lat="46.05619" lon="6.3228">
        <ele>608</ele>
        <time>2013-07-27T12:14:13Z</time>
      </trkpt>
      <trkpt lat="46.05618" lon="6.32297">
        <ele>608</ele>
        <time>2013-07-27T12:14:16Z</time>
      </trkpt>
      <trkpt lat="46.05611" lon="6.3232">
        <ele>608</ele>
        <time>2013-07-27T12:14:18Z</time>
      </trkpt>
      <trkpt lat="46.05605" lon="6.32335">
        <ele>608</ele>
        <time>2013-07-27T12:14:19Z</time>
      </trkpt>
      <trkpt lat="46.05598" lon="6.3235">
        <ele>608</ele>
        <time>2013-07-27T12:14:20Z</time>
      </trkpt>
      <trkpt lat="46.05591" lon="6.32368">
        <ele>608</ele>
        <time>2013-07-27T12:14:21Z</time>
      </trkpt>
      <trkpt lat="46.05584" lon="6.32387">
        <ele>608</ele>
        <time>2013-07-27T12:14:22Z</time>
      </trkpt>
      <trkpt lat="46.05577" lon="6.32407">
        <ele>608</ele>
        <time>2013-07-27T12:14:23Z</time>
      </trkpt>
      <trkpt lat="46.05569" lon="6.32427">
        <ele>608</ele>
        <time>2013-07-27T12:14:24Z</time>
      </trkpt>
      <trkpt lat="46.05561" lon="6.32446">
        <ele>608</ele>
        <time>2013-07-27T12:14:25Z</time>
      </trkpt>
      <trkpt lat="46.05551" lon="6.32466">
        <ele>608</ele>
        <time>2013-07-27T12:14:26Z</time>
      </trkpt>
      <trkpt lat="46.05542" lon="6.32487">
        <ele>608</ele>
        <time>2013-07-27T12:14:27Z</time>
      </trkpt>
      <trkpt lat="46.05532" lon="6.32507">
        <ele>608</ele>
        <time>2013-07-27T12:14:28Z</time>
      </trkpt>
      <trkpt lat="46.05524" lon="6.32525">
        <ele>608</ele>
        <time>2013-07-27T12:14:29Z</time>
      </trkpt>
      <trkpt lat="46.05514" lon="6.32543">
        <ele>608</ele>
        <time>2013-07-27T12:14:30Z</time>
      </trkpt>
      <trkpt lat="46.05506" lon="6.3256">
        <ele>608</ele>
        <time>2013-07-27T12:14:31Z</time>
      </trkpt>
      <trkpt lat="46.05497" lon="6.32578">
        <ele>608</ele>
        <time>2013-07-27T12:14:32Z</time>
      </trkpt>
      <trkpt lat="46.05489" lon="6.32595">
        <ele>608</ele>
        <time>2013-07-27T12:14:33Z</time>
      </trkpt>
      <trkpt lat="46.05479" lon="6.32612">
        <ele>608</ele>
        <time>2013-07-27T12:14:34Z</time>
      </trkpt>
      <trkpt lat="46.0547" lon="6.32628">
        <ele>608</ele>
        <time>2013-07-27T12:14:35Z</time>
      </trkpt>
      <trkpt lat="46.05461" lon="6.32642">
        <ele>608</ele>
        <time>2013-07-27T12:14:36Z</time>
      </trkpt>
      <trkpt lat="46.05453" lon="6.32656">
        <ele>608</ele>
        <time>2013-07-27T12:14:37Z</time>
      </trkpt>
      <trkpt lat="46.05446" lon="6.32667">
        <ele>608</ele>
        <time>2013-07-27T12:14:38Z</time>
      </trkpt>
      <trkpt lat="46.05439" lon="6.32678">
        <ele>608</ele>
        <time>2013-07-27T12:14:39Z</time>
      </trkpt>
      <trkpt lat="46.0543" lon="6.32693">
        <ele>608</ele>
        <time>2013-07-27T12:14:41Z</time>
      </trkpt>
      <trkpt lat="46.05425" lon="6.32705">
        <ele>608</ele>
        <time>2013-07-27T12:14:44Z</time>
      </trkpt>
      <trkpt lat="46.05433" lon="6.32719">
        <ele>608</ele>
        <time>2013-07-27T12:14:47Z</time>
      </trkpt>
      <trkpt lat="46.05447" lon="6.3273">
        <ele>608</ele>
        <time>2013-07-27T12:14:49Z</time>
      </trkpt>
      <trkpt lat="46.05455" lon="6.32738">
        <ele>602</ele>
        <time>2013-07-27T12:14:50Z</time>
      </trkpt>
      <trkpt lat="46.05463" lon="6.32747">
        <ele>602</ele>
        <time>2013-07-27T12:14:51Z</time>
      </trkpt>
      <trkpt lat="46.05475" lon="6.32766">
        <ele>602</ele>
        <time>2013-07-27T12:14:53Z</time>
      </trkpt>
      <trkpt lat="46.05477" lon="6.32781">
        <ele>602</ele>
        <time>2013-07-27T12:14:54Z</time>
      </trkpt>
      <trkpt lat="46.05474" lon="6.32794">
        <ele>602</ele>
        <time>2013-07-27T12:14:55Z</time>
      </trkpt>
      <trkpt lat="46.05472" lon="6.32816">
        <ele>602</ele>
        <time>2013-07-27T12:14:57Z</time>
      </trkpt>
      <trkpt lat="46.05473" lon="6.32832">
        <ele>602</ele>
        <time>2013-07-27T12:15:00Z</time>
      </trkpt>
      <trkpt lat="46.05482" lon="6.3283">
        <ele>596</ele>
        <time>2013-07-27T12:15:02Z</time>
      </trkpt>
      <trkpt lat="46.05494" lon="6.32813">
        <ele>596</ele>
        <time>2013-07-27T12:15:04Z</time>
      </trkpt>
      <trkpt lat="46.05501" lon="6.32801">
        <ele>590</ele>
        <time>2013-07-27T12:15:05Z</time>
      </trkpt>
      <trkpt lat="46.05506" lon="6.32788">
        <ele>590</ele>
        <time>2013-07-27T12:15:06Z</time>
      </trkpt>
      <trkpt lat="46.05514" lon="6.32773">
        <ele>590</ele>
        <time>2013-07-27T12:15:07Z</time>
      </trkpt>
      <trkpt lat="46.05522" lon="6.3276">
        <ele>584</ele>
        <time>2013-07-27T12:15:08Z</time>
      </trkpt>
      <trkpt lat="46.0553" lon="6.32747">
        <ele>584</ele>
        <time>2013-07-27T12:15:09Z</time>
      </trkpt>
      <trkpt lat="46.05537" lon="6.32735">
        <ele>584</ele>
        <time>2013-07-27T12:15:10Z</time>
      </trkpt>
      <trkpt lat="46.05545" lon="6.32722">
        <ele>578</ele>
        <time>2013-07-27T12:15:11Z</time>
      </trkpt>
      <trkpt lat="46.05553" lon="6.32709">
        <ele>578</ele>
        <time>2013-07-27T12:15:12Z</time>
      </trkpt>
      <trkpt lat="46.05561" lon="6.32696">
        <ele>578</ele>
        <time>2013-07-27T12:15:13Z</time>
      </trkpt>
      <trkpt lat="46.05568" lon="6.32684">
        <ele>578</ele>
        <time>2013-07-27T12:15:14Z</time>
      </trkpt>
      <trkpt lat="46.05577" lon="6.32675">
        <ele>578</ele>
        <time>2013-07-27T12:15:15Z</time>
      </trkpt>
      <trkpt lat="46.05588" lon="6.32663">
        <ele>578</ele>
        <time>2013-07-27T12:15:17Z</time>
      </trkpt>
      <trkpt lat="46.05598" lon="6.32661">
        <ele>578</ele>
        <time>2013-07-27T12:15:20Z</time>
      </trkpt>
      <trkpt lat="46.05606" lon="6.32655">
        <ele>578</ele>
        <time>2013-07-27T12:15:22Z</time>
      </trkpt>
      <trkpt lat="46.05618" lon="6.32641">
        <ele>578</ele>
        <time>2013-07-27T12:15:24Z</time>
      </trkpt>
      <trkpt lat="46.05629" lon="6.32628">
        <ele>578</ele>
        <time>2013-07-27T12:15:26Z</time>
      </trkpt>
      <trkpt lat="46.05642" lon="6.32615">
        <ele>573</ele>
        <time>2013-07-27T12:15:28Z</time>
      </trkpt>
      <trkpt lat="46.05651" lon="6.32605">
        <ele>573</ele>
        <time>2013-07-27T12:15:30Z</time>
      </trkpt>
      <trkpt lat="46.0566" lon="6.326">
        <ele>573</ele>
        <time>2013-07-27T12:15:32Z</time>
      </trkpt>
      <trkpt lat="46.05671" lon="6.326">
        <ele>579</ele>
        <time>2013-07-27T12:15:35Z</time>
      </trkpt>
      <trkpt lat="46.05681" lon="6.3261">
        <ele>579</ele>
        <time>2013-07-27T12:15:38Z</time>
      </trkpt>
      <trkpt lat="46.05693" lon="6.32611">
        <ele>589</ele>
        <time>2013-07-27T12:15:40Z</time>
      </trkpt>
      <trkpt lat="46.05703" lon="6.32611">
        <ele>589</ele>
        <time>2013-07-27T12:15:42Z</time>
      </trkpt>
      <trkpt lat="46.05714" lon="6.32613">
        <ele>596</ele>
        <time>2013-07-27T12:15:44Z</time>
      </trkpt>
      <trkpt lat="46.05728" lon="6.32616">
        <ele>596</ele>
        <time>2013-07-27T12:15:46Z</time>
      </trkpt>
      <trkpt lat="46.0574" lon="6.32615">
        <ele>596</ele>
        <time>2013-07-27T12:15:48Z</time>
      </trkpt>
      <trkpt lat="46.05755" lon="6.32611">
        <ele>596</ele>
        <time>2013-07-27T12:15:50Z</time>
      </trkpt>
      <trkpt lat="46.05771" lon="6.32606">
        <ele>601</ele>
        <time>2013-07-27T12:15:52Z</time>
      </trkpt>
      <trkpt lat="46.05781" lon="6.32604">
        <ele>601</ele>
        <time>2013-07-27T12:15:53Z</time>
      </trkpt>
      <trkpt lat="46.0579" lon="6.32603">
        <ele>601</ele>
        <time>2013-07-27T12:15:54Z</time>
      </trkpt>
      <trkpt lat="46.05806" lon="6.32597">
        <ele>609</ele>
        <time>2013-07-27T12:15:56Z</time>
      </trkpt>
      <trkpt lat="46.05816" lon="6.32594">
        <ele>609</ele>
        <time>2013-07-27T12:15:57Z</time>
      </trkpt>
      <trkpt lat="46.05833" lon="6.32598">
        <ele>609</ele>
        <time>2013-07-27T12:15:59Z</time>
      </trkpt>
      <trkpt lat="46.05843" lon="6.32606">
        <ele>609</ele>
        <time>2013-07-27T12:16:00Z</time>
      </trkpt>
      <trkpt lat="46.05854" lon="6.32615">
        <ele>609</ele>
        <time>2013-07-27T12:16:01Z</time>
      </trkpt>
      <trkpt lat="46.05865" lon="6.32632">
        <ele>609</ele>
        <time>2013-07-27T12:16:03Z</time>
      </trkpt>
      <trkpt lat="46.05873" lon="6.32657">
        <ele>603</ele>
        <time>2013-07-27T12:16:05Z</time>
      </trkpt>
      <trkpt lat="46.0588" lon="6.32668">
        <ele>603</ele>
        <time>2013-07-27T12:16:06Z</time>
      </trkpt>
      <trkpt lat="46.05886" lon="6.32682">
        <ele>592</ele>
        <time>2013-07-27T12:16:07Z</time>
      </trkpt>
      <trkpt lat="46.05899" lon="6.3271">
        <ele>583</ele>
        <time>2013-07-27T12:16:09Z</time>
      </trkpt>
      <trkpt lat="46.05903" lon="6.32721">
        <ele>583</ele>
        <time>2013-07-27T12:16:10Z</time>
      </trkpt>
      <trkpt lat="46.05908" lon="6.32743">
        <ele>571</ele>
        <time>2013-07-27T12:16:12Z</time>
      </trkpt>
      <trkpt lat="46.05906" lon="6.32764">
        <ele>565</ele>
        <time>2013-07-27T12:16:14Z</time>
      </trkpt>
      <trkpt lat="46.05906" lon="6.32778">
        <ele>565</ele>
        <time>2013-07-27T12:16:15Z</time>
      </trkpt>
      <trkpt lat="46.05909" lon="6.32794">
        <ele>565</ele>
        <time>2013-07-27T12:16:16Z</time>
      </trkpt>
      <trkpt lat="46.0591" lon="6.32808">
        <ele>565</ele>
        <time>2013-07-27T12:16:17Z</time>
      </trkpt>
      <trkpt lat="46.05909" lon="6.32831">
        <ele>565</ele>
        <time>2013-07-27T12:16:19Z</time>
      </trkpt>
      <trkpt lat="46.05901" lon="6.32849">
        <ele>565</ele>
        <time>2013-07-27T12:16:21Z</time>
      </trkpt>
      <trkpt lat="46.0589" lon="6.32865">
        <ele>565</ele>
        <time>2013-07-27T12:16:23Z</time>
      </trkpt>
      <trkpt lat="46.05877" lon="6.32883">
        <ele>565</ele>
        <time>2013-07-27T12:16:25Z</time>
      </trkpt>
      <trkpt lat="46.05864" lon="6.329">
        <ele>565</ele>
        <time>2013-07-27T12:16:27Z</time>
      </trkpt>
      <trkpt lat="46.05851" lon="6.32918">
        <ele>565</ele>
        <time>2013-07-27T12:16:29Z</time>
      </trkpt>
      <trkpt lat="46.05839" lon="6.32935">
        <ele>565</ele>
        <time>2013-07-27T12:16:31Z</time>
      </trkpt>
      <trkpt lat="46.05833" lon="6.32945">
        <ele>565</ele>
        <time>2013-07-27T12:16:32Z</time>
      </trkpt>
      <trkpt lat="46.05825" lon="6.32957">
        <ele>565</ele>
        <time>2013-07-27T12:16:34Z</time>
      </trkpt>
      <trkpt lat="46.05818" lon="6.32966">
        <ele>574</ele>
        <time>2013-07-27T12:16:41Z</time>
      </trkpt>
      <trkpt lat="46.05813" lon="6.3298">
        <ele>574</ele>
        <time>2013-07-27T12:16:43Z</time>
      </trkpt>
      <trkpt lat="46.05805" lon="6.32994">
        <ele>574</ele>
        <time>2013-07-27T12:16:45Z</time>
      </trkpt>
      <trkpt lat="46.05796" lon="6.33003">
        <ele>574</ele>
        <time>2013-07-27T12:16:47Z</time>
      </trkpt>
      <trkpt lat="46.05788" lon="6.33017">
        <ele>574</ele>
        <time>2013-07-27T12:16:49Z</time>
      </trkpt>
      <trkpt lat="46.05782" lon="6.33034">
        <ele>574</ele>
        <time>2013-07-27T12:16:51Z</time>
      </trkpt>
      <trkpt lat="46.05776" lon="6.33051">
        <ele>574</ele>
        <time>2013-07-27T12:16:53Z</time>
      </trkpt>
      <trkpt lat="46.05769" lon="6.33067">
        <ele>574</ele>
        <time>2013-07-27T12:16:55Z</time>
      </trkpt>
      <trkpt lat="46.05765" lon="6.33088">
        <ele>574</ele>
        <time>2013-07-27T12:16:57Z</time>
      </trkpt>
      <trkpt lat="46.0576" lon="6.33111">
        <ele>574</ele>
        <time>2013-07-27T12:16:59Z</time>
      </trkpt>
      <trkpt lat="46.05756" lon="6.33135">
        <ele>574</ele>
        <time>2013-07-27T12:17:01Z</time>
      </trkpt>
      <trkpt lat="46.05752" lon="6.33161">
        <ele>574</ele>
        <time>2013-07-27T12:17:03Z</time>
      </trkpt>
      <trkpt lat="46.05748" lon="6.33187">
        <ele>574</ele>
        <time>2013-07-27T12:17:05Z</time>
      </trkpt>
      <trkpt lat="46.05744" lon="6.33214">
        <ele>574</ele>
        <time>2013-07-27T12:17:07Z</time>
      </trkpt>
      <trkpt lat="46.05744" lon="6.33228">
        <ele>574</ele>
        <time>2013-07-27T12:17:08Z</time>
      </trkpt>
      <trkpt lat="46.05744" lon="6.33243">
        <ele>574</ele>
        <time>2013-07-27T12:17:09Z</time>
      </trkpt>
      <trkpt lat="46.05743" lon="6.33257">
        <ele>574</ele>
        <time>2013-07-27T12:17:10Z</time>
      </trkpt>
      <trkpt lat="46.05741" lon="6.33281">
        <ele>574</ele>
        <time>2013-07-27T12:17:12Z</time>
      </trkpt>
      <trkpt lat="46.05739" lon="6.33306">
        <ele>574</ele>
        <time>2013-07-27T12:17:14Z</time>
      </trkpt>
      <trkpt lat="46.05736" lon="6.33328">
        <ele>574</ele>
        <time>2013-07-27T12:17:16Z</time>
      </trkpt>
      <trkpt lat="46.05732" lon="6.33344">
        <ele>574</ele>
        <time>2013-07-27T12:17:18Z</time>
      </trkpt>
      <trkpt lat="46.05724" lon="6.33352">
        <ele>574</ele>
        <time>2013-07-27T12:17:22Z</time>
      </trkpt>
      <trkpt lat="46.05714" lon="6.33352">
        <ele>574</ele>
        <time>2013-07-27T12:17:25Z</time>
      </trkpt>
      <trkpt lat="46.05704" lon="6.33356">
        <ele>574</ele>
        <time>2013-07-27T12:17:27Z</time>
      </trkpt>
      <trkpt lat="46.05696" lon="6.33367">
        <ele>574</ele>
        <time>2013-07-27T12:17:29Z</time>
      </trkpt>
      <trkpt lat="46.05687" lon="6.33374">
        <ele>574</ele>
        <time>2013-07-27T12:17:31Z</time>
      </trkpt>
      <trkpt lat="46.0568" lon="6.33385">
        <ele>574</ele>
        <time>2013-07-27T12:17:34Z</time>
      </trkpt>
      <trkpt lat="46.05674" lon="6.334">
        <ele>574</ele>
        <time>2013-07-27T12:17:37Z</time>
      </trkpt>
      <trkpt lat="46.05666" lon="6.33412">
        <ele>574</ele>
        <time>2013-07-27T12:17:40Z</time>
      </trkpt>
      <trkpt lat="46.05665" lon="6.33429">
        <ele>574</ele>
        <time>2013-07-27T12:17:45Z</time>
      </trkpt>
      <trkpt lat="46.05664" lon="6.33443">
        <ele>574</ele>
        <time>2013-07-27T12:17:47Z</time>
      </trkpt>
      <trkpt lat="46.05664" lon="6.33458">
        <ele>574</ele>
        <time>2013-07-27T12:17:49Z</time>
      </trkpt>
      <trkpt lat="46.05664" lon="6.33471">
        <ele>574</ele>
        <time>2013-07-27T12:17:52Z</time>
      </trkpt>
      <trkpt lat="46.05658" lon="6.33484">
        <ele>574</ele>
        <time>2013-07-27T12:17:55Z</time>
      </trkpt>
      <trkpt lat="46.05651" lon="6.33496">
        <ele>580</ele>
        <time>2013-07-27T12:17:57Z</time>
      </trkpt>
      <trkpt lat="46.05646" lon="6.3351">
        <ele>580</ele>
        <time>2013-07-27T12:18:00Z</time>
      </trkpt>
      <trkpt lat="46.05643" lon="6.33523">
        <ele>580</ele>
        <time>2013-07-27T12:18:02Z</time>
      </trkpt>
      <trkpt lat="46.05641" lon="6.33537">
        <ele>580</ele>
        <time>2013-07-27T12:18:04Z</time>
      </trkpt>
      <trkpt lat="46.05645" lon="6.33556">
        <ele>580</ele>
        <time>2013-07-27T12:18:07Z</time>
      </trkpt>
      <trkpt lat="46.05652" lon="6.33565">
        <ele>580</ele>
        <time>2013-07-27T12:18:09Z</time>
      </trkpt>
      <trkpt lat="46.05659" lon="6.33574">
        <ele>580</ele>
        <time>2013-07-27T12:18:11Z</time>
      </trkpt>
      <trkpt lat="46.05661" lon="6.33588">
        <ele>580</ele>
        <time>2013-07-27T12:18:14Z</time>
      </trkpt>
      <trkpt lat="46.05663" lon="6.33602">
        <ele>580</ele>
        <time>2013-07-27T12:18:16Z</time>
      </trkpt>
      <trkpt lat="46.05667" lon="6.33614">
        <ele>580</ele>
        <time>2013-07-27T12:18:18Z</time>
      </trkpt>
      <trkpt lat="46.05671" lon="6.33631">
        <ele>580</ele>
        <time>2013-07-27T12:18:20Z</time>
      </trkpt>
      <trkpt lat="46.05676" lon="6.33647">
        <ele>580</ele>
        <time>2013-07-27T12:18:22Z</time>
      </trkpt>
      <trkpt lat="46.05679" lon="6.33662">
        <ele>580</ele>
        <time>2013-07-27T12:18:24Z</time>
      </trkpt>
      <trkpt lat="46.05684" lon="6.33678">
        <ele>574</ele>
        <time>2013-07-27T12:18:26Z</time>
      </trkpt>
      <trkpt lat="46.05685" lon="6.33692">
        <ele>574</ele>
        <time>2013-07-27T12:18:28Z</time>
      </trkpt>
      <trkpt lat="46.05684" lon="6.33708">
        <ele>574</ele>
        <time>2013-07-27T12:18:30Z</time>
      </trkpt>
      <trkpt lat="46.05684" lon="6.33726">
        <ele>574</ele>
        <time>2013-07-27T12:18:32Z</time>
      </trkpt>
      <trkpt lat="46.05683" lon="6.33744">
        <ele>574</ele>
        <time>2013-07-27T12:18:34Z</time>
      </trkpt>
      <trkpt lat="46.05681" lon="6.33761">
        <ele>574</ele>
        <time>2013-07-27T12:18:36Z</time>
      </trkpt>
      <trkpt lat="46.05681" lon="6.33776">
        <ele>574</ele>
        <time>2013-07-27T12:18:39Z</time>
      </trkpt>
      <trkpt lat="46.05687" lon="6.33789">
        <ele>574</ele>
        <time>2013-07-27T12:18:42Z</time>
      </trkpt>
      <trkpt lat="46.05693" lon="6.33805">
        <ele>567</ele>
        <time>2013-07-27T12:18:44Z</time>
      </trkpt>
      <trkpt lat="46.05701" lon="6.33822">
        <ele>567</ele>
        <time>2013-07-27T12:18:46Z</time>
      </trkpt>
      <trkpt lat="46.05707" lon="6.33838">
        <ele>567</ele>
        <time>2013-07-27T12:18:48Z</time>
      </trkpt>
      <trkpt lat="46.05708" lon="6.33853">
        <ele>567</ele>
        <time>2013-07-27T12:18:50Z</time>
      </trkpt>
      <trkpt lat="46.05708" lon="6.33867">
        <ele>558</ele>
        <time>2013-07-27T12:18:52Z</time>
      </trkpt>
      <trkpt lat="46.05715" lon="6.33883">
        <ele>558</ele>
        <time>2013-07-27T12:18:55Z</time>
      </trkpt>
      <trkpt lat="46.05725" lon="6.3389">
        <ele>551</ele>
        <time>2013-07-27T12:18:57Z</time>
      </trkpt>
      <trkpt lat="46.05736" lon="6.33894">
        <ele>551</ele>
        <time>2013-07-27T12:18:59Z</time>
      </trkpt>
      <trkpt lat="46.05745" lon="6.33894">
        <ele>545</ele>
        <time>2013-07-27T12:19:01Z</time>
      </trkpt>
      <trkpt lat="46.05757" lon="6.33894">
        <ele>545</ele>
        <time>2013-07-27T12:19:03Z</time>
      </trkpt>
      <trkpt lat="46.05768" lon="6.33894">
        <ele>545</ele>
        <time>2013-07-27T12:19:05Z</time>
      </trkpt>
      <trkpt lat="46.05778" lon="6.33892">
        <ele>545</ele>
        <time>2013-07-27T12:19:07Z</time>
      </trkpt>
      <trkpt lat="46.05788" lon="6.33893">
        <ele>539</ele>
        <time>2013-07-27T12:19:09Z</time>
      </trkpt>
      <trkpt lat="46.05798" lon="6.33895">
        <ele>539</ele>
        <time>2013-07-27T12:19:11Z</time>
      </trkpt>
      <trkpt lat="46.05807" lon="6.33899">
        <ele>539</ele>
        <time>2013-07-27T12:19:13Z</time>
      </trkpt>
      <trkpt lat="46.05818" lon="6.33906">
        <ele>539</ele>
        <time>2013-07-27T12:19:16Z</time>
      </trkpt>
      <trkpt lat="46.05828" lon="6.33908">
        <ele>539</ele>
        <time>2013-07-27T12:19:18Z</time>
      </trkpt>
      <trkpt lat="46.05838" lon="6.33896">
        <ele>539</ele>
        <time>2013-07-27T12:19:20Z</time>
      </trkpt>
      <trkpt lat="46.05847" lon="6.33873">
        <ele>533</ele>
        <time>2013-07-27T12:19:22Z</time>
      </trkpt>
      <trkpt lat="46.0585" lon="6.33857">
        <ele>533</ele>
        <time>2013-07-27T12:19:23Z</time>
      </trkpt>
      <trkpt lat="46.05853" lon="6.3384">
        <ele>533</ele>
        <time>2013-07-27T12:19:24Z</time>
      </trkpt>
      <trkpt lat="46.05859" lon="6.33823">
        <ele>533</ele>
        <time>2013-07-27T12:19:25Z</time>
      </trkpt>
      <trkpt lat="46.05866" lon="6.33806">
        <ele>533</ele>
        <time>2013-07-27T12:19:26Z</time>
      </trkpt>
      <trkpt lat="46.05875" lon="6.3379">
        <ele>533</ele>
        <time>2013-07-27T12:19:27Z</time>
      </trkpt>
      <trkpt lat="46.05886" lon="6.33777">
        <ele>533</ele>
        <time>2013-07-27T12:19:28Z</time>
      </trkpt>
      <trkpt lat="46.05896" lon="6.33764">
        <ele>528</ele>
        <time>2013-07-27T12:19:29Z</time>
      </trkpt>
      <trkpt lat="46.05907" lon="6.33754">
        <ele>528</ele>
        <time>2013-07-27T12:19:30Z</time>
      </trkpt>
      <trkpt lat="46.05918" lon="6.33746">
        <ele>528</ele>
        <time>2013-07-27T12:19:31Z</time>
      </trkpt>
      <trkpt lat="46.05928" lon="6.33741">
        <ele>528</ele>
        <time>2013-07-27T12:19:32Z</time>
      </trkpt>
      <trkpt lat="46.05938" lon="6.33736">
        <ele>528</ele>
        <time>2013-07-27T12:19:33Z</time>
      </trkpt>
      <trkpt lat="46.05948" lon="6.33733">
        <ele>528</ele>
        <time>2013-07-27T12:19:34Z</time>
      </trkpt>
      <trkpt lat="46.05958" lon="6.33732">
        <ele>528</ele>
        <time>2013-07-27T12:19:35Z</time>
      </trkpt>
      <trkpt lat="46.05967" lon="6.33735">
        <ele>528</ele>
        <time>2013-07-27T12:19:36Z</time>
      </trkpt>
      <trkpt lat="46.05975" lon="6.33742">
        <ele>528</ele>
        <time>2013-07-27T12:19:37Z</time>
      </trkpt>
      <trkpt lat="46.05982" lon="6.33754">
        <ele>528</ele>
        <time>2013-07-27T12:19:38Z</time>
      </trkpt>
      <trkpt lat="46.05987" lon="6.3377">
        <ele>528</ele>
        <time>2013-07-27T12:19:39Z</time>
      </trkpt>
      <trkpt lat="46.05992" lon="6.33787">
        <ele>528</ele>
        <time>2013-07-27T12:19:40Z</time>
      </trkpt>
      <trkpt lat="46.05997" lon="6.33805">
        <ele>528</ele>
        <time>2013-07-27T12:19:41Z</time>
      </trkpt>
      <trkpt lat="46.06001" lon="6.33822">
        <ele>528</ele>
        <time>2013-07-27T12:19:42Z</time>
      </trkpt>
      <trkpt lat="46.06005" lon="6.33838">
        <ele>528</ele>
        <time>2013-07-27T12:19:43Z</time>
      </trkpt>
      <trkpt lat="46.06009" lon="6.33852">
        <ele>528</ele>
        <time>2013-07-27T12:19:44Z</time>
      </trkpt>
      <trkpt lat="46.06013" lon="6.33865">
        <ele>528</ele>
        <time>2013-07-27T12:19:45Z</time>
      </trkpt>
      <trkpt lat="46.06025" lon="6.33881">
        <ele>523</ele>
        <time>2013-07-27T12:19:47Z</time>
      </trkpt>
      <trkpt lat="46.06041" lon="6.33881">
        <ele>523</ele>
        <time>2013-07-27T12:19:49Z</time>
      </trkpt>
      <trkpt lat="46.06051" lon="6.33871">
        <ele>523</ele>
        <time>2013-07-27T12:19:50Z</time>
      </trkpt>
      <trkpt lat="46.0606" lon="6.33855">
        <ele>523</ele>
        <time>2013-07-27T12:19:51Z</time>
      </trkpt>
      <trkpt lat="46.06066" lon="6.33838">
        <ele>523</ele>
        <time>2013-07-27T12:19:52Z</time>
      </trkpt>
      <trkpt lat="46.06073" lon="6.33822">
        <ele>517</ele>
        <time>2013-07-27T12:19:53Z</time>
      </trkpt>
      <trkpt lat="46.0608" lon="6.33806">
        <ele>517</ele>
        <time>2013-07-27T12:19:54Z</time>
      </trkpt>
      <trkpt lat="46.06087" lon="6.33792">
        <ele>517</ele>
        <time>2013-07-27T12:19:55Z</time>
      </trkpt>
      <trkpt lat="46.06094" lon="6.33779">
        <ele>517</ele>
        <time>2013-07-27T12:19:56Z</time>
      </trkpt>
      <trkpt lat="46.06102" lon="6.33766">
        <ele>517</ele>
        <time>2013-07-27T12:19:57Z</time>
      </trkpt>
      <trkpt lat="46.06108" lon="6.33753">
        <ele>517</ele>
        <time>2013-07-27T12:19:58Z</time>
      </trkpt>
      <trkpt lat="46.06117" lon="6.33742">
        <ele>511</ele>
        <time>2013-07-27T12:19:59Z</time>
      </trkpt>
      <trkpt lat="46.06124" lon="6.33729">
        <ele>511</ele>
        <time>2013-07-27T12:20:00Z</time>
      </trkpt>
      <trkpt lat="46.06133" lon="6.33717">
        <ele>511</ele>
        <time>2013-07-27T12:20:01Z</time>
      </trkpt>
      <trkpt lat="46.06141" lon="6.33705">
        <ele>511</ele>
        <time>2013-07-27T12:20:02Z</time>
      </trkpt>
      <trkpt lat="46.0615" lon="6.33694">
        <ele>511</ele>
        <time>2013-07-27T12:20:03Z</time>
      </trkpt>
      <trkpt lat="46.06158" lon="6.33683">
        <ele>511</ele>
        <time>2013-07-27T12:20:04Z</time>
      </trkpt>
      <trkpt lat="46.06167" lon="6.33673">
        <ele>506</ele>
        <time>2013-07-27T12:20:05Z</time>
      </trkpt>
      <trkpt lat="46.06176" lon="6.33666">
        <ele>506</ele>
        <time>2013-07-27T12:20:06Z</time>
      </trkpt>
      <trkpt lat="46.06186" lon="6.33661">
        <ele>506</ele>
        <time>2013-07-27T12:20:07Z</time>
      </trkpt>
      <trkpt lat="46.06196" lon="6.33656">
        <ele>506</ele>
        <time>2013-07-27T12:20:08Z</time>
      </trkpt>
      <trkpt lat="46.06205" lon="6.33653">
        <ele>506</ele>
        <time>2013-07-27T12:20:09Z</time>
      </trkpt>
      <trkpt lat="46.06215" lon="6.3365">
        <ele>506</ele>
        <time>2013-07-27T12:20:10Z</time>
      </trkpt>
      <trkpt lat="46.06224" lon="6.33647">
        <ele>501</ele>
        <time>2013-07-27T12:20:11Z</time>
      </trkpt>
      <trkpt lat="46.06234" lon="6.33646">
        <ele>501</ele>
        <time>2013-07-27T12:20:12Z</time>
      </trkpt>
      <trkpt lat="46.06244" lon="6.33645">
        <ele>501</ele>
        <time>2013-07-27T12:20:13Z</time>
      </trkpt>
      <trkpt lat="46.06253" lon="6.33646">
        <ele>501</ele>
        <time>2013-07-27T12:20:14Z</time>
      </trkpt>
      <trkpt lat="46.06263" lon="6.33646">
        <ele>501</ele>
        <time>2013-07-27T12:20:15Z</time>
      </trkpt>
      <trkpt lat="46.06273" lon="6.3365">
        <ele>501</ele>
        <time>2013-07-27T12:20:16Z</time>
      </trkpt>
      <trkpt lat="46.06282" lon="6.33654">
        <ele>501</ele>
        <time>2013-07-27T12:20:17Z</time>
      </trkpt>
      <trkpt lat="46.06291" lon="6.33658">
        <ele>501</ele>
        <time>2013-07-27T12:20:18Z</time>
      </trkpt>
      <trkpt lat="46.063" lon="6.33662">
        <ele>501</ele>
        <time>2013-07-27T12:20:19Z</time>
      </trkpt>
      <trkpt lat="46.0631" lon="6.33665">
        <ele>501</ele>
        <time>2013-07-27T12:20:20Z</time>
      </trkpt>
      <trkpt lat="46.0632" lon="6.33665">
        <ele>501</ele>
        <time>2013-07-27T12:20:21Z</time>
      </trkpt>
      <trkpt lat="46.0633" lon="6.33664">
        <ele>501</ele>
        <time>2013-07-27T12:20:22Z</time>
      </trkpt>
      <trkpt lat="46.06341" lon="6.33661">
        <ele>501</ele>
        <time>2013-07-27T12:20:23Z</time>
      </trkpt>
      <trkpt lat="46.06353" lon="6.33658">
        <ele>495</ele>
        <time>2013-07-27T12:20:24Z</time>
      </trkpt>
      <trkpt lat="46.06364" lon="6.33657">
        <ele>495</ele>
        <time>2013-07-27T12:20:25Z</time>
      </trkpt>
      <trkpt lat="46.06374" lon="6.33657">
        <ele>495</ele>
        <time>2013-07-27T12:20:26Z</time>
      </trkpt>
      <trkpt lat="46.06383" lon="6.33658">
        <ele>495</ele>
        <time>2013-07-27T12:20:27Z</time>
      </trkpt>
      <trkpt lat="46.06397" lon="6.33668">
        <ele>495</ele>
        <time>2013-07-27T12:20:29Z</time>
      </trkpt>
      <trkpt lat="46.06412" lon="6.33683">
        <ele>495</ele>
        <time>2013-07-27T12:20:31Z</time>
      </trkpt>
      <trkpt lat="46.0642" lon="6.33692">
        <ele>495</ele>
        <time>2013-07-27T12:20:32Z</time>
      </trkpt>
      <trkpt lat="46.06427" lon="6.33704">
        <ele>495</ele>
        <time>2013-07-27T12:20:33Z</time>
      </trkpt>
      <trkpt lat="46.06434" lon="6.33718">
        <ele>495</ele>
        <time>2013-07-27T12:20:34Z</time>
      </trkpt>
      <trkpt lat="46.06439" lon="6.33735">
        <ele>495</ele>
        <time>2013-07-27T12:20:35Z</time>
      </trkpt>
      <trkpt lat="46.06442" lon="6.33753">
        <ele>490</ele>
        <time>2013-07-27T12:20:36Z</time>
      </trkpt>
      <trkpt lat="46.06446" lon="6.3377">
        <ele>490</ele>
        <time>2013-07-27T12:20:37Z</time>
      </trkpt>
      <trkpt lat="46.06449" lon="6.33787">
        <ele>490</ele>
        <time>2013-07-27T12:20:38Z</time>
      </trkpt>
      <trkpt lat="46.06454" lon="6.33801">
        <ele>490</ele>
        <time>2013-07-27T12:20:39Z</time>
      </trkpt>
      <trkpt lat="46.06459" lon="6.33814">
        <ele>490</ele>
        <time>2013-07-27T12:20:40Z</time>
      </trkpt>
      <trkpt lat="46.06465" lon="6.33832">
        <ele>484</ele>
        <time>2013-07-27T12:20:42Z</time>
      </trkpt>
      <trkpt lat="46.06464" lon="6.33848">
        <ele>484</ele>
        <time>2013-07-27T12:20:44Z</time>
      </trkpt>
      <trkpt lat="46.06454" lon="6.33866">
        <ele>484</ele>
        <time>2013-07-27T12:20:46Z</time>
      </trkpt>
      <trkpt lat="46.06447" lon="6.33876">
        <ele>484</ele>
        <time>2013-07-27T12:20:47Z</time>
      </trkpt>
      <trkpt lat="46.06438" lon="6.33888">
        <ele>484</ele>
        <time>2013-07-27T12:20:48Z</time>
      </trkpt>
      <trkpt lat="46.06429" lon="6.33899">
        <ele>484</ele>
        <time>2013-07-27T12:20:49Z</time>
      </trkpt>
      <trkpt lat="46.0642" lon="6.33908">
        <ele>484</ele>
        <time>2013-07-27T12:20:50Z</time>
      </trkpt>
      <trkpt lat="46.06406" lon="6.33922">
        <ele>484</ele>
        <time>2013-07-27T12:20:52Z</time>
      </trkpt>
      <trkpt lat="46.06395" lon="6.33941">
        <ele>491</ele>
        <time>2013-07-27T12:20:54Z</time>
      </trkpt>
      <trkpt lat="46.06393" lon="6.33956">
        <ele>491</ele>
        <time>2013-07-27T12:20:55Z</time>
      </trkpt>
      <trkpt lat="46.06391" lon="6.33973">
        <ele>491</ele>
        <time>2013-07-27T12:20:56Z</time>
      </trkpt>
      <trkpt lat="46.06389" lon="6.33989">
        <ele>491</ele>
        <time>2013-07-27T12:20:57Z</time>
      </trkpt>
      <trkpt lat="46.06389" lon="6.34006">
        <ele>491</ele>
        <time>2013-07-27T12:20:58Z</time>
      </trkpt>
      <trkpt lat="46.06389" lon="6.34021">
        <ele>497</ele>
        <time>2013-07-27T12:20:59Z</time>
      </trkpt>
      <trkpt lat="46.06389" lon="6.34036">
        <ele>497</ele>
        <time>2013-07-27T12:21:00Z</time>
      </trkpt>
      <trkpt lat="46.06387" lon="6.34052">
        <ele>497</ele>
        <time>2013-07-27T12:21:01Z</time>
      </trkpt>
      <trkpt lat="46.06385" lon="6.34068">
        <ele>497</ele>
        <time>2013-07-27T12:21:02Z</time>
      </trkpt>
      <trkpt lat="46.06381" lon="6.34086">
        <ele>497</ele>
        <time>2013-07-27T12:21:03Z</time>
      </trkpt>
      <trkpt lat="46.0638" lon="6.34106">
        <ele>503</ele>
        <time>2013-07-27T12:21:04Z</time>
      </trkpt>
      <trkpt lat="46.06377" lon="6.34124">
        <ele>503</ele>
        <time>2013-07-27T12:21:05Z</time>
      </trkpt>
      <trkpt lat="46.06375" lon="6.34142">
        <ele>503</ele>
        <time>2013-07-27T12:21:06Z</time>
      </trkpt>
      <trkpt lat="46.06372" lon="6.3416">
        <ele>503</ele>
        <time>2013-07-27T12:21:07Z</time>
      </trkpt>
      <trkpt lat="46.06369" lon="6.34177">
        <ele>503</ele>
        <time>2013-07-27T12:21:08Z</time>
      </trkpt>
      <trkpt lat="46.06367" lon="6.34193">
        <ele>503</ele>
        <time>2013-07-27T12:21:09Z</time>
      </trkpt>
      <trkpt lat="46.06362" lon="6.34216">
        <ele>503</ele>
        <time>2013-07-27T12:21:11Z</time>
      </trkpt>
      <trkpt lat="46.06349" lon="6.34236">
        <ele>503</ele>
        <time>2013-07-27T12:21:13Z</time>
      </trkpt>
      <trkpt lat="46.06339" lon="6.34243">
        <ele>503</ele>
        <time>2013-07-27T12:21:14Z</time>
      </trkpt>
      <trkpt lat="46.06327" lon="6.34247">
        <ele>497</ele>
        <time>2013-07-27T12:21:15Z</time>
      </trkpt>
      <trkpt lat="46.06317" lon="6.34253">
        <ele>497</ele>
        <time>2013-07-27T12:21:16Z</time>
      </trkpt>
      <trkpt lat="46.06309" lon="6.34259">
        <ele>497</ele>
        <time>2013-07-27T12:21:17Z</time>
      </trkpt>
      <trkpt lat="46.06298" lon="6.34267">
        <ele>497</ele>
        <time>2013-07-27T12:21:19Z</time>
      </trkpt>
      <trkpt lat="46.0629" lon="6.34287">
        <ele>497</ele>
        <time>2013-07-27T12:22:23Z</time>
      </trkpt>
      <trkpt lat="46.06286" lon="6.343">
        <ele>497</ele>
        <time>2013-07-27T12:22:24Z</time>
      </trkpt>
      <trkpt lat="46.06282" lon="6.34314">
        <ele>497</ele>
        <time>2013-07-27T12:22:25Z</time>
      </trkpt>
      <trkpt lat="46.06277" lon="6.34328">
        <ele>497</ele>
        <time>2013-07-27T12:22:26Z</time>
      </trkpt>
      <trkpt lat="46.06272" lon="6.34344">
        <ele>497</ele>
        <time>2013-07-27T12:22:27Z</time>
      </trkpt>
      <trkpt lat="46.06267" lon="6.34362">
        <ele>492</ele>
        <time>2013-07-27T12:22:28Z</time>
      </trkpt>
      <trkpt lat="46.06261" lon="6.34382">
        <ele>492</ele>
        <time>2013-07-27T12:22:29Z</time>
      </trkpt>
      <trkpt lat="46.06255" lon="6.34403">
        <ele>492</ele>
        <time>2013-07-27T12:22:30Z</time>
      </trkpt>
      <trkpt lat="46.0625" lon="6.34423">
        <ele>492</ele>
        <time>2013-07-27T12:22:31Z</time>
      </trkpt>
      <trkpt lat="46.06244" lon="6.3444">
        <ele>492</ele>
        <time>2013-07-27T12:22:32Z</time>
      </trkpt>
      <trkpt lat="46.0624" lon="6.34454">
        <ele>492</ele>
        <time>2013-07-27T12:22:33Z</time>
      </trkpt>
      <trkpt lat="46.06235" lon="6.34467">
        <ele>492</ele>
        <time>2013-07-27T12:22:34Z</time>
      </trkpt>
      <trkpt lat="46.06229" lon="6.34477">
        <ele>492</ele>
        <time>2013-07-27T12:22:35Z</time>
      </trkpt>
      <trkpt lat="46.06222" lon="6.34486">
        <ele>487</ele>
        <time>2013-07-27T12:22:36Z</time>
      </trkpt>
      <trkpt lat="46.06209" lon="6.34504">
        <ele>487</ele>
        <time>2013-07-27T12:22:38Z</time>
      </trkpt>
      <trkpt lat="46.06202" lon="6.34516">
        <ele>487</ele>
        <time>2013-07-27T12:22:39Z</time>
      </trkpt>
      <trkpt lat="46.06195" lon="6.34529">
        <ele>487</ele>
        <time>2013-07-27T12:22:40Z</time>
      </trkpt>
      <trkpt lat="46.06188" lon="6.3454">
        <ele>487</ele>
        <time>2013-07-27T12:22:41Z</time>
      </trkpt>
      <trkpt lat="46.06177" lon="6.34562">
        <ele>487</ele>
        <time>2013-07-27T12:22:43Z</time>
      </trkpt>
      <trkpt lat="46.06169" lon="6.34575">
        <ele>487</ele>
        <time>2013-07-27T12:22:44Z</time>
      </trkpt>
      <trkpt lat="46.0616" lon="6.34588">
        <ele>487</ele>
        <time>2013-07-27T12:22:45Z</time>
      </trkpt>
      <trkpt lat="46.06149" lon="6.34599">
        <ele>487</ele>
        <time>2013-07-27T12:22:46Z</time>
      </trkpt>
      <trkpt lat="46.06138" lon="6.34609">
        <ele>487</ele>
        <time>2013-07-27T12:22:47Z</time>
      </trkpt>
      <trkpt lat="46.06129" lon="6.34619">
        <ele>487</ele>
        <time>2013-07-27T12:22:48Z</time>
      </trkpt>
      <trkpt lat="46.0612" lon="6.34632">
        <ele>487</ele>
        <time>2013-07-27T12:22:49Z</time>
      </trkpt>
      <trkpt lat="46.06113" lon="6.34643">
        <ele>487</ele>
        <time>2013-07-27T12:22:50Z</time>
      </trkpt>
      <trkpt lat="46.06102" lon="6.3466">
        <ele>487</ele>
        <time>2013-07-27T12:22:52Z</time>
      </trkpt>
      <trkpt lat="46.06087" lon="6.34676">
        <ele>487</ele>
        <time>2013-07-27T12:22:54Z</time>
      </trkpt>
      <trkpt lat="46.06078" lon="6.34684">
        <ele>487</ele>
        <time>2013-07-27T12:22:55Z</time>
      </trkpt>
      <trkpt lat="46.0607" lon="6.34693">
        <ele>487</ele>
        <time>2013-07-27T12:22:56Z</time>
      </trkpt>
      <trkpt lat="46.06062" lon="6.34702">
        <ele>487</ele>
        <time>2013-07-27T12:22:57Z</time>
      </trkpt>
      <trkpt lat="46.06053" lon="6.34712">
        <ele>492</ele>
        <time>2013-07-27T12:22:58Z</time>
      </trkpt>
      <trkpt lat="46.06045" lon="6.3472">
        <ele>492</ele>
        <time>2013-07-27T12:22:59Z</time>
      </trkpt>
      <trkpt lat="46.06036" lon="6.34728">
        <ele>492</ele>
        <time>2013-07-27T12:23:00Z</time>
      </trkpt>
      <trkpt lat="46.06028" lon="6.34736">
        <ele>492</ele>
        <time>2013-07-27T12:23:01Z</time>
      </trkpt>
      <trkpt lat="46.06016" lon="6.34753">
        <ele>492</ele>
        <time>2013-07-27T12:23:03Z</time>
      </trkpt>
      <trkpt lat="46.06005" lon="6.34775">
        <ele>492</ele>
        <time>2013-07-27T12:23:05Z</time>
      </trkpt>
      <trkpt lat="46.06" lon="6.34786">
        <ele>492</ele>
        <time>2013-07-27T12:23:06Z</time>
      </trkpt>
      <trkpt lat="46.05995" lon="6.34799">
        <ele>492</ele>
        <time>2013-07-27T12:23:07Z</time>
      </trkpt>
      <trkpt lat="46.0599" lon="6.34812">
        <ele>492</ele>
        <time>2013-07-27T12:23:08Z</time>
      </trkpt>
      <trkpt lat="46.05986" lon="6.34825">
        <ele>492</ele>
        <time>2013-07-27T12:23:09Z</time>
      </trkpt>
      <trkpt lat="46.05978" lon="6.34844">
        <ele>492</ele>
        <time>2013-07-27T12:23:11Z</time>
      </trkpt>
      <trkpt lat="46.05972" lon="6.34857">
        <ele>492</ele>
        <time>2013-07-27T12:23:13Z</time>
      </trkpt>
      <trkpt lat="46.05975" lon="6.34871">
        <ele>492</ele>
        <time>2013-07-27T12:23:17Z</time>
      </trkpt>
      <trkpt lat="46.05983" lon="6.3488">
        <ele>492</ele>
        <time>2013-07-27T12:23:19Z</time>
      </trkpt>
      <trkpt lat="46.05992" lon="6.3489">
        <ele>492</ele>
        <time>2013-07-27T12:23:21Z</time>
      </trkpt>
      <trkpt lat="46.06" lon="6.349">
        <ele>492</ele>
        <time>2013-07-27T12:23:23Z</time>
      </trkpt>
      <trkpt lat="46.06008" lon="6.34909">
        <ele>492</ele>
        <time>2013-07-27T12:23:25Z</time>
      </trkpt>
      <trkpt lat="46.06014" lon="6.34919">
        <ele>492</ele>
        <time>2013-07-27T12:23:27Z</time>
      </trkpt>
      <trkpt lat="46.0602" lon="6.34932">
        <ele>492</ele>
        <time>2013-07-27T12:23:29Z</time>
      </trkpt>
      <trkpt lat="46.06022" lon="6.34952">
        <ele>487</ele>
        <time>2013-07-27T12:23:31Z</time>
      </trkpt>
      <trkpt lat="46.06018" lon="6.34976">
        <ele>487</ele>
        <time>2013-07-27T12:23:33Z</time>
      </trkpt>
      <trkpt lat="46.06012" lon="6.34999">
        <ele>487</ele>
        <time>2013-07-27T12:23:35Z</time>
      </trkpt>
      <trkpt lat="46.06009" lon="6.35012">
        <ele>487</ele>
        <time>2013-07-27T12:23:36Z</time>
      </trkpt>
      <trkpt lat="46.06003" lon="6.35037">
        <ele>487</ele>
        <time>2013-07-27T12:23:38Z</time>
      </trkpt>
      <trkpt lat="46.06002" lon="6.3506">
        <ele>487</ele>
        <time>2013-07-27T12:23:40Z</time>
      </trkpt>
      <trkpt lat="46.06008" lon="6.35081">
        <ele>487</ele>
        <time>2013-07-27T12:23:42Z</time>
      </trkpt>
      <trkpt lat="46.06019" lon="6.35101">
        <ele>487</ele>
        <time>2013-07-27T12:23:44Z</time>
      </trkpt>
      <trkpt lat="46.06025" lon="6.35124">
        <ele>487</ele>
        <time>2013-07-27T12:23:46Z</time>
      </trkpt>
      <trkpt lat="46.06025" lon="6.35139">
        <ele>487</ele>
        <time>2013-07-27T12:23:47Z</time>
      </trkpt>
      <trkpt lat="46.06023" lon="6.35154">
        <ele>487</ele>
        <time>2013-07-27T12:23:48Z</time>
      </trkpt>
      <trkpt lat="46.06022" lon="6.35171">
        <ele>487</ele>
        <time>2013-07-27T12:23:49Z</time>
      </trkpt>
      <trkpt lat="46.0602" lon="6.35187">
        <ele>487</ele>
        <time>2013-07-27T12:23:50Z</time>
      </trkpt>
      <trkpt lat="46.06019" lon="6.35205">
        <ele>487</ele>
        <time>2013-07-27T12:23:51Z</time>
      </trkpt>
      <trkpt lat="46.06018" lon="6.35222">
        <ele>487</ele>
        <time>2013-07-27T12:23:52Z</time>
      </trkpt>
      <trkpt lat="46.06017" lon="6.35239">
        <ele>487</ele>
        <time>2013-07-27T12:23:53Z</time>
      </trkpt>
      <trkpt lat="46.06015" lon="6.35257">
        <ele>487</ele>
        <time>2013-07-27T12:23:54Z</time>
      </trkpt>
      <trkpt lat="46.06013" lon="6.35275">
        <ele>487</ele>
        <time>2013-07-27T12:23:55Z</time>
      </trkpt>
      <trkpt lat="46.06012" lon="6.35293">
        <ele>487</ele>
        <time>2013-07-27T12:23:56Z</time>
      </trkpt>
      <trkpt lat="46.0601" lon="6.35312">
        <ele>487</ele>
        <time>2013-07-27T12:23:57Z</time>
      </trkpt>
      <trkpt lat="46.06009" lon="6.3533">
        <ele>487</ele>
        <time>2013-07-27T12:23:58Z</time>
      </trkpt>
      <trkpt lat="46.06008" lon="6.35349">
        <ele>487</ele>
        <time>2013-07-27T12:23:59Z</time>
      </trkpt>
      <trkpt lat="46.06007" lon="6.35368">
        <ele>487</ele>
        <time>2013-07-27T12:24:00Z</time>
      </trkpt>
      <trkpt lat="46.06005" lon="6.35388">
        <ele>487</ele>
        <time>2013-07-27T12:24:01Z</time>
      </trkpt>
      <trkpt lat="46.06003" lon="6.35407">
        <ele>487</ele>
        <time>2013-07-27T12:24:02Z</time>
      </trkpt>
      <trkpt lat="46.06002" lon="6.35425">
        <ele>487</ele>
        <time>2013-07-27T12:24:03Z</time>
      </trkpt>
      <trkpt lat="46.06" lon="6.35442">
        <ele>487</ele>
        <time>2013-07-27T12:24:04Z</time>
      </trkpt>
      <trkpt lat="46.06" lon="6.35458">
        <ele>487</ele>
        <time>2013-07-27T12:24:05Z</time>
      </trkpt>
      <trkpt lat="46.05998" lon="6.35473">
        <ele>487</ele>
        <time>2013-07-27T12:24:06Z</time>
      </trkpt>
      <trkpt lat="46.05997" lon="6.35493">
        <ele>487</ele>
        <time>2013-07-27T12:24:08Z</time>
      </trkpt>
      <trkpt lat="46.05995" lon="6.35516">
        <ele>487</ele>
        <time>2013-07-27T12:24:10Z</time>
      </trkpt>
      <trkpt lat="46.05994" lon="6.3553">
        <ele>487</ele>
        <time>2013-07-27T12:24:11Z</time>
      </trkpt>
      <trkpt lat="46.05993" lon="6.35546">
        <ele>487</ele>
        <time>2013-07-27T12:24:12Z</time>
      </trkpt>
      <trkpt lat="46.05992" lon="6.35565">
        <ele>487</ele>
        <time>2013-07-27T12:24:13Z</time>
      </trkpt>
      <trkpt lat="46.0599" lon="6.35586">
        <ele>487</ele>
        <time>2013-07-27T12:24:14Z</time>
      </trkpt>
      <trkpt lat="46.05989" lon="6.35607">
        <ele>487</ele>
        <time>2013-07-27T12:24:15Z</time>
      </trkpt>
      <trkpt lat="46.05988" lon="6.35629">
        <ele>487</ele>
        <time>2013-07-27T12:24:16Z</time>
      </trkpt>
      <trkpt lat="46.05987" lon="6.35651">
        <ele>487</ele>
        <time>2013-07-27T12:24:17Z</time>
      </trkpt>
      <trkpt lat="46.05986" lon="6.35672">
        <ele>487</ele>
        <time>2013-07-27T12:24:18Z</time>
      </trkpt>
      <trkpt lat="46.05985" lon="6.35692">
        <ele>487</ele>
        <time>2013-07-27T12:24:19Z</time>
      </trkpt>
      <trkpt lat="46.05984" lon="6.35711">
        <ele>482</ele>
        <time>2013-07-27T12:24:20Z</time>
      </trkpt>
      <trkpt lat="46.05983" lon="6.35729">
        <ele>482</ele>
        <time>2013-07-27T12:24:21Z</time>
      </trkpt>
      <trkpt lat="46.05982" lon="6.35746">
        <ele>482</ele>
        <time>2013-07-27T12:24:22Z</time>
      </trkpt>
      <trkpt lat="46.05979" lon="6.35763">
        <ele>482</ele>
        <time>2013-07-27T12:24:23Z</time>
      </trkpt>
      <trkpt lat="46.05976" lon="6.3578">
        <ele>482</ele>
        <time>2013-07-27T12:24:24Z</time>
      </trkpt>
      <trkpt lat="46.05971" lon="6.35798">
        <ele>482</ele>
        <time>2013-07-27T12:24:25Z</time>
      </trkpt>
      <trkpt lat="46.05967" lon="6.35817">
        <ele>482</ele>
        <time>2013-07-27T12:24:26Z</time>
      </trkpt>
      <trkpt lat="46.05963" lon="6.35837">
        <ele>482</ele>
        <time>2013-07-27T12:24:27Z</time>
      </trkpt>
      <trkpt lat="46.05959" lon="6.35859">
        <ele>482</ele>
        <time>2013-07-27T12:24:28Z</time>
      </trkpt>
      <trkpt lat="46.05955" lon="6.35881">
        <ele>482</ele>
        <time>2013-07-27T12:24:29Z</time>
      </trkpt>
      <trkpt lat="46.05951" lon="6.35902">
        <ele>482</ele>
        <time>2013-07-27T12:24:30Z</time>
      </trkpt>
      <trkpt lat="46.05947" lon="6.35923">
        <ele>482</ele>
        <time>2013-07-27T12:24:31Z</time>
      </trkpt>
      <trkpt lat="46.05945" lon="6.35941">
        <ele>482</ele>
        <time>2013-07-27T12:24:32Z</time>
      </trkpt>
      <trkpt lat="46.05942" lon="6.35959">
        <ele>482</ele>
        <time>2013-07-27T12:24:33Z</time>
      </trkpt>
      <trkpt lat="46.05939" lon="6.35976">
        <ele>482</ele>
        <time>2013-07-27T12:24:34Z</time>
      </trkpt>
      <trkpt lat="46.05936" lon="6.35994">
        <ele>482</ele>
        <time>2013-07-27T12:24:35Z</time>
      </trkpt>
      <trkpt lat="46.05935" lon="6.3601">
        <ele>482</ele>
        <time>2013-07-27T12:24:36Z</time>
      </trkpt>
      <trkpt lat="46.05932" lon="6.36027">
        <ele>482</ele>
        <time>2013-07-27T12:24:37Z</time>
      </trkpt>
      <trkpt lat="46.0593" lon="6.36043">
        <ele>482</ele>
        <time>2013-07-27T12:24:38Z</time>
      </trkpt>
      <trkpt lat="46.05927" lon="6.3606">
        <ele>482</ele>
        <time>2013-07-27T12:24:39Z</time>
      </trkpt>
      <trkpt lat="46.05924" lon="6.36077">
        <ele>482</ele>
        <time>2013-07-27T12:24:40Z</time>
      </trkpt>
      <trkpt lat="46.05921" lon="6.36094">
        <ele>482</ele>
        <time>2013-07-27T12:24:41Z</time>
      </trkpt>
      <trkpt lat="46.05918" lon="6.36111">
        <ele>482</ele>
        <time>2013-07-27T12:24:42Z</time>
      </trkpt>
      <trkpt lat="46.05915" lon="6.36129">
        <ele>482</ele>
        <time>2013-07-27T12:24:43Z</time>
      </trkpt>
      <trkpt lat="46.05911" lon="6.36147">
        <ele>482</ele>
        <time>2013-07-27T12:24:44Z</time>
      </trkpt>
      <trkpt lat="46.05908" lon="6.36164">
        <ele>482</ele>
        <time>2013-07-27T12:24:45Z</time>
      </trkpt>
      <trkpt lat="46.05905" lon="6.36181">
        <ele>482</ele>
        <time>2013-07-27T12:24:46Z</time>
      </trkpt>
      <trkpt lat="46.05903" lon="6.36195">
        <ele>482</ele>
        <time>2013-07-27T12:24:47Z</time>
      </trkpt>
      <trkpt lat="46.059" lon="6.36208">
        <ele>482</ele>
        <time>2013-07-27T12:24:48Z</time>
      </trkpt>
      <trkpt lat="46.05898" lon="6.36227">
        <ele>482</ele>
        <time>2013-07-27T12:24:50Z</time>
      </trkpt>
      <trkpt lat="46.05904" lon="6.36239">
        <ele>482</ele>
        <time>2013-07-27T12:24:52Z</time>
      </trkpt>
      <trkpt lat="46.05922" lon="6.36249">
        <ele>482</ele>
        <time>2013-07-27T12:24:54Z</time>
      </trkpt>
      <trkpt lat="46.05931" lon="6.36255">
        <ele>482</ele>
        <time>2013-07-27T12:24:55Z</time>
      </trkpt>
      <trkpt lat="46.05946" lon="6.36265">
        <ele>482</ele>
        <time>2013-07-27T12:24:57Z</time>
      </trkpt>
      <trkpt lat="46.05959" lon="6.36282">
        <ele>482</ele>
        <time>2013-07-27T12:24:59Z</time>
      </trkpt>
      <trkpt lat="46.05962" lon="6.36296">
        <ele>482</ele>
        <time>2013-07-27T12:25:00Z</time>
      </trkpt>
      <trkpt lat="46.05963" lon="6.36309">
        <ele>482</ele>
        <time>2013-07-27T12:25:01Z</time>
      </trkpt>
      <trkpt lat="46.05963" lon="6.36323">
        <ele>482</ele>
        <time>2013-07-27T12:25:02Z</time>
      </trkpt>
      <trkpt lat="46.05965" lon="6.36342">
        <ele>482</ele>
        <time>2013-07-27T12:25:04Z</time>
      </trkpt>
      <trkpt lat="46.05965" lon="6.36356">
        <ele>482</ele>
        <time>2013-07-27T12:25:06Z</time>
      </trkpt>
      <trkpt lat="46.05964" lon="6.36374">
        <ele>482</ele>
        <time>2013-07-27T12:25:08Z</time>
      </trkpt>
      <trkpt lat="46.05962" lon="6.36396">
        <ele>482</ele>
        <time>2013-07-27T12:25:10Z</time>
      </trkpt>
      <trkpt lat="46.05963" lon="6.3642">
        <ele>482</ele>
        <time>2013-07-27T12:25:12Z</time>
      </trkpt>
      <trkpt lat="46.05966" lon="6.36433">
        <ele>482</ele>
        <time>2013-07-27T12:25:13Z</time>
      </trkpt>
      <trkpt lat="46.05968" lon="6.36447">
        <ele>482</ele>
        <time>2013-07-27T12:25:14Z</time>
      </trkpt>
      <trkpt lat="46.05973" lon="6.36472">
        <ele>482</ele>
        <time>2013-07-27T12:25:16Z</time>
      </trkpt>
      <trkpt lat="46.05975" lon="6.36485">
        <ele>482</ele>
        <time>2013-07-27T12:25:17Z</time>
      </trkpt>
      <trkpt lat="46.05977" lon="6.365">
        <ele>482</ele>
        <time>2013-07-27T12:25:18Z</time>
      </trkpt>
      <trkpt lat="46.05978" lon="6.36513">
        <ele>482</ele>
        <time>2013-07-27T12:25:19Z</time>
      </trkpt>
      <trkpt lat="46.05978" lon="6.36526">
        <ele>482</ele>
        <time>2013-07-27T12:25:20Z</time>
      </trkpt>
      <trkpt lat="46.05979" lon="6.3654">
        <ele>482</ele>
        <time>2013-07-27T12:25:21Z</time>
      </trkpt>
      <trkpt lat="46.0598" lon="6.36566">
        <ele>482</ele>
        <time>2013-07-27T12:25:23Z</time>
      </trkpt>
      <trkpt lat="46.05981" lon="6.3658">
        <ele>482</ele>
        <time>2013-07-27T12:25:24Z</time>
      </trkpt>
      <trkpt lat="46.05982" lon="6.36595">
        <ele>482</ele>
        <time>2013-07-27T12:25:25Z</time>
      </trkpt>
      <trkpt lat="46.05982" lon="6.3661">
        <ele>482</ele>
        <time>2013-07-27T12:25:26Z</time>
      </trkpt>
      <trkpt lat="46.05982" lon="6.36625">
        <ele>482</ele>
        <time>2013-07-27T12:25:27Z</time>
      </trkpt>
      <trkpt lat="46.05982" lon="6.3664">
        <ele>482</ele>
        <time>2013-07-27T12:25:28Z</time>
      </trkpt>
      <trkpt lat="46.05982" lon="6.36653">
        <ele>482</ele>
        <time>2013-07-27T12:25:29Z</time>
      </trkpt>
      <trkpt lat="46.0598" lon="6.36677">
        <ele>482</ele>
        <time>2013-07-27T12:25:31Z</time>
      </trkpt>
      <trkpt lat="46.05978" lon="6.36698">
        <ele>482</ele>
        <time>2013-07-27T12:25:33Z</time>
      </trkpt>
      <trkpt lat="46.05975" lon="6.36717">
        <ele>482</ele>
        <time>2013-07-27T12:25:35Z</time>
      </trkpt>
      <trkpt lat="46.05973" lon="6.36738">
        <ele>482</ele>
        <time>2013-07-27T12:25:37Z</time>
      </trkpt>
      <trkpt lat="46.05972" lon="6.36763">
        <ele>482</ele>
        <time>2013-07-27T12:25:39Z</time>
      </trkpt>
      <trkpt lat="46.05971" lon="6.36787">
        <ele>482</ele>
        <time>2013-07-27T12:25:41Z</time>
      </trkpt>
      <trkpt lat="46.0597" lon="6.368">
        <ele>482</ele>
        <time>2013-07-27T12:25:42Z</time>
      </trkpt>
      <trkpt lat="46.05969" lon="6.36814">
        <ele>482</ele>
        <time>2013-07-27T12:25:43Z</time>
      </trkpt>
      <trkpt lat="46.05968" lon="6.36829">
        <ele>482</ele>
        <time>2013-07-27T12:25:44Z</time>
      </trkpt>
      <trkpt lat="46.05967" lon="6.36845">
        <ele>482</ele>
        <time>2013-07-27T12:25:45Z</time>
      </trkpt>
      <trkpt lat="46.05966" lon="6.3686">
        <ele>482</ele>
        <time>2013-07-27T12:25:46Z</time>
      </trkpt>
      <trkpt lat="46.05965" lon="6.36874">
        <ele>482</ele>
        <time>2013-07-27T12:25:47Z</time>
      </trkpt>
      <trkpt lat="46.05963" lon="6.3689">
        <ele>482</ele>
        <time>2013-07-27T12:25:48Z</time>
      </trkpt>
      <trkpt lat="46.0596" lon="6.36906">
        <ele>482</ele>
        <time>2013-07-27T12:25:49Z</time>
      </trkpt>
      <trkpt lat="46.05956" lon="6.36922">
        <ele>482</ele>
        <time>2013-07-27T12:25:50Z</time>
      </trkpt>
      <trkpt lat="46.05952" lon="6.36938">
        <ele>482</ele>
        <time>2013-07-27T12:25:51Z</time>
      </trkpt>
      <trkpt lat="46.05949" lon="6.36952">
        <ele>482</ele>
        <time>2013-07-27T12:25:52Z</time>
      </trkpt>
      <trkpt lat="46.05946" lon="6.36967">
        <ele>482</ele>
        <time>2013-07-27T12:25:53Z</time>
      </trkpt>
      <trkpt lat="46.05943" lon="6.3698">
        <ele>482</ele>
        <time>2013-07-27T12:25:54Z</time>
      </trkpt>
      <trkpt lat="46.05941" lon="6.36994">
        <ele>482</ele>
        <time>2013-07-27T12:25:55Z</time>
      </trkpt>
      <trkpt lat="46.05939" lon="6.37019">
        <ele>482</ele>
        <time>2013-07-27T12:25:57Z</time>
      </trkpt>
      <trkpt lat="46.05939" lon="6.37033">
        <ele>482</ele>
        <time>2013-07-27T12:25:58Z</time>
      </trkpt>
      <trkpt lat="46.0594" lon="6.37048">
        <ele>482</ele>
        <time>2013-07-27T12:25:59Z</time>
      </trkpt>
      <trkpt lat="46.05942" lon="6.37062">
        <ele>482</ele>
        <time>2013-07-27T12:26:00Z</time>
      </trkpt>
      <trkpt lat="46.05944" lon="6.37075">
        <ele>482</ele>
        <time>2013-07-27T12:26:01Z</time>
      </trkpt>
      <trkpt lat="46.05948" lon="6.37101">
        <ele>482</ele>
        <time>2013-07-27T12:26:03Z</time>
      </trkpt>
      <trkpt lat="46.05951" lon="6.37126">
        <ele>482</ele>
        <time>2013-07-27T12:26:05Z</time>
      </trkpt>
      <trkpt lat="46.05953" lon="6.3715">
        <ele>482</ele>
        <time>2013-07-27T12:26:07Z</time>
      </trkpt>
      <trkpt lat="46.05955" lon="6.37176">
        <ele>487</ele>
        <time>2013-07-27T12:26:09Z</time>
      </trkpt>
      <trkpt lat="46.05956" lon="6.37189">
        <ele>487</ele>
        <time>2013-07-27T12:26:10Z</time>
      </trkpt>
      <trkpt lat="46.05956" lon="6.37203">
        <ele>487</ele>
        <time>2013-07-27T12:26:11Z</time>
      </trkpt>
      <trkpt lat="46.05957" lon="6.37216">
        <ele>487</ele>
        <time>2013-07-27T12:26:12Z</time>
      </trkpt>
      <trkpt lat="46.05956" lon="6.37241">
        <ele>487</ele>
        <time>2013-07-27T12:26:14Z</time>
      </trkpt>
      <trkpt lat="46.05954" lon="6.37263">
        <ele>487</ele>
        <time>2013-07-27T12:26:16Z</time>
      </trkpt>
      <trkpt lat="46.05951" lon="6.37286">
        <ele>487</ele>
        <time>2013-07-27T12:26:18Z</time>
      </trkpt>
      <trkpt lat="46.05949" lon="6.37306">
        <ele>487</ele>
        <time>2013-07-27T12:26:20Z</time>
      </trkpt>
      <trkpt lat="46.05948" lon="6.37323">
        <ele>487</ele>
        <time>2013-07-27T12:26:22Z</time>
      </trkpt>
      <trkpt lat="46.05955" lon="6.37337">
        <ele>487</ele>
        <time>2013-07-27T12:26:25Z</time>
      </trkpt>
      <trkpt lat="46.05958" lon="6.37351">
        <ele>487</ele>
        <time>2013-07-27T12:26:28Z</time>
      </trkpt>
      <trkpt lat="46.05954" lon="6.37367">
        <ele>487</ele>
        <time>2013-07-27T12:26:31Z</time>
      </trkpt>
      <trkpt lat="46.05956" lon="6.37355">
        <ele>487</ele>
        <time>2013-07-27T12:26:38Z</time>
      </trkpt>
    </trkseg>
  </trk>
</gpx>